GFSCGP_prec_precacc_018.txt.gz
Total_Precipitation_Accumulation
0.10 0.21 0.19 0.10 0.04 0.03 0.02 0.05 0.02 0.00 0.00 0.01 0.00 0.00 0.00 0.00 0.00 0.00 0.00 0.00 0.00 0.00 0.00 0.00 0.00 0.00 0.00 0.00 0.00 0.00 0.00 0.00 0.00 0.00 0.00 0.00 0.00 0.00 0.00 0.00 0.00 0.00 0.00 0.00
0.23 0.19 0.04 0.09 0.06 0.05 0.06 0.06 0.03 0.01 0.02 0.04 0.00 0.00 0.00 0.00 0.00 0.00 0.00 0.00 0.00 0.00 0.00 0.00 0.00 0.00 0.00 0.00 0.00 0.00 0.00 0.00 0.00 0.00 0.00 0.00 0.00 0.00 0.00 0.00 0.00 0.00 0.00 0.00
0.22 0.18 0.05 0.14 0.13 0.09 0.07 0.07 0.04 0.03 0.05 0.04 0.02 0.00 0.00 0.00 0.00 0.00 0.00 0.00 0.00 0.00 0.00 0.00 0.00 0.00 0.00 0.00 0.00 0.00 0.00 0.00 0.00 0.00 0.00 0.00 0.00 0.00 0.00 0.00 0.00 0.00 0.00 0.00
0.21 0.19 0.18 0.17 0.25 0.09 0.06 0.03 0.04 0.07 0.15 0.05 0.07 0.03 0.00 0.00 0.00 0.00 0.00 0.00 0.00 0.00 0.00 0.00 0.00 0.00 0.00 0.00 0.00 0.00 0.00 0.00 0.00 0.00 0.00 0.00 0.00 0.00 0.00 0.00 0.00 0.00 0.00 0.00
0.42 0.24 0.31 0.19 0.28 0.09 0.09 0.02 0.04 0.07 0.21 0.31 0.07 0.06 0.01 0.00 0.00 0.00 0.00 0.00 0.00 0.00 0.00 0.00 0.00 0.00 0.00 0.00 0.00 0.00 0.00 0.00 0.00 0.00 0.00 0.00 0.00 0.00 0.00 0.00 0.00 0.00 0.00 0.00
0.26 0.18 0.30 0.19 0.17 0.16 0.09 0.12 0.12 0.18 0.27 0.43 0.34 0.09 0.02 0.00 0.00 0.00 0.00 0.00 0.00 0.00 0.00 0.00 0.00 0.00 0.00 0.00 0.00 0.00 0.00 0.00 0.00 0.00 0.00 0.00 0.00 0.00 0.00 0.00 0.00 0.00 0.00 0.00
0.78 0.55 0.48 0.23 0.35 0.50 0.36 0.42 0.62 0.56 0.59 0.31 0.07 0.24 0.11 0.00 0.00 0.00 0.00 0.00 0.00 0.00 0.00 0.00 0.00 0.00 0.00 0.00 0.00 0.00 0.00 0.00 0.00 0.00 0.00 0.00 0.00 0.00 0.00 0.00 0.00 0.00 0.00 0.00
0.68 0.62 0.49 0.29 0.46 0.77 0.58 0.46 0.58 0.32 0.29 0.13 0.05 0.07 0.03 0.00 0.00 0.00 0.00 0.00 0.00 0.00 0.00 0.00 0.00 0.00 0.00 0.00 0.00 0.00 0.00 0.00 0.00 0.00 0.00 0.00 0.00 0.00 0.00 0.00 0.00 0.00 0.00 0.00
0.42 0.51 0.31 0.18 0.22 0.47 0.56 0.52 0.37 0.32 0.08 0.16 0.09 0.02 0.00 0.00 0.00 0.00 0.00 0.00 0.00 0.00 0.00 0.00 0.00 0.00 0.00 0.00 0.00 0.00 0.00 0.00 0.00 0.00 0.00 0.00 0.00 0.00 0.00 0.00 0.00 0.00 0.00 0.00
0.33 0.56 0.53 0.49 0.39 0.55 0.49 0.31 0.40 0.63 0.26 0.11 0.10 0.06 0.00 0.00 0.00 0.00 0.00 0.00 0.00 0.00 0.00 0.00 0.00 0.00 0.00 0.00 0.00 0.00 0.00 0.00 0.00 0.00 0.00 0.00 0.00 0.00 0.00 0.00 0.00 0.00 0.00 0.00
0.44 0.59 0.62 0.86 0.74 0.53 0.53 0.49 0.36 0.43 0.22 0.10 0.04 0.08 0.01 0.00 0.00 0.01 0.00 0.00 0.00 0.00 0.00 0.00 0.00 0.00 0.00 0.00 0.00 0.00 0.00 0.00 0.00 0.00 0.00 0.00 0.00 0.00 0.00 0.00 0.00 0.00 0.00 0.00
0.38 0.51 0.66 0.53 0.20 0.15 0.22 0.24 0.11 0.44 0.30 0.11 0.04 0.00 0.01 0.00 0.00 0.01 0.01 0.00 0.00 0.00 0.00 0.00 0.00 0.00 0.00 0.00 0.00 0.00 0.00 0.00 0.00 0.00 0.00 0.00 0.00 0.00 0.00 0.00 0.00 0.00 0.00 0.00
0.28 0.59 0.60 0.56 0.32 0.31 0.35 0.26 0.12 0.25 0.55 0.22 0.13 0.01 0.00 0.00 0.00 0.00 0.00 0.00 0.00 0.00 0.00 0.00 0.00 0.00 0.00 0.00 0.00 0.00 0.00 0.00 0.00 0.00 0.00 0.00 0.00 0.00 0.00 0.00 0.00 0.00 0.00 0.00
0.55 0.42 0.57 0.48 0.24 0.15 0.13 0.16 0.20 0.30 0.54 0.23 0.09 0.02 0.00 0.00 0.00 0.00 0.00 0.00 0.00 0.00 0.00 0.00 0.00 0.00 0.00 0.00 0.00 0.00 0.00 0.00 0.00 0.00 0.00 0.00 0.00 0.00 0.00 0.00 0.00 0.00 0.00 0.00
0.47 0.65 0.88 0.39 0.09 0.10 0.03 0.10 0.13 0.29 0.34 0.23 0.06 0.02 0.00 0.00 0.00 0.00 0.00 0.00 0.00 0.00 0.00 0.00 0.00 0.00 0.00 0.00 0.00 0.00 0.00 0.00 0.00 0.00 0.00 0.00 0.00 0.00 0.00 0.00 0.00 0.00 0.00 0.00
0.18 0.48 0.56 0.21 0.02 0.04 0.03 0.07 0.09 0.13 0.27 0.33 0.11 0.04 0.00 0.00 0.00 0.00 0.00 0.00 0.00 0.00 0.00 0.00 0.00 0.00 0.00 0.00 0.00 0.00 0.00 0.00 0.00 0.00 0.00 0.00 0.00 0.00 0.00 0.00 0.00 0.00 0.00 0.00
0.07 0.17 0.28 0.15 0.10 0.08 0.13 0.11 0.09 0.11 0.15 0.23 0.14 0.03 0.00 0.00 0.00 0.00 0.00 0.00 0.00 0.00 0.00 0.00 0.00 0.00 0.00 0.00 0.00 0.00 0.00 0.00 0.00 0.00 0.00 0.00 0.00 0.00 0.00 0.00 0.00 0.00 0.00 0.00
0.02 0.04 0.05 0.03 0.04 0.02 0.02 0.01 0.01 0.04 0.03 0.04 0.04 0.00 0.00 0.00 0.00 0.00 0.00 0.00 0.00 0.00 0.00 0.00 0.00 0.00 0.00 0.00 0.00 0.00 0.00 0.00 0.00 0.00 0.00 0.00 0.00 0.00 0.00 0.00 0.00 0.00 0.00 0.00
0.01 0.08 0.08 0.00 0.01 0.00 0.00 0.00 0.00 0.00 0.00 0.00 0.00 0.00 0.00 0.00 0.00 0.00 0.00 0.00 0.00 0.00 0.00 0.00 0.00 0.00 0.00 0.00 0.00 0.00 0.00 0.00 0.00 0.00 0.00 0.00 0.00 0.00 0.00 0.00 0.00 0.00 0.00 0.00
0.02 0.07 0.16 0.04 0.00 0.00 0.00 0.00 0.00 0.00 0.00 0.00 0.00 0.00 0.00 0.00 0.00 0.00 0.00 0.00 0.00 0.00 0.00 0.00 0.00 0.00 0.00 0.00 0.00 0.00 0.00 0.00 0.00 0.00 0.00 0.00 0.00 0.00 0.00 0.00 0.00 0.00 0.00 0.00
0.06 0.08 0.13 0.08 0.02 0.00 0.00 0.00 0.00 0.00 0.00 0.00 0.00 0.00 0.00 0.00 0.00 0.00 0.00 0.00 0.00 0.00 0.00 0.00 0.00 0.00 0.00 0.00 0.00 0.00 0.00 0.00 0.00 0.00 0.00 0.00 0.00 0.00 0.00 0.00 0.00 0.00 0.00 0.00
0.01 0.02 0.02 0.06 0.04 0.00 0.00 0.00 0.00 0.00 0.00 0.00 0.00 0.00 0.00 0.00 0.00 0.00 0.00 0.00 0.00 0.00 0.00 0.00 0.00 0.00 0.00 0.00 0.00 0.00 0.00 0.00 0.00 0.00 0.00 0.00 0.00 0.00 0.00 0.00 0.00 0.00 0.00 0.00
0.00 0.00 0.00 0.00 0.00 0.00 0.00 0.00 0.00 0.00 0.00 0.00 0.00 0.00 0.00 0.00 0.00 0.00 0.00 0.00 0.00 0.00 0.00 0.00 0.00 0.00 0.00 0.00 0.00 0.00 0.00 0.00 0.00 0.00 0.00 0.00 0.00 0.00 0.00 0.00 0.00 0.00 0.00 0.00
0.00 0.00 0.00 0.00 0.00 0.00 0.00 0.00 0.00 0.00 0.00 0.00 0.00 0.00 0.00 0.00 0.00 0.00 0.00 0.00 0.00 0.00 0.00 0.00 0.00 0.00 0.00 0.00 0.00 0.00 0.00 0.00 0.00 0.00 0.00 0.00 0.00 0.00 0.00 0.00 0.00 0.00 0.00 0.00
0.00 0.00 0.00 0.00 0.00 0.00 0.00 0.00 0.00 0.00 0.00 0.00 0.00 0.00 0.00 0.00 0.00 0.00 0.00 0.00 0.00 0.00 0.00 0.00 0.00 0.00 0.00 0.00 0.00 0.00 0.00 0.00 0.00 0.00 0.00 0.00 0.00 0.00 0.00 0.00 0.00 0.00 0.00 0.00
0.00 0.00 0.00 0.00 0.00 0.00 0.00 0.00 0.00 0.00 0.00 0.00 0.00 0.00 0.00 0.00 0.00 0.00 0.00 0.00 0.00 0.00 0.00 0.00 0.00 0.00 0.00 0.00 0.00 0.00 0.00 0.00 0.00 0.00 0.00 0.00 0.00 0.00 0.00 0.00 0.00 0.00 0.00 0.00

GFSCGP_prec_precacc_021.txt.gz
Total_Precipitation_Accumulation
0.10 0.21 0.19 0.10 0.04 0.03 0.02 0.05 0.02 0.00 0.00 0.01 0.00 0.00 0.00 0.00 0.00 0.00 0.00 0.00 0.00 0.00 0.00 0.00 0.00 0.00 0.00 0.00 0.00 0.00 0.00 0.00 0.00 0.00 0.00 0.00 0.00 0.00 0.00 0.00 0.00 0.00 0.00 0.00
0.23 0.19 0.04 0.09 0.06 0.05 0.06 0.06 0.03 0.01 0.02 0.04 0.00 0.00 0.00 0.00 0.00 0.00 0.00 0.00 0.00 0.00 0.00 0.00 0.00 0.00 0.00 0.00 0.00 0.00 0.00 0.00 0.00 0.00 0.00 0.00 0.00 0.00 0.00 0.00 0.00 0.00 0.00 0.00
0.22 0.18 0.05 0.14 0.13 0.09 0.07 0.07 0.04 0.03 0.05 0.04 0.02 0.00 0.00 0.00 0.00 0.00 0.00 0.00 0.00 0.00 0.00 0.00 0.00 0.00 0.00 0.00 0.00 0.00 0.00 0.00 0.00 0.00 0.00 0.00 0.00 0.00 0.00 0.00 0.00 0.00 0.00 0.00
0.22 0.19 0.18 0.17 0.25 0.09 0.06 0.03 0.04 0.07 0.16 0.05 0.07 0.03 0.00 0.00 0.00 0.00 0.00 0.00 0.00 0.00 0.00 0.00 0.00 0.00 0.00 0.00 0.00 0.00 0.00 0.00 0.00 0.00 0.00 0.00 0.00 0.00 0.00 0.00 0.00 0.00 0.00 0.00
0.44 0.24 0.31 0.19 0.28 0.09 0.09 0.02 0.04 0.08 0.22 0.32 0.07 0.06 0.01 0.00 0.00 0.00 0.00 0.00 0.00 0.00 0.00 0.00 0.00 0.00 0.00 0.00 0.00 0.00 0.00 0.00 0.00 0.00 0.00 0.00 0.00 0.00 0.00 0.00 0.00 0.00 0.00 0.00
0.27 0.18 0.30 0.19 0.17 0.16 0.10 0.13 0.13 0.20 0.29 0.45 0.34 0.09 0.02 0.00 0.00 0.00 0.00 0.00 0.00 0.00 0.00 0.00 0.00 0.00 0.00 0.00 0.00 0.00 0.00 0.00 0.00 0.00 0.00 0.00 0.00 0.00 0.00 0.00 0.00 0.00 0.00 0.00
0.85 0.58 0.48 0.23 0.35 0.50 0.38 0.46 0.66 0.59 0.61 0.32 0.07 0.24 0.11 0.00 0.00 0.00 0.00 0.00 0.00 0.00 0.00 0.00 0.00 0.00 0.00 0.00 0.00 0.00 0.00 0.00 0.00 0.00 0.00 0.00 0.00 0.00 0.00 0.00 0.00 0.00 0.00 0.00
0.74 0.65 0.51 0.30 0.46 0.77 0.59 0.48 0.63 0.34 0.29 0.13 0.05 0.07 0.03 0.00 0.00 0.00 0.00 0.00 0.00 0.00 0.00 0.00 0.00 0.00 0.00 0.00 0.00 0.00 0.00 0.00 0.00 0.00 0.00 0.00 0.00 0.00 0.00 0.00 0.00 0.00 0.00 0.00
0.44 0.52 0.31 0.19 0.22 0.51 0.64 0.63 0.42 0.35 0.10 0.18 0.09 0.02 0.00 0.00 0.00 0.00 0.00 0.00 0.00 0.00 0.00 0.00 0.00 0.00 0.00 0.00 0.00 0.00 0.00 0.00 0.00 0.00 0.00 0.00 0.00 0.00 0.00 0.00 0.00 0.00 0.00 0.00
0.33 0.56 0.53 0.49 0.40 0.57 0.51 0.32 0.44 0.76 0.30 0.12 0.10 0.06 0.00 0.00 0.00 0.00 0.00 0.00 0.00 0.00 0.00 0.00 0.00 0.00 0.00 0.00 0.00 0.00 0.00 0.00 0.00 0.00 0.00 0.00 0.00 0.00 0.00 0.00 0.00 0.00 0.00 0.00
0.44 0.60 0.62 0.87 0.75 0.53 0.53 0.50 0.38 0.44 0.23 0.11 0.05 0.08 0.01 0.00 0.00 0.02 0.01 0.01 0.00 0.00 0.00 0.00 0.00 0.00 0.00 0.00 0.00 0.00 0.00 0.00 0.00 0.00 0.00 0.00 0.00 0.00 0.00 0.00 0.00 0.00 0.00 0.00
0.38 0.52 0.68 0.53 0.20 0.16 0.23 0.25 0.11 0.45 0.30 0.11 0.06 0.01 0.01 0.00 0.00 0.02 0.03 0.03 0.02 0.01 0.00 0.00 0.00 0.00 0.00 0.00 0.00 0.00 0.00 0.00 0.00 0.00 0.00 0.00 0.00 0.00 0.00 0.00 0.00 0.00 0.00 0.00
0.29 0.69 0.70 0.65 0.43 0.40 0.44 0.27 0.12 0.25 0.56 0.22 0.14 0.01 0.00 0.00 0.01 0.00 0.00 0.01 0.01 0.00 0.00 0.00 0.00 0.00 0.00 0.00 0.00 0.00 0.00 0.00 0.00 0.00 0.00 0.00 0.00 0.00 0.00 0.00 0.00 0.00 0.00 0.00
0.65 0.55 0.67 0.61 0.54 0.35 0.16 0.16 0.20 0.30 0.55 0.23 0.10 0.02 0.01 0.00 0.01 0.01 0.00 0.00 0.00 0.00 0.00 0.00 0.00 0.00 0.00 0.00 0.00 0.00 0.00 0.00 0.00 0.00 0.00 0.00 0.00 0.00 0.00 0.00 0.00 0.00 0.00 0.00
0.68 0.83 1.10 0.60 0.21 0.37 0.12 0.10 0.14 0.30 0.34 0.25 0.08 0.07 0.01 0.00 0.00 0.01 0.00 0.00 0.00 0.00 0.00 0.00 0.00 0.00 0.00 0.00 0.00 0.00 0.00 0.00 0.00 0.00 0.00 0.00 0.00 0.00 0.00 0.00 0.00 0.00 0.00 0.00
0.37 0.66 0.82 0.42 0.05 0.08 0.07 0.07 0.09 0.13 0.28 0.35 0.16 0.21 0.05 0.01 0.00 0.00 0.00 0.00 0.00 0.00 0.00 0.00 0.00 0.00 0.00 0.00 0.00 0.00 0.00 0.00 0.00 0.00 0.00 0.00 0.00 0.00 0.00 0.00 0.00 0.00 0.00 0.00
0.20 0.32 0.50 0.41 0.19 0.14 0.21 0.12 0.09 0.12 0.16 0.27 0.25 0.17 0.03 0.00 0.00 0.00 0.00 0.00 0.00 0.00 0.00 0.00 0.00 0.00 0.00 0.00 0.00 0.00 0.00 0.00 0.00 0.00 0.00 0.00 0.00 0.00 0.00 0.00 0.00 0.00 0.00 0.00
0.05 0.10 0.17 0.26 0.25 0.16 0.11 0.10 0.08 0.09 0.11 0.19 0.21 0.10 0.00 0.00 0.00 0.00 0.00 0.00 0.00 0.00 0.00 0.00 0.00 0.00 0.00 0.00 0.00 0.00 0.00 0.00 0.00 0.00 0.00 0.00 0.00 0.00 0.00 0.00 0.00 0.00 0.00 0.00
0.01 0.08 0.08 0.00 0.02 0.01 0.00 0.01 0.07 0.07 0.05 0.05 0.03 0.02 0.00 0.00 0.00 0.00 0.00 0.00 0.00 0.00 0.00 0.00 0.00 0.00 0.00 0.00 0.00 0.00 0.00 0.00 0.00 0.00 0.00 0.00 0.00 0.00 0.00 0.00 0.00 0.00 0.00 0.00
0.02 0.07 0.17 0.04 0.00 0.00 0.00 0.00 0.00 0.00 0.00 0.00 0.00 0.00 0.01 0.00 0.00 0.00 0.00 0.00 0.00 0.00 0.00 0.00 0.00 0.00 0.00 0.00 0.00 0.00 0.00 0.00 0.00 0.00 0.00 0.00 0.00 0.00 0.00 0.00 0.00 0.00 0.00 0.00
0.06 0.08 0.13 0.08 0.02 0.00 0.00 0.00 0.00 0.00 0.00 0.00 0.00 0.00 0.00 0.00 0.00 0.00 0.00 0.00 0.00 0.00 0.00 0.00 0.00 0.00 0.00 0.00 0.00 0.00 0.00 0.00 0.00 0.00 0.00 0.00 0.00 0.00 0.00 0.00 0.00 0.00 0.00 0.00
0.01 0.02 0.02 0.06 0.04 0.00 0.00 0.00 0.00 0.00 0.00 0.00 0.00 0.00 0.00 0.00 0.00 0.00 0.00 0.00 0.00 0.00 0.00 0.00 0.00 0.00 0.00 0.00 0.00 0.00 0.00 0.00 0.00 0.00 0.00 0.00 0.00 0.00 0.00 0.00 0.00 0.00 0.00 0.00
0.00 0.00 0.00 0.00 0.00 0.00 0.00 0.00 0.00 0.00 0.00 0.00 0.00 0.00 0.00 0.00 0.00 0.00 0.00 0.00 0.00 0.00 0.00 0.00 0.00 0.00 0.00 0.00 0.00 0.00 0.00 0.00 0.00 0.00 0.00 0.00 0.00 0.00 0.00 0.00 0.00 0.00 0.00 0.00
0.00 0.00 0.00 0.00 0.00 0.00 0.00 0.00 0.00 0.00 0.00 0.00 0.00 0.00 0.00 0.00 0.00 0.00 0.00 0.00 0.00 0.00 0.00 0.00 0.00 0.00 0.00 0.00 0.00 0.00 0.00 0.00 0.00 0.00 0.00 0.00 0.00 0.00 0.00 0.00 0.00 0.00 0.00 0.00
0.00 0.00 0.00 0.00 0.00 0.00 0.00 0.00 0.00 0.00 0.00 0.00 0.00 0.00 0.00 0.00 0.00 0.00 0.00 0.00 0.00 0.00 0.00 0.00 0.00 0.00 0.00 0.00 0.00 0.00 0.00 0.00 0.00 0.00 0.00 0.00 0.00 0.00 0.00 0.00 0.00 0.00 0.00 0.00
0.00 0.00 0.00 0.00 0.00 0.00 0.00 0.00 0.00 0.00 0.00 0.00 0.00 0.00 0.00 0.00 0.00 0.00 0.00 0.00 0.00 0.00 0.00 0.00 0.00 0.00 0.00 0.00 0.00 0.00 0.00 0.00 0.00 0.00 0.00 0.00 0.00 0.00 0.00 0.00 0.00 0.00 0.00 0.00

GFSCGP_prec_precacc_024.txt.gz
Total_Precipitation_Accumulation
0.10 0.21 0.19 0.10 0.04 0.03 0.02 0.05 0.02 0.00 0.00 0.01 0.00 0.00 0.00 0.00 0.00 0.00 0.00 0.00 0.00 0.00 0.00 0.00 0.00 0.00 0.00 0.00 0.00 0.00 0.00 0.00 0.00 0.00 0.00 0.00 0.00 0.00 0.00 0.00 0.00 0.00 0.00 0.00
0.23 0.19 0.04 0.09 0.06 0.05 0.06 0.06 0.04 0.01 0.02 0.04 0.00 0.00 0.00 0.00 0.00 0.00 0.00 0.00 0.00 0.00 0.00 0.00 0.00 0.00 0.00 0.00 0.00 0.00 0.00 0.00 0.00 0.00 0.00 0.02 0.00 0.00 0.00 0.00 0.00 0.00 0.00 0.00
0.22 0.18 0.05 0.14 0.13 0.09 0.07 0.07 0.04 0.03 0.05 0.04 0.02 0.00 0.00 0.00 0.00 0.00 0.00 0.00 0.00 0.00 0.00 0.00 0.00 0.00 0.00 0.00 0.00 0.00 0.00 0.00 0.00 0.00 0.00 0.01 0.00 0.00 0.00 0.00 0.00 0.00 0.00 0.00
0.22 0.19 0.18 0.17 0.25 0.09 0.06 0.03 0.04 0.07 0.16 0.05 0.07 0.03 0.00 0.00 0.00 0.00 0.00 0.00 0.00 0.00 0.00 0.00 0.00 0.00 0.00 0.00 0.00 0.00 0.00 0.00 0.00 0.00 0.00 0.00 0.00 0.00 0.00 0.00 0.00 0.00 0.00 0.00
0.45 0.24 0.31 0.19 0.28 0.09 0.09 0.02 0.04 0.08 0.22 0.33 0.07 0.07 0.01 0.00 0.00 0.00 0.00 0.00 0.00 0.00 0.00 0.00 0.00 0.00 0.00 0.00 0.00 0.00 0.00 0.00 0.00 0.00 0.00 0.00 0.00 0.00 0.00 0.00 0.00 0.00 0.00 0.00
0.27 0.18 0.30 0.19 0.17 0.16 0.10 0.13 0.13 0.21 0.30 0.47 0.34 0.09 0.02 0.00 0.00 0.00 0.00 0.00 0.00 0.00 0.00 0.00 0.00 0.00 0.00 0.00 0.00 0.00 0.00 0.00 0.00 0.00 0.00 0.00 0.00 0.00 0.00 0.00 0.00 0.00 0.00 0.00
0.87 0.58 0.48 0.23 0.35 0.50 0.39 0.51 0.74 0.65 0.66 0.33 0.07 0.24 0.11 0.00 0.00 0.00 0.00 0.00 0.00 0.00 0.00 0.00 0.00 0.00 0.00 0.00 0.00 0.00 0.00 0.00 0.00 0.00 0.00 0.00 0.00 0.00 0.00 0.00 0.00 0.00 0.00 0.00
0.77 0.66 0.52 0.30 0.46 0.77 0.59 0.50 0.71 0.36 0.29 0.13 0.05 0.07 0.03 0.00 0.00 0.00 0.00 0.00 0.00 0.00 0.00 0.00 0.00 0.00 0.00 0.00 0.00 0.00 0.00 0.00 0.00 0.00 0.00 0.00 0.00 0.00 0.00 0.00 0.00 0.00 0.00 0.00
0.46 0.52 0.31 0.19 0.22 0.51 0.66 0.69 0.46 0.42 0.17 0.25 0.09 0.02 0.00 0.00 0.00 0.00 0.00 0.00 0.00 0.00 0.00 0.00 0.00 0.00 0.00 0.00 0.00 0.00 0.00 0.00 0.00 0.00 0.00 0.00 0.00 0.00 0.00 0.00 0.00 0.00 0.00 0.00
0.33 0.57 0.53 0.49 0.40 0.58 0.53 0.34 0.49 0.95 0.41 0.15 0.11 0.06 0.00 0.00 0.00 0.00 0.00 0.00 0.00 0.00 0.00 0.00 0.00 0.00 0.00 0.00 0.00 0.00 0.00 0.00 0.00 0.00 0.00 0.00 0.00 0.00 0.00 0.00 0.00 0.00 0.00 0.00
0.44 0.61 0.62 0.87 0.75 0.53 0.55 0.57 0.44 0.48 0.24 0.11 0.05 0.08 0.01 0.00 0.00 0.02 0.01 0.01 0.00 0.00 0.00 0.00 0.00 0.00 0.00 0.00 0.00 0.00 0.00 0.00 0.00 0.00 0.00 0.00 0.00 0.00 0.00 0.00 0.00 0.00 0.00 0.00
0.38 0.54 0.69 0.54 0.20 0.16 0.23 0.25 0.11 0.46 0.30 0.11 0.06 0.01 0.01 0.01 0.00 0.02 0.03 0.03 0.02 0.01 0.00 0.00 0.00 0.00 0.00 0.00 0.00 0.00 0.00 0.00 0.00 0.00 0.00 0.00 0.00 0.00 0.00 0.00 0.00 0.00 0.00 0.00
0.29 0.72 0.74 0.68 0.47 0.45 0.53 0.31 0.13 0.26 0.57 0.23 0.14 0.01 0.00 0.01 0.01 0.01 0.01 0.02 0.01 0.00 0.00 0.00 0.00 0.00 0.00 0.00 0.00 0.00 0.00 0.00 0.00 0.00 0.00 0.00 0.00 0.00 0.00 0.00 0.00 0.00 0.00 0.00
0.66 0.60 0.73 0.69 0.66 0.55 0.28 0.21 0.24 0.34 0.58 0.24 0.10 0.02 0.01 0.01 0.03 0.02 0.01 0.02 0.05 0.02 0.01 0.00 0.00 0.00 0.00 0.00 0.00 0.00 0.00 0.00 0.00 0.00 0.00 0.00 0.00 0.00 0.00 0.00 0.00 0.00 0.00 0.00
0.73 0.92 1.18 0.70 0.32 0.72 0.32 0.16 0.19 0.36 0.36 0.25 0.08 0.07 0.02 0.01 0.03 0.06 0.03 0.03 0.02 0.01 0.00 0.00 0.00 0.00 0.00 0.00 0.00 0.00 0.00 0.00 0.00 0.00 0.00 0.00 0.00 0.00 0.00 0.00 0.00 0.00 0.00 0.00
0.45 0.76 0.93 0.53 0.15 0.20 0.17 0.10 0.11 0.13 0.28 0.35 0.16 0.21 0.05 0.02 0.08 0.18 0.07 0.02 0.02 0.00 0.00 0.00 0.00 0.00 0.00 0.00 0.00 0.00 0.00 0.00 0.00 0.00 0.00 0.00 0.00 0.00 0.00 0.00 0.00 0.00 0.00 0.00
0.25 0.40 0.65 0.57 0.35 0.15 0.24 0.13 0.09 0.12 0.16 0.27 0.25 0.18 0.07 0.05 0.12 0.07 0.01 0.00 0.00 0.00 0.00 0.00 0.00 0.00 0.00 0.00 0.00 0.00 0.00 0.00 0.00 0.00 0.00 0.00 0.00 0.00 0.00 0.00 0.00 0.00 0.00 0.00
0.06 0.20 0.32 0.41 0.39 0.27 0.19 0.11 0.08 0.09 0.11 0.19 0.22 0.12 0.02 0.03 0.01 0.00 0.00 0.00 0.00 0.00 0.00 0.00 0.00 0.00 0.00 0.00 0.00 0.00 0.00 0.00 0.00 0.00 0.00 0.00 0.00 0.00 0.00 0.00 0.00 0.00 0.00 0.00
0.02 0.13 0.17 0.06 0.09 0.09 0.01 0.04 0.09 0.07 0.07 0.07 0.06 0.04 0.00 0.00 0.00 0.00 0.00 0.00 0.00 0.00 0.00 0.00 0.00 0.00 0.00 0.00 0.00 0.00 0.00 0.00 0.00 0.00 0.00 0.00 0.00 0.00 0.00 0.00 0.00 0.00 0.00 0.00
0.02 0.07 0.20 0.05 0.01 0.00 0.00 0.00 0.00 0.00 0.02 0.00 0.00 0.00 0.01 0.00 0.00 0.00 0.00 0.00 0.00 0.00 0.00 0.00 0.00 0.00 0.00 0.00 0.00 0.00 0.00 0.00 0.00 0.00 0.00 0.00 0.00 0.00 0.00 0.00 0.00 0.00 0.00 0.00
0.06 0.08 0.13 0.09 0.03 0.00 0.00 0.00 0.00 0.00 0.00 0.00 0.00 0.00 0.00 0.00 0.00 0.00 0.00 0.00 0.00 0.00 0.00 0.00 0.00 0.00 0.00 0.00 0.00 0.00 0.00 0.00 0.00 0.00 0.00 0.00 0.00 0.00 0.00 0.00 0.00 0.00 0.00 0.00
0.01 0.02 0.02 0.06 0.04 0.00 0.00 0.00 0.00 0.00 0.00 0.00 0.00 0.00 0.00 0.00 0.00 0.00 0.00 0.00 0.00 0.00 0.00 0.00 0.00 0.00 0.00 0.00 0.00 0.00 0.00 0.00 0.00 0.00 0.00 0.00 0.00 0.00 0.00 0.00 0.00 0.00 0.00 0.00
0.00 0.00 0.00 0.00 0.00 0.00 0.00 0.00 0.00 0.00 0.00 0.00 0.00 0.00 0.00 0.00 0.00 0.00 0.00 0.00 0.00 0.00 0.00 0.00 0.00 0.00 0.00 0.00 0.00 0.00 0.00 0.00 0.00 0.00 0.00 0.00 0.00 0.00 0.00 0.00 0.00 0.00 0.00 0.00
0.00 0.00 0.00 0.00 0.00 0.00 0.00 0.00 0.00 0.00 0.00 0.00 0.00 0.00 0.00 0.00 0.00 0.00 0.00 0.00 0.00 0.00 0.00 0.00 0.00 0.00 0.00 0.00 0.00 0.00 0.00 0.00 0.00 0.00 0.00 0.00 0.00 0.00 0.00 0.00 0.00 0.00 0.00 0.00
0.00 0.00 0.00 0.00 0.00 0.00 0.00 0.00 0.00 0.00 0.00 0.00 0.00 0.00 0.00 0.00 0.00 0.00 0.00 0.00 0.00 0.00 0.00 0.00 0.00 0.00 0.00 0.00 0.00 0.00 0.00 0.00 0.00 0.00 0.00 0.00 0.00 0.00 0.00 0.00 0.00 0.00 0.00 0.00
0.00 0.00 0.00 0.00 0.00 0.00 0.00 0.00 0.00 0.00 0.00 0.00 0.00 0.00 0.00 0.00 0.00 0.00 0.00 0.00 0.00 0.00 0.00 0.00 0.00 0.00 0.00 0.00 0.00 0.00 0.00 0.00 0.00 0.00 0.00 0.00 0.00 0.00 0.00 0.00 0.00 0.00 0.00 0.00

GFSCGP_prec_precacc_027.txt.gz
Total_Precipitation_Accumulation
0.10 0.21 0.19 0.10 0.04 0.03 0.02 0.05 0.02 0.00 0.00 0.01 0.00 0.00 0.00 0.00 0.00 0.00 0.00 0.00 0.00 0.00 0.00 0.00 0.00 0.00 0.00 0.00 0.00 0.00 0.00 0.00 0.00 0.00 0.00 0.04 0.02 0.01 0.01 0.00 0.00 0.00 0.00 0.00
0.23 0.19 0.04 0.09 0.06 0.05 0.06 0.06 0.04 0.01 0.02 0.04 0.00 0.00 0.00 0.00 0.00 0.00 0.00 0.00 0.00 0.00 0.00 0.00 0.00 0.00 0.00 0.00 0.00 0.00 0.00 0.00 0.00 0.00 0.01 0.09 0.07 0.02 0.00 0.00 0.01 0.00 0.00 0.00
0.22 0.18 0.05 0.14 0.13 0.09 0.07 0.07 0.04 0.03 0.05 0.04 0.02 0.00 0.00 0.00 0.00 0.00 0.00 0.00 0.00 0.00 0.00 0.00 0.00 0.00 0.00 0.00 0.00 0.00 0.00 0.00 0.00 0.00 0.01 0.05 0.05 0.02 0.00 0.00 0.00 0.00 0.00 0.00
0.22 0.19 0.18 0.17 0.25 0.09 0.06 0.03 0.04 0.07 0.16 0.05 0.07 0.03 0.00 0.00 0.00 0.00 0.00 0.00 0.00 0.00 0.00 0.00 0.00 0.00 0.00 0.00 0.00 0.00 0.00 0.00 0.00 0.00 0.00 0.04 0.04 0.02 0.00 0.00 0.00 0.00 0.00 0.00
0.45 0.24 0.31 0.19 0.28 0.09 0.09 0.02 0.04 0.08 0.22 0.33 0.07 0.07 0.01 0.00 0.00 0.00 0.00 0.00 0.00 0.00 0.00 0.00 0.00 0.00 0.00 0.00 0.00 0.00 0.00 0.00 0.00 0.00 0.00 0.02 0.04 0.01 0.00 0.00 0.00 0.00 0.00 0.00
0.27 0.18 0.30 0.19 0.17 0.16 0.10 0.13 0.14 0.22 0.32 0.50 0.34 0.09 0.02 0.00 0.00 0.00 0.00 0.00 0.00 0.00 0.00 0.00 0.00 0.00 0.00 0.00 0.00 0.00 0.00 0.00 0.00 0.00 0.00 0.00 0.02 0.00 0.00 0.00 0.00 0.00 0.00 0.00
0.87 0.59 0.48 0.23 0.35 0.50 0.40 0.56 0.79 0.70 0.72 0.35 0.07 0.24 0.11 0.00 0.00 0.00 0.00 0.00 0.00 0.00 0.00 0.00 0.00 0.00 0.00 0.00 0.00 0.00 0.00 0.00 0.00 0.00 0.00 0.00 0.00 0.00 0.00 0.00 0.00 0.00 0.00 0.00
0.77 0.66 0.52 0.30 0.46 0.77 0.59 0.52 0.76 0.39 0.30 0.13 0.05 0.07 0.03 0.00 0.00 0.00 0.00 0.00 0.00 0.00 0.00 0.00 0.00 0.00 0.00 0.00 0.00 0.00 0.00 0.00 0.00 0.00 0.00 0.00 0.00 0.00 0.00 0.00 0.00 0.00 0.00 0.00
0.46 0.52 0.31 0.19 0.22 0.51 0.67 0.71 0.47 0.47 0.20 0.30 0.10 0.02 0.00 0.00 0.00 0.00 0.00 0.00 0.00 0.00 0.00 0.00 0.00 0.00 0.00 0.00 0.00 0.00 0.00 0.00 0.00 0.00 0.00 0.00 0.00 0.00 0.00 0.00 0.00 0.00 0.00 0.00
0.33 0.57 0.53 0.49 0.41 0.58 0.54 0.34 0.51 1.02 0.47 0.19 0.11 0.06 0.00 0.00 0.00 0.00 0.00 0.00 0.00 0.00 0.00 0.00 0.00 0.00 0.00 0.00 0.00 0.00 0.00 0.00 0.00 0.00 0.00 0.00 0.00 0.00 0.00 0.00 0.00 0.00 0.00 0.00
0.44 0.61 0.63 0.88 0.76 0.53 0.56 0.60 0.47 0.50 0.26 0.12 0.05 0.08 0.01 0.00 0.00 0.02 0.01 0.01 0.00 0.00 0.00 0.00 0.00 0.00 0.00 0.00 0.00 0.00 0.00 0.00 0.00 0.00 0.00 0.00 0.00 0.00 0.00 0.00 0.00 0.00 0.00 0.00
0.38 0.55 0.69 0.54 0.20 0.16 0.24 0.26 0.15 0.52 0.31 0.13 0.07 0.01 0.01 0.01 0.00 0.02 0.03 0.03 0.02 0.01 0.00 0.00 0.00 0.00 0.00 0.00 0.00 0.00 0.00 0.00 0.00 0.00 0.00 0.00 0.00 0.00 0.00 0.00 0.00 0.00 0.00 0.00
0.29 0.73 0.75 0.69 0.48 0.46 0.59 0.33 0.24 0.43 0.73 0.29 0.15 0.01 0.00 0.01 0.01 0.01 0.01 0.02 0.01 0.00 0.00 0.00 0.00 0.00 0.00 0.00 0.00 0.00 0.00 0.00 0.00 0.00 0.00 0.00 0.00 0.00 0.00 0.00 0.00 0.00 0.00 0.00
0.66 0.60 0.74 0.73 0.72 0.74 0.47 0.26 0.35 0.56 0.79 0.27 0.11 0.02 0.01 0.01 0.03 0.02 0.02 0.03 0.06 0.02 0.01 0.00 0.00 0.00 0.00 0.00 0.00 0.00 0.00 0.00 0.00 0.00 0.00 0.00 0.00 0.00 0.00 0.00 0.00 0.00 0.00 0.00
0.73 0.93 1.21 0.74 0.38 0.92 0.50 0.26 0.29 0.52 0.41 0.26 0.09 0.07 0.02 0.01 0.03 0.06 0.05 0.10 0.04 0.02 0.00 0.00 0.00 0.00 0.00 0.00 0.00 0.00 0.00 0.00 0.00 0.00 0.00 0.00 0.00 0.00 0.00 0.00 0.00 0.00 0.00 0.00
0.47 0.78 0.95 0.55 0.17 0.32 0.27 0.13 0.15 0.15 0.28 0.35 0.16 0.21 0.05 0.02 0.08 0.20 0.12 0.17 0.04 0.01 0.00 0.00 0.00 0.00 0.00 0.00 0.00 0.00 0.00 0.00 0.00 0.00 0.00 0.00 0.00 0.00 0.00 0.00 0.00 0.00 0.00 0.00
0.27 0.43 0.74 0.61 0.37 0.23 0.33 0.15 0.11 0.12 0.16 0.27 0.25 0.18 0.07 0.06 0.25 0.24 0.15 0.11 0.01 0.00 0.00 0.00 0.00 0.00 0.00 0.00 0.00 0.00 0.00 0.00 0.00 0.00 0.00 0.00 0.00 0.00 0.00 0.00 0.00 0.00 0.00 0.00
0.07 0.23 0.42 0.47 0.46 0.39 0.27 0.13 0.08 0.09 0.11 0.19 0.22 0.12 0.02 0.12 0.15 0.06 0.02 0.00 0.00 0.00 0.00 0.00 0.00 0.00 0.00 0.00 0.00 0.00 0.00 0.00 0.00 0.00 0.00 0.00 0.00 0.00 0.00 0.00 0.00 0.00 0.00 0.00
0.02 0.14 0.23 0.14 0.17 0.16 0.02 0.09 0.13 0.08 0.09 0.07 0.06 0.04 0.03 0.01 0.00 0.02 0.00 0.00 0.00 0.00 0.00 0.00 0.00 0.00 0.00 0.00 0.00 0.00 0.00 0.00 0.00 0.00 0.00 0.00 0.00 0.00 0.00 0.00 0.00 0.00 0.00 0.00
0.02 0.07 0.23 0.08 0.04 0.00 0.00 0.01 0.01 0.01 0.02 0.00 0.00 0.00 0.01 0.00 0.00 0.00 0.00 0.00 0.00 0.00 0.00 0.00 0.00 0.00 0.00 0.00 0.00 0.00 0.00 0.00 0.00 0.00 0.00 0.00 0.00 0.00 0.00 0.00 0.00 0.00 0.00 0.00
0.06 0.08 0.14 0.10 0.05 0.00 0.00 0.00 0.00 0.00 0.00 0.00 0.00 0.00 0.00 0.00 0.00 0.00 0.00 0.00 0.00 0.00 0.00 0.00 0.00 0.00 0.00 0.00 0.00 0.00 0.00 0.00 0.00 0.00 0.00 0.00 0.00 0.00 0.00 0.00 0.00 0.00 0.00 0.00
0.01 0.02 0.02 0.06 0.04 0.00 0.00 0.00 0.00 0.00 0.00 0.00 0.00 0.00 0.00 0.00 0.00 0.00 0.00 0.00 0.00 0.00 0.00 0.00 0.00 0.00 0.00 0.00 0.00 0.00 0.00 0.00 0.00 0.00 0.00 0.00 0.00 0.00 0.00 0.00 0.00 0.00 0.00 0.00
0.00 0.00 0.00 0.00 0.00 0.00 0.00 0.00 0.00 0.00 0.00 0.00 0.00 0.00 0.00 0.00 0.00 0.00 0.00 0.00 0.00 0.00 0.00 0.00 0.00 0.00 0.00 0.00 0.00 0.00 0.00 0.00 0.00 0.00 0.00 0.00 0.00 0.00 0.00 0.00 0.00 0.00 0.00 0.00
0.00 0.00 0.00 0.00 0.00 0.00 0.00 0.00 0.00 0.00 0.00 0.00 0.00 0.00 0.00 0.00 0.00 0.00 0.00 0.00 0.00 0.00 0.00 0.00 0.00 0.00 0.00 0.00 0.00 0.00 0.00 0.00 0.00 0.00 0.00 0.00 0.00 0.00 0.00 0.00 0.00 0.00 0.00 0.00
0.00 0.00 0.00 0.00 0.00 0.00 0.00 0.00 0.00 0.00 0.00 0.00 0.00 0.00 0.00 0.00 0.00 0.00 0.00 0.00 0.00 0.00 0.00 0.00 0.00 0.00 0.00 0.00 0.00 0.00 0.00 0.00 0.00 0.00 0.00 0.00 0.00 0.00 0.00 0.00 0.00 0.00 0.00 0.00
0.00 0.00 0.00 0.00 0.00 0.00 0.00 0.00 0.00 0.00 0.00 0.00 0.00 0.00 0.00 0.00 0.00 0.00 0.00 0.00 0.00 0.00 0.00 0.00 0.00 0.00 0.00 0.00 0.00 0.00 0.00 0.00 0.00 0.00 0.00 0.00 0.00 0.00 0.00 0.00 0.00 0.00 0.00 0.00

GFSCGP_prec_precacc_030.txt.gz
Total_Precipitation_Accumulation
0.10 0.21 0.19 0.10 0.04 0.03 0.02 0.05 0.02 0.00 0.00 0.01 0.00 0.00 0.00 0.00 0.00 0.00 0.00 0.00 0.00 0.00 0.00 0.00 0.00 0.00 0.00 0.00 0.00 0.00 0.00 0.00 0.00 0.00 0.00 0.04 0.07 0.06 0.04 0.05 0.06 0.01 0.01 0.01
0.23 0.19 0.04 0.09 0.06 0.05 0.06 0.06 0.04 0.01 0.02 0.04 0.00 0.00 0.00 0.00 0.00 0.00 0.00 0.00 0.00 0.00 0.00 0.00 0.00 0.00 0.00 0.00 0.00 0.00 0.00 0.00 0.00 0.00 0.01 0.09 0.10 0.07 0.07 0.04 0.04 0.03 0.01 0.00
0.22 0.18 0.05 0.14 0.13 0.09 0.07 0.07 0.04 0.03 0.05 0.04 0.02 0.00 0.00 0.00 0.00 0.00 0.00 0.00 0.00 0.00 0.00 0.00 0.00 0.00 0.00 0.00 0.00 0.00 0.00 0.00 0.00 0.00 0.01 0.05 0.05 0.04 0.03 0.02 0.03 0.03 0.02 0.00
0.22 0.19 0.18 0.17 0.25 0.09 0.06 0.03 0.04 0.07 0.16 0.05 0.07 0.03 0.00 0.00 0.00 0.00 0.00 0.00 0.00 0.00 0.00 0.00 0.00 0.00 0.00 0.00 0.00 0.00 0.00 0.00 0.00 0.00 0.00 0.04 0.05 0.06 0.03 0.02 0.02 0.02 0.01 0.01
0.45 0.24 0.31 0.19 0.28 0.09 0.09 0.02 0.04 0.08 0.22 0.34 0.07 0.08 0.01 0.00 0.00 0.00 0.00 0.00 0.00 0.00 0.00 0.00 0.00 0.00 0.00 0.00 0.00 0.00 0.00 0.00 0.00 0.00 0.00 0.03 0.07 0.05 0.04 0.02 0.01 0.00 0.00 0.00
0.28 0.18 0.30 0.19 0.17 0.16 0.10 0.14 0.14 0.22 0.33 0.52 0.34 0.10 0.02 0.00 0.00 0.00 0.00 0.00 0.00 0.00 0.00 0.00 0.00 0.00 0.00 0.00 0.00 0.00 0.00 0.00 0.00 0.00 0.01 0.01 0.07 0.05 0.01 0.00 0.01 0.01 0.00 0.00
0.88 0.59 0.48 0.23 0.35 0.50 0.40 0.58 0.80 0.72 0.75 0.36 0.07 0.24 0.11 0.00 0.00 0.00 0.00 0.00 0.00 0.00 0.00 0.00 0.00 0.00 0.00 0.00 0.00 0.00 0.00 0.00 0.00 0.00 0.00 0.00 0.02 0.05 0.01 0.00 0.00 0.00 0.00 0.00
0.78 0.66 0.52 0.30 0.46 0.78 0.60 0.53 0.77 0.39 0.30 0.13 0.05 0.07 0.03 0.00 0.00 0.00 0.00 0.00 0.00 0.00 0.00 0.00 0.00 0.00 0.00 0.00 0.00 0.00 0.00 0.00 0.00 0.00 0.00 0.00 0.00 0.02 0.00 0.00 0.00 0.00 0.00 0.00
0.47 0.52 0.31 0.19 0.22 0.52 0.68 0.73 0.48 0.50 0.21 0.31 0.10 0.02 0.00 0.00 0.00 0.00 0.00 0.00 0.00 0.00 0.00 0.00 0.00 0.00 0.00 0.00 0.00 0.00 0.00 0.00 0.00 0.00 0.00 0.00 0.00 0.01 0.01 0.00 0.00 0.00 0.00 0.00
0.33 0.57 0.53 0.49 0.41 0.58 0.55 0.35 0.53 1.07 0.48 0.20 0.11 0.06 0.00 0.00 0.00 0.00 0.00 0.00 0.00 0.00 0.00 0.00 0.00 0.00 0.00 0.00 0.00 0.00 0.00 0.00 0.00 0.00 0.00 0.00 0.00 0.01 0.01 0.00 0.00 0.00 0.00 0.00
0.44 0.62 0.63 0.88 0.76 0.54 0.56 0.61 0.50 0.55 0.27 0.13 0.06 0.08 0.01 0.00 0.00 0.02 0.01 0.01 0.00 0.00 0.00 0.00 0.00 0.00 0.00 0.00 0.00 0.00 0.00 0.00 0.00 0.00 0.00 0.00 0.00 0.00 0.00 0.00 0.00 0.00 0.00 0.00
0.38 0.55 0.70 0.54 0.20 0.16 0.24 0.26 0.19 0.70 0.38 0.21 0.11 0.03 0.01 0.01 0.00 0.02 0.03 0.03 0.02 0.01 0.00 0.00 0.00 0.00 0.00 0.00 0.00 0.00 0.00 0.00 0.00 0.00 0.00 0.00 0.00 0.00 0.00 0.00 0.00 0.00 0.00 0.00
0.29 0.73 0.75 0.69 0.48 0.47 0.60 0.33 0.28 0.56 0.93 0.48 0.23 0.03 0.00 0.01 0.01 0.01 0.01 0.02 0.01 0.00 0.00 0.00 0.00 0.00 0.00 0.00 0.00 0.00 0.00 0.00 0.00 0.00 0.00 0.00 0.00 0.00 0.00 0.00 0.00 0.00 0.00 0.00
0.66 0.60 0.74 0.73 0.73 0.78 0.55 0.30 0.46 0.77 1.02 0.32 0.15 0.03 0.01 0.01 0.03 0.02 0.02 0.03 0.06 0.02 0.01 0.00 0.00 0.00 0.00 0.00 0.00 0.00 0.01 0.01 0.01 0.00 0.00 0.00 0.00 0.00 0.00 0.00 0.00 0.00 0.00 0.00
0.73 0.94 1.21 0.74 0.38 0.93 0.53 0.29 0.37 0.71 0.47 0.32 0.11 0.07 0.02 0.01 0.03 0.06 0.05 0.10 0.04 0.02 0.00 0.00 0.00 0.00 0.00 0.00 0.00 0.00 0.01 0.00 0.00 0.00 0.00 0.00 0.00 0.00 0.00 0.00 0.00 0.00 0.00 0.00
0.47 0.78 0.95 0.56 0.17 0.33 0.34 0.15 0.18 0.17 0.29 0.36 0.16 0.21 0.05 0.02 0.08 0.20 0.12 0.17 0.05 0.02 0.00 0.00 0.00 0.00 0.00 0.00 0.00 0.00 0.00 0.00 0.02 0.01 0.00 0.00 0.00 0.00 0.00 0.00 0.00 0.00 0.00 0.00
0.27 0.44 0.77 0.63 0.37 0.24 0.39 0.20 0.12 0.13 0.16 0.27 0.25 0.18 0.07 0.06 0.25 0.24 0.23 0.21 0.02 0.01 0.00 0.00 0.00 0.00 0.00 0.00 0.00 0.00 0.01 0.01 0.01 0.00 0.00 0.00 0.00 0.00 0.00 0.00 0.00 0.00 0.00 0.00
0.07 0.24 0.44 0.49 0.48 0.49 0.41 0.24 0.10 0.11 0.13 0.19 0.22 0.12 0.02 0.13 0.17 0.08 0.17 0.07 0.01 0.01 0.00 0.00 0.00 0.00 0.00 0.00 0.00 0.00 0.00 0.00 0.00 0.00 0.00 0.00 0.00 0.00 0.00 0.00 0.00 0.00 0.00 0.00
0.02 0.15 0.25 0.16 0.20 0.20 0.08 0.13 0.19 0.12 0.12 0.07 0.07 0.06 0.05 0.04 0.04 0.06 0.07 0.01 0.01 0.01 0.01 0.00 0.00 0.00 0.00 0.00 0.00 0.00 0.00 0.00 0.00 0.00 0.00 0.00 0.00 0.00 0.00 0.00 0.00 0.00 0.00 0.00
0.02 0.07 0.25 0.10 0.08 0.00 0.01 0.04 0.03 0.01 0.03 0.01 0.01 0.01 0.01 0.00 0.04 0.05 0.01 0.01 0.00 0.00 0.00 0.00 0.00 0.00 0.00 0.00 0.00 0.00 0.00 0.00 0.00 0.00 0.00 0.00 0.00 0.00 0.00 0.00 0.00 0.00 0.00 0.00
0.07 0.09 0.15 0.12 0.09 0.00 0.00 0.00 0.00 0.00 0.01 0.00 0.00 0.00 0.00 0.00 0.01 0.01 0.01 0.00 0.00 0.00 0.00 0.00 0.00 0.00 0.00 0.00 0.00 0.00 0.00 0.00 0.00 0.00 0.00 0.00 0.00 0.00 0.00 0.00 0.00 0.00 0.00 0.00
0.01 0.02 0.03 0.06 0.04 0.00 0.00 0.00 0.00 0.00 0.00 0.00 0.00 0.00 0.01 0.01 0.04 0.05 0.01 0.00 0.00 0.00 0.00 0.00 0.00 0.00 0.00 0.00 0.00 0.00 0.00 0.00 0.00 0.00 0.00 0.00 0.00 0.00 0.00 0.00 0.00 0.00 0.00 0.00
0.00 0.00 0.00 0.00 0.00 0.00 0.00 0.00 0.00 0.00 0.00 0.00 0.00 0.00 0.00 0.00 0.04 0.04 0.01 0.00 0.00 0.00 0.00 0.00 0.00 0.00 0.00 0.00 0.00 0.00 0.00 0.00 0.00 0.00 0.00 0.00 0.00 0.00 0.00 0.00 0.00 0.00 0.00 0.00
0.00 0.00 0.00 0.00 0.00 0.00 0.00 0.00 0.00 0.00 0.00 0.00 0.00 0.00 0.00 0.00 0.00 0.00 0.00 0.00 0.00 0.00 0.00 0.00 0.00 0.00 0.00 0.00 0.00 0.00 0.00 0.00 0.00 0.00 0.00 0.00 0.00 0.00 0.00 0.00 0.00 0.00 0.00 0.00
0.00 0.00 0.00 0.00 0.00 0.00 0.00 0.00 0.00 0.00 0.00 0.00 0.00 0.00 0.00 0.00 0.00 0.00 0.00 0.00 0.00 0.00 0.00 0.00 0.00 0.00 0.00 0.00 0.00 0.00 0.00 0.00 0.00 0.00 0.00 0.00 0.00 0.00 0.00 0.00 0.00 0.00 0.00 0.00
0.00 0.00 0.00 0.00 0.00 0.00 0.00 0.00 0.00 0.00 0.00 0.00 0.00 0.00 0.00 0.00 0.00 0.00 0.00 0.00 0.00 0.00 0.00 0.00 0.00 0.00 0.00 0.00 0.00 0.00 0.00 0.00 0.00 0.00 0.00 0.00 0.00 0.00 0.00 0.00 0.00 0.00 0.00 0.00

GFSCGP_prec_precacc_033.txt.gz
Total_Precipitation_Accumulation
0.11 0.21 0.19 0.10 0.04 0.03 0.02 0.05 0.02 0.00 0.00 0.01 0.00 0.00 0.00 0.00 0.00 0.00 0.00 0.00 0.00 0.00 0.00 0.00 0.00 0.00 0.00 0.00 0.00 0.00 0.00 0.00 0.00 0.00 0.00 0.04 0.07 0.10 0.09 0.10 0.09 0.02 0.01 0.01
0.23 0.19 0.04 0.09 0.06 0.05 0.06 0.06 0.04 0.01 0.02 0.04 0.00 0.00 0.00 0.00 0.00 0.00 0.00 0.00 0.00 0.00 0.00 0.00 0.00 0.00 0.00 0.00 0.00 0.00 0.00 0.00 0.00 0.00 0.01 0.09 0.10 0.09 0.10 0.10 0.10 0.08 0.05 0.01
0.22 0.18 0.05 0.14 0.13 0.09 0.07 0.07 0.04 0.03 0.05 0.04 0.02 0.00 0.00 0.00 0.00 0.00 0.00 0.00 0.00 0.00 0.00 0.00 0.00 0.00 0.00 0.00 0.00 0.00 0.00 0.00 0.00 0.00 0.01 0.05 0.05 0.04 0.04 0.05 0.09 0.10 0.08 0.04
0.22 0.19 0.18 0.17 0.25 0.09 0.06 0.03 0.04 0.07 0.16 0.05 0.07 0.03 0.00 0.00 0.00 0.00 0.00 0.00 0.00 0.00 0.00 0.00 0.00 0.00 0.00 0.00 0.00 0.00 0.00 0.00 0.00 0.00 0.00 0.04 0.05 0.06 0.06 0.07 0.07 0.07 0.06 0.03
0.45 0.24 0.31 0.19 0.28 0.09 0.09 0.02 0.04 0.08 0.22 0.34 0.07 0.08 0.01 0.00 0.00 0.00 0.00 0.00 0.00 0.00 0.00 0.00 0.00 0.00 0.00 0.00 0.00 0.00 0.00 0.00 0.00 0.00 0.00 0.03 0.07 0.05 0.04 0.05 0.05 0.03 0.01 0.01
0.28 0.18 0.30 0.19 0.17 0.16 0.10 0.14 0.14 0.22 0.34 0.53 0.34 0.10 0.02 0.00 0.00 0.00 0.00 0.00 0.00 0.00 0.00 0.00 0.00 0.00 0.00 0.00 0.00 0.00 0.00 0.00 0.00 0.00 0.01 0.01 0.07 0.06 0.02 0.01 0.02 0.02 0.01 0.00
0.88 0.59 0.48 0.23 0.35 0.50 0.41 0.60 0.81 0.73 0.77 0.36 0.07 0.24 0.11 0.00 0.00 0.00 0.00 0.00 0.00 0.00 0.00 0.00 0.00 0.00 0.00 0.00 0.00 0.00 0.00 0.00 0.00 0.00 0.00 0.00 0.02 0.07 0.03 0.02 0.03 0.03 0.02 0.00
0.78 0.66 0.52 0.30 0.46 0.78 0.60 0.54 0.78 0.39 0.30 0.13 0.05 0.07 0.03 0.00 0.00 0.00 0.00 0.00 0.00 0.00 0.00 0.00 0.00 0.00 0.00 0.00 0.00 0.00 0.00 0.00 0.00 0.00 0.00 0.00 0.00 0.02 0.01 0.01 0.01 0.01 0.01 0.00
0.47 0.52 0.31 0.19 0.22 0.52 0.68 0.73 0.48 0.50 0.22 0.32 0.10 0.02 0.00 0.00 0.00 0.00 0.00 0.00 0.00 0.00 0.00 0.00 0.00 0.00 0.00 0.00 0.00 0.00 0.00 0.00 0.00 0.00 0.00 0.00 0.00 0.01 0.01 0.01 0.01 0.00 0.00 0.00
0.33 0.57 0.53 0.49 0.41 0.59 0.55 0.35 0.54 1.09 0.49 0.20 0.11 0.06 0.00 0.00 0.00 0.00 0.00 0.00 0.00 0.00 0.00 0.00 0.00 0.00 0.00 0.00 0.00 0.00 0.00 0.00 0.00 0.00 0.00 0.00 0.00 0.01 0.01 0.01 0.01 0.00 0.00 0.00
0.44 0.62 0.63 0.88 0.76 0.54 0.56 0.62 0.51 0.57 0.29 0.14 0.06 0.08 0.01 0.00 0.00 0.02 0.01 0.01 0.00 0.00 0.00 0.00 0.00 0.00 0.00 0.00 0.00 0.00 0.00 0.00 0.00 0.00 0.00 0.00 0.00 0.00 0.00 0.01 0.00 0.00 0.00 0.00
0.38 0.56 0.70 0.54 0.20 0.16 0.24 0.26 0.20 0.76 0.39 0.26 0.16 0.05 0.01 0.01 0.00 0.02 0.03 0.03 0.02 0.01 0.00 0.00 0.00 0.00 0.00 0.00 0.00 0.00 0.00 0.00 0.00 0.00 0.00 0.00 0.00 0.00 0.00 0.00 0.00 0.00 0.00 0.00
0.29 0.73 0.75 0.69 0.48 0.48 0.60 0.33 0.28 0.60 1.04 0.57 0.28 0.06 0.00 0.01 0.01 0.01 0.01 0.02 0.01 0.00 0.00 0.00 0.00 0.00 0.00 0.00 0.00 0.00 0.00 0.00 0.00 0.00 0.00 0.00 0.00 0.00 0.00 0.00 0.00 0.00 0.00 0.00
0.66 0.60 0.74 0.73 0.73 0.78 0.55 0.30 0.48 0.94 1.19 0.35 0.16 0.03 0.01 0.01 0.03 0.02 0.02 0.03 0.06 0.02 0.01 0.00 0.00 0.00 0.00 0.00 0.00 0.00 0.01 0.02 0.01 0.00 0.00 0.01 0.00 0.00 0.00 0.00 0.00 0.00 0.00 0.00
0.73 0.94 1.21 0.74 0.38 0.93 0.53 0.29 0.37 0.80 0.56 0.41 0.13 0.07 0.02 0.01 0.03 0.06 0.05 0.10 0.04 0.02 0.00 0.00 0.00 0.00 0.00 0.00 0.00 0.00 0.01 0.02 0.01 0.00 0.00 0.00 0.00 0.00 0.00 0.00 0.00 0.00 0.00 0.00
0.47 0.79 0.96 0.56 0.17 0.33 0.34 0.15 0.19 0.19 0.31 0.40 0.16 0.21 0.05 0.02 0.08 0.20 0.12 0.17 0.05 0.02 0.00 0.00 0.00 0.00 0.00 0.00 0.00 0.00 0.00 0.01 0.02 0.02 0.01 0.00 0.00 0.00 0.00 0.00 0.00 0.00 0.00 0.00
0.28 0.45 0.78 0.63 0.37 0.24 0.41 0.26 0.15 0.14 0.18 0.30 0.26 0.18 0.07 0.06 0.25 0.24 0.23 0.22 0.02 0.01 0.00 0.00 0.00 0.00 0.00 0.00 0.00 0.00 0.01 0.02 0.02 0.02 0.01 0.00 0.00 0.00 0.01 0.00 0.00 0.00 0.00 0.00
0.08 0.25 0.45 0.49 0.49 0.51 0.43 0.25 0.11 0.13 0.16 0.21 0.24 0.12 0.02 0.13 0.17 0.08 0.19 0.12 0.02 0.01 0.00 0.00 0.00 0.00 0.00 0.00 0.00 0.01 0.02 0.02 0.02 0.03 0.08 0.03 0.00 0.01 0.00 0.00 0.00 0.00 0.00 0.00
0.02 0.16 0.26 0.17 0.21 0.21 0.08 0.13 0.19 0.13 0.12 0.09 0.09 0.11 0.08 0.05 0.08 0.16 0.09 0.01 0.02 0.02 0.01 0.00 0.00 0.00 0.00 0.00 0.00 0.00 0.01 0.02 0.02 0.01 0.06 0.05 0.00 0.00 0.00 0.00 0.00 0.00 0.00 0.00
0.02 0.08 0.27 0.10 0.10 0.00 0.02 0.05 0.03 0.01 0.04 0.01 0.02 0.03 0.02 0.03 0.19 0.20 0.06 0.02 0.01 0.01 0.01 0.01 0.00 0.00 0.00 0.00 0.02 0.04 0.02 0.03 0.04 0.02 0.00 0.00 0.00 0.00 0.00 0.00 0.00 0.00 0.00 0.00
0.07 0.11 0.19 0.14 0.14 0.00 0.00 0.00 0.00 0.00 0.01 0.00 0.00 0.00 0.01 0.02 0.05 0.05 0.03 0.01 0.01 0.01 0.01 0.01 0.01 0.01 0.02 0.02 0.05 0.09 0.03 0.01 0.02 0.00 0.00 0.00 0.00 0.00 0.00 0.00 0.00 0.00 0.00 0.00
0.01 0.02 0.03 0.07 0.07 0.01 0.00 0.00 0.00 0.00 0.00 0.00 0.00 0.01 0.04 0.05 0.05 0.06 0.01 0.00 0.00 0.00 0.00 0.01 0.01 0.00 0.00 0.00 0.00 0.00 0.00 0.00 0.00 0.00 0.00 0.00 0.00 0.00 0.00 0.00 0.00 0.00 0.00 0.00
0.00 0.00 0.00 0.00 0.00 0.00 0.00 0.00 0.00 0.00 0.00 0.00 0.00 0.00 0.03 0.04 0.16 0.10 0.01 0.00 0.00 0.00 0.00 0.00 0.00 0.00 0.00 0.00 0.00 0.00 0.00 0.00 0.00 0.00 0.00 0.00 0.00 0.00 0.00 0.00 0.00 0.00 0.00 0.00
0.00 0.00 0.00 0.00 0.00 0.00 0.00 0.00 0.00 0.00 0.00 0.00 0.00 0.00 0.00 0.00 0.00 0.00 0.00 0.00 0.00 0.00 0.00 0.00 0.00 0.00 0.00 0.00 0.00 0.00 0.00 0.00 0.00 0.00 0.00 0.00 0.00 0.00 0.00 0.00 0.00 0.00 0.00 0.00
0.00 0.00 0.00 0.00 0.00 0.00 0.00 0.00 0.00 0.00 0.00 0.00 0.00 0.00 0.00 0.00 0.00 0.00 0.00 0.00 0.00 0.00 0.00 0.00 0.00 0.00 0.00 0.00 0.00 0.00 0.00 0.00 0.00 0.00 0.00 0.00 0.00 0.00 0.00 0.00 0.00 0.00 0.00 0.00
0.00 0.00 0.00 0.00 0.00 0.00 0.00 0.00 0.00 0.00 0.00 0.00 0.00 0.00 0.00 0.00 0.00 0.00 0.00 0.00 0.00 0.00 0.00 0.00 0.00 0.00 0.00 0.00 0.00 0.00 0.00 0.00 0.00 0.00 0.00 0.00 0.00 0.00 0.00 0.00 0.00 0.00 0.00 0.00

GFSCGP_prec_precacc_036.txt.gz
Total_Precipitation_Accumulation
0.11 0.22 0.19 0.10 0.04 0.03 0.02 0.05 0.02 0.00 0.00 0.01 0.00 0.00 0.00 0.00 0.00 0.00 0.00 0.00 0.00 0.00 0.00 0.00 0.00 0.00 0.00 0.00 0.00 0.00 0.00 0.00 0.00 0.00 0.00 0.04 0.08 0.10 0.10 0.11 0.10 0.04 0.02 0.01
0.23 0.19 0.04 0.09 0.06 0.05 0.06 0.06 0.04 0.01 0.02 0.04 0.00 0.00 0.00 0.00 0.00 0.00 0.00 0.00 0.00 0.00 0.00 0.00 0.00 0.00 0.00 0.00 0.00 0.00 0.00 0.00 0.00 0.00 0.01 0.09 0.12 0.14 0.10 0.12 0.12 0.10 0.07 0.02
0.22 0.18 0.05 0.14 0.13 0.09 0.07 0.07 0.04 0.03 0.05 0.04 0.02 0.00 0.00 0.00 0.00 0.00 0.00 0.00 0.00 0.00 0.00 0.00 0.00 0.00 0.00 0.00 0.00 0.00 0.00 0.00 0.00 0.00 0.01 0.05 0.06 0.06 0.04 0.06 0.10 0.13 0.13 0.07
0.22 0.19 0.18 0.17 0.25 0.09 0.06 0.03 0.04 0.07 0.16 0.05 0.07 0.03 0.00 0.00 0.00 0.00 0.00 0.00 0.00 0.00 0.00 0.00 0.00 0.00 0.00 0.00 0.00 0.00 0.00 0.00 0.00 0.00 0.00 0.04 0.05 0.07 0.07 0.08 0.08 0.09 0.10 0.05
0.45 0.24 0.31 0.19 0.28 0.09 0.09 0.02 0.04 0.08 0.22 0.34 0.07 0.08 0.01 0.00 0.00 0.00 0.00 0.00 0.00 0.00 0.00 0.00 0.00 0.00 0.00 0.00 0.00 0.00 0.00 0.00 0.00 0.00 0.00 0.03 0.08 0.06 0.05 0.05 0.06 0.05 0.05 0.02
0.28 0.18 0.30 0.19 0.17 0.16 0.10 0.14 0.14 0.22 0.34 0.53 0.34 0.10 0.02 0.00 0.00 0.00 0.00 0.00 0.00 0.00 0.00 0.00 0.00 0.00 0.00 0.00 0.00 0.00 0.00 0.00 0.00 0.00 0.01 0.01 0.08 0.06 0.03 0.01 0.02 0.04 0.04 0.02
0.88 0.59 0.48 0.23 0.36 0.50 0.41 0.60 0.81 0.73 0.78 0.36 0.07 0.24 0.11 0.00 0.00 0.00 0.00 0.00 0.00 0.00 0.00 0.00 0.00 0.00 0.00 0.00 0.00 0.00 0.00 0.00 0.00 0.00 0.00 0.00 0.02 0.07 0.03 0.02 0.03 0.03 0.03 0.02
0.78 0.66 0.52 0.30 0.46 0.78 0.60 0.54 0.78 0.39 0.30 0.13 0.05 0.07 0.03 0.00 0.00 0.00 0.00 0.00 0.00 0.00 0.00 0.00 0.00 0.00 0.00 0.00 0.00 0.00 0.00 0.00 0.00 0.00 0.00 0.00 0.00 0.02 0.01 0.02 0.03 0.03 0.03 0.02
0.47 0.52 0.31 0.19 0.22 0.52 0.68 0.73 0.48 0.51 0.22 0.32 0.10 0.02 0.00 0.00 0.00 0.00 0.00 0.00 0.00 0.00 0.00 0.00 0.00 0.00 0.00 0.00 0.00 0.00 0.00 0.00 0.00 0.00 0.00 0.00 0.00 0.01 0.01 0.01 0.01 0.01 0.01 0.01
0.33 0.57 0.53 0.49 0.41 0.59 0.55 0.35 0.54 1.09 0.49 0.20 0.11 0.06 0.00 0.00 0.00 0.00 0.00 0.00 0.00 0.00 0.00 0.00 0.00 0.00 0.00 0.00 0.00 0.00 0.00 0.00 0.00 0.00 0.00 0.00 0.00 0.01 0.01 0.01 0.01 0.01 0.01 0.00
0.44 0.62 0.63 0.88 0.76 0.54 0.56 0.62 0.51 0.57 0.29 0.14 0.06 0.08 0.01 0.00 0.00 0.02 0.01 0.01 0.01 0.01 0.00 0.00 0.00 0.00 0.00 0.00 0.00 0.00 0.00 0.00 0.00 0.00 0.00 0.00 0.00 0.01 0.01 0.01 0.00 0.00 0.00 0.00
0.38 0.56 0.70 0.54 0.20 0.16 0.24 0.26 0.20 0.77 0.39 0.27 0.17 0.06 0.01 0.01 0.00 0.02 0.03 0.03 0.02 0.01 0.00 0.00 0.00 0.00 0.00 0.00 0.00 0.00 0.00 0.00 0.00 0.00 0.00 0.00 0.00 0.00 0.00 0.00 0.01 0.01 0.01 0.00
0.29 0.74 0.75 0.69 0.48 0.48 0.60 0.33 0.28 0.62 1.11 0.61 0.30 0.07 0.00 0.01 0.01 0.01 0.01 0.03 0.01 0.00 0.00 0.00 0.00 0.00 0.00 0.00 0.01 0.00 0.00 0.00 0.00 0.00 0.00 0.00 0.00 0.00 0.00 0.00 0.00 0.00 0.01 0.00
0.66 0.60 0.74 0.73 0.73 0.79 0.55 0.30 0.48 1.00 1.30 0.37 0.16 0.03 0.01 0.01 0.03 0.02 0.02 0.03 0.06 0.02 0.01 0.00 0.00 0.00 0.00 0.00 0.02 0.01 0.01 0.02 0.01 0.00 0.00 0.01 0.00 0.00 0.00 0.00 0.00 0.00 0.01 0.00
0.73 0.94 1.21 0.74 0.38 0.93 0.53 0.29 0.37 0.85 0.60 0.51 0.16 0.07 0.02 0.01 0.03 0.06 0.05 0.10 0.04 0.02 0.00 0.00 0.00 0.00 0.00 0.00 0.01 0.00 0.01 0.02 0.01 0.00 0.00 0.00 0.00 0.00 0.00 0.01 0.01 0.00 0.00 0.00
0.47 0.79 0.96 0.56 0.17 0.33 0.34 0.15 0.20 0.19 0.31 0.41 0.17 0.22 0.05 0.02 0.09 0.21 0.12 0.17 0.05 0.02 0.00 0.00 0.00 0.00 0.00 0.00 0.00 0.00 0.00 0.01 0.02 0.02 0.01 0.00 0.00 0.00 0.00 0.01 0.01 0.01 0.00 0.00
0.28 0.45 0.78 0.63 0.37 0.24 0.42 0.26 0.15 0.14 0.20 0.32 0.29 0.19 0.07 0.06 0.26 0.27 0.26 0.23 0.02 0.01 0.00 0.00 0.00 0.00 0.00 0.00 0.00 0.00 0.01 0.02 0.02 0.02 0.01 0.00 0.00 0.01 0.02 0.01 0.00 0.00 0.00 0.00
0.08 0.26 0.45 0.49 0.49 0.51 0.43 0.25 0.11 0.13 0.16 0.21 0.24 0.14 0.03 0.14 0.17 0.12 0.28 0.22 0.08 0.01 0.00 0.00 0.00 0.00 0.00 0.00 0.00 0.01 0.02 0.02 0.03 0.03 0.09 0.07 0.05 0.05 0.04 0.03 0.03 0.01 0.00 0.00
0.03 0.16 0.27 0.18 0.21 0.21 0.08 0.13 0.19 0.13 0.12 0.09 0.10 0.13 0.09 0.07 0.11 0.19 0.13 0.02 0.02 0.02 0.01 0.00 0.00 0.00 0.00 0.00 0.00 0.01 0.02 0.02 0.04 0.03 0.13 0.29 0.31 0.23 0.12 0.02 0.00 0.00 0.00 0.00
0.03 0.09 0.28 0.11 0.10 0.00 0.02 0.05 0.03 0.01 0.04 0.01 0.02 0.03 0.03 0.08 0.30 0.27 0.08 0.02 0.01 0.01 0.01 0.01 0.00 0.00 0.00 0.00 0.02 0.05 0.04 0.05 0.10 0.11 0.09 0.08 0.09 0.06 0.02 0.00 0.00 0.00 0.00 0.00
0.08 0.12 0.20 0.16 0.16 0.00 0.00 0.00 0.00 0.00 0.01 0.00 0.00 0.01 0.03 0.07 0.08 0.08 0.07 0.06 0.03 0.02 0.01 0.01 0.01 0.02 0.04 0.05 0.10 0.23 0.17 0.14 0.13 0.16 0.18 0.07 0.01 0.00 0.00 0.00 0.00 0.00 0.00 0.00
0.01 0.02 0.04 0.08 0.08 0.01 0.00 0.00 0.00 0.00 0.00 0.00 0.00 0.01 0.08 0.08 0.07 0.07 0.01 0.00 0.03 0.09 0.18 0.22 0.16 0.12 0.15 0.16 0.20 0.41 0.24 0.14 0.08 0.03 0.01 0.00 0.00 0.00 0.00 0.00 0.00 0.00 0.00 0.00
0.00 0.00 0.00 0.00 0.00 0.00 0.00 0.00 0.00 0.00 0.00 0.00 0.00 0.01 0.05 0.07 0.18 0.11 0.01 0.00 0.00 0.00 0.05 0.15 0.14 0.12 0.16 0.10 0.07 0.09 0.04 0.00 0.00 0.00 0.00 0.00 0.00 0.00 0.00 0.00 0.00 0.00 0.00 0.00
0.00 0.00 0.00 0.00 0.00 0.00 0.00 0.00 0.00 0.00 0.00 0.00 0.00 0.00 0.00 0.00 0.00 0.00 0.00 0.00 0.01 0.00 0.00 0.00 0.00 0.00 0.00 0.00 0.00 0.00 0.00 0.00 0.00 0.00 0.00 0.00 0.00 0.00 0.00 0.00 0.00 0.00 0.00 0.00
0.00 0.00 0.00 0.00 0.00 0.00 0.00 0.00 0.00 0.00 0.00 0.00 0.00 0.00 0.00 0.00 0.00 0.00 0.00 0.00 0.00 0.00 0.00 0.00 0.00 0.00 0.00 0.00 0.00 0.00 0.00 0.00 0.00 0.00 0.00 0.00 0.00 0.00 0.00 0.00 0.00 0.00 0.00 0.00
0.00 0.00 0.00 0.00 0.00 0.00 0.00 0.00 0.00 0.00 0.00 0.00 0.00 0.00 0.00 0.00 0.00 0.00 0.00 0.00 0.00 0.00 0.00 0.00 0.00 0.00 0.00 0.00 0.00 0.00 0.00 0.00 0.00 0.00 0.00 0.00 0.00 0.00 0.00 0.00 0.00 0.00 0.00 0.00

GFSCGP_prec_precacc_039.txt.gz
Total_Precipitation_Accumulation
0.15 0.23 0.20 0.10 0.04 0.03 0.02 0.05 0.02 0.00 0.00 0.01 0.00 0.00 0.00 0.00 0.00 0.00 0.00 0.00 0.00 0.00 0.00 0.00 0.00 0.00 0.00 0.00 0.00 0.00 0.00 0.00 0.00 0.01 0.01 0.07 0.13 0.11 0.10 0.12 0.11 0.04 0.02 0.01
0.24 0.20 0.04 0.09 0.06 0.05 0.06 0.06 0.04 0.01 0.02 0.04 0.00 0.00 0.00 0.00 0.00 0.00 0.00 0.00 0.00 0.00 0.00 0.00 0.00 0.00 0.00 0.00 0.00 0.00 0.00 0.00 0.00 0.00 0.01 0.15 0.23 0.21 0.13 0.14 0.13 0.11 0.09 0.06
0.22 0.18 0.05 0.14 0.13 0.09 0.07 0.07 0.04 0.03 0.05 0.04 0.02 0.00 0.00 0.00 0.00 0.00 0.00 0.00 0.00 0.00 0.00 0.00 0.00 0.00 0.00 0.00 0.00 0.00 0.00 0.00 0.00 0.00 0.01 0.07 0.13 0.16 0.14 0.08 0.11 0.14 0.16 0.15
0.22 0.19 0.18 0.17 0.25 0.09 0.06 0.03 0.04 0.07 0.16 0.05 0.07 0.03 0.00 0.00 0.00 0.00 0.00 0.00 0.00 0.00 0.00 0.00 0.00 0.00 0.00 0.00 0.00 0.00 0.00 0.00 0.00 0.00 0.00 0.04 0.06 0.12 0.10 0.13 0.12 0.13 0.17 0.12
0.45 0.24 0.31 0.19 0.28 0.09 0.09 0.02 0.04 0.08 0.22 0.34 0.07 0.08 0.01 0.00 0.00 0.00 0.00 0.00 0.00 0.00 0.00 0.00 0.00 0.00 0.00 0.00 0.00 0.00 0.00 0.00 0.00 0.00 0.00 0.03 0.09 0.08 0.09 0.10 0.10 0.09 0.10 0.07
0.28 0.18 0.30 0.19 0.17 0.16 0.10 0.14 0.14 0.22 0.34 0.53 0.34 0.10 0.02 0.00 0.00 0.00 0.00 0.00 0.00 0.00 0.00 0.00 0.00 0.00 0.00 0.00 0.00 0.00 0.00 0.00 0.00 0.00 0.01 0.01 0.08 0.07 0.05 0.03 0.04 0.07 0.08 0.05
0.88 0.59 0.48 0.23 0.36 0.50 0.41 0.60 0.81 0.73 0.78 0.36 0.07 0.24 0.11 0.00 0.00 0.00 0.00 0.00 0.00 0.00 0.00 0.00 0.00 0.00 0.00 0.00 0.00 0.00 0.00 0.00 0.00 0.00 0.00 0.00 0.02 0.08 0.05 0.04 0.05 0.05 0.04 0.03
0.78 0.66 0.52 0.30 0.46 0.78 0.60 0.54 0.78 0.39 0.30 0.13 0.05 0.07 0.03 0.00 0.00 0.00 0.00 0.00 0.00 0.00 0.00 0.00 0.00 0.00 0.00 0.00 0.00 0.00 0.00 0.00 0.00 0.00 0.00 0.00 0.00 0.04 0.04 0.04 0.05 0.05 0.04 0.03
0.47 0.52 0.31 0.19 0.22 0.52 0.68 0.73 0.48 0.51 0.22 0.32 0.10 0.02 0.00 0.00 0.00 0.00 0.00 0.00 0.00 0.00 0.00 0.00 0.00 0.00 0.00 0.00 0.00 0.00 0.00 0.00 0.00 0.00 0.00 0.00 0.00 0.04 0.03 0.03 0.03 0.02 0.02 0.01
0.33 0.57 0.53 0.49 0.41 0.59 0.55 0.35 0.54 1.09 0.49 0.20 0.11 0.06 0.00 0.00 0.00 0.00 0.00 0.00 0.00 0.00 0.00 0.00 0.00 0.00 0.00 0.00 0.00 0.00 0.00 0.00 0.00 0.02 0.02 0.01 0.02 0.03 0.02 0.02 0.01 0.01 0.01 0.00
0.44 0.62 0.63 0.88 0.76 0.54 0.56 0.62 0.51 0.57 0.29 0.14 0.06 0.08 0.01 0.00 0.00 0.02 0.01 0.01 0.01 0.01 0.00 0.00 0.00 0.00 0.00 0.00 0.00 0.00 0.00 0.00 0.00 0.01 0.00 0.01 0.01 0.02 0.01 0.01 0.00 0.00 0.01 0.01
0.38 0.56 0.70 0.54 0.20 0.16 0.24 0.26 0.20 0.77 0.39 0.27 0.17 0.06 0.01 0.01 0.00 0.02 0.03 0.03 0.02 0.01 0.00 0.00 0.00 0.00 0.00 0.00 0.00 0.00 0.00 0.00 0.01 0.00 0.00 0.00 0.00 0.00 0.00 0.00 0.01 0.01 0.01 0.01
0.29 0.74 0.75 0.69 0.48 0.48 0.60 0.33 0.28 0.62 1.13 0.62 0.30 0.07 0.00 0.01 0.01 0.01 0.01 0.03 0.01 0.00 0.00 0.00 0.00 0.00 0.00 0.00 0.02 0.04 0.04 0.01 0.01 0.00 0.00 0.00 0.00 0.00 0.00 0.00 0.00 0.01 0.01 0.02
0.66 0.60 0.74 0.73 0.73 0.79 0.55 0.30 0.48 1.00 1.35 0.39 0.17 0.03 0.01 0.01 0.03 0.02 0.02 0.03 0.06 0.02 0.01 0.00 0.00 0.00 0.00 0.00 0.05 0.05 0.04 0.02 0.02 0.00 0.00 0.01 0.00 0.00 0.00 0.00 0.00 0.01 0.02 0.01
0.73 0.94 1.21 0.74 0.38 0.93 0.53 0.29 0.37 0.87 0.61 0.57 0.17 0.07 0.02 0.01 0.04 0.08 0.07 0.11 0.04 0.02 0.00 0.00 0.00 0.00 0.00 0.00 0.03 0.04 0.07 0.06 0.03 0.01 0.01 0.00 0.00 0.00 0.00 0.01 0.01 0.01 0.01 0.01
0.47 0.79 0.96 0.56 0.17 0.33 0.34 0.15 0.20 0.19 0.31 0.41 0.17 0.22 0.05 0.02 0.11 0.28 0.16 0.21 0.07 0.03 0.00 0.00 0.00 0.00 0.00 0.00 0.01 0.02 0.05 0.04 0.04 0.03 0.01 0.00 0.00 0.00 0.00 0.01 0.01 0.03 0.03 0.04
0.28 0.45 0.78 0.63 0.37 0.24 0.42 0.26 0.15 0.14 0.20 0.33 0.30 0.19 0.07 0.07 0.27 0.29 0.30 0.30 0.07 0.01 0.00 0.00 0.00 0.00 0.00 0.00 0.01 0.01 0.02 0.03 0.03 0.02 0.01 0.00 0.00 0.02 0.02 0.02 0.01 0.03 0.06 0.10
0.08 0.26 0.45 0.49 0.49 0.51 0.43 0.25 0.11 0.13 0.16 0.21 0.24 0.14 0.04 0.15 0.18 0.12 0.30 0.25 0.10 0.01 0.00 0.00 0.00 0.00 0.00 0.00 0.00 0.01 0.02 0.02 0.03 0.03 0.09 0.07 0.05 0.08 0.15 0.14 0.16 0.15 0.10 0.07
0.03 0.16 0.27 0.18 0.21 0.21 0.08 0.13 0.19 0.13 0.12 0.09 0.10 0.15 0.11 0.08 0.11 0.19 0.13 0.03 0.02 0.02 0.01 0.00 0.00 0.00 0.00 0.00 0.00 0.01 0.02 0.02 0.05 0.04 0.14 0.33 0.36 0.37 0.41 0.35 0.25 0.20 0.13 0.03
0.03 0.09 0.29 0.11 0.11 0.00 0.02 0.05 0.03 0.01 0.04 0.01 0.02 0.04 0.04 0.09 0.30 0.28 0.09 0.02 0.01 0.01 0.01 0.01 0.00 0.00 0.00 0.00 0.03 0.05 0.04 0.08 0.16 0.22 0.16 0.33 0.46 0.43 0.28 0.18 0.09 0.02 0.00 0.00
0.09 0.14 0.22 0.17 0.17 0.00 0.00 0.00 0.00 0.00 0.01 0.00 0.00 0.01 0.03 0.07 0.08 0.08 0.08 0.07 0.03 0.02 0.01 0.01 0.01 0.02 0.04 0.05 0.12 0.24 0.21 0.31 0.31 0.57 0.42 0.22 0.27 0.17 0.02 0.00 0.00 0.00 0.00 0.00
0.02 0.03 0.05 0.09 0.09 0.01 0.00 0.00 0.00 0.00 0.00 0.00 0.00 0.01 0.08 0.08 0.07 0.07 0.01 0.01 0.08 0.16 0.22 0.25 0.18 0.14 0.18 0.20 0.33 0.68 0.46 0.33 0.23 0.18 0.12 0.07 0.05 0.01 0.00 0.00 0.00 0.00 0.00 0.00
0.00 0.00 0.00 0.00 0.00 0.00 0.00 0.00 0.00 0.00 0.00 0.00 0.00 0.01 0.05 0.07 0.18 0.11 0.01 0.00 0.01 0.06 0.25 0.50 0.45 0.41 0.52 0.38 0.31 0.42 0.26 0.15 0.05 0.03 0.00 0.00 0.00 0.00 0.00 0.00 0.00 0.00 0.00 0.00
0.00 0.00 0.00 0.00 0.00 0.00 0.00 0.00 0.00 0.00 0.00 0.00 0.00 0.00 0.00 0.00 0.00 0.00 0.00 0.00 0.01 0.01 0.00 0.01 0.01 0.02 0.06 0.08 0.03 0.04 0.02 0.01 0.00 0.00 0.00 0.00 0.00 0.00 0.00 0.00 0.00 0.00 0.00 0.00
0.00 0.00 0.00 0.00 0.00 0.00 0.00 0.00 0.00 0.00 0.00 0.00 0.00 0.00 0.00 0.00 0.00 0.00 0.00 0.00 0.00 0.00 0.00 0.00 0.00 0.00 0.00 0.00 0.00 0.00 0.00 0.00 0.00 0.00 0.00 0.00 0.00 0.00 0.00 0.00 0.00 0.00 0.00 0.00
0.00 0.00 0.00 0.00 0.00 0.00 0.00 0.00 0.00 0.00 0.00 0.00 0.00 0.00 0.00 0.00 0.00 0.00 0.00 0.00 0.00 0.00 0.00 0.00 0.00 0.00 0.00 0.00 0.00 0.00 0.00 0.00 0.00 0.00 0.00 0.00 0.00 0.00 0.00 0.00 0.00 0.00 0.00 0.00

GFSCGP_prec_precacc_042.txt.gz
Total_Precipitation_Accumulation
0.18 0.25 0.25 0.15 0.05 0.03 0.02 0.05 0.02 0.00 0.00 0.01 0.00 0.00 0.00 0.00 0.00 0.00 0.00 0.00 0.00 0.00 0.00 0.00 0.00 0.00 0.00 0.00 0.00 0.00 0.00 0.00 0.03 0.04 0.04 0.11 0.19 0.16 0.11 0.12 0.11 0.04 0.02 0.02
0.26 0.21 0.04 0.10 0.06 0.05 0.06 0.06 0.04 0.01 0.02 0.04 0.00 0.00 0.00 0.00 0.00 0.00 0.00 0.00 0.00 0.00 0.00 0.00 0.00 0.00 0.00 0.00 0.00 0.00 0.00 0.00 0.00 0.01 0.02 0.17 0.28 0.28 0.20 0.18 0.14 0.11 0.11 0.11
0.22 0.18 0.05 0.14 0.13 0.09 0.07 0.07 0.04 0.03 0.05 0.04 0.02 0.00 0.00 0.00 0.00 0.00 0.00 0.00 0.00 0.00 0.00 0.00 0.00 0.00 0.00 0.00 0.00 0.00 0.00 0.00 0.00 0.02 0.06 0.14 0.20 0.23 0.22 0.13 0.12 0.16 0.18 0.31
0.22 0.19 0.18 0.17 0.25 0.09 0.06 0.03 0.04 0.07 0.16 0.05 0.07 0.03 0.00 0.00 0.00 0.00 0.00 0.00 0.00 0.00 0.00 0.00 0.00 0.00 0.00 0.00 0.00 0.00 0.00 0.00 0.00 0.00 0.01 0.06 0.07 0.12 0.11 0.14 0.21 0.24 0.24 0.24
0.45 0.24 0.31 0.19 0.28 0.09 0.09 0.02 0.04 0.08 0.22 0.34 0.07 0.08 0.01 0.00 0.00 0.00 0.00 0.00 0.00 0.00 0.00 0.00 0.00 0.00 0.00 0.00 0.00 0.00 0.00 0.00 0.00 0.00 0.00 0.03 0.09 0.09 0.10 0.14 0.16 0.18 0.23 0.19
0.28 0.18 0.30 0.19 0.17 0.16 0.10 0.14 0.14 0.22 0.34 0.53 0.34 0.10 0.02 0.00 0.00 0.00 0.00 0.00 0.00 0.00 0.00 0.00 0.00 0.00 0.00 0.00 0.00 0.00 0.00 0.00 0.00 0.00 0.01 0.01 0.08 0.07 0.06 0.05 0.07 0.11 0.14 0.12
0.88 0.59 0.48 0.23 0.36 0.50 0.41 0.60 0.81 0.73 0.78 0.36 0.07 0.24 0.11 0.00 0.00 0.00 0.00 0.00 0.00 0.00 0.00 0.00 0.00 0.00 0.00 0.00 0.00 0.00 0.00 0.00 0.00 0.00 0.00 0.00 0.02 0.08 0.05 0.05 0.06 0.07 0.07 0.06
0.78 0.66 0.52 0.30 0.46 0.78 0.60 0.54 0.78 0.39 0.30 0.13 0.05 0.07 0.03 0.00 0.00 0.00 0.00 0.00 0.00 0.00 0.00 0.00 0.00 0.00 0.00 0.00 0.00 0.00 0.00 0.00 0.00 0.00 0.00 0.00 0.00 0.04 0.05 0.05 0.06 0.06 0.07 0.06
0.47 0.52 0.31 0.19 0.22 0.52 0.68 0.73 0.48 0.51 0.22 0.32 0.10 0.02 0.00 0.00 0.00 0.00 0.00 0.00 0.00 0.00 0.00 0.00 0.00 0.00 0.00 0.00 0.00 0.00 0.00 0.00 0.00 0.00 0.00 0.00 0.00 0.05 0.05 0.04 0.04 0.05 0.05 0.04
0.33 0.57 0.53 0.49 0.41 0.59 0.55 0.35 0.54 1.09 0.49 0.20 0.11 0.06 0.00 0.00 0.00 0.00 0.00 0.00 0.00 0.00 0.00 0.00 0.00 0.00 0.00 0.00 0.00 0.00 0.00 0.00 0.00 0.02 0.02 0.01 0.04 0.04 0.04 0.03 0.03 0.04 0.03 0.03
0.44 0.62 0.63 0.88 0.76 0.54 0.56 0.62 0.51 0.57 0.29 0.14 0.06 0.08 0.01 0.00 0.00 0.02 0.01 0.01 0.01 0.01 0.00 0.00 0.00 0.00 0.00 0.00 0.00 0.00 0.00 0.00 0.00 0.01 0.00 0.01 0.03 0.03 0.03 0.03 0.02 0.02 0.02 0.02
0.38 0.56 0.70 0.54 0.20 0.16 0.24 0.26 0.20 0.77 0.39 0.27 0.17 0.06 0.01 0.01 0.00 0.02 0.03 0.03 0.02 0.01 0.00 0.00 0.00 0.00 0.00 0.00 0.00 0.00 0.00 0.00 0.01 0.01 0.00 0.01 0.02 0.04 0.04 0.03 0.02 0.02 0.02 0.02
0.29 0.74 0.75 0.69 0.48 0.48 0.60 0.33 0.28 0.62 1.13 0.62 0.31 0.07 0.00 0.01 0.01 0.01 0.01 0.03 0.01 0.00 0.00 0.00 0.00 0.00 0.00 0.00 0.02 0.04 0.04 0.01 0.01 0.00 0.01 0.02 0.04 0.05 0.04 0.03 0.01 0.01 0.02 0.02
0.66 0.60 0.74 0.73 0.73 0.79 0.55 0.30 0.48 1.00 1.36 0.39 0.17 0.03 0.01 0.01 0.03 0.02 0.03 0.04 0.06 0.02 0.01 0.00 0.00 0.00 0.00 0.00 0.05 0.05 0.04 0.02 0.05 0.05 0.05 0.05 0.04 0.04 0.03 0.01 0.00 0.01 0.02 0.02
0.73 0.94 1.21 0.74 0.38 0.93 0.53 0.29 0.37 0.87 0.61 0.58 0.17 0.07 0.02 0.01 0.04 0.09 0.08 0.11 0.06 0.03 0.01 0.00 0.01 0.01 0.00 0.00 0.03 0.04 0.07 0.08 0.08 0.08 0.06 0.03 0.01 0.01 0.01 0.01 0.01 0.01 0.01 0.01
0.47 0.79 0.96 0.56 0.17 0.33 0.34 0.15 0.20 0.19 0.31 0.41 0.17 0.22 0.05 0.02 0.12 0.29 0.17 0.22 0.11 0.06 0.02 0.01 0.01 0.00 0.00 0.00 0.01 0.02 0.06 0.10 0.15 0.11 0.06 0.03 0.03 0.02 0.01 0.01 0.02 0.03 0.04 0.06
0.28 0.45 0.78 0.63 0.37 0.24 0.42 0.26 0.15 0.14 0.20 0.33 0.31 0.19 0.07 0.07 0.29 0.31 0.31 0.30 0.09 0.03 0.01 0.00 0.00 0.00 0.00 0.00 0.01 0.01 0.03 0.06 0.06 0.05 0.03 0.03 0.01 0.02 0.02 0.02 0.02 0.05 0.13 0.19
0.08 0.26 0.45 0.49 0.49 0.51 0.43 0.25 0.11 0.13 0.16 0.21 0.24 0.14 0.04 0.16 0.20 0.13 0.30 0.25 0.11 0.01 0.00 0.00 0.00 0.00 0.00 0.00 0.00 0.01 0.02 0.04 0.11 0.14 0.13 0.10 0.05 0.09 0.16 0.19 0.26 0.28 0.21 0.17
0.03 0.16 0.27 0.18 0.21 0.21 0.08 0.13 0.19 0.13 0.12 0.09 0.10 0.15 0.11 0.08 0.12 0.19 0.13 0.03 0.02 0.02 0.01 0.00 0.00 0.00 0.00 0.00 0.00 0.01 0.02 0.02 0.08 0.07 0.15 0.34 0.38 0.42 0.56 0.74 0.63 0.48 0.44 0.31
0.03 0.09 0.30 0.11 0.11 0.00 0.02 0.05 0.03 0.01 0.04 0.01 0.02 0.04 0.05 0.09 0.30 0.28 0.09 0.02 0.01 0.01 0.01 0.01 0.00 0.00 0.00 0.00 0.03 0.05 0.04 0.08 0.18 0.25 0.19 0.56 0.72 0.59 0.47 0.41 0.38 0.22 0.10 0.03
0.10 0.15 0.22 0.17 0.17 0.00 0.00 0.00 0.00 0.00 0.01 0.00 0.00 0.01 0.03 0.07 0.08 0.08 0.08 0.07 0.03 0.02 0.01 0.01 0.01 0.02 0.04 0.06 0.13 0.25 0.23 0.40 0.51 0.81 0.57 0.46 0.50 0.40 0.22 0.13 0.04 0.01 0.00 0.00
0.02 0.03 0.05 0.10 0.10 0.01 0.00 0.00 0.00 0.00 0.00 0.00 0.00 0.01 0.08 0.08 0.07 0.07 0.01 0.01 0.08 0.17 0.23 0.25 0.18 0.14 0.18 0.22 0.37 0.72 0.62 0.57 0.51 0.43 0.44 0.19 0.10 0.08 0.06 0.01 0.00 0.00 0.00 0.00
0.00 0.00 0.00 0.00 0.00 0.00 0.00 0.00 0.00 0.00 0.00 0.00 0.00 0.01 0.05 0.07 0.18 0.11 0.01 0.01 0.01 0.07 0.28 0.54 0.49 0.45 0.55 0.41 0.41 0.56 0.43 0.25 0.09 0.08 0.02 0.01 0.00 0.00 0.00 0.00 0.00 0.00 0.00 0.00
0.00 0.00 0.00 0.00 0.00 0.00 0.00 0.00 0.00 0.00 0.00 0.00 0.00 0.00 0.00 0.00 0.00 0.00 0.00 0.00 0.02 0.01 0.01 0.02 0.02 0.06 0.14 0.13 0.11 0.15 0.10 0.05 0.01 0.00 0.00 0.00 0.00 0.00 0.00 0.00 0.00 0.00 0.00 0.00
0.00 0.00 0.00 0.00 0.00 0.00 0.00 0.00 0.00 0.00 0.00 0.00 0.00 0.00 0.00 0.00 0.00 0.00 0.00 0.00 0.00 0.00 0.00 0.00 0.00 0.00 0.00 0.00 0.00 0.00 0.00 0.00 0.00 0.00 0.00 0.00 0.00 0.00 0.00 0.00 0.00 0.00 0.00 0.00
0.00 0.00 0.00 0.00 0.00 0.00 0.00 0.00 0.00 0.00 0.00 0.00 0.00 0.00 0.00 0.00 0.00 0.00 0.00 0.00 0.00 0.00 0.00 0.00 0.00 0.00 0.00 0.00 0.00 0.00 0.00 0.00 0.00 0.00 0.00 0.00 0.00 0.00 0.00 0.00 0.00 0.00 0.00 0.00

GFSCGP_prec_precacc_045.txt.gz
Total_Precipitation_Accumulation
0.22 0.37 0.36 0.18 0.05 0.03 0.02 0.05 0.02 0.00 0.00 0.01 0.00 0.00 0.00 0.00 0.00 0.00 0.00 0.00 0.00 0.00 0.00 0.00 0.00 0.00 0.00 0.00 0.00 0.00 0.00 0.00 0.03 0.06 0.06 0.12 0.21 0.20 0.12 0.13 0.12 0.04 0.03 0.06
0.28 0.24 0.09 0.16 0.09 0.06 0.06 0.06 0.04 0.01 0.02 0.04 0.00 0.00 0.00 0.00 0.00 0.00 0.00 0.00 0.00 0.00 0.00 0.00 0.00 0.00 0.00 0.00 0.00 0.00 0.00 0.00 0.00 0.01 0.02 0.17 0.28 0.30 0.23 0.21 0.15 0.12 0.13 0.19
0.22 0.19 0.06 0.16 0.13 0.11 0.07 0.07 0.04 0.03 0.05 0.04 0.02 0.00 0.00 0.00 0.00 0.00 0.00 0.00 0.00 0.00 0.00 0.00 0.00 0.00 0.00 0.00 0.00 0.00 0.00 0.00 0.00 0.02 0.06 0.16 0.22 0.27 0.26 0.16 0.12 0.16 0.23 0.45
0.22 0.19 0.19 0.17 0.25 0.09 0.06 0.03 0.04 0.07 0.16 0.05 0.07 0.03 0.00 0.00 0.00 0.00 0.00 0.00 0.00 0.00 0.00 0.00 0.00 0.00 0.00 0.00 0.00 0.00 0.00 0.00 0.00 0.00 0.01 0.07 0.07 0.13 0.11 0.14 0.23 0.28 0.30 0.40
0.45 0.24 0.31 0.19 0.28 0.09 0.09 0.02 0.04 0.08 0.22 0.34 0.07 0.08 0.01 0.00 0.00 0.00 0.00 0.00 0.00 0.00 0.00 0.00 0.00 0.00 0.00 0.00 0.00 0.00 0.00 0.00 0.00 0.00 0.00 0.04 0.10 0.09 0.10 0.14 0.17 0.21 0.27 0.27
0.28 0.18 0.30 0.19 0.17 0.16 0.10 0.14 0.14 0.22 0.34 0.53 0.34 0.10 0.02 0.00 0.00 0.00 0.00 0.00 0.00 0.00 0.00 0.00 0.00 0.00 0.00 0.00 0.00 0.00 0.00 0.00 0.00 0.00 0.01 0.01 0.08 0.07 0.06 0.07 0.11 0.14 0.16 0.14
0.88 0.59 0.48 0.23 0.36 0.50 0.41 0.60 0.81 0.73 0.78 0.36 0.07 0.24 0.11 0.00 0.00 0.00 0.00 0.00 0.00 0.00 0.00 0.00 0.00 0.00 0.00 0.00 0.00 0.00 0.00 0.00 0.00 0.00 0.00 0.00 0.02 0.08 0.06 0.08 0.12 0.10 0.08 0.07
0.78 0.66 0.52 0.30 0.46 0.78 0.60 0.54 0.78 0.39 0.30 0.13 0.05 0.07 0.03 0.00 0.00 0.00 0.00 0.00 0.00 0.00 0.00 0.00 0.00 0.00 0.00 0.00 0.00 0.00 0.00 0.00 0.00 0.00 0.00 0.00 0.00 0.04 0.05 0.06 0.07 0.08 0.10 0.09
0.47 0.52 0.31 0.19 0.22 0.52 0.68 0.73 0.48 0.51 0.22 0.32 0.10 0.02 0.00 0.00 0.00 0.00 0.00 0.00 0.00 0.00 0.00 0.00 0.00 0.00 0.00 0.00 0.00 0.00 0.00 0.00 0.00 0.00 0.00 0.00 0.00 0.05 0.05 0.04 0.04 0.06 0.06 0.06
0.33 0.57 0.53 0.49 0.41 0.59 0.55 0.35 0.54 1.09 0.49 0.20 0.11 0.06 0.00 0.00 0.00 0.00 0.00 0.00 0.00 0.00 0.00 0.00 0.00 0.00 0.00 0.00 0.00 0.00 0.00 0.00 0.00 0.02 0.02 0.01 0.04 0.04 0.04 0.03 0.03 0.05 0.06 0.06
0.44 0.62 0.63 0.88 0.76 0.54 0.56 0.62 0.51 0.57 0.29 0.14 0.06 0.08 0.01 0.00 0.00 0.02 0.01 0.01 0.01 0.01 0.00 0.00 0.00 0.00 0.00 0.00 0.00 0.00 0.00 0.00 0.00 0.01 0.00 0.01 0.03 0.03 0.04 0.04 0.04 0.04 0.04 0.05
0.38 0.56 0.70 0.54 0.20 0.16 0.24 0.26 0.20 0.77 0.39 0.27 0.17 0.06 0.01 0.01 0.00 0.02 0.03 0.03 0.02 0.01 0.00 0.00 0.00 0.00 0.00 0.00 0.00 0.00 0.00 0.00 0.01 0.01 0.00 0.01 0.02 0.04 0.05 0.05 0.05 0.06 0.05 0.04
0.29 0.74 0.75 0.69 0.48 0.48 0.60 0.33 0.28 0.62 1.13 0.62 0.31 0.07 0.00 0.01 0.01 0.01 0.01 0.03 0.01 0.00 0.00 0.00 0.00 0.00 0.00 0.00 0.02 0.04 0.04 0.01 0.01 0.00 0.01 0.03 0.04 0.06 0.07 0.06 0.06 0.06 0.05 0.04
0.66 0.60 0.74 0.73 0.73 0.79 0.55 0.30 0.48 1.00 1.36 0.39 0.17 0.03 0.01 0.01 0.03 0.02 0.03 0.04 0.06 0.02 0.01 0.00 0.00 0.00 0.00 0.01 0.05 0.05 0.04 0.02 0.05 0.05 0.05 0.06 0.06 0.07 0.08 0.07 0.06 0.06 0.06 0.04
0.73 0.94 1.21 0.74 0.38 0.93 0.53 0.29 0.37 0.87 0.61 0.58 0.17 0.07 0.02 0.01 0.04 0.10 0.09 0.11 0.06 0.03 0.01 0.00 0.01 0.01 0.01 0.01 0.03 0.04 0.07 0.08 0.08 0.11 0.11 0.09 0.07 0.04 0.03 0.04 0.03 0.02 0.02 0.02
0.47 0.79 0.96 0.56 0.17 0.33 0.34 0.15 0.20 0.19 0.31 0.41 0.17 0.22 0.05 0.02 0.12 0.29 0.17 0.22 0.11 0.06 0.02 0.01 0.01 0.00 0.00 0.00 0.01 0.02 0.06 0.10 0.16 0.15 0.10 0.07 0.05 0.05 0.05 0.04 0.03 0.03 0.04 0.06
0.28 0.45 0.78 0.63 0.37 0.24 0.42 0.26 0.15 0.14 0.20 0.33 0.31 0.19 0.07 0.07 0.29 0.31 0.31 0.30 0.09 0.03 0.01 0.00 0.00 0.00 0.00 0.00 0.01 0.01 0.03 0.06 0.07 0.06 0.04 0.04 0.06 0.10 0.08 0.05 0.03 0.06 0.14 0.20
0.08 0.26 0.45 0.49 0.49 0.51 0.43 0.25 0.11 0.13 0.16 0.21 0.24 0.14 0.04 0.16 0.20 0.13 0.30 0.25 0.11 0.01 0.00 0.00 0.00 0.00 0.00 0.00 0.00 0.01 0.02 0.07 0.16 0.22 0.24 0.19 0.33 0.33 0.20 0.26 0.30 0.32 0.28 0.28
0.03 0.16 0.27 0.18 0.21 0.21 0.08 0.13 0.19 0.13 0.12 0.09 0.10 0.15 0.11 0.08 0.12 0.19 0.13 0.03 0.02 0.02 0.01 0.00 0.00 0.00 0.00 0.00 0.00 0.01 0.02 0.04 0.15 0.30 0.52 0.50 0.53 0.46 0.58 0.77 0.69 0.55 0.60 0.51
0.03 0.09 0.30 0.11 0.11 0.00 0.02 0.05 0.03 0.01 0.04 0.01 0.02 0.04 0.05 0.09 0.30 0.28 0.09 0.02 0.01 0.01 0.01 0.01 0.00 0.00 0.00 0.00 0.03 0.05 0.04 0.08 0.18 0.26 0.20 0.57 0.75 0.61 0.54 0.51 0.53 0.46 0.27 0.23
0.10 0.15 0.24 0.17 0.18 0.00 0.00 0.00 0.00 0.00 0.01 0.00 0.00 0.01 0.03 0.07 0.08 0.08 0.08 0.07 0.03 0.02 0.01 0.01 0.02 0.02 0.04 0.07 0.13 0.25 0.23 0.41 0.53 0.83 0.59 0.61 0.77 0.51 0.30 0.22 0.10 0.07 0.06 0.03
0.02 0.04 0.05 0.10 0.10 0.01 0.00 0.00 0.00 0.00 0.00 0.00 0.00 0.01 0.08 0.08 0.07 0.07 0.01 0.01 0.08 0.17 0.23 0.25 0.18 0.14 0.18 0.22 0.37 0.72 0.66 0.65 0.66 0.62 0.60 0.29 0.23 0.15 0.10 0.04 0.03 0.02 0.01 0.00
0.00 0.00 0.00 0.00 0.00 0.00 0.00 0.00 0.00 0.00 0.00 0.00 0.00 0.01 0.05 0.07 0.18 0.11 0.01 0.01 0.01 0.07 0.28 0.54 0.49 0.45 0.55 0.41 0.43 0.59 0.46 0.28 0.12 0.13 0.07 0.03 0.00 0.00 0.00 0.00 0.00 0.00 0.00 0.00
0.00 0.00 0.00 0.00 0.00 0.00 0.00 0.00 0.00 0.00 0.00 0.00 0.00 0.00 0.00 0.00 0.00 0.00 0.00 0.00 0.02 0.01 0.01 0.02 0.02 0.06 0.14 0.14 0.14 0.18 0.12 0.05 0.01 0.00 0.00 0.00 0.00 0.00 0.00 0.00 0.00 0.00 0.00 0.00
0.00 0.00 0.00 0.00 0.00 0.00 0.00 0.00 0.00 0.00 0.00 0.00 0.00 0.00 0.00 0.00 0.00 0.00 0.00 0.00 0.00 0.00 0.00 0.00 0.00 0.00 0.00 0.00 0.00 0.00 0.00 0.00 0.00 0.00 0.00 0.00 0.00 0.00 0.00 0.00 0.00 0.00 0.00 0.00
0.00 0.00 0.00 0.00 0.00 0.00 0.00 0.00 0.00 0.00 0.00 0.00 0.00 0.00 0.00 0.00 0.00 0.00 0.00 0.00 0.00 0.00 0.00 0.00 0.00 0.00 0.00 0.00 0.00 0.00 0.00 0.00 0.00 0.00 0.00 0.00 0.00 0.00 0.00 0.00 0.00 0.00 0.00 0.00

GFSCGP_prec_precacc_051.txt.gz
Total_Precipitation_Accumulation
0.51 0.45 0.41 0.18 0.05 0.03 0.02 0.05 0.02 0.00 0.00 0.01 0.00 0.00 0.00 0.00 0.00 0.00 0.00 0.00 0.00 0.00 0.00 0.00 0.00 0.00 0.00 0.00 0.00 0.00 0.00 0.00 0.04 0.06 0.07 0.13 0.22 0.24 0.14 0.16 0.24 0.06 0.07 0.12
0.93 0.31 0.17 0.18 0.09 0.06 0.06 0.06 0.04 0.01 0.02 0.04 0.00 0.00 0.00 0.00 0.00 0.00 0.00 0.00 0.00 0.00 0.00 0.00 0.00 0.00 0.00 0.00 0.00 0.00 0.00 0.00 0.00 0.01 0.02 0.17 0.29 0.31 0.24 0.26 0.20 0.14 0.18 0.27
0.79 0.44 0.14 0.27 0.18 0.14 0.08 0.07 0.04 0.03 0.05 0.04 0.02 0.00 0.00 0.00 0.00 0.00 0.00 0.00 0.00 0.00 0.00 0.00 0.00 0.00 0.00 0.00 0.00 0.00 0.00 0.00 0.00 0.02 0.06 0.16 0.22 0.27 0.27 0.16 0.12 0.17 0.26 0.58
0.45 0.40 0.36 0.33 0.34 0.13 0.10 0.04 0.04 0.07 0.16 0.05 0.07 0.03 0.00 0.00 0.00 0.00 0.00 0.00 0.00 0.00 0.00 0.00 0.00 0.00 0.00 0.00 0.00 0.00 0.00 0.00 0.00 0.00 0.01 0.07 0.07 0.13 0.11 0.14 0.23 0.28 0.33 0.52
0.47 0.31 0.38 0.35 0.40 0.14 0.10 0.03 0.04 0.08 0.22 0.34 0.07 0.08 0.01 0.00 0.00 0.00 0.00 0.00 0.00 0.00 0.00 0.00 0.00 0.00 0.00 0.00 0.00 0.00 0.00 0.00 0.00 0.00 0.00 0.04 0.10 0.09 0.10 0.15 0.17 0.22 0.29 0.33
0.28 0.19 0.31 0.26 0.25 0.22 0.11 0.14 0.14 0.22 0.34 0.53 0.34 0.10 0.02 0.00 0.00 0.00 0.00 0.00 0.00 0.00 0.00 0.00 0.00 0.00 0.00 0.00 0.00 0.00 0.00 0.00 0.00 0.00 0.01 0.01 0.08 0.08 0.06 0.09 0.15 0.17 0.19 0.17
0.94 0.60 0.48 0.23 0.38 0.51 0.41 0.60 0.81 0.73 0.78 0.36 0.07 0.24 0.11 0.00 0.00 0.00 0.00 0.00 0.00 0.00 0.00 0.00 0.00 0.00 0.00 0.00 0.00 0.00 0.00 0.00 0.00 0.00 0.00 0.00 0.02 0.09 0.07 0.10 0.15 0.14 0.10 0.08
0.79 0.67 0.52 0.30 0.46 0.78 0.60 0.54 0.78 0.39 0.30 0.13 0.05 0.07 0.03 0.00 0.00 0.00 0.00 0.00 0.00 0.00 0.00 0.00 0.00 0.00 0.00 0.00 0.00 0.00 0.00 0.00 0.00 0.00 0.00 0.00 0.00 0.04 0.05 0.06 0.07 0.08 0.10 0.11
0.47 0.52 0.31 0.19 0.22 0.52 0.68 0.73 0.48 0.51 0.22 0.32 0.10 0.02 0.00 0.00 0.00 0.00 0.00 0.00 0.00 0.00 0.00 0.00 0.00 0.00 0.00 0.00 0.00 0.00 0.00 0.00 0.00 0.00 0.00 0.00 0.00 0.05 0.05 0.04 0.04 0.06 0.06 0.07
0.33 0.57 0.53 0.49 0.41 0.59 0.55 0.35 0.54 1.09 0.49 0.20 0.11 0.06 0.00 0.00 0.00 0.00 0.00 0.00 0.00 0.00 0.00 0.00 0.00 0.00 0.00 0.00 0.00 0.00 0.00 0.00 0.00 0.02 0.02 0.01 0.04 0.04 0.04 0.03 0.03 0.05 0.06 0.06
0.44 0.62 0.63 0.88 0.76 0.54 0.56 0.62 0.51 0.57 0.29 0.14 0.06 0.08 0.01 0.00 0.00 0.02 0.01 0.01 0.01 0.01 0.00 0.00 0.00 0.00 0.00 0.00 0.00 0.00 0.00 0.00 0.00 0.01 0.00 0.01 0.03 0.03 0.04 0.04 0.04 0.04 0.04 0.05
0.38 0.56 0.70 0.54 0.20 0.16 0.24 0.26 0.20 0.77 0.39 0.27 0.17 0.06 0.01 0.01 0.00 0.02 0.03 0.03 0.02 0.01 0.00 0.00 0.00 0.00 0.00 0.00 0.00 0.00 0.00 0.00 0.01 0.01 0.00 0.01 0.02 0.04 0.05 0.05 0.05 0.06 0.05 0.05
0.29 0.74 0.75 0.69 0.48 0.48 0.60 0.33 0.28 0.62 1.13 0.62 0.31 0.07 0.00 0.01 0.01 0.01 0.01 0.03 0.01 0.00 0.00 0.00 0.00 0.00 0.00 0.00 0.02 0.04 0.04 0.01 0.01 0.00 0.01 0.03 0.04 0.06 0.07 0.06 0.06 0.06 0.05 0.04
0.66 0.60 0.74 0.73 0.73 0.79 0.55 0.30 0.48 1.00 1.36 0.39 0.17 0.03 0.01 0.01 0.03 0.02 0.03 0.04 0.06 0.02 0.01 0.00 0.00 0.00 0.00 0.01 0.05 0.05 0.04 0.02 0.05 0.05 0.05 0.06 0.06 0.07 0.08 0.08 0.06 0.06 0.06 0.05
0.73 0.94 1.21 0.74 0.38 0.93 0.53 0.29 0.37 0.87 0.61 0.58 0.17 0.07 0.02 0.01 0.04 0.10 0.09 0.11 0.06 0.03 0.01 0.00 0.01 0.01 0.01 0.01 0.03 0.04 0.07 0.08 0.08 0.11 0.11 0.09 0.07 0.05 0.05 0.05 0.05 0.04 0.04 0.04
0.47 0.79 0.96 0.56 0.17 0.33 0.34 0.15 0.20 0.19 0.31 0.41 0.17 0.22 0.05 0.02 0.12 0.29 0.17 0.22 0.11 0.06 0.02 0.01 0.01 0.00 0.00 0.00 0.01 0.02 0.06 0.10 0.16 0.15 0.10 0.07 0.06 0.06 0.06 0.06 0.06 0.07 0.08 0.10
0.28 0.45 0.78 0.63 0.37 0.24 0.42 0.26 0.15 0.14 0.20 0.33 0.31 0.19 0.07 0.07 0.29 0.31 0.31 0.30 0.09 0.03 0.01 0.00 0.00 0.00 0.00 0.00 0.01 0.01 0.03 0.06 0.07 0.06 0.04 0.04 0.07 0.10 0.09 0.07 0.05 0.08 0.21 0.37
0.08 0.26 0.45 0.49 0.49 0.51 0.43 0.25 0.11 0.13 0.16 0.21 0.24 0.14 0.04 0.16 0.20 0.13 0.30 0.25 0.11 0.01 0.00 0.00 0.00 0.00 0.00 0.00 0.00 0.01 0.02 0.07 0.16 0.23 0.24 0.20 0.38 0.53 0.36 0.40 0.47 0.50 0.34 0.39
0.03 0.16 0.27 0.18 0.21 0.21 0.08 0.13 0.19 0.13 0.12 0.09 0.10 0.15 0.11 0.08 0.12 0.19 0.13 0.03 0.02 0.02 0.01 0.00 0.00 0.00 0.00 0.00 0.00 0.01 0.02 0.04 0.15 0.33 0.58 0.60 0.65 0.67 0.72 1.06 0.99 1.11 0.99 0.76
0.03 0.09 0.30 0.11 0.11 0.00 0.02 0.05 0.03 0.01 0.04 0.01 0.02 0.04 0.05 0.09 0.30 0.28 0.09 0.02 0.01 0.01 0.01 0.01 0.00 0.00 0.00 0.00 0.03 0.05 0.04 0.08 0.18 0.26 0.22 0.61 0.77 0.63 0.57 0.61 0.62 0.64 0.42 0.43
0.11 0.16 0.24 0.17 0.18 0.00 0.00 0.00 0.00 0.01 0.02 0.00 0.00 0.01 0.03 0.07 0.08 0.08 0.08 0.07 0.03 0.02 0.01 0.01 0.02 0.02 0.04 0.07 0.13 0.25 0.23 0.41 0.53 0.84 0.62 0.65 0.80 0.63 0.46 0.53 0.34 0.32 0.33 0.25
0.02 0.04 0.06 0.11 0.10 0.01 0.00 0.00 0.00 0.00 0.00 0.00 0.00 0.01 0.08 0.08 0.07 0.07 0.01 0.01 0.08 0.17 0.23 0.25 0.18 0.14 0.18 0.22 0.37 0.72 0.66 0.65 0.70 0.64 0.69 0.44 0.40 0.30 0.21 0.14 0.13 0.10 0.05 0.03
0.00 0.00 0.00 0.00 0.00 0.00 0.00 0.00 0.00 0.00 0.00 0.00 0.00 0.01 0.05 0.07 0.18 0.11 0.01 0.01 0.01 0.07 0.28 0.54 0.49 0.45 0.55 0.41 0.43 0.59 0.46 0.28 0.14 0.17 0.12 0.05 0.02 0.02 0.01 0.01 0.00 0.00 0.00 0.00
0.00 0.00 0.00 0.00 0.00 0.00 0.00 0.00 0.00 0.00 0.00 0.00 0.00 0.00 0.00 0.00 0.00 0.00 0.00 0.00 0.02 0.01 0.01 0.02 0.02 0.06 0.14 0.14 0.14 0.18 0.12 0.05 0.01 0.00 0.00 0.00 0.00 0.00 0.00 0.00 0.00 0.00 0.00 0.00
0.01 0.00 0.00 0.00 0.00 0.00 0.00 0.00 0.00 0.00 0.00 0.00 0.00 0.00 0.00 0.00 0.00 0.00 0.00 0.00 0.00 0.00 0.00 0.00 0.00 0.00 0.00 0.00 0.00 0.00 0.00 0.00 0.00 0.00 0.00 0.00 0.00 0.00 0.00 0.00 0.00 0.00 0.00 0.00
0.00 0.00 0.00 0.00 0.00 0.00 0.00 0.00 0.00 0.00 0.00 0.00 0.00 0.00 0.00 0.00 0.00 0.00 0.00 0.00 0.00 0.00 0.00 0.00 0.00 0.00 0.00 0.00 0.00 0.00 0.00 0.00 0.00 0.00 0.00 0.00 0.00 0.00 0.00 0.00 0.00 0.00 0.00 0.00

GFSCGP_prec_precacc_054.txt.gz
Total_Precipitation_Accumulation
0.62 0.64 0.43 0.19 0.05 0.03 0.02 0.05 0.02 0.00 0.00 0.01 0.00 0.00 0.00 0.00 0.00 0.00 0.00 0.00 0.00 0.00 0.00 0.00 0.00 0.00 0.00 0.00 0.00 0.00 0.00 0.00 0.04 0.07 0.07 0.13 0.22 0.24 0.14 0.16 0.26 0.10 0.11 0.14
1.03 0.35 0.18 0.18 0.10 0.06 0.06 0.06 0.04 0.01 0.02 0.04 0.00 0.00 0.00 0.00 0.00 0.00 0.00 0.00 0.00 0.00 0.00 0.00 0.00 0.00 0.00 0.00 0.00 0.00 0.00 0.00 0.00 0.01 0.02 0.17 0.29 0.31 0.24 0.28 0.21 0.15 0.19 0.28
0.92 0.46 0.15 0.27 0.19 0.14 0.08 0.07 0.04 0.03 0.05 0.04 0.02 0.00 0.00 0.00 0.00 0.00 0.00 0.00 0.00 0.00 0.00 0.00 0.00 0.00 0.00 0.00 0.00 0.00 0.00 0.00 0.00 0.02 0.06 0.16 0.22 0.27 0.28 0.16 0.12 0.17 0.26 0.58
0.76 0.52 0.41 0.34 0.35 0.13 0.10 0.04 0.04 0.07 0.16 0.05 0.07 0.03 0.00 0.00 0.00 0.00 0.00 0.00 0.00 0.00 0.00 0.00 0.00 0.00 0.00 0.00 0.00 0.00 0.00 0.00 0.00 0.00 0.01 0.07 0.07 0.13 0.11 0.14 0.23 0.28 0.33 0.53
0.68 0.53 0.60 0.44 0.43 0.15 0.10 0.03 0.04 0.08 0.22 0.34 0.07 0.08 0.01 0.00 0.00 0.00 0.00 0.00 0.00 0.00 0.00 0.00 0.00 0.00 0.00 0.00 0.00 0.00 0.00 0.00 0.00 0.00 0.00 0.04 0.10 0.09 0.10 0.15 0.17 0.22 0.29 0.33
0.39 0.48 0.45 0.44 0.39 0.26 0.11 0.14 0.14 0.22 0.34 0.53 0.34 0.10 0.02 0.00 0.00 0.00 0.00 0.00 0.00 0.00 0.00 0.00 0.00 0.00 0.00 0.00 0.00 0.00 0.00 0.00 0.00 0.00 0.01 0.01 0.08 0.08 0.06 0.09 0.15 0.17 0.19 0.17
1.00 0.64 0.53 0.37 0.54 0.60 0.41 0.60 0.81 0.73 0.78 0.36 0.07 0.24 0.11 0.00 0.00 0.00 0.00 0.00 0.00 0.00 0.00 0.00 0.00 0.00 0.00 0.00 0.00 0.00 0.00 0.00 0.00 0.00 0.00 0.00 0.02 0.09 0.07 0.10 0.15 0.15 0.10 0.08
0.89 0.73 0.55 0.37 0.48 0.80 0.60 0.54 0.78 0.39 0.30 0.13 0.05 0.07 0.03 0.00 0.00 0.00 0.00 0.00 0.00 0.00 0.00 0.00 0.00 0.00 0.00 0.00 0.00 0.00 0.00 0.00 0.00 0.00 0.00 0.00 0.00 0.04 0.05 0.06 0.07 0.08 0.11 0.11
0.50 0.53 0.31 0.19 0.22 0.52 0.68 0.73 0.48 0.51 0.22 0.32 0.10 0.02 0.00 0.00 0.00 0.00 0.00 0.00 0.00 0.00 0.00 0.00 0.00 0.00 0.00 0.00 0.00 0.00 0.00 0.00 0.00 0.00 0.00 0.00 0.00 0.05 0.05 0.04 0.04 0.06 0.06 0.07
0.33 0.57 0.53 0.49 0.41 0.59 0.55 0.35 0.54 1.09 0.49 0.20 0.11 0.06 0.00 0.00 0.00 0.00 0.00 0.00 0.00 0.00 0.00 0.00 0.00 0.00 0.00 0.00 0.00 0.00 0.00 0.00 0.00 0.02 0.02 0.01 0.04 0.04 0.04 0.03 0.03 0.05 0.06 0.06
0.44 0.62 0.63 0.88 0.76 0.54 0.56 0.62 0.51 0.57 0.29 0.14 0.06 0.08 0.01 0.00 0.00 0.02 0.01 0.01 0.01 0.01 0.00 0.00 0.00 0.00 0.00 0.00 0.00 0.00 0.00 0.00 0.00 0.01 0.00 0.01 0.03 0.03 0.04 0.04 0.04 0.04 0.04 0.05
0.38 0.56 0.70 0.54 0.20 0.16 0.24 0.26 0.20 0.77 0.39 0.27 0.17 0.06 0.01 0.01 0.00 0.02 0.03 0.03 0.02 0.01 0.00 0.00 0.00 0.00 0.00 0.00 0.00 0.00 0.00 0.00 0.01 0.01 0.00 0.01 0.02 0.04 0.05 0.05 0.05 0.06 0.05 0.05
0.29 0.74 0.75 0.69 0.48 0.48 0.60 0.33 0.28 0.62 1.13 0.62 0.31 0.07 0.00 0.01 0.01 0.01 0.01 0.03 0.01 0.00 0.00 0.00 0.00 0.00 0.00 0.00 0.02 0.04 0.04 0.01 0.01 0.00 0.01 0.03 0.04 0.06 0.07 0.06 0.06 0.06 0.05 0.04
0.66 0.60 0.74 0.73 0.73 0.79 0.55 0.30 0.48 1.00 1.36 0.39 0.17 0.03 0.01 0.01 0.03 0.02 0.03 0.04 0.06 0.02 0.01 0.00 0.00 0.00 0.00 0.01 0.05 0.05 0.04 0.02 0.05 0.05 0.05 0.06 0.06 0.07 0.08 0.08 0.06 0.07 0.07 0.06
0.73 0.94 1.21 0.74 0.38 0.93 0.53 0.29 0.37 0.87 0.61 0.58 0.17 0.07 0.02 0.01 0.04 0.10 0.09 0.11 0.06 0.03 0.01 0.00 0.01 0.01 0.01 0.01 0.03 0.04 0.07 0.08 0.08 0.11 0.11 0.09 0.07 0.05 0.05 0.06 0.05 0.05 0.05 0.06
0.47 0.79 0.96 0.56 0.17 0.33 0.34 0.15 0.20 0.19 0.31 0.41 0.17 0.22 0.05 0.02 0.12 0.29 0.17 0.22 0.11 0.06 0.02 0.01 0.01 0.00 0.00 0.00 0.01 0.02 0.06 0.10 0.16 0.15 0.10 0.07 0.06 0.06 0.07 0.06 0.06 0.08 0.09 0.11
0.28 0.45 0.78 0.63 0.37 0.24 0.42 0.26 0.15 0.14 0.20 0.33 0.31 0.19 0.07 0.07 0.29 0.31 0.31 0.30 0.09 0.03 0.01 0.00 0.00 0.00 0.00 0.00 0.01 0.01 0.03 0.06 0.07 0.06 0.04 0.04 0.07 0.10 0.09 0.07 0.05 0.08 0.23 0.38
0.08 0.26 0.45 0.49 0.49 0.51 0.43 0.25 0.11 0.13 0.16 0.21 0.24 0.14 0.04 0.16 0.20 0.13 0.30 0.25 0.11 0.01 0.00 0.00 0.00 0.00 0.00 0.00 0.00 0.01 0.02 0.07 0.16 0.23 0.24 0.20 0.38 0.53 0.37 0.44 0.55 0.61 0.40 0.41
0.03 0.16 0.27 0.18 0.21 0.21 0.08 0.13 0.19 0.13 0.12 0.09 0.10 0.15 0.11 0.08 0.12 0.19 0.13 0.03 0.02 0.02 0.01 0.00 0.00 0.00 0.00 0.00 0.00 0.01 0.02 0.04 0.15 0.33 0.58 0.60 0.65 0.67 0.73 1.09 1.03 1.18 1.07 0.83
0.03 0.09 0.30 0.11 0.11 0.00 0.02 0.05 0.03 0.01 0.05 0.01 0.02 0.04 0.05 0.09 0.30 0.28 0.09 0.02 0.01 0.01 0.01 0.01 0.00 0.00 0.00 0.00 0.03 0.05 0.04 0.08 0.18 0.26 0.22 0.61 0.77 0.63 0.58 0.63 0.64 0.72 0.50 0.51
0.11 0.16 0.24 0.17 0.18 0.00 0.00 0.00 0.00 0.03 0.02 0.00 0.00 0.01 0.03 0.07 0.08 0.08 0.08 0.07 0.03 0.02 0.01 0.01 0.02 0.02 0.04 0.07 0.13 0.25 0.23 0.41 0.53 0.84 0.62 0.66 0.80 0.64 0.47 0.54 0.36 0.35 0.38 0.30
0.02 0.04 0.07 0.11 0.11 0.01 0.00 0.00 0.01 0.01 0.00 0.00 0.00 0.01 0.08 0.08 0.07 0.07 0.01 0.01 0.08 0.17 0.23 0.25 0.18 0.14 0.18 0.22 0.37 0.72 0.66 0.65 0.70 0.64 0.69 0.44 0.40 0.30 0.22 0.15 0.14 0.10 0.05 0.03
0.00 0.00 0.00 0.00 0.00 0.00 0.00 0.00 0.00 0.00 0.00 0.00 0.00 0.01 0.05 0.07 0.18 0.11 0.01 0.01 0.01 0.07 0.28 0.54 0.49 0.45 0.55 0.41 0.43 0.59 0.46 0.28 0.14 0.17 0.12 0.05 0.02 0.02 0.01 0.01 0.00 0.00 0.00 0.00
0.00 0.00 0.00 0.00 0.00 0.00 0.00 0.00 0.00 0.00 0.00 0.00 0.00 0.00 0.00 0.00 0.00 0.00 0.00 0.00 0.02 0.01 0.01 0.02 0.02 0.06 0.14 0.14 0.14 0.18 0.12 0.05 0.01 0.00 0.00 0.00 0.00 0.00 0.00 0.00 0.00 0.00 0.00 0.00
0.01 0.00 0.00 0.00 0.00 0.00 0.00 0.00 0.00 0.00 0.00 0.00 0.00 0.00 0.00 0.00 0.00 0.00 0.00 0.00 0.00 0.00 0.00 0.00 0.00 0.00 0.00 0.00 0.00 0.00 0.00 0.00 0.00 0.00 0.00 0.00 0.00 0.00 0.00 0.00 0.00 0.00 0.00 0.00
0.00 0.00 0.00 0.00 0.00 0.00 0.00 0.00 0.00 0.00 0.00 0.00 0.00 0.00 0.00 0.00 0.00 0.00 0.00 0.00 0.00 0.00 0.00 0.00 0.00 0.00 0.00 0.00 0.00 0.00 0.00 0.00 0.00 0.00 0.00 0.00 0.00 0.00 0.00 0.00 0.00 0.00 0.00 0.00

GFSCGP_prec_precacc_057.txt.gz
Total_Precipitation_Accumulation
0.70 0.94 0.50 0.19 0.05 0.03 0.02 0.05 0.02 0.00 0.00 0.01 0.00 0.00 0.00 0.00 0.00 0.00 0.00 0.00 0.00 0.00 0.00 0.00 0.00 0.00 0.00 0.00 0.00 0.00 0.00 0.00 0.04 0.07 0.07 0.14 0.22 0.25 0.15 0.16 0.26 0.10 0.11 0.14
1.10 0.58 0.25 0.19 0.10 0.06 0.06 0.06 0.04 0.01 0.02 0.04 0.00 0.00 0.00 0.00 0.00 0.00 0.00 0.00 0.00 0.00 0.00 0.00 0.00 0.00 0.00 0.00 0.00 0.00 0.00 0.00 0.00 0.01 0.02 0.17 0.29 0.31 0.24 0.29 0.21 0.15 0.19 0.28
0.94 0.51 0.24 0.30 0.19 0.14 0.08 0.07 0.04 0.03 0.05 0.04 0.02 0.00 0.00 0.00 0.00 0.00 0.00 0.00 0.00 0.00 0.00 0.00 0.00 0.00 0.00 0.00 0.00 0.00 0.00 0.00 0.00 0.02 0.06 0.16 0.22 0.27 0.28 0.16 0.12 0.17 0.27 0.59
0.80 0.54 0.48 0.36 0.36 0.13 0.10 0.04 0.04 0.07 0.16 0.05 0.07 0.03 0.00 0.00 0.00 0.00 0.00 0.00 0.00 0.00 0.00 0.00 0.00 0.00 0.00 0.00 0.00 0.00 0.00 0.00 0.00 0.00 0.01 0.07 0.07 0.13 0.11 0.14 0.23 0.28 0.34 0.55
0.76 0.60 0.66 0.45 0.43 0.15 0.11 0.03 0.04 0.08 0.22 0.34 0.07 0.08 0.01 0.00 0.00 0.00 0.00 0.00 0.00 0.00 0.00 0.00 0.00 0.00 0.00 0.00 0.00 0.00 0.00 0.00 0.00 0.00 0.00 0.04 0.10 0.09 0.10 0.15 0.17 0.22 0.29 0.33
0.47 0.65 0.54 0.47 0.39 0.26 0.11 0.14 0.14 0.22 0.34 0.53 0.34 0.10 0.02 0.00 0.00 0.00 0.00 0.00 0.00 0.00 0.00 0.00 0.00 0.00 0.00 0.00 0.00 0.00 0.00 0.00 0.00 0.00 0.01 0.01 0.08 0.08 0.06 0.09 0.15 0.17 0.19 0.18
1.24 0.92 0.70 0.49 0.59 0.63 0.41 0.60 0.81 0.74 0.78 0.36 0.07 0.24 0.11 0.00 0.00 0.00 0.00 0.00 0.00 0.00 0.00 0.00 0.00 0.00 0.00 0.00 0.00 0.00 0.00 0.00 0.00 0.00 0.00 0.00 0.02 0.09 0.07 0.10 0.15 0.15 0.11 0.08
1.00 0.88 0.72 0.65 0.61 0.87 0.61 0.55 0.78 0.39 0.30 0.13 0.05 0.07 0.03 0.00 0.00 0.00 0.00 0.00 0.00 0.00 0.00 0.00 0.00 0.00 0.00 0.00 0.00 0.00 0.00 0.00 0.00 0.00 0.00 0.00 0.00 0.04 0.05 0.06 0.07 0.08 0.11 0.11
0.54 0.57 0.39 0.35 0.32 0.58 0.71 0.73 0.48 0.51 0.22 0.32 0.10 0.02 0.00 0.00 0.00 0.00 0.00 0.00 0.00 0.00 0.00 0.00 0.00 0.00 0.00 0.00 0.00 0.00 0.00 0.00 0.00 0.00 0.00 0.00 0.00 0.05 0.05 0.04 0.04 0.06 0.06 0.07
0.34 0.60 0.54 0.50 0.43 0.62 0.55 0.35 0.54 1.09 0.49 0.20 0.11 0.06 0.00 0.00 0.00 0.00 0.00 0.00 0.00 0.00 0.00 0.00 0.00 0.00 0.00 0.00 0.00 0.00 0.00 0.00 0.00 0.02 0.02 0.01 0.04 0.04 0.04 0.03 0.03 0.05 0.06 0.06
0.44 0.62 0.64 0.88 0.76 0.54 0.56 0.62 0.51 0.57 0.29 0.14 0.06 0.08 0.01 0.00 0.00 0.02 0.01 0.01 0.01 0.01 0.00 0.00 0.00 0.00 0.00 0.00 0.00 0.00 0.00 0.00 0.00 0.01 0.00 0.01 0.03 0.03 0.04 0.04 0.04 0.04 0.04 0.05
0.38 0.56 0.71 0.54 0.20 0.16 0.24 0.26 0.20 0.77 0.39 0.27 0.17 0.06 0.01 0.01 0.00 0.02 0.03 0.03 0.02 0.01 0.00 0.00 0.00 0.00 0.00 0.00 0.00 0.00 0.00 0.00 0.01 0.01 0.00 0.01 0.02 0.04 0.05 0.05 0.05 0.06 0.05 0.05
0.29 0.74 0.75 0.69 0.48 0.48 0.60 0.33 0.28 0.62 1.13 0.62 0.31 0.07 0.00 0.01 0.01 0.01 0.01 0.03 0.01 0.00 0.00 0.00 0.00 0.00 0.00 0.00 0.02 0.04 0.04 0.01 0.01 0.00 0.01 0.03 0.04 0.06 0.07 0.06 0.06 0.06 0.05 0.04
0.66 0.60 0.74 0.73 0.73 0.79 0.55 0.30 0.48 1.00 1.36 0.39 0.17 0.03 0.01 0.01 0.03 0.02 0.03 0.04 0.06 0.02 0.01 0.00 0.00 0.00 0.00 0.01 0.05 0.05 0.04 0.02 0.05 0.05 0.05 0.06 0.06 0.07 0.08 0.08 0.06 0.07 0.07 0.06
0.73 0.94 1.21 0.74 0.38 0.93 0.53 0.29 0.37 0.87 0.61 0.58 0.17 0.07 0.02 0.01 0.04 0.10 0.09 0.11 0.06 0.03 0.01 0.00 0.01 0.01 0.01 0.01 0.03 0.04 0.07 0.08 0.08 0.11 0.11 0.09 0.07 0.05 0.05 0.06 0.05 0.05 0.05 0.06
0.47 0.79 0.96 0.56 0.17 0.33 0.34 0.15 0.20 0.19 0.31 0.41 0.17 0.22 0.05 0.02 0.12 0.29 0.17 0.22 0.11 0.06 0.02 0.01 0.01 0.00 0.00 0.00 0.01 0.02 0.06 0.10 0.16 0.15 0.10 0.07 0.06 0.06 0.07 0.06 0.06 0.08 0.09 0.11
0.28 0.45 0.78 0.63 0.37 0.24 0.42 0.26 0.15 0.14 0.20 0.33 0.31 0.19 0.07 0.07 0.29 0.31 0.31 0.30 0.09 0.03 0.01 0.00 0.00 0.00 0.00 0.00 0.01 0.01 0.03 0.06 0.07 0.06 0.04 0.04 0.07 0.10 0.09 0.07 0.05 0.09 0.23 0.40
0.08 0.26 0.45 0.49 0.49 0.51 0.43 0.25 0.11 0.13 0.16 0.21 0.24 0.14 0.04 0.16 0.20 0.13 0.30 0.25 0.11 0.01 0.00 0.00 0.00 0.00 0.00 0.00 0.00 0.01 0.02 0.07 0.16 0.23 0.24 0.20 0.38 0.53 0.37 0.44 0.56 0.63 0.43 0.44
0.03 0.16 0.27 0.18 0.21 0.21 0.08 0.13 0.19 0.13 0.12 0.09 0.10 0.15 0.11 0.08 0.12 0.19 0.13 0.03 0.02 0.02 0.01 0.00 0.00 0.00 0.00 0.00 0.00 0.01 0.02 0.04 0.15 0.33 0.58 0.61 0.65 0.67 0.73 1.09 1.03 1.18 1.08 0.85
0.03 0.09 0.31 0.11 0.11 0.00 0.02 0.05 0.03 0.01 0.05 0.01 0.02 0.04 0.05 0.09 0.30 0.28 0.09 0.02 0.01 0.01 0.01 0.01 0.00 0.00 0.00 0.00 0.03 0.05 0.04 0.08 0.18 0.26 0.22 0.61 0.78 0.63 0.58 0.63 0.64 0.72 0.50 0.52
0.12 0.17 0.25 0.17 0.18 0.00 0.00 0.00 0.00 0.05 0.03 0.00 0.00 0.01 0.03 0.07 0.08 0.08 0.08 0.07 0.03 0.02 0.01 0.01 0.02 0.02 0.04 0.07 0.13 0.25 0.23 0.41 0.53 0.84 0.62 0.66 0.80 0.64 0.47 0.54 0.36 0.35 0.38 0.30
0.03 0.05 0.07 0.11 0.11 0.01 0.00 0.00 0.01 0.02 0.00 0.00 0.00 0.01 0.08 0.08 0.07 0.07 0.01 0.01 0.08 0.17 0.23 0.25 0.18 0.14 0.18 0.22 0.37 0.72 0.66 0.65 0.70 0.64 0.69 0.44 0.40 0.30 0.22 0.15 0.14 0.10 0.05 0.03
0.00 0.00 0.00 0.00 0.00 0.00 0.00 0.00 0.00 0.00 0.00 0.00 0.00 0.01 0.05 0.07 0.18 0.11 0.01 0.01 0.01 0.07 0.28 0.54 0.49 0.45 0.55 0.41 0.43 0.59 0.46 0.28 0.14 0.17 0.12 0.05 0.02 0.02 0.01 0.01 0.00 0.00 0.00 0.00
0.00 0.00 0.00 0.00 0.00 0.00 0.00 0.00 0.00 0.00 0.00 0.00 0.00 0.00 0.00 0.00 0.00 0.00 0.00 0.00 0.02 0.01 0.01 0.02 0.02 0.06 0.14 0.14 0.14 0.18 0.12 0.05 0.01 0.00 0.00 0.00 0.00 0.00 0.00 0.00 0.00 0.00 0.00 0.00
0.01 0.00 0.00 0.00 0.00 0.00 0.00 0.00 0.00 0.00 0.00 0.00 0.00 0.00 0.00 0.00 0.00 0.00 0.00 0.00 0.00 0.00 0.00 0.00 0.00 0.00 0.00 0.00 0.00 0.00 0.00 0.00 0.00 0.00 0.00 0.00 0.00 0.00 0.00 0.00 0.00 0.00 0.00 0.00
0.00 0.00 0.00 0.00 0.00 0.00 0.00 0.00 0.00 0.00 0.00 0.00 0.00 0.00 0.00 0.00 0.00 0.00 0.00 0.00 0.00 0.00 0.00 0.00 0.00 0.00 0.00 0.00 0.00 0.00 0.00 0.00 0.00 0.00 0.00 0.00 0.00 0.00 0.00 0.00 0.00 0.00 0.00 0.00

GFSCGP_prec_precacc_060.txt.gz
Total_Precipitation_Accumulation
0.74 1.00 0.53 0.19 0.05 0.03 0.02 0.05 0.02 0.00 0.00 0.01 0.00 0.00 0.00 0.00 0.00 0.00 0.00 0.00 0.00 0.00 0.00 0.00 0.00 0.00 0.00 0.00 0.00 0.00 0.00 0.00 0.04 0.07 0.08 0.16 0.23 0.26 0.15 0.16 0.26 0.10 0.12 0.16
1.16 0.59 0.25 0.19 0.10 0.06 0.06 0.06 0.04 0.01 0.02 0.04 0.00 0.00 0.00 0.00 0.00 0.00 0.00 0.00 0.00 0.00 0.00 0.00 0.00 0.00 0.00 0.00 0.00 0.00 0.00 0.00 0.00 0.01 0.02 0.18 0.29 0.31 0.25 0.29 0.22 0.19 0.22 0.30
0.97 0.53 0.26 0.33 0.20 0.14 0.08 0.07 0.04 0.03 0.05 0.04 0.02 0.00 0.00 0.00 0.00 0.00 0.00 0.00 0.00 0.00 0.00 0.00 0.00 0.00 0.00 0.00 0.00 0.00 0.00 0.00 0.00 0.02 0.06 0.16 0.22 0.27 0.28 0.17 0.13 0.18 0.29 0.63
0.84 0.57 0.56 0.46 0.38 0.13 0.10 0.04 0.04 0.07 0.16 0.05 0.07 0.03 0.00 0.00 0.00 0.00 0.00 0.00 0.00 0.00 0.00 0.00 0.00 0.00 0.00 0.00 0.00 0.00 0.00 0.00 0.00 0.00 0.01 0.07 0.07 0.13 0.11 0.14 0.23 0.28 0.34 0.56
0.77 0.62 0.73 0.65 0.48 0.15 0.11 0.03 0.04 0.08 0.22 0.34 0.07 0.08 0.01 0.00 0.00 0.00 0.00 0.00 0.00 0.00 0.00 0.00 0.00 0.00 0.00 0.00 0.00 0.00 0.00 0.00 0.00 0.00 0.00 0.04 0.10 0.09 0.10 0.15 0.17 0.22 0.29 0.33
0.48 0.65 0.59 0.61 0.51 0.28 0.12 0.14 0.14 0.22 0.34 0.53 0.34 0.10 0.02 0.00 0.00 0.00 0.00 0.00 0.00 0.00 0.00 0.00 0.00 0.00 0.00 0.00 0.00 0.00 0.00 0.00 0.00 0.00 0.01 0.01 0.08 0.08 0.06 0.09 0.15 0.17 0.19 0.18
1.26 0.95 0.75 0.62 0.63 0.64 0.42 0.60 0.82 0.75 0.78 0.36 0.07 0.24 0.11 0.00 0.00 0.00 0.00 0.00 0.00 0.00 0.00 0.00 0.00 0.00 0.00 0.00 0.00 0.00 0.00 0.00 0.00 0.00 0.00 0.00 0.02 0.09 0.07 0.10 0.15 0.15 0.11 0.08
1.10 0.97 0.85 0.82 0.63 0.87 0.62 0.55 0.80 0.39 0.30 0.13 0.05 0.07 0.03 0.00 0.00 0.00 0.00 0.00 0.00 0.00 0.00 0.00 0.00 0.00 0.00 0.00 0.00 0.00 0.00 0.00 0.00 0.00 0.00 0.00 0.00 0.04 0.05 0.06 0.07 0.08 0.11 0.11
0.59 0.64 0.49 0.49 0.36 0.60 0.72 0.74 0.49 0.51 0.22 0.32 0.10 0.02 0.00 0.00 0.00 0.00 0.00 0.00 0.00 0.00 0.00 0.00 0.00 0.00 0.00 0.00 0.00 0.00 0.00 0.00 0.00 0.00 0.00 0.00 0.00 0.05 0.05 0.04 0.04 0.06 0.06 0.07
0.34 0.64 0.64 0.59 0.55 0.70 0.57 0.35 0.54 1.09 0.49 0.20 0.11 0.06 0.00 0.00 0.00 0.00 0.00 0.00 0.00 0.00 0.00 0.00 0.00 0.00 0.00 0.00 0.00 0.00 0.00 0.00 0.00 0.02 0.02 0.01 0.04 0.04 0.04 0.03 0.03 0.05 0.06 0.06
0.44 0.63 0.67 0.91 0.82 0.63 0.59 0.63 0.51 0.57 0.29 0.14 0.06 0.08 0.01 0.00 0.00 0.02 0.01 0.01 0.01 0.01 0.00 0.00 0.00 0.00 0.00 0.00 0.00 0.00 0.00 0.00 0.00 0.01 0.00 0.01 0.03 0.03 0.04 0.04 0.04 0.04 0.04 0.05
0.38 0.56 0.71 0.54 0.20 0.16 0.25 0.26 0.20 0.77 0.39 0.27 0.17 0.06 0.01 0.01 0.00 0.02 0.03 0.03 0.02 0.01 0.00 0.00 0.00 0.00 0.00 0.00 0.00 0.00 0.00 0.00 0.01 0.01 0.00 0.01 0.02 0.04 0.05 0.05 0.05 0.06 0.05 0.05
0.29 0.74 0.75 0.69 0.48 0.48 0.60 0.33 0.28 0.62 1.13 0.62 0.31 0.07 0.00 0.01 0.01 0.01 0.01 0.03 0.01 0.00 0.00 0.00 0.00 0.00 0.00 0.00 0.02 0.04 0.04 0.01 0.01 0.00 0.01 0.03 0.04 0.06 0.07 0.06 0.06 0.06 0.05 0.04
0.66 0.60 0.74 0.73 0.73 0.79 0.55 0.30 0.48 1.00 1.36 0.39 0.17 0.03 0.01 0.01 0.03 0.02 0.03 0.04 0.06 0.02 0.01 0.00 0.00 0.00 0.00 0.01 0.05 0.05 0.04 0.02 0.05 0.05 0.05 0.06 0.06 0.07 0.08 0.08 0.06 0.07 0.07 0.06
0.73 0.94 1.21 0.74 0.38 0.93 0.53 0.29 0.37 0.87 0.61 0.58 0.17 0.07 0.02 0.01 0.04 0.10 0.09 0.11 0.06 0.03 0.01 0.00 0.01 0.01 0.01 0.01 0.03 0.04 0.07 0.08 0.08 0.11 0.11 0.09 0.07 0.05 0.05 0.06 0.05 0.05 0.05 0.06
0.47 0.79 0.96 0.56 0.17 0.33 0.34 0.15 0.20 0.19 0.31 0.41 0.17 0.22 0.05 0.02 0.12 0.29 0.17 0.22 0.11 0.06 0.02 0.01 0.01 0.00 0.00 0.00 0.01 0.02 0.06 0.10 0.16 0.15 0.10 0.07 0.06 0.06 0.07 0.06 0.06 0.08 0.09 0.11
0.28 0.45 0.78 0.63 0.37 0.24 0.42 0.26 0.15 0.14 0.20 0.33 0.31 0.19 0.07 0.07 0.29 0.31 0.31 0.30 0.09 0.03 0.01 0.00 0.00 0.00 0.00 0.00 0.01 0.01 0.03 0.06 0.07 0.06 0.04 0.04 0.07 0.10 0.09 0.07 0.05 0.09 0.23 0.40
0.08 0.26 0.45 0.49 0.49 0.51 0.43 0.25 0.11 0.13 0.16 0.21 0.24 0.14 0.04 0.16 0.20 0.13 0.30 0.25 0.11 0.01 0.00 0.00 0.00 0.00 0.00 0.00 0.00 0.01 0.02 0.07 0.16 0.23 0.24 0.20 0.38 0.53 0.37 0.44 0.56 0.63 0.43 0.44
0.03 0.17 0.28 0.18 0.21 0.21 0.08 0.13 0.19 0.13 0.12 0.09 0.10 0.15 0.11 0.08 0.12 0.19 0.13 0.03 0.02 0.02 0.01 0.00 0.00 0.00 0.00 0.00 0.00 0.01 0.02 0.04 0.15 0.33 0.58 0.61 0.65 0.67 0.73 1.09 1.03 1.18 1.08 0.85
0.03 0.09 0.31 0.12 0.11 0.00 0.02 0.05 0.03 0.01 0.05 0.01 0.02 0.04 0.05 0.09 0.30 0.28 0.09 0.02 0.01 0.01 0.01 0.01 0.00 0.00 0.00 0.00 0.03 0.05 0.04 0.08 0.18 0.26 0.22 0.62 0.78 0.63 0.58 0.63 0.64 0.72 0.50 0.52
0.12 0.17 0.25 0.18 0.18 0.00 0.00 0.00 0.00 0.05 0.04 0.00 0.00 0.01 0.03 0.07 0.08 0.08 0.08 0.07 0.03 0.02 0.01 0.01 0.02 0.02 0.04 0.07 0.13 0.25 0.23 0.41 0.54 0.84 0.62 0.66 0.80 0.64 0.47 0.54 0.36 0.35 0.38 0.30
0.03 0.05 0.07 0.11 0.11 0.01 0.00 0.00 0.01 0.02 0.00 0.00 0.00 0.01 0.08 0.08 0.07 0.07 0.01 0.01 0.08 0.17 0.23 0.25 0.18 0.14 0.18 0.22 0.37 0.72 0.66 0.65 0.70 0.64 0.69 0.44 0.40 0.30 0.22 0.15 0.14 0.10 0.05 0.03
0.00 0.00 0.00 0.00 0.00 0.00 0.00 0.00 0.00 0.00 0.00 0.00 0.00 0.01 0.05 0.07 0.18 0.11 0.01 0.01 0.01 0.07 0.28 0.54 0.49 0.45 0.55 0.41 0.43 0.59 0.46 0.28 0.14 0.17 0.12 0.05 0.02 0.02 0.01 0.01 0.00 0.00 0.00 0.00
0.00 0.00 0.00 0.00 0.00 0.00 0.00 0.00 0.00 0.00 0.00 0.00 0.00 0.00 0.00 0.00 0.00 0.00 0.00 0.00 0.02 0.01 0.01 0.02 0.02 0.06 0.14 0.14 0.14 0.18 0.12 0.05 0.01 0.00 0.00 0.00 0.00 0.00 0.00 0.00 0.00 0.00 0.00 0.00
0.01 0.00 0.00 0.00 0.00 0.00 0.00 0.00 0.00 0.00 0.00 0.00 0.00 0.00 0.00 0.00 0.00 0.00 0.00 0.00 0.00 0.00 0.00 0.00 0.00 0.00 0.00 0.00 0.00 0.00 0.00 0.00 0.00 0.00 0.00 0.00 0.00 0.00 0.00 0.00 0.00 0.00 0.00 0.00
0.00 0.00 0.00 0.00 0.00 0.00 0.00 0.00 0.00 0.00 0.00 0.00 0.00 0.00 0.00 0.00 0.00 0.00 0.00 0.00 0.00 0.00 0.00 0.00 0.00 0.00 0.00 0.00 0.00 0.00 0.00 0.00 0.00 0.00 0.00 0.00 0.00 0.00 0.00 0.00 0.00 0.00 0.00 0.00

GFSCGP_prec_precacc_063.txt.gz
Total_Precipitation_Accumulation
0.78 1.03 0.54 0.19 0.05 0.03 0.02 0.05 0.02 0.00 0.00 0.01 0.00 0.00 0.00 0.00 0.00 0.00 0.00 0.00 0.00 0.00 0.00 0.00 0.00 0.00 0.00 0.00 0.00 0.00 0.00 0.00 0.04 0.07 0.08 0.16 0.23 0.31 0.17 0.17 0.27 0.15 0.16 0.22
1.21 0.60 0.25 0.19 0.10 0.06 0.06 0.06 0.04 0.01 0.02 0.04 0.00 0.00 0.00 0.00 0.00 0.00 0.00 0.00 0.00 0.00 0.00 0.00 0.00 0.00 0.00 0.00 0.00 0.00 0.00 0.00 0.00 0.01 0.02 0.18 0.29 0.31 0.25 0.29 0.22 0.21 0.26 0.35
0.98 0.53 0.26 0.33 0.20 0.14 0.08 0.07 0.04 0.03 0.05 0.04 0.02 0.00 0.00 0.00 0.00 0.00 0.00 0.00 0.00 0.00 0.00 0.00 0.00 0.00 0.00 0.00 0.00 0.00 0.00 0.00 0.00 0.02 0.06 0.16 0.22 0.27 0.28 0.17 0.13 0.18 0.30 0.65
0.86 0.58 0.56 0.47 0.38 0.13 0.10 0.04 0.04 0.07 0.16 0.05 0.07 0.03 0.00 0.00 0.00 0.00 0.00 0.00 0.00 0.00 0.00 0.00 0.00 0.00 0.00 0.00 0.00 0.00 0.00 0.00 0.00 0.00 0.01 0.07 0.07 0.13 0.11 0.14 0.23 0.28 0.34 0.56
0.79 0.63 0.73 0.66 0.49 0.16 0.12 0.03 0.04 0.08 0.22 0.34 0.07 0.08 0.01 0.00 0.00 0.00 0.00 0.00 0.00 0.00 0.00 0.00 0.00 0.00 0.00 0.00 0.00 0.00 0.00 0.00 0.00 0.00 0.00 0.04 0.10 0.09 0.10 0.15 0.17 0.22 0.30 0.34
0.52 0.68 0.60 0.62 0.54 0.29 0.14 0.14 0.14 0.22 0.34 0.53 0.34 0.10 0.02 0.00 0.00 0.00 0.00 0.00 0.00 0.00 0.00 0.00 0.00 0.00 0.00 0.00 0.00 0.00 0.00 0.00 0.00 0.00 0.01 0.01 0.08 0.08 0.06 0.09 0.15 0.17 0.19 0.18
1.30 0.97 0.77 0.66 0.84 0.66 0.43 0.60 0.82 0.75 0.78 0.36 0.07 0.24 0.11 0.00 0.00 0.00 0.00 0.00 0.00 0.00 0.00 0.00 0.00 0.00 0.00 0.00 0.00 0.00 0.00 0.00 0.00 0.00 0.00 0.00 0.02 0.09 0.07 0.10 0.15 0.15 0.11 0.08
1.11 0.98 0.87 0.89 0.83 0.93 0.63 0.55 0.80 0.39 0.30 0.13 0.05 0.07 0.03 0.00 0.00 0.00 0.00 0.00 0.00 0.00 0.00 0.00 0.00 0.00 0.00 0.00 0.00 0.00 0.00 0.00 0.00 0.00 0.00 0.00 0.00 0.04 0.05 0.06 0.07 0.08 0.11 0.11
0.60 0.64 0.49 0.54 0.51 0.64 0.74 0.74 0.49 0.51 0.22 0.32 0.10 0.02 0.00 0.00 0.00 0.00 0.00 0.00 0.00 0.00 0.00 0.00 0.00 0.00 0.00 0.00 0.00 0.00 0.00 0.00 0.00 0.00 0.00 0.00 0.00 0.05 0.05 0.04 0.04 0.06 0.06 0.07
0.35 0.65 0.66 0.62 0.65 0.73 0.57 0.35 0.54 1.10 0.49 0.20 0.11 0.06 0.00 0.00 0.00 0.00 0.00 0.00 0.00 0.00 0.00 0.00 0.00 0.00 0.00 0.00 0.00 0.00 0.00 0.00 0.00 0.02 0.02 0.01 0.04 0.04 0.04 0.03 0.03 0.05 0.06 0.06
0.45 0.63 0.72 0.94 0.93 0.68 0.60 0.63 0.51 0.57 0.29 0.14 0.06 0.08 0.01 0.00 0.00 0.02 0.01 0.01 0.01 0.01 0.00 0.00 0.00 0.00 0.00 0.00 0.00 0.00 0.00 0.00 0.00 0.01 0.00 0.01 0.03 0.03 0.04 0.04 0.04 0.04 0.04 0.05
0.38 0.56 0.72 0.58 0.21 0.16 0.26 0.26 0.20 0.77 0.39 0.27 0.17 0.06 0.01 0.01 0.00 0.02 0.03 0.03 0.02 0.01 0.00 0.00 0.00 0.00 0.00 0.00 0.00 0.00 0.00 0.00 0.01 0.01 0.00 0.01 0.02 0.04 0.05 0.05 0.05 0.06 0.05 0.05
0.29 0.74 0.75 0.70 0.48 0.48 0.60 0.34 0.28 0.62 1.13 0.62 0.31 0.07 0.00 0.01 0.01 0.01 0.01 0.03 0.01 0.00 0.00 0.00 0.00 0.00 0.00 0.00 0.02 0.04 0.04 0.01 0.01 0.00 0.01 0.03 0.04 0.06 0.07 0.06 0.06 0.06 0.05 0.04
0.66 0.60 0.74 0.73 0.73 0.79 0.55 0.30 0.48 1.00 1.36 0.39 0.17 0.03 0.01 0.01 0.03 0.02 0.03 0.04 0.06 0.02 0.01 0.00 0.00 0.00 0.00 0.01 0.05 0.05 0.04 0.02 0.05 0.05 0.05 0.06 0.06 0.07 0.08 0.08 0.06 0.07 0.07 0.06
0.73 0.94 1.21 0.74 0.38 0.93 0.53 0.29 0.37 0.87 0.61 0.58 0.17 0.07 0.02 0.01 0.04 0.10 0.09 0.11 0.06 0.03 0.01 0.00 0.01 0.01 0.01 0.01 0.03 0.04 0.07 0.08 0.08 0.11 0.11 0.09 0.07 0.05 0.05 0.06 0.05 0.05 0.05 0.06
0.47 0.79 0.96 0.56 0.17 0.33 0.34 0.15 0.20 0.19 0.31 0.41 0.17 0.22 0.05 0.02 0.12 0.29 0.17 0.22 0.11 0.06 0.02 0.01 0.01 0.00 0.00 0.00 0.01 0.02 0.06 0.10 0.16 0.15 0.10 0.07 0.06 0.06 0.07 0.06 0.06 0.08 0.09 0.11
0.28 0.45 0.78 0.63 0.37 0.24 0.42 0.26 0.15 0.14 0.20 0.33 0.31 0.19 0.07 0.07 0.29 0.31 0.31 0.30 0.09 0.03 0.01 0.00 0.00 0.00 0.00 0.00 0.01 0.01 0.03 0.06 0.07 0.06 0.04 0.04 0.07 0.10 0.09 0.07 0.05 0.09 0.23 0.40
0.08 0.26 0.45 0.49 0.49 0.51 0.43 0.25 0.11 0.13 0.16 0.21 0.24 0.14 0.04 0.16 0.20 0.13 0.30 0.25 0.11 0.01 0.00 0.00 0.00 0.00 0.00 0.00 0.00 0.01 0.02 0.07 0.16 0.23 0.24 0.20 0.38 0.53 0.37 0.44 0.56 0.63 0.43 0.44
0.03 0.17 0.28 0.18 0.21 0.21 0.08 0.13 0.19 0.13 0.12 0.09 0.10 0.15 0.11 0.08 0.12 0.19 0.13 0.03 0.02 0.02 0.01 0.00 0.00 0.00 0.00 0.00 0.00 0.01 0.02 0.04 0.15 0.33 0.58 0.61 0.65 0.67 0.73 1.09 1.03 1.18 1.08 0.85
0.03 0.09 0.31 0.12 0.11 0.00 0.02 0.05 0.03 0.01 0.05 0.01 0.02 0.04 0.05 0.09 0.30 0.28 0.09 0.02 0.01 0.01 0.01 0.01 0.00 0.00 0.00 0.00 0.03 0.05 0.04 0.08 0.18 0.26 0.22 0.62 0.78 0.63 0.58 0.63 0.64 0.72 0.50 0.52
0.12 0.17 0.25 0.18 0.18 0.00 0.00 0.00 0.00 0.05 0.04 0.00 0.00 0.01 0.03 0.07 0.08 0.08 0.08 0.07 0.03 0.02 0.01 0.01 0.02 0.02 0.04 0.07 0.13 0.25 0.23 0.41 0.54 0.84 0.62 0.66 0.80 0.64 0.47 0.54 0.36 0.35 0.38 0.30
0.03 0.05 0.07 0.12 0.11 0.01 0.00 0.00 0.01 0.02 0.00 0.00 0.00 0.01 0.08 0.08 0.07 0.07 0.01 0.01 0.08 0.17 0.23 0.25 0.18 0.14 0.18 0.22 0.37 0.72 0.66 0.65 0.70 0.64 0.69 0.44 0.40 0.30 0.22 0.15 0.14 0.10 0.05 0.03
0.00 0.00 0.00 0.00 0.00 0.00 0.00 0.00 0.00 0.00 0.00 0.00 0.00 0.01 0.05 0.07 0.18 0.11 0.01 0.01 0.01 0.07 0.28 0.54 0.49 0.45 0.55 0.41 0.43 0.59 0.46 0.28 0.14 0.17 0.12 0.05 0.02 0.02 0.01 0.01 0.00 0.00 0.00 0.00
0.00 0.00 0.00 0.00 0.00 0.00 0.00 0.00 0.00 0.00 0.00 0.00 0.00 0.00 0.00 0.00 0.00 0.00 0.00 0.00 0.02 0.01 0.01 0.02 0.02 0.06 0.14 0.14 0.14 0.18 0.12 0.05 0.01 0.00 0.00 0.00 0.00 0.00 0.00 0.00 0.00 0.00 0.00 0.00
0.01 0.00 0.00 0.00 0.00 0.00 0.00 0.00 0.00 0.00 0.00 0.00 0.00 0.00 0.00 0.00 0.00 0.00 0.00 0.00 0.00 0.00 0.00 0.00 0.00 0.00 0.00 0.00 0.00 0.00 0.00 0.00 0.00 0.00 0.00 0.00 0.00 0.00 0.00 0.00 0.00 0.00 0.00 0.00
0.00 0.00 0.00 0.00 0.00 0.00 0.00 0.00 0.00 0.00 0.00 0.00 0.00 0.00 0.00 0.00 0.00 0.00 0.00 0.00 0.00 0.00 0.00 0.00 0.00 0.00 0.00 0.00 0.00 0.00 0.00 0.00 0.00 0.00 0.00 0.00 0.00 0.00 0.00 0.00 0.00 0.00 0.00 0.00

GFSCGP_prec_precacc_066.txt.gz
Total_Precipitation_Accumulation
0.97 1.06 0.54 0.19 0.05 0.03 0.02 0.05 0.02 0.00 0.00 0.01 0.00 0.00 0.00 0.00 0.00 0.00 0.00 0.00 0.00 0.00 0.00 0.00 0.00 0.00 0.00 0.00 0.00 0.00 0.00 0.00 0.04 0.07 0.08 0.16 0.23 0.32 0.19 0.19 0.33 0.21 0.21 0.26
1.33 0.61 0.25 0.19 0.10 0.06 0.06 0.06 0.04 0.01 0.02 0.04 0.00 0.00 0.00 0.00 0.00 0.00 0.00 0.00 0.00 0.00 0.00 0.00 0.00 0.00 0.00 0.00 0.00 0.00 0.00 0.00 0.00 0.01 0.02 0.18 0.29 0.31 0.25 0.30 0.24 0.26 0.34 0.42
1.00 0.53 0.26 0.33 0.20 0.14 0.08 0.07 0.04 0.03 0.05 0.04 0.02 0.00 0.00 0.00 0.00 0.00 0.00 0.00 0.00 0.00 0.00 0.00 0.00 0.00 0.00 0.00 0.00 0.00 0.00 0.00 0.00 0.02 0.06 0.16 0.22 0.27 0.28 0.17 0.13 0.18 0.32 0.67
0.89 0.58 0.56 0.47 0.38 0.13 0.10 0.04 0.04 0.07 0.16 0.05 0.07 0.03 0.00 0.00 0.00 0.00 0.00 0.00 0.00 0.00 0.00 0.00 0.00 0.00 0.00 0.00 0.00 0.00 0.00 0.00 0.00 0.00 0.01 0.07 0.07 0.13 0.11 0.14 0.23 0.28 0.34 0.56
0.85 0.63 0.73 0.66 0.49 0.16 0.12 0.03 0.04 0.08 0.22 0.34 0.07 0.08 0.01 0.00 0.00 0.00 0.00 0.00 0.00 0.00 0.00 0.00 0.00 0.00 0.00 0.00 0.00 0.00 0.00 0.00 0.00 0.00 0.00 0.04 0.10 0.09 0.10 0.15 0.17 0.22 0.30 0.34
0.52 0.68 0.61 0.63 0.54 0.29 0.14 0.14 0.14 0.22 0.34 0.53 0.34 0.10 0.02 0.00 0.00 0.00 0.00 0.00 0.00 0.00 0.00 0.00 0.00 0.00 0.00 0.00 0.00 0.00 0.00 0.00 0.00 0.00 0.01 0.01 0.08 0.08 0.06 0.09 0.15 0.17 0.19 0.18
1.31 0.98 0.77 0.66 0.84 0.67 0.43 0.60 0.83 0.76 0.79 0.36 0.07 0.24 0.11 0.00 0.00 0.00 0.00 0.00 0.00 0.00 0.00 0.00 0.00 0.00 0.00 0.00 0.00 0.00 0.00 0.00 0.00 0.00 0.00 0.00 0.02 0.09 0.07 0.10 0.15 0.15 0.11 0.08
1.12 1.01 0.89 0.89 0.83 0.94 0.63 0.55 0.80 0.40 0.30 0.13 0.05 0.07 0.03 0.00 0.00 0.00 0.00 0.00 0.00 0.00 0.00 0.00 0.00 0.00 0.00 0.00 0.00 0.00 0.00 0.00 0.00 0.00 0.00 0.00 0.00 0.04 0.05 0.06 0.07 0.08 0.11 0.11
0.60 0.65 0.51 0.55 0.53 0.68 0.76 0.74 0.49 0.51 0.22 0.32 0.10 0.02 0.00 0.00 0.00 0.00 0.00 0.00 0.00 0.00 0.00 0.00 0.00 0.00 0.00 0.00 0.00 0.00 0.00 0.00 0.00 0.00 0.00 0.00 0.00 0.05 0.05 0.04 0.04 0.06 0.06 0.07
0.35 0.65 0.67 0.62 0.70 0.81 0.58 0.35 0.54 1.10 0.49 0.20 0.11 0.06 0.00 0.00 0.00 0.00 0.00 0.00 0.00 0.00 0.00 0.00 0.00 0.00 0.00 0.00 0.00 0.00 0.00 0.00 0.00 0.02 0.02 0.01 0.04 0.04 0.04 0.03 0.03 0.05 0.06 0.06
0.45 0.63 0.73 0.95 0.95 0.74 0.62 0.63 0.51 0.57 0.29 0.14 0.06 0.08 0.01 0.00 0.00 0.02 0.01 0.01 0.01 0.01 0.00 0.00 0.00 0.00 0.00 0.00 0.00 0.00 0.00 0.00 0.00 0.01 0.00 0.01 0.03 0.03 0.04 0.04 0.04 0.04 0.04 0.05
0.38 0.56 0.74 0.59 0.21 0.16 0.26 0.27 0.20 0.77 0.39 0.27 0.17 0.06 0.01 0.01 0.00 0.02 0.03 0.03 0.02 0.01 0.00 0.00 0.00 0.00 0.00 0.00 0.00 0.00 0.00 0.00 0.01 0.01 0.00 0.01 0.02 0.04 0.05 0.05 0.05 0.06 0.05 0.05
0.29 0.74 0.76 0.72 0.49 0.48 0.62 0.34 0.28 0.62 1.13 0.62 0.31 0.07 0.00 0.01 0.01 0.01 0.01 0.03 0.01 0.00 0.00 0.00 0.00 0.00 0.00 0.00 0.02 0.04 0.04 0.01 0.01 0.00 0.01 0.03 0.04 0.06 0.07 0.06 0.06 0.06 0.05 0.04
0.66 0.60 0.74 0.73 0.73 0.79 0.55 0.30 0.48 1.00 1.36 0.39 0.17 0.03 0.01 0.01 0.03 0.02 0.03 0.04 0.06 0.02 0.01 0.00 0.00 0.00 0.00 0.01 0.05 0.05 0.04 0.02 0.05 0.05 0.05 0.06 0.06 0.07 0.08 0.08 0.06 0.07 0.07 0.06
0.73 0.94 1.21 0.74 0.38 0.93 0.53 0.29 0.37 0.87 0.61 0.58 0.18 0.07 0.02 0.01 0.04 0.10 0.09 0.11 0.06 0.03 0.01 0.00 0.01 0.01 0.01 0.01 0.03 0.04 0.07 0.08 0.08 0.11 0.11 0.09 0.07 0.05 0.05 0.06 0.05 0.05 0.05 0.06
0.47 0.79 0.96 0.56 0.17 0.33 0.34 0.15 0.20 0.19 0.31 0.41 0.17 0.22 0.05 0.02 0.12 0.29 0.17 0.22 0.11 0.06 0.02 0.01 0.01 0.00 0.00 0.00 0.01 0.02 0.06 0.10 0.16 0.15 0.10 0.07 0.06 0.06 0.07 0.06 0.06 0.08 0.09 0.11
0.28 0.45 0.78 0.63 0.37 0.24 0.42 0.26 0.15 0.14 0.20 0.33 0.31 0.19 0.07 0.07 0.29 0.31 0.31 0.30 0.09 0.03 0.01 0.00 0.00 0.00 0.00 0.00 0.01 0.01 0.03 0.06 0.07 0.06 0.04 0.04 0.07 0.10 0.09 0.07 0.05 0.09 0.23 0.40
0.08 0.26 0.45 0.49 0.49 0.51 0.43 0.25 0.11 0.13 0.16 0.21 0.24 0.14 0.04 0.16 0.20 0.13 0.30 0.25 0.11 0.01 0.00 0.00 0.00 0.00 0.00 0.00 0.00 0.01 0.02 0.07 0.16 0.23 0.24 0.20 0.38 0.53 0.37 0.44 0.56 0.63 0.43 0.44
0.03 0.17 0.28 0.18 0.21 0.21 0.08 0.13 0.19 0.13 0.12 0.09 0.10 0.15 0.11 0.08 0.12 0.19 0.13 0.03 0.02 0.02 0.01 0.00 0.00 0.00 0.00 0.00 0.00 0.01 0.02 0.04 0.15 0.33 0.58 0.61 0.65 0.67 0.73 1.09 1.03 1.18 1.08 0.85
0.03 0.09 0.31 0.12 0.11 0.00 0.02 0.05 0.03 0.01 0.05 0.01 0.02 0.04 0.05 0.09 0.30 0.28 0.09 0.02 0.01 0.01 0.01 0.01 0.00 0.00 0.00 0.00 0.03 0.05 0.04 0.08 0.18 0.26 0.22 0.62 0.78 0.63 0.58 0.63 0.64 0.72 0.50 0.52
0.12 0.17 0.25 0.18 0.18 0.00 0.00 0.00 0.00 0.05 0.04 0.00 0.00 0.01 0.03 0.07 0.08 0.08 0.08 0.07 0.03 0.02 0.01 0.01 0.02 0.02 0.04 0.07 0.13 0.25 0.23 0.41 0.54 0.84 0.62 0.66 0.80 0.64 0.47 0.54 0.36 0.35 0.38 0.30
0.03 0.05 0.08 0.12 0.11 0.01 0.00 0.00 0.01 0.02 0.00 0.00 0.00 0.01 0.08 0.08 0.07 0.07 0.01 0.01 0.08 0.17 0.23 0.25 0.18 0.14 0.18 0.22 0.37 0.72 0.66 0.65 0.70 0.64 0.69 0.44 0.40 0.30 0.22 0.15 0.14 0.10 0.05 0.03
0.00 0.00 0.00 0.00 0.00 0.00 0.00 0.00 0.00 0.00 0.00 0.00 0.00 0.01 0.05 0.07 0.18 0.11 0.01 0.01 0.01 0.07 0.28 0.54 0.49 0.45 0.55 0.41 0.43 0.59 0.46 0.28 0.14 0.17 0.12 0.05 0.02 0.02 0.01 0.01 0.00 0.00 0.00 0.00
0.00 0.00 0.00 0.00 0.00 0.00 0.00 0.00 0.00 0.00 0.00 0.00 0.00 0.00 0.00 0.00 0.00 0.00 0.00 0.00 0.02 0.01 0.01 0.02 0.02 0.06 0.14 0.14 0.14 0.18 0.12 0.05 0.01 0.00 0.00 0.00 0.00 0.00 0.00 0.00 0.00 0.00 0.00 0.00
0.01 0.00 0.00 0.00 0.00 0.00 0.00 0.00 0.00 0.00 0.00 0.00 0.00 0.00 0.00 0.00 0.00 0.00 0.00 0.00 0.00 0.00 0.00 0.00 0.00 0.00 0.00 0.00 0.00 0.00 0.00 0.00 0.00 0.00 0.00 0.00 0.00 0.00 0.00 0.00 0.00 0.00 0.00 0.00
0.00 0.00 0.00 0.00 0.00 0.00 0.00 0.00 0.00 0.00 0.00 0.00 0.00 0.00 0.00 0.00 0.00 0.00 0.00 0.00 0.00 0.00 0.00 0.00 0.00 0.00 0.00 0.00 0.00 0.00 0.00 0.00 0.00 0.00 0.00 0.00 0.00 0.00 0.00 0.00 0.00 0.00 0.00 0.00

GFSCGP_prec_precacc_069.txt.gz
Total_Precipitation_Accumulation
1.18 1.46 0.56 0.19 0.05 0.03 0.02 0.05 0.02 0.00 0.00 0.01 0.00 0.00 0.00 0.00 0.00 0.00 0.00 0.00 0.00 0.00 0.00 0.00 0.00 0.00 0.00 0.00 0.00 0.00 0.00 0.00 0.04 0.07 0.08 0.16 0.23 0.33 0.21 0.20 0.36 0.26 0.25 0.29
1.59 0.80 0.26 0.19 0.10 0.06 0.06 0.06 0.04 0.01 0.02 0.04 0.00 0.00 0.00 0.00 0.00 0.00 0.00 0.00 0.00 0.00 0.00 0.00 0.00 0.00 0.00 0.00 0.00 0.00 0.00 0.00 0.00 0.01 0.02 0.18 0.29 0.31 0.25 0.30 0.24 0.27 0.37 0.46
1.17 0.57 0.26 0.33 0.20 0.14 0.08 0.07 0.04 0.03 0.05 0.04 0.02 0.00 0.00 0.00 0.00 0.00 0.00 0.00 0.00 0.00 0.00 0.00 0.00 0.00 0.00 0.00 0.00 0.00 0.00 0.00 0.00 0.02 0.06 0.16 0.22 0.27 0.28 0.17 0.13 0.19 0.32 0.68
1.02 0.58 0.56 0.47 0.38 0.13 0.10 0.04 0.04 0.07 0.16 0.05 0.07 0.03 0.00 0.00 0.00 0.00 0.00 0.00 0.00 0.00 0.00 0.00 0.00 0.00 0.00 0.00 0.00 0.00 0.00 0.00 0.00 0.00 0.01 0.07 0.07 0.13 0.11 0.14 0.23 0.28 0.34 0.56
0.98 0.63 0.73 0.66 0.49 0.16 0.12 0.03 0.04 0.08 0.22 0.34 0.07 0.08 0.01 0.00 0.00 0.00 0.00 0.00 0.00 0.00 0.00 0.00 0.00 0.00 0.00 0.00 0.00 0.00 0.00 0.00 0.00 0.00 0.00 0.04 0.10 0.09 0.10 0.15 0.17 0.22 0.30 0.34
0.56 0.68 0.61 0.63 0.54 0.29 0.14 0.14 0.14 0.22 0.34 0.53 0.34 0.10 0.02 0.00 0.00 0.00 0.00 0.00 0.00 0.00 0.00 0.00 0.00 0.00 0.00 0.00 0.00 0.00 0.00 0.00 0.00 0.00 0.01 0.01 0.08 0.08 0.06 0.09 0.15 0.17 0.19 0.18
1.34 0.98 0.77 0.66 0.84 0.67 0.43 0.60 0.83 0.77 0.80 0.36 0.07 0.24 0.11 0.00 0.00 0.00 0.00 0.00 0.00 0.00 0.00 0.00 0.00 0.00 0.00 0.00 0.00 0.00 0.00 0.00 0.00 0.00 0.00 0.00 0.02 0.09 0.07 0.10 0.15 0.15 0.11 0.08
1.15 1.03 0.89 0.89 0.83 0.94 0.64 0.55 0.80 0.40 0.30 0.13 0.05 0.07 0.03 0.00 0.00 0.00 0.00 0.00 0.00 0.00 0.00 0.00 0.00 0.00 0.00 0.00 0.00 0.00 0.00 0.00 0.00 0.00 0.00 0.00 0.00 0.04 0.05 0.06 0.07 0.08 0.11 0.11
0.60 0.65 0.51 0.55 0.53 0.68 0.76 0.74 0.49 0.51 0.22 0.32 0.10 0.02 0.00 0.00 0.00 0.00 0.00 0.00 0.00 0.00 0.00 0.00 0.00 0.00 0.00 0.00 0.00 0.00 0.00 0.00 0.00 0.00 0.00 0.00 0.00 0.05 0.05 0.04 0.04 0.06 0.06 0.07
0.35 0.65 0.67 0.62 0.70 0.81 0.58 0.35 0.54 1.10 0.49 0.20 0.11 0.06 0.00 0.00 0.00 0.00 0.00 0.00 0.00 0.00 0.00 0.00 0.00 0.00 0.00 0.00 0.00 0.00 0.00 0.00 0.00 0.02 0.02 0.01 0.04 0.04 0.04 0.03 0.03 0.05 0.06 0.06
0.45 0.63 0.73 0.95 0.96 0.75 0.64 0.64 0.51 0.57 0.29 0.14 0.06 0.08 0.01 0.00 0.00 0.02 0.01 0.01 0.01 0.01 0.00 0.00 0.00 0.00 0.00 0.00 0.00 0.00 0.00 0.00 0.00 0.01 0.00 0.01 0.03 0.03 0.04 0.04 0.04 0.04 0.04 0.05
0.38 0.56 0.74 0.59 0.21 0.17 0.27 0.27 0.20 0.77 0.39 0.27 0.17 0.06 0.01 0.01 0.00 0.02 0.03 0.03 0.02 0.01 0.00 0.00 0.00 0.00 0.00 0.00 0.00 0.00 0.00 0.00 0.01 0.01 0.00 0.01 0.02 0.04 0.05 0.05 0.05 0.06 0.05 0.05
0.29 0.74 0.77 0.73 0.50 0.48 0.64 0.34 0.28 0.62 1.13 0.62 0.31 0.07 0.00 0.01 0.01 0.01 0.01 0.03 0.01 0.00 0.00 0.00 0.00 0.00 0.00 0.00 0.02 0.04 0.04 0.01 0.01 0.00 0.01 0.03 0.04 0.06 0.07 0.06 0.06 0.06 0.05 0.04
0.66 0.60 0.74 0.73 0.73 0.79 0.55 0.30 0.48 1.00 1.36 0.39 0.17 0.03 0.01 0.01 0.03 0.02 0.03 0.04 0.06 0.02 0.01 0.00 0.00 0.00 0.00 0.01 0.05 0.05 0.04 0.02 0.05 0.05 0.05 0.06 0.06 0.07 0.08 0.08 0.06 0.07 0.07 0.06
0.73 0.94 1.21 0.74 0.38 0.93 0.53 0.29 0.37 0.87 0.61 0.58 0.18 0.07 0.02 0.01 0.04 0.10 0.09 0.11 0.06 0.03 0.01 0.00 0.01 0.01 0.01 0.01 0.03 0.04 0.07 0.08 0.08 0.11 0.11 0.09 0.07 0.05 0.05 0.06 0.05 0.05 0.05 0.06
0.47 0.79 0.96 0.56 0.17 0.33 0.34 0.15 0.20 0.19 0.31 0.41 0.17 0.22 0.05 0.02 0.12 0.29 0.17 0.22 0.11 0.06 0.02 0.01 0.01 0.00 0.00 0.00 0.01 0.02 0.06 0.10 0.16 0.15 0.10 0.07 0.06 0.06 0.07 0.06 0.06 0.08 0.09 0.11
0.28 0.45 0.78 0.63 0.37 0.24 0.42 0.26 0.15 0.14 0.20 0.33 0.31 0.19 0.07 0.07 0.29 0.31 0.31 0.30 0.09 0.03 0.01 0.00 0.00 0.00 0.00 0.00 0.01 0.01 0.03 0.06 0.07 0.06 0.04 0.04 0.07 0.10 0.09 0.07 0.05 0.09 0.23 0.40
0.08 0.26 0.45 0.49 0.49 0.51 0.43 0.25 0.11 0.13 0.16 0.21 0.24 0.14 0.04 0.16 0.20 0.13 0.30 0.25 0.11 0.01 0.00 0.00 0.00 0.00 0.00 0.00 0.00 0.01 0.02 0.07 0.16 0.23 0.24 0.20 0.38 0.53 0.37 0.44 0.56 0.63 0.43 0.44
0.03 0.17 0.28 0.18 0.21 0.21 0.08 0.13 0.19 0.13 0.12 0.09 0.10 0.15 0.11 0.08 0.12 0.19 0.13 0.03 0.02 0.02 0.01 0.00 0.00 0.00 0.00 0.00 0.00 0.01 0.02 0.04 0.15 0.33 0.58 0.61 0.65 0.67 0.73 1.09 1.03 1.18 1.08 0.85
0.03 0.09 0.31 0.12 0.11 0.00 0.02 0.05 0.03 0.01 0.05 0.01 0.02 0.04 0.05 0.09 0.30 0.28 0.09 0.02 0.01 0.01 0.01 0.01 0.00 0.00 0.00 0.00 0.03 0.05 0.04 0.08 0.18 0.26 0.22 0.62 0.78 0.63 0.58 0.63 0.64 0.72 0.50 0.52
0.12 0.17 0.25 0.18 0.18 0.00 0.00 0.00 0.00 0.05 0.04 0.00 0.00 0.01 0.03 0.07 0.08 0.08 0.08 0.07 0.03 0.02 0.01 0.01 0.02 0.02 0.04 0.07 0.13 0.25 0.23 0.41 0.54 0.84 0.62 0.66 0.80 0.64 0.47 0.54 0.36 0.35 0.38 0.30
0.03 0.05 0.08 0.12 0.11 0.01 0.00 0.00 0.01 0.02 0.00 0.00 0.00 0.01 0.08 0.08 0.07 0.07 0.01 0.01 0.08 0.17 0.23 0.25 0.18 0.14 0.18 0.22 0.37 0.72 0.66 0.65 0.70 0.64 0.69 0.44 0.40 0.30 0.22 0.15 0.14 0.10 0.05 0.03
0.00 0.00 0.00 0.00 0.00 0.00 0.00 0.00 0.00 0.00 0.00 0.00 0.00 0.01 0.05 0.07 0.18 0.11 0.01 0.01 0.01 0.07 0.28 0.54 0.49 0.45 0.55 0.41 0.43 0.59 0.46 0.28 0.14 0.17 0.12 0.05 0.02 0.02 0.01 0.01 0.00 0.00 0.00 0.00
0.00 0.00 0.00 0.00 0.00 0.00 0.00 0.00 0.00 0.00 0.00 0.00 0.00 0.00 0.00 0.00 0.00 0.00 0.01 0.01 0.02 0.01 0.01 0.02 0.02 0.06 0.14 0.14 0.14 0.18 0.12 0.05 0.01 0.00 0.00 0.00 0.00 0.00 0.00 0.00 0.00 0.00 0.00 0.00
0.01 0.00 0.00 0.00 0.00 0.00 0.00 0.00 0.00 0.00 0.00 0.00 0.00 0.00 0.00 0.00 0.00 0.00 0.02 0.03 0.02 0.01 0.00 0.00 0.00 0.00 0.00 0.00 0.00 0.00 0.00 0.00 0.00 0.00 0.00 0.00 0.00 0.00 0.00 0.00 0.00 0.00 0.00 0.00
0.00 0.00 0.00 0.00 0.00 0.00 0.00 0.00 0.00 0.00 0.00 0.00 0.00 0.00 0.00 0.00 0.00 0.00 0.00 0.00 0.00 0.00 0.00 0.00 0.00 0.00 0.00 0.00 0.00 0.00 0.00 0.00 0.00 0.00 0.00 0.00 0.00 0.00 0.00 0.00 0.00 0.00 0.00 0.00

GFSCGP_prec_precacc_072.txt.gz
Total_Precipitation_Accumulation
1.24 1.94 0.63 0.19 0.05 0.03 0.02 0.05 0.02 0.00 0.00 0.01 0.00 0.00 0.00 0.03 0.05 0.00 0.00 0.00 0.00 0.00 0.00 0.00 0.00 0.00 0.00 0.00 0.00 0.00 0.00 0.00 0.04 0.07 0.08 0.16 0.23 0.33 0.21 0.20 0.36 0.26 0.25 0.29
1.66 1.07 0.30 0.19 0.10 0.07 0.06 0.06 0.04 0.01 0.02 0.04 0.00 0.02 0.01 0.01 0.02 0.00 0.00 0.00 0.00 0.00 0.00 0.00 0.00 0.00 0.00 0.00 0.00 0.00 0.00 0.00 0.00 0.01 0.02 0.18 0.29 0.31 0.25 0.30 0.24 0.27 0.37 0.47
1.22 0.66 0.30 0.33 0.20 0.14 0.08 0.07 0.04 0.03 0.05 0.04 0.03 0.02 0.02 0.00 0.00 0.00 0.00 0.00 0.00 0.00 0.00 0.00 0.00 0.00 0.00 0.00 0.00 0.00 0.00 0.00 0.00 0.02 0.06 0.16 0.22 0.27 0.28 0.17 0.13 0.19 0.32 0.68
1.06 0.63 0.60 0.47 0.38 0.13 0.10 0.04 0.04 0.07 0.16 0.05 0.08 0.04 0.00 0.00 0.00 0.00 0.00 0.00 0.00 0.00 0.00 0.00 0.00 0.00 0.00 0.00 0.00 0.00 0.00 0.00 0.00 0.00 0.01 0.07 0.07 0.13 0.11 0.14 0.23 0.28 0.34 0.56
1.04 0.68 0.78 0.67 0.49 0.16 0.12 0.03 0.04 0.08 0.22 0.34 0.07 0.08 0.01 0.00 0.00 0.00 0.00 0.00 0.00 0.00 0.00 0.00 0.00 0.00 0.00 0.00 0.00 0.00 0.00 0.00 0.00 0.00 0.00 0.04 0.10 0.09 0.10 0.15 0.17 0.22 0.30 0.34
0.61 0.70 0.63 0.63 0.54 0.29 0.14 0.14 0.14 0.22 0.34 0.53 0.34 0.10 0.02 0.00 0.00 0.00 0.00 0.00 0.00 0.00 0.00 0.00 0.00 0.00 0.00 0.00 0.00 0.00 0.00 0.00 0.00 0.00 0.01 0.01 0.08 0.08 0.06 0.09 0.15 0.17 0.19 0.18
1.44 1.05 0.79 0.66 0.85 0.68 0.43 0.60 0.84 0.77 0.80 0.37 0.07 0.24 0.11 0.00 0.00 0.00 0.00 0.00 0.00 0.00 0.00 0.00 0.00 0.00 0.00 0.00 0.00 0.00 0.00 0.00 0.00 0.00 0.00 0.00 0.02 0.09 0.07 0.10 0.15 0.15 0.11 0.08
1.25 1.11 0.90 0.89 0.83 0.95 0.64 0.55 0.80 0.40 0.30 0.13 0.05 0.07 0.03 0.00 0.00 0.00 0.00 0.00 0.00 0.00 0.00 0.00 0.00 0.00 0.00 0.00 0.00 0.00 0.00 0.00 0.00 0.00 0.00 0.00 0.00 0.04 0.05 0.06 0.07 0.08 0.11 0.11
0.61 0.66 0.51 0.55 0.53 0.68 0.76 0.74 0.49 0.51 0.22 0.32 0.10 0.02 0.00 0.00 0.00 0.00 0.00 0.00 0.00 0.00 0.00 0.00 0.00 0.00 0.00 0.00 0.00 0.00 0.00 0.00 0.00 0.00 0.00 0.00 0.00 0.05 0.05 0.04 0.04 0.06 0.06 0.07
0.35 0.66 0.67 0.62 0.70 0.81 0.58 0.35 0.54 1.10 0.49 0.20 0.11 0.06 0.00 0.00 0.00 0.00 0.00 0.00 0.00 0.00 0.00 0.00 0.00 0.00 0.00 0.00 0.00 0.00 0.00 0.00 0.00 0.02 0.02 0.01 0.04 0.04 0.04 0.03 0.03 0.05 0.06 0.06
0.45 0.63 0.74 0.95 0.96 0.75 0.64 0.64 0.51 0.57 0.29 0.14 0.06 0.08 0.01 0.00 0.00 0.02 0.01 0.01 0.01 0.01 0.00 0.00 0.00 0.00 0.00 0.00 0.00 0.00 0.00 0.00 0.00 0.01 0.00 0.01 0.03 0.03 0.04 0.04 0.04 0.04 0.04 0.05
0.38 0.56 0.74 0.60 0.21 0.17 0.27 0.27 0.20 0.77 0.39 0.27 0.17 0.06 0.01 0.01 0.00 0.02 0.03 0.03 0.02 0.01 0.00 0.00 0.00 0.00 0.00 0.00 0.00 0.00 0.00 0.00 0.01 0.01 0.00 0.01 0.02 0.04 0.05 0.05 0.05 0.06 0.05 0.05
0.29 0.74 0.77 0.73 0.50 0.49 0.65 0.35 0.28 0.62 1.13 0.62 0.31 0.07 0.00 0.01 0.01 0.01 0.01 0.03 0.01 0.00 0.00 0.00 0.00 0.00 0.00 0.00 0.02 0.04 0.04 0.01 0.01 0.00 0.01 0.03 0.04 0.06 0.07 0.06 0.06 0.06 0.05 0.04
0.66 0.60 0.74 0.73 0.73 0.79 0.55 0.31 0.49 1.00 1.36 0.39 0.17 0.03 0.01 0.01 0.03 0.02 0.03 0.04 0.06 0.02 0.01 0.00 0.00 0.00 0.00 0.01 0.05 0.05 0.04 0.02 0.05 0.05 0.05 0.06 0.06 0.07 0.08 0.08 0.06 0.07 0.07 0.06
0.73 0.94 1.21 0.74 0.38 0.93 0.53 0.29 0.37 0.87 0.61 0.58 0.18 0.07 0.02 0.01 0.04 0.10 0.09 0.11 0.06 0.03 0.01 0.00 0.01 0.01 0.01 0.01 0.03 0.04 0.07 0.08 0.08 0.11 0.11 0.09 0.07 0.05 0.05 0.06 0.05 0.05 0.05 0.06
0.47 0.79 0.96 0.56 0.17 0.33 0.34 0.15 0.20 0.19 0.31 0.41 0.17 0.22 0.05 0.02 0.12 0.29 0.17 0.22 0.11 0.06 0.02 0.01 0.01 0.00 0.00 0.00 0.01 0.02 0.06 0.10 0.16 0.15 0.10 0.07 0.06 0.06 0.07 0.06 0.06 0.08 0.09 0.11
0.28 0.45 0.78 0.63 0.37 0.24 0.42 0.26 0.15 0.14 0.20 0.33 0.31 0.19 0.07 0.07 0.29 0.31 0.31 0.30 0.09 0.03 0.01 0.00 0.00 0.00 0.00 0.00 0.01 0.01 0.03 0.06 0.07 0.06 0.04 0.04 0.07 0.10 0.09 0.07 0.05 0.09 0.23 0.40
0.08 0.26 0.45 0.49 0.49 0.51 0.43 0.25 0.11 0.13 0.16 0.21 0.24 0.14 0.04 0.16 0.20 0.13 0.30 0.25 0.11 0.01 0.00 0.00 0.00 0.00 0.00 0.00 0.00 0.01 0.02 0.07 0.16 0.23 0.24 0.20 0.38 0.53 0.37 0.44 0.56 0.63 0.43 0.44
0.03 0.17 0.28 0.18 0.21 0.21 0.08 0.13 0.19 0.13 0.12 0.09 0.10 0.15 0.11 0.08 0.12 0.19 0.13 0.03 0.02 0.02 0.01 0.00 0.00 0.00 0.00 0.00 0.00 0.01 0.02 0.04 0.15 0.33 0.58 0.61 0.65 0.67 0.73 1.09 1.03 1.18 1.08 0.85
0.03 0.09 0.31 0.12 0.11 0.00 0.02 0.05 0.03 0.01 0.05 0.01 0.02 0.04 0.05 0.09 0.30 0.28 0.09 0.02 0.01 0.01 0.01 0.01 0.00 0.00 0.00 0.00 0.03 0.05 0.04 0.08 0.18 0.26 0.22 0.62 0.78 0.63 0.58 0.63 0.64 0.72 0.50 0.52
0.12 0.17 0.25 0.18 0.18 0.00 0.00 0.00 0.00 0.05 0.04 0.00 0.00 0.01 0.03 0.07 0.08 0.08 0.08 0.07 0.03 0.02 0.01 0.01 0.02 0.02 0.04 0.07 0.13 0.25 0.23 0.41 0.54 0.84 0.62 0.66 0.80 0.64 0.47 0.54 0.36 0.35 0.38 0.30
0.03 0.05 0.08 0.12 0.11 0.01 0.00 0.00 0.01 0.02 0.00 0.00 0.00 0.01 0.08 0.08 0.07 0.07 0.01 0.01 0.08 0.17 0.23 0.25 0.18 0.14 0.18 0.22 0.37 0.72 0.66 0.65 0.70 0.64 0.69 0.44 0.40 0.30 0.22 0.15 0.14 0.10 0.05 0.03
0.00 0.00 0.00 0.00 0.00 0.00 0.00 0.00 0.00 0.00 0.00 0.00 0.00 0.01 0.05 0.07 0.18 0.11 0.01 0.01 0.01 0.07 0.28 0.54 0.49 0.45 0.55 0.41 0.43 0.59 0.46 0.28 0.14 0.17 0.12 0.05 0.02 0.02 0.01 0.01 0.00 0.00 0.00 0.00
0.00 0.00 0.00 0.00 0.00 0.00 0.00 0.00 0.00 0.00 0.00 0.00 0.00 0.00 0.00 0.00 0.00 0.00 0.01 0.01 0.02 0.01 0.01 0.02 0.02 0.06 0.14 0.14 0.14 0.18 0.12 0.05 0.01 0.00 0.00 0.00 0.00 0.00 0.00 0.00 0.00 0.00 0.00 0.00
0.01 0.00 0.00 0.00 0.00 0.00 0.00 0.00 0.00 0.00 0.00 0.00 0.00 0.00 0.00 0.00 0.00 0.00 0.02 0.03 0.03 0.03 0.03 0.03 0.02 0.00 0.00 0.00 0.00 0.00 0.00 0.00 0.00 0.00 0.00 0.00 0.00 0.00 0.00 0.00 0.00 0.00 0.00 0.00
0.00 0.00 0.00 0.00 0.00 0.00 0.00 0.00 0.00 0.00 0.00 0.00 0.00 0.00 0.00 0.00 0.00 0.00 0.00 0.00 0.00 0.00 0.00 0.00 0.00 0.00 0.00 0.00 0.00 0.00 0.00 0.00 0.00 0.00 0.00 0.00 0.00 0.00 0.00 0.00 0.00 0.00 0.00 0.00

GFSCGP_prec_precacc_075.txt.gz
Total_Precipitation_Accumulation
1.27 2.28 0.78 0.19 0.05 0.03 0.02 0.05 0.02 0.00 0.00 0.01 0.00 0.00 0.01 0.03 0.07 0.01 0.00 0.00 0.00 0.00 0.00 0.00 0.00 0.00 0.00 0.00 0.00 0.00 0.00 0.00 0.04 0.07 0.08 0.16 0.23 0.33 0.21 0.20 0.36 0.26 0.26 0.30
1.71 1.22 0.37 0.19 0.10 0.07 0.06 0.06 0.04 0.01 0.02 0.04 0.00 0.02 0.01 0.02 0.04 0.03 0.00 0.00 0.00 0.00 0.00 0.00 0.00 0.00 0.00 0.00 0.00 0.00 0.00 0.00 0.00 0.01 0.02 0.18 0.29 0.31 0.25 0.30 0.24 0.28 0.37 0.47
1.23 0.73 0.40 0.34 0.21 0.14 0.08 0.07 0.04 0.03 0.05 0.04 0.03 0.02 0.02 0.01 0.00 0.02 0.00 0.00 0.00 0.00 0.00 0.00 0.00 0.00 0.00 0.00 0.00 0.00 0.00 0.00 0.00 0.02 0.06 0.16 0.22 0.27 0.28 0.17 0.13 0.19 0.32 0.68
1.09 0.67 0.66 0.47 0.40 0.13 0.10 0.04 0.04 0.07 0.16 0.05 0.08 0.04 0.00 0.00 0.00 0.00 0.00 0.00 0.00 0.00 0.00 0.00 0.00 0.00 0.00 0.00 0.00 0.00 0.00 0.00 0.00 0.00 0.01 0.07 0.07 0.13 0.11 0.14 0.23 0.28 0.34 0.56
1.09 0.72 0.82 0.68 0.51 0.16 0.12 0.03 0.04 0.08 0.22 0.34 0.07 0.08 0.01 0.00 0.00 0.00 0.00 0.00 0.00 0.00 0.00 0.00 0.00 0.00 0.00 0.00 0.00 0.00 0.00 0.00 0.00 0.00 0.00 0.04 0.10 0.09 0.10 0.15 0.17 0.22 0.30 0.34
0.62 0.72 0.72 0.64 0.55 0.29 0.14 0.14 0.14 0.22 0.34 0.54 0.34 0.10 0.02 0.00 0.00 0.00 0.00 0.00 0.00 0.00 0.00 0.00 0.00 0.00 0.00 0.00 0.00 0.00 0.00 0.00 0.00 0.00 0.01 0.01 0.08 0.08 0.06 0.09 0.15 0.17 0.19 0.18
1.48 1.10 0.85 0.67 0.87 0.68 0.43 0.60 0.84 0.78 0.81 0.37 0.07 0.24 0.11 0.00 0.00 0.00 0.00 0.00 0.00 0.00 0.00 0.00 0.00 0.00 0.00 0.00 0.00 0.00 0.00 0.00 0.00 0.00 0.00 0.00 0.02 0.09 0.07 0.10 0.15 0.15 0.11 0.08
1.32 1.32 0.95 0.90 0.84 0.95 0.64 0.55 0.80 0.40 0.30 0.13 0.05 0.07 0.03 0.00 0.00 0.00 0.00 0.00 0.00 0.00 0.00 0.00 0.00 0.00 0.00 0.00 0.00 0.00 0.00 0.00 0.00 0.00 0.00 0.00 0.00 0.04 0.05 0.06 0.07 0.08 0.11 0.11
0.64 0.79 0.52 0.55 0.53 0.68 0.76 0.74 0.49 0.51 0.22 0.32 0.10 0.02 0.00 0.00 0.00 0.00 0.00 0.00 0.00 0.00 0.00 0.00 0.00 0.00 0.00 0.00 0.00 0.00 0.00 0.00 0.00 0.00 0.00 0.00 0.00 0.05 0.05 0.04 0.04 0.06 0.06 0.07
0.35 0.68 0.67 0.62 0.70 0.81 0.58 0.35 0.54 1.10 0.49 0.20 0.11 0.06 0.00 0.00 0.00 0.00 0.00 0.00 0.00 0.00 0.00 0.00 0.00 0.00 0.00 0.00 0.00 0.00 0.00 0.00 0.00 0.02 0.02 0.01 0.04 0.04 0.04 0.03 0.03 0.05 0.06 0.06
0.45 0.64 0.74 0.95 0.96 0.75 0.64 0.64 0.51 0.57 0.29 0.14 0.06 0.08 0.01 0.00 0.00 0.02 0.01 0.01 0.01 0.01 0.00 0.00 0.00 0.00 0.00 0.00 0.00 0.00 0.00 0.00 0.00 0.01 0.00 0.01 0.03 0.03 0.04 0.04 0.04 0.04 0.04 0.05
0.38 0.56 0.74 0.60 0.21 0.17 0.27 0.27 0.20 0.77 0.39 0.27 0.17 0.06 0.01 0.01 0.00 0.02 0.03 0.03 0.02 0.01 0.00 0.00 0.00 0.00 0.00 0.00 0.00 0.00 0.00 0.00 0.01 0.01 0.00 0.01 0.02 0.04 0.05 0.05 0.05 0.06 0.05 0.05
0.29 0.74 0.77 0.74 0.50 0.49 0.65 0.35 0.28 0.62 1.13 0.62 0.31 0.07 0.00 0.01 0.01 0.01 0.01 0.03 0.01 0.00 0.00 0.00 0.00 0.00 0.00 0.00 0.02 0.04 0.04 0.01 0.01 0.00 0.01 0.03 0.04 0.06 0.07 0.06 0.06 0.06 0.05 0.04
0.66 0.60 0.74 0.73 0.73 0.79 0.55 0.31 0.49 1.00 1.36 0.39 0.17 0.03 0.01 0.01 0.03 0.02 0.03 0.04 0.06 0.02 0.01 0.00 0.00 0.00 0.00 0.01 0.05 0.05 0.04 0.02 0.05 0.05 0.05 0.06 0.06 0.07 0.08 0.08 0.06 0.07 0.07 0.06
0.73 0.94 1.21 0.74 0.38 0.93 0.53 0.29 0.37 0.87 0.61 0.58 0.18 0.07 0.02 0.01 0.04 0.10 0.09 0.11 0.06 0.03 0.01 0.00 0.01 0.01 0.01 0.01 0.03 0.04 0.07 0.08 0.08 0.11 0.11 0.09 0.07 0.05 0.05 0.06 0.05 0.05 0.05 0.06
0.47 0.79 0.96 0.56 0.17 0.33 0.34 0.15 0.20 0.19 0.31 0.41 0.17 0.22 0.05 0.02 0.12 0.29 0.17 0.22 0.11 0.06 0.02 0.01 0.01 0.00 0.00 0.00 0.01 0.02 0.06 0.10 0.16 0.15 0.10 0.07 0.06 0.06 0.07 0.06 0.06 0.08 0.09 0.11
0.28 0.45 0.78 0.63 0.37 0.24 0.42 0.26 0.15 0.14 0.20 0.33 0.31 0.19 0.07 0.07 0.29 0.31 0.31 0.30 0.09 0.03 0.01 0.00 0.00 0.00 0.00 0.00 0.01 0.01 0.03 0.06 0.07 0.06 0.04 0.04 0.07 0.10 0.09 0.07 0.05 0.09 0.23 0.40
0.08 0.26 0.45 0.49 0.49 0.51 0.43 0.25 0.11 0.13 0.16 0.21 0.24 0.14 0.04 0.16 0.20 0.13 0.30 0.25 0.11 0.01 0.00 0.00 0.00 0.00 0.00 0.00 0.00 0.01 0.02 0.07 0.16 0.23 0.24 0.20 0.38 0.53 0.37 0.44 0.56 0.63 0.43 0.44
0.03 0.17 0.28 0.18 0.21 0.21 0.08 0.13 0.19 0.13 0.12 0.09 0.10 0.15 0.11 0.08 0.12 0.19 0.13 0.03 0.02 0.02 0.01 0.00 0.00 0.00 0.00 0.00 0.00 0.01 0.02 0.04 0.15 0.33 0.58 0.61 0.65 0.67 0.73 1.09 1.03 1.18 1.08 0.85
0.03 0.09 0.31 0.12 0.11 0.00 0.02 0.05 0.03 0.01 0.05 0.01 0.02 0.04 0.05 0.09 0.30 0.28 0.09 0.02 0.01 0.01 0.01 0.01 0.00 0.00 0.00 0.00 0.03 0.05 0.04 0.08 0.18 0.26 0.22 0.62 0.78 0.63 0.58 0.63 0.64 0.72 0.50 0.52
0.12 0.17 0.25 0.18 0.18 0.00 0.00 0.00 0.00 0.05 0.04 0.00 0.00 0.01 0.03 0.07 0.08 0.08 0.08 0.07 0.03 0.02 0.01 0.01 0.02 0.02 0.04 0.07 0.13 0.25 0.23 0.41 0.54 0.84 0.62 0.66 0.80 0.64 0.47 0.54 0.36 0.35 0.38 0.30
0.03 0.05 0.08 0.12 0.12 0.01 0.00 0.00 0.01 0.02 0.00 0.00 0.00 0.01 0.08 0.08 0.07 0.07 0.01 0.01 0.08 0.17 0.23 0.25 0.18 0.14 0.18 0.22 0.37 0.72 0.66 0.65 0.70 0.64 0.69 0.44 0.40 0.30 0.22 0.15 0.14 0.10 0.05 0.03
0.00 0.00 0.00 0.00 0.00 0.00 0.00 0.00 0.00 0.00 0.00 0.00 0.00 0.01 0.05 0.07 0.18 0.11 0.01 0.01 0.01 0.07 0.28 0.54 0.49 0.45 0.55 0.41 0.43 0.59 0.46 0.28 0.14 0.17 0.12 0.05 0.02 0.02 0.01 0.01 0.00 0.00 0.00 0.00
0.00 0.00 0.00 0.00 0.00 0.00 0.00 0.00 0.00 0.00 0.00 0.00 0.00 0.00 0.00 0.00 0.00 0.00 0.01 0.01 0.02 0.01 0.01 0.02 0.02 0.06 0.14 0.14 0.14 0.18 0.12 0.05 0.01 0.00 0.00 0.00 0.00 0.00 0.00 0.00 0.00 0.00 0.00 0.00
0.01 0.00 0.00 0.00 0.00 0.00 0.00 0.00 0.00 0.00 0.00 0.00 0.00 0.00 0.00 0.00 0.00 0.00 0.02 0.03 0.03 0.03 0.04 0.03 0.04 0.03 0.01 0.00 0.00 0.00 0.00 0.00 0.00 0.00 0.00 0.00 0.00 0.00 0.00 0.00 0.00 0.00 0.00 0.00
0.00 0.00 0.00 0.00 0.00 0.00 0.00 0.00 0.00 0.00 0.00 0.00 0.00 0.00 0.00 0.00 0.00 0.00 0.00 0.00 0.00 0.00 0.00 0.00 0.01 0.01 0.03 0.03 0.01 0.00 0.00 0.00 0.00 0.00 0.00 0.00 0.00 0.00 0.00 0.00 0.00 0.00 0.00 0.00

GFSCGP_prec_precacc_078.txt.gz
Total_Precipitation_Accumulation
1.42 2.43 0.84 0.20 0.05 0.03 0.02 0.05 0.03 0.00 0.00 0.01 0.00 0.01 0.01 0.03 0.07 0.01 0.00 0.00 0.00 0.00 0.00 0.00 0.00 0.00 0.02 0.00 0.01 0.01 0.00 0.00 0.04 0.07 0.08 0.16 0.23 0.33 0.21 0.20 0.36 0.26 0.26 0.30
1.77 1.30 0.41 0.20 0.10 0.07 0.06 0.07 0.04 0.01 0.02 0.04 0.00 0.02 0.01 0.02 0.04 0.03 0.00 0.00 0.00 0.00 0.00 0.00 0.00 0.00 0.00 0.00 0.00 0.00 0.00 0.00 0.00 0.01 0.02 0.18 0.29 0.31 0.25 0.30 0.24 0.28 0.37 0.47
1.26 0.77 0.43 0.34 0.22 0.15 0.08 0.07 0.04 0.03 0.05 0.04 0.03 0.02 0.02 0.01 0.00 0.02 0.00 0.00 0.00 0.00 0.00 0.00 0.00 0.00 0.00 0.00 0.00 0.00 0.00 0.00 0.00 0.02 0.06 0.16 0.22 0.27 0.28 0.17 0.13 0.19 0.32 0.68
1.13 0.76 0.72 0.48 0.42 0.14 0.10 0.04 0.04 0.07 0.16 0.05 0.08 0.04 0.00 0.00 0.00 0.00 0.00 0.00 0.00 0.00 0.00 0.00 0.00 0.00 0.00 0.00 0.00 0.00 0.00 0.00 0.00 0.00 0.01 0.07 0.07 0.13 0.11 0.14 0.23 0.28 0.34 0.56
1.14 0.77 0.89 0.70 0.52 0.17 0.12 0.03 0.04 0.08 0.22 0.34 0.07 0.08 0.01 0.00 0.00 0.00 0.00 0.00 0.00 0.00 0.00 0.00 0.00 0.00 0.00 0.00 0.00 0.00 0.00 0.00 0.00 0.00 0.00 0.04 0.10 0.09 0.10 0.15 0.17 0.22 0.30 0.34
0.66 0.79 0.81 0.66 0.57 0.29 0.14 0.14 0.14 0.22 0.34 0.54 0.34 0.10 0.02 0.00 0.00 0.00 0.00 0.00 0.00 0.00 0.00 0.00 0.00 0.00 0.00 0.00 0.00 0.00 0.00 0.00 0.00 0.00 0.01 0.01 0.08 0.08 0.06 0.09 0.15 0.17 0.19 0.18
1.53 1.19 0.92 0.68 0.89 0.68 0.43 0.60 0.85 0.79 0.82 0.37 0.07 0.24 0.11 0.00 0.00 0.00 0.00 0.00 0.00 0.00 0.00 0.00 0.00 0.00 0.00 0.00 0.00 0.00 0.00 0.00 0.00 0.00 0.00 0.00 0.02 0.09 0.07 0.10 0.15 0.15 0.11 0.08
1.36 1.36 1.06 0.92 0.85 0.95 0.64 0.55 0.80 0.40 0.30 0.13 0.05 0.07 0.03 0.00 0.00 0.00 0.00 0.00 0.00 0.00 0.00 0.00 0.00 0.00 0.00 0.00 0.00 0.00 0.00 0.00 0.00 0.00 0.00 0.00 0.00 0.04 0.05 0.06 0.07 0.08 0.11 0.11
0.64 0.81 0.55 0.55 0.53 0.68 0.77 0.74 0.49 0.51 0.22 0.32 0.10 0.02 0.00 0.00 0.00 0.00 0.00 0.00 0.00 0.00 0.00 0.00 0.00 0.00 0.00 0.00 0.00 0.00 0.00 0.00 0.00 0.00 0.00 0.00 0.00 0.05 0.05 0.04 0.04 0.06 0.06 0.07
0.35 0.72 0.69 0.62 0.71 0.81 0.58 0.35 0.54 1.10 0.49 0.20 0.11 0.06 0.00 0.00 0.00 0.00 0.00 0.00 0.00 0.00 0.00 0.00 0.00 0.00 0.00 0.00 0.00 0.00 0.00 0.00 0.00 0.02 0.02 0.01 0.04 0.04 0.04 0.03 0.03 0.05 0.06 0.06
0.45 0.65 0.77 0.96 0.96 0.75 0.64 0.64 0.51 0.57 0.29 0.14 0.06 0.08 0.01 0.00 0.00 0.02 0.01 0.01 0.01 0.01 0.00 0.00 0.00 0.00 0.00 0.00 0.00 0.00 0.00 0.00 0.00 0.01 0.00 0.01 0.03 0.03 0.04 0.04 0.04 0.04 0.04 0.05
0.38 0.56 0.75 0.61 0.21 0.17 0.27 0.27 0.20 0.77 0.39 0.27 0.17 0.06 0.01 0.01 0.00 0.02 0.03 0.03 0.02 0.01 0.00 0.00 0.00 0.00 0.00 0.00 0.00 0.00 0.00 0.00 0.01 0.01 0.00 0.01 0.02 0.04 0.05 0.05 0.05 0.06 0.05 0.05
0.29 0.74 0.78 0.74 0.51 0.49 0.65 0.35 0.28 0.62 1.13 0.62 0.31 0.07 0.00 0.01 0.01 0.01 0.01 0.03 0.01 0.00 0.00 0.00 0.00 0.00 0.00 0.00 0.02 0.04 0.04 0.01 0.01 0.00 0.01 0.03 0.04 0.06 0.07 0.06 0.06 0.06 0.05 0.04
0.66 0.60 0.74 0.74 0.73 0.79 0.55 0.31 0.49 1.00 1.36 0.39 0.17 0.03 0.01 0.01 0.03 0.02 0.03 0.04 0.06 0.02 0.01 0.00 0.00 0.00 0.00 0.01 0.05 0.05 0.04 0.02 0.05 0.05 0.05 0.06 0.06 0.07 0.08 0.08 0.06 0.07 0.07 0.06
0.73 0.94 1.21 0.74 0.38 0.93 0.53 0.29 0.37 0.87 0.61 0.58 0.18 0.07 0.02 0.01 0.04 0.10 0.09 0.11 0.06 0.03 0.01 0.00 0.01 0.01 0.01 0.01 0.03 0.04 0.07 0.08 0.08 0.11 0.11 0.09 0.07 0.05 0.05 0.06 0.05 0.05 0.05 0.06
0.47 0.79 0.96 0.56 0.17 0.33 0.34 0.15 0.20 0.19 0.31 0.41 0.17 0.22 0.05 0.02 0.12 0.29 0.17 0.22 0.11 0.06 0.02 0.01 0.01 0.00 0.00 0.00 0.01 0.02 0.06 0.10 0.16 0.15 0.10 0.07 0.06 0.06 0.07 0.06 0.06 0.08 0.09 0.11
0.28 0.45 0.78 0.63 0.37 0.24 0.42 0.26 0.15 0.14 0.20 0.33 0.31 0.19 0.07 0.07 0.29 0.31 0.31 0.30 0.09 0.03 0.01 0.00 0.00 0.00 0.00 0.00 0.01 0.01 0.03 0.06 0.07 0.06 0.04 0.04 0.07 0.10 0.09 0.07 0.05 0.09 0.23 0.40
0.08 0.26 0.45 0.49 0.49 0.51 0.43 0.25 0.11 0.13 0.16 0.21 0.24 0.14 0.04 0.16 0.20 0.13 0.30 0.25 0.11 0.01 0.00 0.00 0.00 0.00 0.00 0.00 0.00 0.01 0.02 0.07 0.16 0.23 0.24 0.20 0.38 0.53 0.37 0.44 0.56 0.63 0.43 0.44
0.03 0.17 0.28 0.18 0.21 0.21 0.08 0.13 0.19 0.13 0.12 0.09 0.10 0.15 0.11 0.08 0.12 0.19 0.13 0.03 0.02 0.02 0.01 0.00 0.00 0.00 0.00 0.00 0.00 0.01 0.02 0.04 0.15 0.33 0.58 0.61 0.65 0.67 0.73 1.09 1.03 1.18 1.08 0.85
0.03 0.09 0.31 0.12 0.11 0.00 0.02 0.05 0.03 0.01 0.05 0.01 0.02 0.04 0.05 0.09 0.30 0.28 0.09 0.02 0.01 0.01 0.01 0.01 0.00 0.00 0.00 0.00 0.03 0.05 0.04 0.08 0.18 0.26 0.22 0.62 0.78 0.63 0.58 0.63 0.64 0.72 0.50 0.52
0.12 0.17 0.25 0.18 0.18 0.00 0.00 0.00 0.00 0.05 0.04 0.00 0.00 0.01 0.03 0.07 0.08 0.08 0.08 0.07 0.03 0.02 0.01 0.01 0.02 0.02 0.04 0.07 0.13 0.25 0.23 0.41 0.54 0.84 0.62 0.66 0.80 0.64 0.47 0.54 0.36 0.35 0.38 0.30
0.03 0.05 0.08 0.12 0.12 0.01 0.00 0.00 0.01 0.02 0.00 0.00 0.00 0.01 0.08 0.08 0.07 0.07 0.01 0.01 0.08 0.17 0.23 0.25 0.18 0.14 0.18 0.22 0.37 0.72 0.66 0.65 0.70 0.64 0.69 0.44 0.40 0.30 0.22 0.15 0.14 0.10 0.05 0.03
0.00 0.00 0.00 0.00 0.00 0.00 0.00 0.00 0.00 0.00 0.00 0.00 0.00 0.01 0.05 0.07 0.18 0.11 0.01 0.01 0.01 0.07 0.28 0.54 0.49 0.45 0.55 0.41 0.43 0.59 0.46 0.28 0.14 0.17 0.12 0.05 0.02 0.02 0.01 0.01 0.00 0.00 0.00 0.00
0.00 0.00 0.00 0.00 0.00 0.00 0.00 0.00 0.00 0.00 0.00 0.00 0.00 0.00 0.00 0.00 0.00 0.00 0.01 0.01 0.02 0.01 0.01 0.02 0.02 0.06 0.14 0.14 0.14 0.18 0.12 0.05 0.01 0.00 0.00 0.00 0.00 0.00 0.00 0.00 0.00 0.00 0.00 0.00
0.01 0.00 0.00 0.00 0.00 0.00 0.00 0.00 0.00 0.00 0.00 0.00 0.00 0.00 0.00 0.00 0.00 0.00 0.02 0.03 0.04 0.04 0.04 0.03 0.04 0.03 0.01 0.00 0.00 0.01 0.01 0.00 0.00 0.00 0.00 0.00 0.00 0.00 0.00 0.00 0.00 0.00 0.00 0.00
0.00 0.00 0.00 0.00 0.00 0.00 0.00 0.00 0.00 0.00 0.00 0.00 0.00 0.00 0.00 0.00 0.00 0.00 0.00 0.00 0.00 0.00 0.00 0.00 0.01 0.01 0.03 0.04 0.06 0.06 0.03 0.01 0.00 0.00 0.00 0.00 0.00 0.00 0.00 0.00 0.00 0.00 0.00 0.00

GFSCGP_prec_precacc_081.txt.gz
Total_Precipitation_Accumulation
1.57 2.62 1.00 0.21 0.05 0.03 0.02 0.06 0.03 0.01 0.00 0.01 0.00 0.01 0.01 0.03 0.07 0.01 0.00 0.00 0.00 0.00 0.00 0.00 0.00 0.00 0.02 0.01 0.03 0.01 0.00 0.00 0.04 0.07 0.08 0.16 0.23 0.33 0.21 0.20 0.36 0.26 0.26 0.30
1.88 1.39 0.48 0.22 0.11 0.07 0.07 0.07 0.04 0.02 0.02 0.04 0.00 0.02 0.01 0.02 0.04 0.03 0.00 0.00 0.00 0.00 0.00 0.00 0.00 0.00 0.00 0.00 0.01 0.00 0.00 0.00 0.00 0.01 0.02 0.18 0.30 0.31 0.25 0.30 0.24 0.28 0.37 0.47
1.32 0.83 0.45 0.37 0.23 0.15 0.09 0.07 0.04 0.03 0.05 0.04 0.03 0.02 0.02 0.01 0.00 0.02 0.00 0.00 0.00 0.00 0.00 0.00 0.00 0.00 0.00 0.00 0.00 0.00 0.00 0.00 0.01 0.02 0.07 0.16 0.22 0.27 0.28 0.17 0.13 0.19 0.32 0.68
1.17 0.82 0.72 0.51 0.42 0.14 0.11 0.04 0.04 0.07 0.16 0.05 0.08 0.04 0.00 0.00 0.00 0.00 0.00 0.00 0.00 0.00 0.00 0.00 0.00 0.00 0.00 0.00 0.00 0.00 0.00 0.00 0.00 0.00 0.01 0.07 0.07 0.13 0.11 0.14 0.23 0.28 0.34 0.56
1.19 0.82 0.90 0.71 0.53 0.17 0.12 0.03 0.04 0.08 0.22 0.34 0.07 0.08 0.01 0.00 0.00 0.00 0.00 0.00 0.00 0.00 0.00 0.00 0.00 0.00 0.00 0.00 0.00 0.00 0.00 0.00 0.00 0.00 0.00 0.04 0.10 0.09 0.10 0.15 0.17 0.22 0.30 0.34
0.68 0.82 0.85 0.67 0.59 0.29 0.14 0.14 0.14 0.22 0.35 0.55 0.34 0.10 0.02 0.00 0.00 0.00 0.00 0.00 0.00 0.00 0.00 0.00 0.00 0.00 0.00 0.00 0.00 0.00 0.00 0.00 0.00 0.00 0.01 0.01 0.08 0.08 0.06 0.09 0.15 0.17 0.19 0.18
1.58 1.27 0.99 0.70 0.92 0.69 0.43 0.60 0.85 0.80 0.83 0.37 0.07 0.24 0.11 0.00 0.00 0.00 0.00 0.00 0.00 0.00 0.00 0.00 0.00 0.00 0.00 0.00 0.00 0.00 0.00 0.00 0.00 0.00 0.00 0.00 0.02 0.09 0.07 0.10 0.15 0.15 0.11 0.08
1.44 1.48 1.10 0.93 0.88 0.96 0.64 0.55 0.80 0.40 0.30 0.13 0.05 0.07 0.03 0.00 0.00 0.00 0.00 0.00 0.00 0.00 0.00 0.00 0.00 0.00 0.00 0.00 0.00 0.00 0.00 0.00 0.00 0.00 0.00 0.00 0.00 0.04 0.05 0.06 0.07 0.08 0.11 0.11
0.66 0.83 0.60 0.57 0.55 0.69 0.78 0.75 0.49 0.51 0.22 0.32 0.10 0.02 0.00 0.00 0.00 0.00 0.00 0.00 0.00 0.00 0.00 0.00 0.00 0.00 0.00 0.00 0.00 0.00 0.00 0.00 0.00 0.00 0.00 0.00 0.00 0.05 0.05 0.04 0.04 0.06 0.06 0.07
0.35 0.73 0.72 0.63 0.71 0.82 0.58 0.36 0.54 1.10 0.49 0.20 0.11 0.06 0.00 0.00 0.00 0.00 0.00 0.00 0.00 0.00 0.00 0.00 0.00 0.00 0.00 0.00 0.00 0.00 0.00 0.00 0.00 0.02 0.02 0.01 0.04 0.04 0.04 0.03 0.03 0.05 0.06 0.06
0.45 0.66 0.79 0.98 0.99 0.77 0.64 0.64 0.51 0.57 0.29 0.14 0.06 0.08 0.01 0.00 0.00 0.02 0.01 0.01 0.01 0.01 0.00 0.00 0.00 0.00 0.00 0.00 0.00 0.00 0.00 0.00 0.00 0.01 0.00 0.01 0.03 0.03 0.04 0.04 0.04 0.04 0.04 0.05
0.38 0.56 0.76 0.62 0.21 0.17 0.27 0.27 0.20 0.77 0.39 0.27 0.17 0.06 0.01 0.01 0.00 0.02 0.03 0.03 0.02 0.01 0.00 0.00 0.00 0.00 0.00 0.00 0.00 0.00 0.00 0.00 0.01 0.01 0.00 0.01 0.02 0.04 0.05 0.05 0.05 0.06 0.05 0.05
0.29 0.74 0.78 0.76 0.51 0.49 0.65 0.35 0.28 0.62 1.13 0.62 0.31 0.07 0.00 0.01 0.01 0.01 0.01 0.03 0.01 0.00 0.00 0.00 0.00 0.00 0.00 0.00 0.02 0.04 0.04 0.01 0.01 0.00 0.01 0.03 0.04 0.06 0.07 0.06 0.06 0.06 0.05 0.04
0.66 0.60 0.75 0.74 0.74 0.79 0.55 0.31 0.49 1.00 1.36 0.39 0.17 0.03 0.01 0.01 0.03 0.02 0.03 0.04 0.06 0.02 0.01 0.00 0.00 0.00 0.00 0.01 0.05 0.05 0.04 0.02 0.05 0.05 0.05 0.06 0.06 0.07 0.08 0.08 0.06 0.07 0.07 0.06
0.73 0.94 1.21 0.74 0.38 0.93 0.53 0.29 0.37 0.87 0.61 0.58 0.18 0.07 0.02 0.01 0.04 0.10 0.09 0.11 0.06 0.03 0.01 0.00 0.01 0.01 0.01 0.01 0.03 0.04 0.07 0.08 0.08 0.11 0.11 0.09 0.07 0.05 0.05 0.06 0.05 0.05 0.05 0.06
0.47 0.79 0.96 0.56 0.17 0.33 0.34 0.15 0.20 0.19 0.31 0.41 0.17 0.22 0.05 0.02 0.12 0.29 0.17 0.22 0.11 0.06 0.02 0.01 0.01 0.00 0.00 0.00 0.01 0.02 0.06 0.10 0.16 0.15 0.10 0.07 0.06 0.06 0.07 0.06 0.06 0.08 0.09 0.11
0.28 0.45 0.78 0.63 0.37 0.24 0.42 0.26 0.15 0.14 0.20 0.33 0.31 0.19 0.07 0.07 0.29 0.31 0.31 0.30 0.09 0.03 0.01 0.00 0.00 0.00 0.00 0.00 0.01 0.01 0.03 0.06 0.07 0.06 0.04 0.04 0.07 0.10 0.09 0.07 0.05 0.09 0.23 0.40
0.08 0.26 0.45 0.49 0.49 0.51 0.43 0.25 0.11 0.13 0.16 0.21 0.24 0.14 0.04 0.16 0.20 0.13 0.30 0.25 0.11 0.01 0.00 0.00 0.00 0.00 0.00 0.00 0.00 0.01 0.02 0.07 0.16 0.23 0.24 0.20 0.38 0.53 0.37 0.44 0.56 0.63 0.43 0.44
0.03 0.17 0.28 0.18 0.21 0.21 0.08 0.13 0.19 0.13 0.12 0.09 0.10 0.15 0.11 0.08 0.12 0.19 0.13 0.03 0.02 0.02 0.01 0.00 0.00 0.00 0.00 0.00 0.00 0.01 0.02 0.04 0.15 0.33 0.58 0.61 0.65 0.67 0.73 1.09 1.03 1.18 1.08 0.85
0.03 0.09 0.31 0.12 0.11 0.00 0.02 0.05 0.03 0.01 0.05 0.01 0.02 0.04 0.05 0.09 0.30 0.28 0.09 0.02 0.01 0.01 0.01 0.01 0.00 0.00 0.00 0.00 0.03 0.05 0.04 0.08 0.18 0.26 0.22 0.62 0.78 0.63 0.58 0.63 0.64 0.72 0.50 0.52
0.12 0.17 0.25 0.18 0.18 0.00 0.00 0.00 0.00 0.05 0.04 0.00 0.00 0.01 0.03 0.07 0.08 0.08 0.08 0.07 0.03 0.02 0.01 0.01 0.02 0.02 0.04 0.07 0.13 0.25 0.23 0.41 0.54 0.84 0.62 0.66 0.80 0.64 0.47 0.54 0.36 0.35 0.38 0.30
0.03 0.05 0.08 0.12 0.12 0.01 0.00 0.00 0.01 0.02 0.00 0.00 0.00 0.01 0.08 0.08 0.07 0.07 0.01 0.01 0.08 0.17 0.23 0.25 0.18 0.14 0.18 0.22 0.37 0.72 0.66 0.65 0.70 0.64 0.69 0.44 0.40 0.30 0.22 0.15 0.14 0.10 0.05 0.03
0.00 0.00 0.00 0.00 0.00 0.00 0.00 0.00 0.00 0.00 0.00 0.00 0.00 0.01 0.05 0.07 0.18 0.11 0.01 0.01 0.01 0.07 0.28 0.54 0.49 0.45 0.55 0.41 0.43 0.59 0.46 0.28 0.14 0.17 0.12 0.05 0.02 0.02 0.01 0.01 0.00 0.00 0.00 0.00
0.00 0.00 0.00 0.00 0.00 0.00 0.00 0.00 0.00 0.00 0.00 0.00 0.00 0.00 0.00 0.00 0.00 0.00 0.01 0.01 0.02 0.01 0.01 0.02 0.02 0.06 0.14 0.14 0.14 0.18 0.12 0.06 0.02 0.01 0.00 0.00 0.00 0.00 0.00 0.00 0.00 0.00 0.00 0.00
0.01 0.00 0.00 0.00 0.00 0.00 0.00 0.00 0.00 0.00 0.00 0.00 0.00 0.00 0.00 0.00 0.00 0.00 0.02 0.03 0.04 0.04 0.04 0.03 0.04 0.03 0.01 0.00 0.00 0.01 0.01 0.01 0.02 0.01 0.01 0.00 0.00 0.00 0.00 0.00 0.00 0.00 0.00 0.00
0.00 0.00 0.00 0.00 0.00 0.00 0.00 0.00 0.00 0.00 0.00 0.00 0.00 0.00 0.00 0.00 0.00 0.00 0.00 0.01 0.01 0.00 0.00 0.00 0.01 0.01 0.03 0.04 0.06 0.06 0.04 0.02 0.02 0.02 0.01 0.00 0.00 0.00 0.00 0.00 0.00 0.00 0.00 0.00

GFSCGP_prec_precacc_084.txt.gz
Total_Precipitation_Accumulation
1.73 2.84 1.10 0.22 0.05 0.03 0.02 0.06 0.03 0.01 0.02 0.04 0.02 0.02 0.01 0.03 0.07 0.01 0.00 0.00 0.00 0.00 0.00 0.00 0.00 0.01 0.07 0.05 0.10 0.10 0.08 0.04 0.06 0.09 0.10 0.18 0.24 0.33 0.21 0.21 0.37 0.27 0.27 0.30
1.95 1.49 0.54 0.25 0.11 0.07 0.07 0.08 0.08 0.05 0.04 0.05 0.01 0.02 0.01 0.02 0.04 0.03 0.00 0.00 0.00 0.00 0.00 0.00 0.00 0.00 0.00 0.05 0.10 0.14 0.07 0.07 0.10 0.05 0.07 0.23 0.31 0.33 0.26 0.31 0.25 0.28 0.38 0.47
1.39 0.92 0.55 0.42 0.26 0.17 0.10 0.08 0.06 0.04 0.05 0.04 0.03 0.02 0.02 0.01 0.00 0.02 0.00 0.00 0.00 0.00 0.00 0.00 0.00 0.00 0.00 0.00 0.00 0.02 0.08 0.08 0.19 0.14 0.14 0.27 0.31 0.31 0.30 0.18 0.13 0.19 0.32 0.68
1.23 0.88 0.84 0.55 0.44 0.15 0.13 0.04 0.04 0.07 0.16 0.05 0.08 0.04 0.00 0.00 0.00 0.00 0.00 0.00 0.00 0.00 0.00 0.00 0.00 0.00 0.00 0.00 0.00 0.00 0.00 0.03 0.04 0.05 0.11 0.13 0.10 0.15 0.12 0.15 0.23 0.28 0.34 0.56
1.21 0.84 0.92 0.74 0.54 0.18 0.14 0.03 0.05 0.08 0.23 0.34 0.08 0.08 0.01 0.00 0.00 0.00 0.00 0.00 0.00 0.00 0.00 0.00 0.00 0.00 0.00 0.00 0.00 0.00 0.00 0.00 0.00 0.00 0.01 0.04 0.10 0.09 0.10 0.15 0.17 0.22 0.30 0.34
0.70 0.83 0.85 0.69 0.59 0.29 0.15 0.15 0.14 0.23 0.35 0.55 0.34 0.10 0.02 0.00 0.00 0.00 0.00 0.00 0.00 0.00 0.00 0.00 0.00 0.00 0.00 0.00 0.00 0.00 0.00 0.00 0.00 0.00 0.01 0.01 0.08 0.08 0.06 0.09 0.15 0.17 0.19 0.18
1.59 1.29 0.99 0.70 0.93 0.69 0.43 0.61 0.86 0.80 0.83 0.37 0.07 0.24 0.11 0.00 0.00 0.00 0.00 0.00 0.00 0.00 0.00 0.00 0.00 0.00 0.00 0.00 0.00 0.00 0.00 0.00 0.00 0.00 0.00 0.00 0.02 0.09 0.07 0.10 0.15 0.15 0.11 0.08
1.47 1.51 1.13 0.94 0.89 0.96 0.65 0.55 0.80 0.40 0.30 0.13 0.05 0.07 0.03 0.00 0.00 0.00 0.00 0.00 0.00 0.00 0.00 0.00 0.00 0.00 0.00 0.00 0.00 0.00 0.00 0.00 0.00 0.00 0.00 0.00 0.00 0.04 0.05 0.06 0.07 0.08 0.11 0.11
0.67 0.84 0.61 0.59 0.58 0.70 0.78 0.75 0.49 0.51 0.22 0.32 0.10 0.02 0.00 0.00 0.00 0.00 0.00 0.00 0.00 0.00 0.00 0.00 0.00 0.00 0.00 0.00 0.00 0.00 0.00 0.00 0.00 0.00 0.00 0.00 0.00 0.05 0.05 0.04 0.04 0.06 0.06 0.07
0.36 0.74 0.72 0.67 0.73 0.83 0.60 0.36 0.54 1.10 0.49 0.20 0.11 0.06 0.00 0.00 0.00 0.00 0.00 0.00 0.00 0.00 0.00 0.00 0.00 0.00 0.00 0.00 0.00 0.00 0.00 0.00 0.00 0.02 0.02 0.01 0.04 0.04 0.04 0.03 0.03 0.05 0.06 0.06
0.45 0.67 0.80 1.00 1.00 0.78 0.65 0.64 0.52 0.58 0.29 0.14 0.06 0.08 0.01 0.00 0.00 0.02 0.01 0.01 0.01 0.01 0.00 0.00 0.00 0.00 0.00 0.00 0.00 0.00 0.00 0.00 0.00 0.01 0.00 0.01 0.03 0.03 0.04 0.04 0.04 0.04 0.04 0.05
0.38 0.56 0.76 0.62 0.21 0.17 0.28 0.27 0.20 0.78 0.40 0.27 0.17 0.06 0.01 0.01 0.00 0.02 0.03 0.03 0.02 0.01 0.00 0.00 0.00 0.00 0.00 0.00 0.00 0.00 0.00 0.00 0.01 0.01 0.00 0.01 0.02 0.04 0.05 0.05 0.05 0.06 0.05 0.05
0.29 0.74 0.78 0.76 0.52 0.49 0.65 0.35 0.28 0.62 1.13 0.62 0.31 0.07 0.00 0.01 0.01 0.01 0.01 0.03 0.01 0.00 0.00 0.00 0.00 0.00 0.00 0.00 0.02 0.04 0.04 0.01 0.01 0.00 0.01 0.03 0.04 0.06 0.07 0.06 0.06 0.06 0.05 0.04
0.66 0.61 0.75 0.75 0.74 0.79 0.55 0.31 0.49 1.00 1.36 0.39 0.17 0.03 0.01 0.01 0.03 0.02 0.03 0.04 0.06 0.02 0.01 0.00 0.00 0.00 0.00 0.01 0.05 0.05 0.04 0.02 0.05 0.05 0.05 0.06 0.06 0.07 0.08 0.08 0.06 0.07 0.07 0.06
0.73 0.94 1.21 0.74 0.38 0.93 0.53 0.29 0.37 0.87 0.61 0.58 0.18 0.07 0.02 0.01 0.04 0.10 0.09 0.11 0.06 0.03 0.01 0.00 0.01 0.01 0.01 0.01 0.03 0.04 0.07 0.08 0.08 0.11 0.11 0.09 0.07 0.05 0.05 0.06 0.05 0.05 0.05 0.06
0.47 0.79 0.96 0.56 0.17 0.33 0.34 0.15 0.20 0.19 0.31 0.41 0.17 0.22 0.05 0.02 0.12 0.29 0.17 0.22 0.11 0.06 0.02 0.01 0.01 0.00 0.00 0.00 0.01 0.02 0.06 0.10 0.16 0.15 0.10 0.07 0.06 0.06 0.07 0.06 0.06 0.08 0.09 0.11
0.28 0.45 0.78 0.63 0.37 0.24 0.42 0.26 0.15 0.14 0.20 0.33 0.31 0.19 0.07 0.07 0.29 0.31 0.31 0.30 0.09 0.03 0.01 0.00 0.00 0.00 0.00 0.00 0.01 0.01 0.03 0.06 0.07 0.06 0.04 0.04 0.07 0.10 0.09 0.07 0.05 0.09 0.23 0.40
0.08 0.26 0.46 0.49 0.49 0.51 0.43 0.25 0.11 0.13 0.16 0.21 0.24 0.14 0.04 0.16 0.20 0.13 0.30 0.25 0.11 0.01 0.00 0.00 0.00 0.00 0.00 0.00 0.00 0.01 0.02 0.07 0.16 0.23 0.24 0.20 0.38 0.53 0.37 0.44 0.56 0.63 0.43 0.44
0.03 0.17 0.28 0.18 0.21 0.21 0.08 0.13 0.19 0.13 0.12 0.09 0.10 0.15 0.11 0.08 0.12 0.19 0.13 0.03 0.02 0.02 0.01 0.00 0.00 0.00 0.00 0.00 0.00 0.01 0.02 0.04 0.15 0.33 0.58 0.61 0.65 0.67 0.73 1.09 1.03 1.18 1.08 0.85
0.03 0.09 0.31 0.12 0.11 0.00 0.02 0.05 0.03 0.01 0.05 0.01 0.02 0.04 0.05 0.09 0.30 0.28 0.09 0.02 0.01 0.01 0.01 0.01 0.00 0.00 0.00 0.00 0.03 0.05 0.04 0.08 0.18 0.26 0.22 0.62 0.78 0.63 0.58 0.63 0.64 0.72 0.50 0.52
0.12 0.17 0.26 0.18 0.19 0.00 0.00 0.00 0.00 0.05 0.04 0.00 0.00 0.01 0.03 0.07 0.08 0.08 0.08 0.07 0.03 0.02 0.01 0.01 0.02 0.02 0.04 0.07 0.13 0.25 0.23 0.41 0.54 0.84 0.62 0.66 0.80 0.64 0.47 0.54 0.36 0.35 0.38 0.30
0.03 0.05 0.08 0.12 0.13 0.01 0.00 0.00 0.01 0.02 0.00 0.00 0.00 0.01 0.08 0.08 0.07 0.07 0.01 0.01 0.08 0.17 0.23 0.25 0.18 0.14 0.18 0.22 0.37 0.72 0.66 0.65 0.70 0.64 0.69 0.44 0.40 0.30 0.22 0.15 0.14 0.10 0.05 0.03
0.00 0.00 0.00 0.00 0.00 0.00 0.00 0.00 0.00 0.00 0.00 0.00 0.00 0.01 0.05 0.07 0.18 0.11 0.01 0.01 0.01 0.07 0.28 0.54 0.49 0.45 0.55 0.41 0.43 0.59 0.46 0.28 0.14 0.17 0.12 0.05 0.02 0.02 0.01 0.01 0.00 0.00 0.00 0.00
0.00 0.00 0.00 0.00 0.00 0.00 0.00 0.00 0.00 0.00 0.00 0.00 0.00 0.00 0.00 0.00 0.00 0.00 0.01 0.01 0.02 0.01 0.01 0.02 0.02 0.06 0.14 0.14 0.14 0.18 0.12 0.06 0.02 0.01 0.00 0.00 0.00 0.00 0.00 0.00 0.00 0.00 0.00 0.00
0.01 0.00 0.00 0.00 0.00 0.00 0.00 0.00 0.00 0.00 0.00 0.00 0.00 0.00 0.00 0.00 0.00 0.00 0.02 0.03 0.04 0.04 0.04 0.03 0.04 0.03 0.01 0.00 0.00 0.01 0.01 0.01 0.02 0.01 0.01 0.01 0.00 0.00 0.00 0.00 0.00 0.00 0.00 0.00
0.00 0.00 0.01 0.01 0.00 0.02 0.00 0.00 0.00 0.00 0.00 0.00 0.00 0.00 0.00 0.00 0.00 0.00 0.00 0.01 0.01 0.00 0.01 0.00 0.01 0.01 0.03 0.04 0.06 0.06 0.04 0.02 0.02 0.02 0.02 0.02 0.02 0.01 0.01 0.00 0.00 0.00 0.00 0.00

GFSCGP_prec_precacc_087.txt.gz
Total_Precipitation_Accumulation
1.86 2.86 1.22 0.26 0.06 0.03 0.02 0.06 0.03 0.02 0.03 0.12 0.10 0.05 0.03 0.04 0.07 0.01 0.00 0.00 0.00 0.00 0.00 0.00 0.01 0.05 0.13 0.11 0.10 0.10 0.13 0.09 0.07 0.11 0.14 0.23 0.28 0.34 0.22 0.22 0.38 0.27 0.27 0.30
2.03 1.52 0.56 0.27 0.12 0.07 0.08 0.09 0.08 0.09 0.08 0.06 0.05 0.04 0.02 0.02 0.04 0.03 0.00 0.00 0.00 0.00 0.00 0.00 0.00 0.00 0.00 0.10 0.19 0.18 0.09 0.22 0.20 0.08 0.12 0.32 0.45 0.42 0.33 0.40 0.31 0.28 0.38 0.47
1.47 0.99 0.56 0.42 0.26 0.19 0.11 0.08 0.13 0.07 0.10 0.10 0.04 0.02 0.02 0.01 0.00 0.02 0.00 0.00 0.00 0.00 0.00 0.00 0.00 0.00 0.00 0.01 0.03 0.07 0.12 0.24 0.31 0.32 0.21 0.43 0.46 0.45 0.40 0.25 0.17 0.19 0.32 0.68
1.36 0.93 0.84 0.55 0.44 0.16 0.13 0.04 0.08 0.11 0.17 0.10 0.08 0.04 0.00 0.00 0.00 0.00 0.00 0.00 0.00 0.00 0.00 0.00 0.00 0.00 0.00 0.00 0.00 0.00 0.00 0.10 0.11 0.08 0.27 0.29 0.21 0.25 0.22 0.22 0.33 0.35 0.35 0.56
1.32 0.99 1.02 0.79 0.57 0.20 0.15 0.04 0.06 0.11 0.24 0.36 0.08 0.08 0.01 0.00 0.00 0.00 0.00 0.00 0.00 0.00 0.00 0.00 0.00 0.00 0.00 0.00 0.00 0.00 0.00 0.05 0.09 0.03 0.07 0.04 0.12 0.09 0.11 0.18 0.21 0.22 0.30 0.34
0.78 0.95 1.00 0.72 0.60 0.30 0.19 0.17 0.17 0.25 0.36 0.55 0.34 0.10 0.02 0.00 0.00 0.00 0.00 0.00 0.00 0.00 0.00 0.00 0.00 0.00 0.00 0.00 0.01 0.01 0.00 0.01 0.05 0.03 0.02 0.02 0.08 0.08 0.06 0.10 0.15 0.17 0.19 0.18
1.60 1.31 1.01 0.70 0.93 0.70 0.49 0.62 0.87 0.80 0.83 0.37 0.07 0.24 0.11 0.00 0.00 0.00 0.00 0.00 0.00 0.00 0.00 0.00 0.00 0.00 0.00 0.00 0.00 0.00 0.02 0.02 0.02 0.01 0.00 0.00 0.02 0.09 0.07 0.10 0.15 0.15 0.11 0.08
1.47 1.51 1.13 0.94 0.89 0.97 0.67 0.55 0.80 0.40 0.30 0.13 0.05 0.07 0.03 0.00 0.00 0.00 0.00 0.00 0.00 0.00 0.00 0.00 0.00 0.00 0.00 0.00 0.00 0.00 0.00 0.00 0.00 0.00 0.00 0.00 0.00 0.04 0.05 0.06 0.07 0.08 0.11 0.11
0.67 0.84 0.61 0.59 0.58 0.70 0.78 0.75 0.49 0.51 0.22 0.32 0.10 0.02 0.00 0.00 0.00 0.00 0.00 0.00 0.00 0.00 0.00 0.00 0.00 0.00 0.00 0.00 0.00 0.00 0.00 0.00 0.00 0.00 0.00 0.00 0.00 0.05 0.05 0.04 0.04 0.06 0.06 0.07
0.36 0.74 0.72 0.67 0.74 0.83 0.60 0.36 0.54 1.10 0.49 0.20 0.11 0.06 0.00 0.00 0.00 0.00 0.00 0.00 0.00 0.00 0.00 0.00 0.00 0.00 0.00 0.00 0.00 0.00 0.00 0.00 0.00 0.02 0.02 0.01 0.04 0.04 0.04 0.03 0.03 0.05 0.06 0.06
0.45 0.67 0.80 1.02 1.01 0.78 0.65 0.65 0.52 0.58 0.29 0.14 0.06 0.08 0.01 0.00 0.00 0.02 0.01 0.01 0.01 0.01 0.00 0.00 0.00 0.00 0.00 0.00 0.00 0.00 0.00 0.00 0.00 0.01 0.00 0.01 0.03 0.03 0.04 0.04 0.04 0.04 0.04 0.05
0.38 0.56 0.76 0.62 0.21 0.17 0.28 0.28 0.20 0.78 0.40 0.27 0.17 0.06 0.01 0.01 0.00 0.02 0.03 0.03 0.02 0.01 0.00 0.00 0.00 0.00 0.00 0.00 0.00 0.00 0.00 0.00 0.01 0.01 0.00 0.01 0.02 0.04 0.05 0.05 0.05 0.06 0.05 0.05
0.29 0.74 0.78 0.76 0.52 0.49 0.65 0.35 0.28 0.62 1.13 0.62 0.31 0.07 0.00 0.01 0.01 0.01 0.01 0.03 0.01 0.00 0.00 0.00 0.00 0.00 0.00 0.00 0.02 0.04 0.04 0.02 0.01 0.00 0.01 0.03 0.05 0.06 0.07 0.06 0.06 0.06 0.05 0.04
0.66 0.61 0.75 0.75 0.74 0.79 0.55 0.31 0.49 1.00 1.36 0.39 0.17 0.03 0.01 0.01 0.03 0.02 0.03 0.04 0.06 0.02 0.01 0.00 0.00 0.00 0.00 0.01 0.05 0.05 0.04 0.02 0.05 0.05 0.05 0.06 0.06 0.07 0.08 0.08 0.06 0.07 0.07 0.06
0.73 0.94 1.21 0.74 0.38 0.93 0.53 0.29 0.37 0.87 0.61 0.58 0.18 0.07 0.02 0.01 0.04 0.10 0.09 0.11 0.06 0.03 0.01 0.00 0.01 0.01 0.01 0.01 0.03 0.04 0.07 0.08 0.08 0.11 0.11 0.09 0.07 0.05 0.05 0.06 0.05 0.05 0.05 0.06
0.47 0.79 0.96 0.56 0.17 0.33 0.34 0.15 0.20 0.19 0.31 0.41 0.17 0.22 0.05 0.02 0.12 0.29 0.17 0.22 0.11 0.06 0.02 0.01 0.01 0.00 0.00 0.00 0.01 0.02 0.06 0.10 0.16 0.15 0.10 0.07 0.06 0.06 0.07 0.06 0.06 0.08 0.09 0.11
0.28 0.45 0.78 0.63 0.37 0.24 0.42 0.26 0.15 0.14 0.20 0.33 0.31 0.19 0.07 0.07 0.29 0.31 0.31 0.30 0.09 0.03 0.01 0.00 0.00 0.00 0.00 0.00 0.01 0.01 0.03 0.06 0.07 0.06 0.04 0.04 0.07 0.10 0.09 0.07 0.05 0.09 0.23 0.40
0.08 0.26 0.46 0.49 0.49 0.51 0.43 0.25 0.11 0.13 0.16 0.21 0.24 0.14 0.04 0.16 0.20 0.13 0.30 0.25 0.11 0.01 0.00 0.00 0.00 0.00 0.00 0.00 0.00 0.01 0.02 0.07 0.16 0.23 0.24 0.20 0.38 0.53 0.37 0.44 0.56 0.63 0.43 0.44
0.03 0.17 0.28 0.18 0.21 0.21 0.08 0.13 0.19 0.13 0.12 0.09 0.10 0.15 0.11 0.08 0.12 0.19 0.13 0.03 0.02 0.02 0.01 0.00 0.00 0.00 0.00 0.00 0.00 0.01 0.02 0.04 0.15 0.33 0.58 0.61 0.65 0.67 0.73 1.09 1.03 1.18 1.08 0.85
0.03 0.09 0.31 0.12 0.11 0.00 0.02 0.05 0.03 0.01 0.05 0.01 0.02 0.04 0.05 0.09 0.30 0.28 0.09 0.02 0.01 0.01 0.01 0.01 0.00 0.00 0.00 0.00 0.03 0.05 0.04 0.08 0.18 0.26 0.22 0.62 0.78 0.63 0.58 0.63 0.64 0.72 0.50 0.52
0.12 0.17 0.26 0.18 0.19 0.00 0.00 0.00 0.00 0.05 0.04 0.00 0.00 0.01 0.03 0.07 0.08 0.08 0.08 0.07 0.03 0.02 0.01 0.01 0.02 0.02 0.04 0.07 0.13 0.25 0.23 0.41 0.54 0.84 0.62 0.66 0.80 0.64 0.47 0.54 0.36 0.35 0.38 0.30
0.03 0.05 0.08 0.12 0.13 0.01 0.00 0.00 0.01 0.02 0.00 0.00 0.00 0.01 0.08 0.08 0.07 0.07 0.01 0.01 0.08 0.17 0.23 0.25 0.18 0.14 0.18 0.22 0.37 0.72 0.66 0.65 0.70 0.64 0.69 0.44 0.40 0.30 0.22 0.15 0.14 0.10 0.05 0.03
0.00 0.00 0.00 0.00 0.00 0.00 0.00 0.00 0.00 0.00 0.00 0.00 0.00 0.01 0.05 0.07 0.18 0.11 0.01 0.01 0.01 0.07 0.28 0.54 0.49 0.45 0.55 0.41 0.43 0.59 0.46 0.28 0.14 0.17 0.12 0.05 0.02 0.02 0.01 0.01 0.00 0.00 0.00 0.00
0.00 0.00 0.00 0.00 0.00 0.00 0.00 0.00 0.00 0.00 0.00 0.00 0.00 0.00 0.00 0.00 0.00 0.00 0.01 0.01 0.02 0.01 0.01 0.02 0.02 0.06 0.14 0.14 0.14 0.18 0.12 0.06 0.02 0.01 0.00 0.00 0.00 0.00 0.00 0.00 0.00 0.00 0.00 0.00
0.01 0.00 0.00 0.00 0.00 0.00 0.00 0.00 0.00 0.00 0.00 0.00 0.00 0.00 0.00 0.00 0.00 0.00 0.02 0.03 0.04 0.04 0.04 0.03 0.04 0.03 0.01 0.00 0.00 0.01 0.01 0.01 0.02 0.01 0.01 0.01 0.00 0.00 0.00 0.00 0.00 0.00 0.00 0.00
0.00 0.00 0.01 0.01 0.00 0.02 0.00 0.00 0.00 0.00 0.00 0.00 0.00 0.00 0.00 0.00 0.00 0.00 0.01 0.02 0.02 0.01 0.01 0.01 0.01 0.02 0.03 0.04 0.06 0.06 0.04 0.02 0.02 0.02 0.02 0.03 0.02 0.01 0.01 0.01 0.02 0.02 0.01 0.00

GFSCGP_prec_precacc_090.txt.gz
Total_Precipitation_Accumulation
1.88 2.87 1.26 0.45 0.12 0.04 0.03 0.06 0.03 0.03 0.04 0.14 0.15 0.09 0.09 0.10 0.10 0.01 0.00 0.00 0.00 0.00 0.00 0.00 0.03 0.14 0.21 0.15 0.13 0.14 0.16 0.10 0.07 0.11 0.16 0.26 0.29 0.35 0.23 0.23 0.40 0.27 0.27 0.30
2.05 1.52 0.58 0.37 0.16 0.08 0.09 0.10 0.09 0.12 0.12 0.07 0.10 0.07 0.05 0.10 0.08 0.03 0.00 0.00 0.00 0.00 0.00 0.00 0.00 0.01 0.05 0.15 0.23 0.23 0.12 0.27 0.20 0.08 0.15 0.35 0.53 0.55 0.44 0.49 0.41 0.31 0.42 0.49
1.48 1.00 0.57 0.46 0.30 0.19 0.12 0.10 0.14 0.09 0.19 0.13 0.06 0.04 0.02 0.03 0.01 0.02 0.00 0.00 0.00 0.00 0.00 0.00 0.00 0.00 0.00 0.02 0.04 0.10 0.20 0.33 0.32 0.33 0.22 0.45 0.51 0.54 0.51 0.29 0.19 0.26 0.40 0.71
1.38 0.94 0.85 0.58 0.45 0.16 0.13 0.04 0.09 0.12 0.21 0.20 0.12 0.06 0.00 0.00 0.00 0.00 0.00 0.00 0.00 0.00 0.00 0.00 0.00 0.00 0.00 0.00 0.00 0.04 0.04 0.13 0.13 0.11 0.29 0.38 0.29 0.32 0.34 0.39 0.47 0.47 0.44 0.61
1.41 1.01 1.02 0.79 0.57 0.20 0.15 0.04 0.07 0.15 0.27 0.41 0.13 0.10 0.01 0.00 0.00 0.00 0.00 0.00 0.00 0.00 0.00 0.00 0.00 0.00 0.00 0.00 0.00 0.01 0.03 0.16 0.17 0.11 0.19 0.14 0.24 0.13 0.14 0.25 0.28 0.28 0.33 0.36
0.80 0.95 1.01 0.72 0.60 0.30 0.19 0.18 0.18 0.29 0.41 0.57 0.34 0.10 0.02 0.00 0.00 0.00 0.00 0.00 0.00 0.00 0.00 0.00 0.00 0.00 0.00 0.00 0.01 0.01 0.02 0.06 0.13 0.08 0.14 0.06 0.14 0.11 0.08 0.11 0.17 0.18 0.20 0.18
1.66 1.42 1.06 0.70 0.93 0.70 0.52 0.63 0.97 0.96 0.96 0.38 0.07 0.24 0.11 0.00 0.00 0.00 0.00 0.00 0.00 0.00 0.00 0.00 0.00 0.00 0.00 0.00 0.00 0.00 0.02 0.05 0.14 0.13 0.17 0.15 0.14 0.18 0.14 0.16 0.19 0.17 0.12 0.08
1.50 1.55 1.13 0.94 0.89 1.03 0.73 0.57 0.81 0.43 0.31 0.13 0.05 0.07 0.03 0.00 0.00 0.00 0.00 0.00 0.00 0.00 0.00 0.00 0.00 0.00 0.00 0.00 0.00 0.00 0.00 0.00 0.02 0.05 0.06 0.07 0.05 0.08 0.08 0.09 0.10 0.10 0.11 0.11
0.67 0.84 0.61 0.59 0.58 0.74 0.81 0.75 0.49 0.51 0.22 0.32 0.10 0.02 0.00 0.00 0.00 0.00 0.00 0.00 0.00 0.00 0.00 0.00 0.00 0.00 0.00 0.00 0.00 0.00 0.00 0.00 0.00 0.00 0.01 0.01 0.01 0.05 0.05 0.04 0.04 0.06 0.06 0.07
0.36 0.74 0.72 0.67 0.74 0.83 0.60 0.36 0.54 1.10 0.49 0.20 0.11 0.06 0.00 0.00 0.00 0.00 0.00 0.00 0.00 0.00 0.00 0.00 0.00 0.00 0.00 0.00 0.00 0.00 0.00 0.00 0.00 0.02 0.02 0.01 0.04 0.04 0.04 0.03 0.03 0.05 0.06 0.06
0.45 0.67 0.80 1.02 1.01 0.78 0.65 0.65 0.52 0.58 0.29 0.14 0.06 0.08 0.01 0.00 0.00 0.02 0.01 0.01 0.01 0.01 0.00 0.00 0.00 0.00 0.00 0.00 0.00 0.00 0.00 0.00 0.00 0.01 0.00 0.01 0.03 0.03 0.04 0.04 0.04 0.04 0.04 0.05
0.38 0.56 0.76 0.62 0.21 0.17 0.28 0.28 0.20 0.78 0.40 0.27 0.17 0.06 0.01 0.01 0.00 0.02 0.03 0.03 0.02 0.01 0.00 0.00 0.00 0.00 0.00 0.00 0.00 0.00 0.00 0.01 0.01 0.01 0.00 0.01 0.02 0.04 0.05 0.05 0.05 0.06 0.05 0.05
0.29 0.74 0.78 0.76 0.52 0.49 0.65 0.35 0.28 0.62 1.13 0.62 0.31 0.07 0.00 0.01 0.01 0.01 0.01 0.03 0.01 0.00 0.00 0.00 0.00 0.00 0.00 0.00 0.02 0.04 0.04 0.02 0.01 0.01 0.01 0.03 0.05 0.06 0.07 0.07 0.06 0.06 0.05 0.04
0.66 0.61 0.75 0.75 0.74 0.79 0.55 0.31 0.49 1.00 1.36 0.39 0.17 0.03 0.01 0.01 0.03 0.02 0.03 0.04 0.06 0.02 0.01 0.00 0.00 0.00 0.00 0.01 0.05 0.05 0.04 0.02 0.05 0.05 0.05 0.06 0.06 0.07 0.08 0.08 0.06 0.07 0.07 0.06
0.73 0.94 1.21 0.74 0.38 0.93 0.53 0.29 0.37 0.87 0.61 0.58 0.18 0.07 0.02 0.01 0.04 0.10 0.09 0.11 0.06 0.03 0.01 0.00 0.01 0.01 0.01 0.01 0.03 0.04 0.07 0.08 0.08 0.11 0.11 0.09 0.07 0.05 0.05 0.06 0.05 0.05 0.05 0.06
0.47 0.79 0.96 0.56 0.17 0.33 0.34 0.15 0.20 0.19 0.31 0.41 0.17 0.22 0.05 0.02 0.12 0.29 0.17 0.22 0.11 0.06 0.02 0.01 0.01 0.00 0.00 0.00 0.01 0.02 0.06 0.10 0.16 0.15 0.10 0.07 0.06 0.06 0.07 0.06 0.06 0.08 0.09 0.11
0.28 0.45 0.78 0.63 0.37 0.24 0.42 0.26 0.15 0.14 0.20 0.33 0.31 0.19 0.07 0.07 0.29 0.31 0.31 0.30 0.09 0.03 0.01 0.00 0.00 0.00 0.00 0.00 0.01 0.01 0.03 0.06 0.07 0.06 0.04 0.04 0.07 0.10 0.09 0.07 0.05 0.09 0.23 0.40
0.08 0.26 0.46 0.49 0.49 0.51 0.43 0.25 0.11 0.13 0.16 0.21 0.24 0.14 0.04 0.16 0.20 0.13 0.30 0.25 0.11 0.01 0.00 0.00 0.00 0.00 0.00 0.00 0.00 0.01 0.02 0.07 0.16 0.23 0.24 0.20 0.38 0.53 0.37 0.44 0.56 0.63 0.43 0.44
0.03 0.17 0.28 0.18 0.21 0.21 0.08 0.13 0.19 0.13 0.12 0.09 0.10 0.15 0.11 0.08 0.12 0.19 0.13 0.03 0.02 0.02 0.01 0.00 0.00 0.00 0.00 0.00 0.00 0.01 0.02 0.04 0.15 0.33 0.58 0.61 0.65 0.67 0.73 1.09 1.03 1.18 1.08 0.85
0.03 0.09 0.31 0.12 0.11 0.00 0.02 0.05 0.03 0.01 0.05 0.01 0.02 0.04 0.05 0.09 0.30 0.28 0.09 0.02 0.01 0.01 0.01 0.01 0.00 0.00 0.00 0.00 0.03 0.05 0.04 0.08 0.18 0.26 0.22 0.62 0.78 0.63 0.58 0.63 0.64 0.72 0.50 0.52
0.12 0.17 0.26 0.18 0.19 0.00 0.00 0.00 0.00 0.05 0.04 0.00 0.00 0.01 0.03 0.07 0.08 0.08 0.08 0.07 0.03 0.02 0.01 0.01 0.02 0.02 0.04 0.07 0.13 0.25 0.23 0.41 0.54 0.84 0.62 0.66 0.80 0.64 0.47 0.54 0.36 0.35 0.38 0.30
0.03 0.05 0.08 0.12 0.13 0.01 0.00 0.00 0.01 0.02 0.00 0.00 0.00 0.01 0.08 0.08 0.07 0.07 0.01 0.01 0.08 0.17 0.23 0.25 0.18 0.14 0.18 0.22 0.37 0.72 0.66 0.65 0.70 0.64 0.69 0.44 0.40 0.30 0.22 0.15 0.14 0.10 0.05 0.03
0.00 0.00 0.00 0.00 0.00 0.00 0.00 0.00 0.00 0.00 0.00 0.00 0.00 0.01 0.05 0.07 0.18 0.11 0.01 0.01 0.01 0.07 0.28 0.54 0.49 0.45 0.55 0.41 0.43 0.59 0.46 0.28 0.14 0.17 0.12 0.05 0.02 0.02 0.01 0.01 0.00 0.00 0.00 0.00
0.00 0.00 0.00 0.00 0.00 0.00 0.00 0.00 0.00 0.00 0.00 0.00 0.00 0.00 0.00 0.00 0.00 0.00 0.01 0.01 0.02 0.01 0.01 0.02 0.02 0.06 0.14 0.14 0.14 0.18 0.12 0.06 0.02 0.01 0.00 0.00 0.00 0.00 0.00 0.00 0.00 0.00 0.00 0.00
0.01 0.00 0.00 0.00 0.00 0.00 0.00 0.00 0.00 0.00 0.00 0.00 0.00 0.00 0.01 0.01 0.00 0.00 0.02 0.03 0.04 0.04 0.04 0.03 0.04 0.03 0.01 0.00 0.00 0.01 0.01 0.01 0.02 0.01 0.01 0.01 0.00 0.00 0.00 0.00 0.01 0.00 0.00 0.00
0.00 0.00 0.01 0.01 0.00 0.02 0.00 0.00 0.00 0.00 0.00 0.00 0.00 0.00 0.01 0.03 0.04 0.01 0.01 0.03 0.03 0.02 0.02 0.01 0.01 0.02 0.03 0.04 0.06 0.06 0.04 0.02 0.02 0.02 0.02 0.03 0.02 0.02 0.02 0.02 0.03 0.05 0.03 0.01

GFSCGP_prec_precacc_093.txt.gz
Total_Precipitation_Accumulation
1.96 2.95 1.34 0.54 0.22 0.05 0.03 0.07 0.04 0.13 0.22 0.34 0.36 0.21 0.20 0.13 0.10 0.01 0.00 0.00 0.00 0.00 0.01 0.03 0.06 0.29 0.35 0.25 0.27 0.32 0.27 0.19 0.14 0.12 0.17 0.28 0.32 0.39 0.26 0.25 0.41 0.28 0.27 0.30
2.07 1.55 0.60 0.44 0.29 0.09 0.11 0.11 0.11 0.17 0.19 0.14 0.22 0.22 0.13 0.19 0.08 0.03 0.00 0.00 0.00 0.00 0.00 0.00 0.00 0.06 0.05 0.20 0.33 0.31 0.15 0.30 0.26 0.16 0.18 0.36 0.55 0.63 0.51 0.51 0.41 0.31 0.42 0.49
1.49 1.01 0.62 0.69 0.40 0.20 0.14 0.11 0.16 0.13 0.26 0.15 0.07 0.12 0.07 0.06 0.02 0.02 0.00 0.00 0.00 0.00 0.00 0.00 0.00 0.00 0.00 0.04 0.11 0.20 0.38 0.49 0.44 0.40 0.35 0.55 0.59 0.62 0.61 0.30 0.20 0.30 0.55 0.86
1.39 0.96 0.92 0.86 0.49 0.18 0.13 0.06 0.10 0.14 0.28 0.24 0.13 0.07 0.01 0.00 0.00 0.00 0.00 0.00 0.00 0.00 0.00 0.00 0.00 0.00 0.00 0.00 0.04 0.11 0.15 0.27 0.27 0.35 0.44 0.45 0.39 0.37 0.38 0.41 0.50 0.54 0.57 0.81
1.43 1.04 1.24 0.96 0.58 0.22 0.16 0.04 0.08 0.15 0.28 0.48 0.18 0.10 0.01 0.00 0.00 0.00 0.00 0.00 0.00 0.00 0.00 0.00 0.00 0.00 0.00 0.00 0.00 0.08 0.17 0.29 0.29 0.26 0.34 0.40 0.45 0.27 0.27 0.37 0.35 0.33 0.37 0.40
0.82 0.96 1.04 0.72 0.61 0.30 0.21 0.20 0.21 0.30 0.42 0.62 0.38 0.10 0.02 0.00 0.00 0.00 0.00 0.00 0.00 0.00 0.00 0.00 0.00 0.00 0.00 0.00 0.01 0.02 0.04 0.16 0.26 0.21 0.28 0.33 0.41 0.36 0.30 0.30 0.36 0.31 0.28 0.22
1.66 1.44 1.07 0.70 0.94 0.71 0.53 0.63 1.01 1.01 1.05 0.39 0.07 0.24 0.11 0.00 0.00 0.00 0.00 0.00 0.00 0.00 0.00 0.00 0.00 0.00 0.00 0.00 0.00 0.00 0.02 0.08 0.19 0.21 0.32 0.37 0.38 0.42 0.38 0.35 0.37 0.33 0.23 0.16
1.55 1.58 1.14 0.94 0.89 1.04 0.74 0.57 0.82 0.45 0.34 0.13 0.05 0.07 0.03 0.00 0.00 0.00 0.00 0.00 0.00 0.00 0.00 0.00 0.00 0.00 0.00 0.00 0.00 0.00 0.00 0.00 0.03 0.08 0.12 0.16 0.16 0.21 0.22 0.21 0.20 0.22 0.18 0.13
0.67 0.86 0.61 0.59 0.58 0.76 0.81 0.75 0.49 0.51 0.22 0.32 0.10 0.02 0.00 0.00 0.00 0.00 0.00 0.00 0.00 0.00 0.00 0.00 0.00 0.00 0.00 0.00 0.00 0.00 0.00 0.00 0.00 0.01 0.02 0.04 0.07 0.12 0.11 0.07 0.09 0.11 0.10 0.08
0.36 0.75 0.72 0.67 0.74 0.85 0.61 0.36 0.54 1.10 0.49 0.20 0.11 0.06 0.00 0.00 0.00 0.00 0.00 0.00 0.00 0.00 0.00 0.00 0.00 0.00 0.00 0.00 0.00 0.00 0.00 0.00 0.00 0.02 0.02 0.01 0.04 0.06 0.06 0.04 0.04 0.05 0.06 0.06
0.45 0.67 0.80 1.02 1.01 0.79 0.66 0.65 0.52 0.58 0.29 0.14 0.06 0.08 0.01 0.00 0.00 0.02 0.01 0.01 0.01 0.01 0.00 0.00 0.00 0.00 0.00 0.00 0.00 0.00 0.00 0.00 0.00 0.01 0.00 0.01 0.03 0.03 0.04 0.04 0.04 0.04 0.04 0.05
0.38 0.56 0.76 0.62 0.21 0.17 0.28 0.28 0.20 0.78 0.40 0.27 0.17 0.06 0.01 0.01 0.00 0.02 0.03 0.03 0.02 0.01 0.00 0.00 0.00 0.00 0.00 0.00 0.00 0.00 0.00 0.01 0.01 0.01 0.00 0.01 0.02 0.04 0.05 0.05 0.06 0.07 0.06 0.05
0.29 0.74 0.78 0.76 0.52 0.49 0.65 0.35 0.28 0.62 1.13 0.62 0.31 0.07 0.00 0.01 0.01 0.01 0.01 0.03 0.01 0.00 0.00 0.00 0.00 0.00 0.00 0.00 0.02 0.04 0.04 0.02 0.01 0.01 0.01 0.03 0.05 0.06 0.07 0.07 0.06 0.06 0.05 0.04
0.66 0.61 0.75 0.75 0.74 0.79 0.55 0.31 0.49 1.00 1.36 0.39 0.17 0.03 0.01 0.01 0.03 0.02 0.03 0.04 0.06 0.02 0.01 0.00 0.00 0.00 0.00 0.01 0.05 0.05 0.04 0.02 0.05 0.05 0.05 0.06 0.06 0.07 0.08 0.08 0.06 0.07 0.07 0.06
0.73 0.94 1.21 0.74 0.38 0.93 0.53 0.29 0.37 0.87 0.61 0.58 0.18 0.07 0.02 0.01 0.04 0.10 0.09 0.11 0.06 0.03 0.01 0.00 0.01 0.01 0.01 0.01 0.03 0.04 0.07 0.08 0.08 0.11 0.11 0.09 0.07 0.05 0.05 0.06 0.05 0.05 0.05 0.06
0.47 0.79 0.96 0.56 0.17 0.33 0.34 0.15 0.20 0.19 0.31 0.41 0.17 0.22 0.05 0.02 0.12 0.29 0.17 0.22 0.11 0.06 0.02 0.01 0.01 0.00 0.00 0.00 0.01 0.02 0.06 0.10 0.16 0.15 0.10 0.07 0.06 0.06 0.07 0.06 0.06 0.08 0.09 0.11
0.28 0.45 0.78 0.63 0.37 0.24 0.42 0.26 0.15 0.14 0.20 0.33 0.31 0.19 0.07 0.07 0.29 0.31 0.31 0.30 0.09 0.03 0.01 0.00 0.00 0.00 0.00 0.00 0.01 0.01 0.03 0.06 0.07 0.06 0.04 0.04 0.07 0.10 0.09 0.07 0.05 0.09 0.23 0.40
0.08 0.26 0.46 0.49 0.49 0.51 0.43 0.25 0.11 0.13 0.16 0.21 0.24 0.14 0.04 0.16 0.20 0.13 0.30 0.25 0.11 0.01 0.00 0.00 0.00 0.00 0.00 0.00 0.00 0.01 0.02 0.07 0.16 0.23 0.24 0.20 0.38 0.53 0.37 0.44 0.56 0.63 0.43 0.44
0.03 0.17 0.28 0.18 0.21 0.21 0.08 0.13 0.19 0.13 0.12 0.09 0.10 0.15 0.11 0.08 0.12 0.19 0.13 0.03 0.02 0.02 0.01 0.00 0.00 0.00 0.00 0.00 0.00 0.01 0.02 0.04 0.15 0.33 0.58 0.61 0.65 0.67 0.73 1.09 1.03 1.18 1.08 0.85
0.03 0.09 0.31 0.12 0.11 0.00 0.02 0.05 0.03 0.01 0.05 0.01 0.02 0.04 0.05 0.09 0.30 0.28 0.09 0.02 0.01 0.01 0.01 0.01 0.00 0.00 0.00 0.00 0.03 0.05 0.04 0.08 0.18 0.26 0.22 0.62 0.78 0.63 0.58 0.63 0.64 0.72 0.50 0.52
0.12 0.17 0.26 0.18 0.19 0.00 0.00 0.00 0.00 0.05 0.04 0.00 0.00 0.01 0.03 0.07 0.08 0.08 0.08 0.07 0.03 0.02 0.01 0.01 0.02 0.02 0.04 0.07 0.13 0.25 0.23 0.41 0.54 0.84 0.62 0.66 0.80 0.64 0.47 0.54 0.36 0.35 0.38 0.30
0.03 0.05 0.08 0.12 0.13 0.01 0.00 0.00 0.01 0.02 0.00 0.00 0.00 0.01 0.08 0.08 0.07 0.07 0.01 0.01 0.08 0.17 0.23 0.25 0.18 0.14 0.18 0.22 0.37 0.72 0.66 0.65 0.70 0.64 0.69 0.44 0.40 0.30 0.22 0.15 0.14 0.10 0.05 0.03
0.00 0.00 0.00 0.00 0.00 0.00 0.00 0.00 0.00 0.00 0.00 0.00 0.00 0.01 0.05 0.07 0.18 0.11 0.01 0.01 0.01 0.07 0.28 0.54 0.49 0.45 0.55 0.41 0.43 0.59 0.46 0.28 0.14 0.17 0.12 0.05 0.02 0.02 0.01 0.01 0.00 0.00 0.00 0.00
0.00 0.00 0.00 0.00 0.00 0.00 0.00 0.00 0.00 0.00 0.00 0.00 0.00 0.00 0.00 0.00 0.00 0.00 0.01 0.01 0.02 0.01 0.01 0.02 0.02 0.06 0.14 0.14 0.14 0.18 0.12 0.06 0.02 0.02 0.01 0.01 0.00 0.01 0.00 0.00 0.00 0.00 0.00 0.00
0.01 0.00 0.00 0.00 0.00 0.00 0.00 0.00 0.00 0.00 0.00 0.00 0.00 0.00 0.01 0.01 0.01 0.01 0.03 0.03 0.04 0.04 0.04 0.03 0.04 0.03 0.01 0.00 0.00 0.01 0.01 0.01 0.02 0.02 0.03 0.04 0.03 0.02 0.00 0.00 0.01 0.00 0.00 0.01
0.00 0.00 0.01 0.01 0.00 0.02 0.00 0.00 0.00 0.00 0.00 0.00 0.00 0.00 0.01 0.03 0.04 0.03 0.06 0.07 0.08 0.07 0.04 0.02 0.02 0.02 0.04 0.05 0.06 0.06 0.04 0.02 0.02 0.02 0.02 0.04 0.04 0.04 0.03 0.02 0.03 0.06 0.04 0.02

GFSCGP_prec_precacc_096.txt.gz
Total_Precipitation_Accumulation
2.03 3.16 1.39 0.61 0.25 0.08 0.03 0.07 0.05 0.15 0.31 0.51 0.60 0.61 0.40 0.15 0.10 0.01 0.00 0.00 0.00 0.00 0.03 0.09 0.19 0.41 0.52 0.31 0.30 0.33 0.29 0.19 0.15 0.13 0.22 0.31 0.35 0.39 0.26 0.25 0.41 0.28 0.27 0.30
2.10 1.60 0.61 0.52 0.36 0.12 0.12 0.13 0.13 0.20 0.29 0.27 0.35 0.48 0.41 0.21 0.08 0.03 0.00 0.00 0.00 0.00 0.00 0.00 0.03 0.29 0.29 0.34 0.36 0.34 0.16 0.33 0.34 0.20 0.20 0.38 0.58 0.68 0.53 0.52 0.41 0.32 0.43 0.49
1.51 1.01 0.62 0.77 0.50 0.21 0.14 0.13 0.18 0.18 0.46 0.20 0.12 0.20 0.31 0.13 0.02 0.02 0.00 0.00 0.00 0.00 0.00 0.00 0.00 0.04 0.11 0.20 0.22 0.33 0.62 0.63 0.55 0.55 0.57 0.73 0.85 0.74 0.66 0.33 0.20 0.33 0.59 0.89
1.46 0.98 0.94 0.98 0.54 0.18 0.14 0.10 0.14 0.16 0.34 0.27 0.15 0.10 0.14 0.12 0.00 0.00 0.00 0.00 0.00 0.00 0.00 0.00 0.00 0.00 0.02 0.09 0.20 0.25 0.31 0.42 0.49 0.66 0.80 0.73 0.62 0.62 0.50 0.53 0.64 0.68 0.72 1.00
1.53 1.19 1.46 1.11 0.59 0.22 0.17 0.09 0.12 0.17 0.29 0.49 0.21 0.15 0.04 0.09 0.02 0.00 0.00 0.00 0.00 0.00 0.00 0.00 0.00 0.00 0.00 0.00 0.01 0.13 0.28 0.41 0.37 0.43 0.53 0.60 0.68 0.47 0.57 0.70 0.68 0.60 0.62 0.65
0.98 1.37 1.34 0.77 0.62 0.31 0.22 0.21 0.22 0.31 0.42 0.63 0.39 0.12 0.03 0.01 0.01 0.00 0.00 0.00 0.00 0.00 0.00 0.00 0.00 0.00 0.00 0.00 0.01 0.02 0.04 0.19 0.29 0.28 0.37 0.51 0.62 0.57 0.50 0.54 0.62 0.63 0.56 0.48
1.68 1.49 1.10 0.74 0.96 0.76 0.56 0.63 1.01 1.02 1.05 0.40 0.07 0.24 0.11 0.00 0.00 0.00 0.00 0.00 0.00 0.00 0.00 0.00 0.00 0.00 0.00 0.00 0.00 0.00 0.02 0.09 0.20 0.22 0.35 0.42 0.47 0.48 0.47 0.51 0.55 0.58 0.58 0.53
1.56 1.61 1.16 0.96 0.90 1.06 0.77 0.57 0.82 0.46 0.34 0.13 0.05 0.07 0.03 0.00 0.00 0.00 0.00 0.00 0.00 0.00 0.00 0.00 0.00 0.00 0.00 0.00 0.00 0.00 0.00 0.00 0.03 0.09 0.13 0.19 0.19 0.24 0.29 0.31 0.33 0.36 0.47 0.55
0.68 0.90 0.62 0.60 0.59 0.78 0.85 0.75 0.49 0.51 0.22 0.32 0.10 0.02 0.00 0.00 0.00 0.00 0.00 0.00 0.00 0.00 0.00 0.00 0.00 0.00 0.00 0.00 0.00 0.00 0.00 0.00 0.00 0.01 0.02 0.04 0.08 0.14 0.16 0.14 0.15 0.20 0.20 0.18
0.36 0.75 0.72 0.67 0.75 0.85 0.61 0.36 0.54 1.10 0.49 0.20 0.11 0.06 0.00 0.00 0.00 0.00 0.00 0.00 0.00 0.00 0.00 0.00 0.00 0.00 0.00 0.00 0.00 0.00 0.00 0.00 0.00 0.02 0.02 0.01 0.04 0.07 0.07 0.06 0.05 0.06 0.06 0.06
0.45 0.67 0.80 1.02 1.01 0.79 0.66 0.65 0.52 0.58 0.29 0.14 0.06 0.08 0.01 0.00 0.00 0.02 0.01 0.01 0.01 0.01 0.00 0.00 0.00 0.00 0.00 0.00 0.00 0.00 0.00 0.00 0.00 0.01 0.00 0.01 0.03 0.03 0.04 0.04 0.04 0.04 0.04 0.05
0.38 0.56 0.76 0.62 0.21 0.17 0.28 0.28 0.20 0.78 0.40 0.27 0.17 0.06 0.01 0.01 0.00 0.02 0.03 0.03 0.02 0.01 0.00 0.00 0.00 0.00 0.00 0.00 0.00 0.00 0.00 0.01 0.01 0.01 0.00 0.01 0.02 0.04 0.05 0.05 0.06 0.07 0.06 0.05
0.29 0.74 0.78 0.76 0.52 0.49 0.65 0.35 0.28 0.62 1.13 0.62 0.31 0.07 0.00 0.01 0.01 0.01 0.01 0.03 0.01 0.00 0.00 0.00 0.00 0.00 0.00 0.00 0.02 0.04 0.04 0.02 0.01 0.01 0.01 0.03 0.05 0.06 0.07 0.07 0.06 0.06 0.05 0.04
0.66 0.61 0.75 0.75 0.74 0.79 0.55 0.31 0.49 1.00 1.36 0.39 0.17 0.03 0.01 0.01 0.03 0.02 0.03 0.04 0.06 0.02 0.01 0.00 0.00 0.00 0.00 0.01 0.05 0.05 0.04 0.02 0.05 0.05 0.05 0.06 0.06 0.07 0.08 0.08 0.06 0.07 0.07 0.06
0.73 0.94 1.21 0.74 0.38 0.93 0.53 0.29 0.37 0.87 0.61 0.58 0.18 0.07 0.02 0.01 0.04 0.10 0.09 0.11 0.06 0.03 0.01 0.00 0.01 0.01 0.01 0.01 0.03 0.04 0.07 0.08 0.08 0.11 0.11 0.09 0.07 0.05 0.05 0.06 0.05 0.05 0.05 0.06
0.47 0.79 0.96 0.56 0.17 0.33 0.34 0.15 0.20 0.19 0.31 0.41 0.17 0.22 0.05 0.02 0.12 0.29 0.17 0.22 0.11 0.06 0.02 0.01 0.01 0.00 0.00 0.00 0.01 0.02 0.06 0.10 0.16 0.15 0.10 0.07 0.06 0.06 0.07 0.06 0.06 0.08 0.09 0.11
0.28 0.45 0.78 0.63 0.37 0.24 0.42 0.26 0.15 0.14 0.20 0.33 0.31 0.19 0.07 0.07 0.29 0.31 0.31 0.30 0.09 0.03 0.01 0.00 0.00 0.00 0.00 0.00 0.01 0.01 0.03 0.06 0.07 0.06 0.04 0.04 0.07 0.10 0.09 0.07 0.05 0.09 0.23 0.40
0.08 0.26 0.46 0.49 0.49 0.51 0.43 0.25 0.11 0.13 0.16 0.21 0.24 0.14 0.04 0.16 0.20 0.13 0.30 0.25 0.11 0.01 0.00 0.00 0.00 0.00 0.00 0.00 0.00 0.01 0.02 0.07 0.16 0.23 0.24 0.20 0.38 0.53 0.37 0.44 0.56 0.63 0.43 0.44
0.03 0.17 0.28 0.18 0.21 0.21 0.08 0.13 0.19 0.13 0.12 0.09 0.10 0.15 0.11 0.08 0.12 0.19 0.13 0.03 0.02 0.02 0.01 0.00 0.00 0.00 0.00 0.00 0.00 0.01 0.02 0.04 0.15 0.33 0.58 0.61 0.65 0.67 0.73 1.09 1.03 1.18 1.08 0.85
0.03 0.09 0.31 0.12 0.11 0.00 0.02 0.05 0.03 0.01 0.05 0.01 0.02 0.04 0.05 0.09 0.30 0.28 0.09 0.02 0.01 0.01 0.01 0.01 0.00 0.00 0.00 0.00 0.03 0.05 0.04 0.08 0.18 0.26 0.22 0.62 0.78 0.63 0.58 0.63 0.64 0.72 0.50 0.52
0.12 0.17 0.26 0.18 0.19 0.00 0.00 0.00 0.00 0.05 0.04 0.00 0.00 0.01 0.03 0.07 0.08 0.08 0.08 0.07 0.03 0.02 0.01 0.01 0.02 0.02 0.04 0.07 0.13 0.25 0.23 0.41 0.54 0.84 0.62 0.66 0.80 0.64 0.47 0.54 0.36 0.35 0.38 0.30
0.03 0.05 0.08 0.12 0.13 0.01 0.00 0.00 0.01 0.02 0.00 0.00 0.00 0.01 0.08 0.08 0.07 0.07 0.01 0.01 0.08 0.17 0.23 0.25 0.18 0.14 0.18 0.22 0.37 0.72 0.66 0.65 0.70 0.64 0.69 0.44 0.40 0.30 0.22 0.15 0.14 0.10 0.05 0.03
0.00 0.00 0.00 0.00 0.00 0.00 0.00 0.00 0.00 0.00 0.00 0.00 0.00 0.01 0.05 0.07 0.18 0.11 0.01 0.01 0.01 0.07 0.28 0.54 0.49 0.45 0.55 0.41 0.43 0.59 0.46 0.28 0.14 0.17 0.12 0.05 0.02 0.02 0.01 0.01 0.00 0.00 0.00 0.00
0.00 0.00 0.00 0.00 0.00 0.00 0.00 0.00 0.00 0.00 0.00 0.00 0.00 0.00 0.00 0.00 0.00 0.00 0.01 0.01 0.02 0.01 0.01 0.02 0.02 0.06 0.14 0.14 0.14 0.18 0.12 0.06 0.02 0.02 0.01 0.01 0.01 0.01 0.00 0.00 0.00 0.00 0.00 0.00
0.01 0.00 0.00 0.00 0.00 0.00 0.00 0.00 0.00 0.00 0.00 0.00 0.00 0.00 0.01 0.01 0.01 0.01 0.03 0.04 0.04 0.05 0.04 0.03 0.04 0.03 0.01 0.00 0.00 0.01 0.01 0.01 0.02 0.03 0.04 0.05 0.07 0.05 0.02 0.02 0.03 0.02 0.00 0.01
0.00 0.00 0.01 0.01 0.00 0.02 0.00 0.00 0.00 0.00 0.00 0.00 0.00 0.01 0.01 0.03 0.04 0.03 0.06 0.08 0.09 0.08 0.06 0.04 0.03 0.03 0.06 0.07 0.06 0.06 0.04 0.02 0.02 0.03 0.05 0.09 0.10 0.15 0.18 0.17 0.15 0.12 0.06 0.02

GFSCGP_prec_precacc_099.txt.gz
Total_Precipitation_Accumulation
2.12 3.38 1.47 0.61 0.25 0.09 0.09 0.07 0.06 0.16 0.35 0.52 0.63 0.82 0.62 0.22 0.14 0.05 0.06 0.11 0.16 0.08 0.11 0.39 0.54 0.81 0.86 0.47 0.44 0.38 0.30 0.20 0.15 0.13 0.24 0.36 0.39 0.43 0.32 0.29 0.44 0.28 0.27 0.31
2.12 1.63 0.62 0.53 0.36 0.13 0.17 0.15 0.18 0.25 0.31 0.28 0.38 0.63 0.65 0.39 0.14 0.05 0.02 0.06 0.07 0.08 0.08 0.11 0.14 0.54 0.61 0.56 0.53 0.46 0.25 0.36 0.35 0.21 0.20 0.41 0.66 0.72 0.53 0.53 0.43 0.41 0.48 0.52
1.55 1.09 0.64 0.79 0.51 0.26 0.16 0.15 0.21 0.20 0.48 0.26 0.16 0.25 0.43 0.32 0.07 0.03 0.01 0.02 0.03 0.05 0.03 0.05 0.04 0.13 0.30 0.46 0.34 0.41 0.72 0.69 0.57 0.56 0.58 0.74 0.92 0.84 0.71 0.36 0.30 0.51 0.80 1.07
1.58 1.07 1.00 1.10 0.57 0.20 0.14 0.13 0.23 0.20 0.39 0.33 0.18 0.12 0.17 0.25 0.13 0.01 0.00 0.00 0.00 0.01 0.02 0.02 0.03 0.05 0.11 0.21 0.41 0.38 0.56 0.57 0.67 0.90 0.91 0.79 0.75 0.78 0.57 0.55 0.69 0.84 0.90 1.23
1.63 1.21 1.53 1.18 0.60 0.23 0.17 0.10 0.20 0.23 0.31 0.50 0.22 0.17 0.06 0.11 0.14 0.03 0.00 0.00 0.00 0.00 0.00 0.00 0.01 0.01 0.03 0.03 0.06 0.29 0.46 0.58 0.51 0.60 0.71 0.74 0.86 0.64 0.75 0.89 0.86 0.77 0.84 0.93
1.25 1.52 1.46 0.81 0.66 0.33 0.23 0.23 0.27 0.33 0.42 0.63 0.39 0.12 0.03 0.01 0.06 0.02 0.00 0.00 0.00 0.00 0.00 0.00 0.00 0.00 0.00 0.00 0.01 0.04 0.09 0.25 0.35 0.35 0.44 0.61 0.83 0.78 0.72 0.74 0.79 0.76 0.77 0.74
1.81 1.61 1.14 0.79 1.01 0.82 0.62 0.65 1.02 1.02 1.05 0.40 0.07 0.24 0.12 0.00 0.01 0.01 0.00 0.00 0.00 0.00 0.00 0.00 0.00 0.00 0.00 0.00 0.00 0.00 0.02 0.09 0.20 0.24 0.36 0.44 0.53 0.55 0.55 0.58 0.66 0.66 0.68 0.68
1.57 1.67 1.19 1.01 0.92 1.07 0.78 0.57 0.82 0.46 0.34 0.13 0.05 0.07 0.03 0.00 0.00 0.00 0.00 0.00 0.00 0.00 0.00 0.00 0.00 0.00 0.00 0.00 0.00 0.00 0.00 0.00 0.03 0.09 0.14 0.21 0.22 0.25 0.30 0.33 0.36 0.40 0.51 0.61
0.68 0.92 0.63 0.62 0.59 0.81 0.85 0.75 0.49 0.51 0.22 0.32 0.10 0.02 0.00 0.00 0.00 0.00 0.00 0.00 0.00 0.00 0.00 0.00 0.00 0.00 0.00 0.00 0.00 0.00 0.00 0.00 0.00 0.01 0.02 0.04 0.08 0.14 0.16 0.14 0.15 0.20 0.21 0.22
0.36 0.77 0.75 0.68 0.77 0.89 0.61 0.36 0.54 1.10 0.49 0.20 0.11 0.06 0.00 0.00 0.00 0.00 0.00 0.00 0.00 0.00 0.00 0.00 0.00 0.00 0.00 0.00 0.00 0.00 0.00 0.00 0.00 0.02 0.02 0.01 0.04 0.07 0.07 0.06 0.05 0.06 0.06 0.06
0.45 0.67 0.80 1.02 1.01 0.79 0.66 0.65 0.52 0.58 0.29 0.14 0.06 0.08 0.01 0.00 0.00 0.02 0.01 0.01 0.01 0.01 0.00 0.00 0.00 0.00 0.00 0.00 0.00 0.00 0.00 0.00 0.00 0.01 0.00 0.01 0.03 0.03 0.04 0.04 0.04 0.04 0.04 0.05
0.38 0.56 0.76 0.62 0.21 0.17 0.28 0.28 0.20 0.78 0.40 0.27 0.17 0.06 0.01 0.01 0.00 0.02 0.03 0.03 0.02 0.01 0.00 0.00 0.00 0.00 0.00 0.00 0.00 0.00 0.00 0.01 0.01 0.01 0.00 0.01 0.02 0.04 0.05 0.05 0.06 0.07 0.06 0.05
0.29 0.74 0.78 0.76 0.52 0.49 0.65 0.35 0.28 0.62 1.13 0.62 0.31 0.07 0.00 0.01 0.01 0.01 0.01 0.03 0.01 0.00 0.00 0.00 0.00 0.00 0.00 0.00 0.02 0.04 0.04 0.02 0.01 0.01 0.01 0.03 0.05 0.06 0.07 0.07 0.06 0.06 0.05 0.04
0.66 0.61 0.75 0.75 0.74 0.79 0.55 0.31 0.49 1.00 1.36 0.39 0.17 0.03 0.01 0.01 0.03 0.02 0.03 0.04 0.06 0.02 0.01 0.00 0.00 0.00 0.00 0.01 0.05 0.05 0.04 0.02 0.05 0.05 0.05 0.06 0.06 0.07 0.08 0.08 0.06 0.07 0.07 0.06
0.73 0.94 1.21 0.74 0.38 0.93 0.53 0.29 0.37 0.87 0.61 0.58 0.18 0.07 0.02 0.01 0.04 0.10 0.09 0.11 0.06 0.03 0.01 0.00 0.01 0.01 0.01 0.01 0.03 0.04 0.07 0.08 0.08 0.11 0.11 0.09 0.07 0.05 0.05 0.06 0.05 0.05 0.05 0.06
0.47 0.79 0.96 0.56 0.17 0.33 0.34 0.15 0.20 0.19 0.31 0.41 0.17 0.22 0.05 0.02 0.12 0.29 0.17 0.22 0.11 0.06 0.02 0.01 0.01 0.00 0.00 0.00 0.01 0.02 0.06 0.10 0.16 0.15 0.10 0.07 0.06 0.06 0.07 0.06 0.06 0.08 0.09 0.11
0.28 0.45 0.78 0.63 0.37 0.24 0.42 0.26 0.15 0.14 0.20 0.33 0.31 0.19 0.07 0.07 0.29 0.31 0.31 0.30 0.09 0.03 0.01 0.00 0.00 0.00 0.00 0.00 0.01 0.01 0.03 0.06 0.07 0.06 0.04 0.04 0.07 0.10 0.09 0.07 0.05 0.09 0.23 0.40
0.08 0.26 0.46 0.49 0.49 0.51 0.43 0.25 0.11 0.13 0.16 0.21 0.24 0.14 0.04 0.16 0.20 0.13 0.30 0.25 0.11 0.01 0.00 0.00 0.00 0.00 0.00 0.00 0.00 0.01 0.02 0.07 0.16 0.23 0.24 0.20 0.38 0.53 0.37 0.44 0.56 0.63 0.43 0.44
0.03 0.17 0.28 0.18 0.21 0.21 0.08 0.13 0.19 0.13 0.12 0.09 0.10 0.15 0.11 0.08 0.12 0.19 0.13 0.03 0.02 0.02 0.01 0.00 0.00 0.00 0.00 0.00 0.00 0.01 0.02 0.04 0.15 0.33 0.58 0.61 0.65 0.67 0.73 1.09 1.03 1.18 1.08 0.85
0.03 0.09 0.31 0.12 0.11 0.00 0.02 0.05 0.03 0.01 0.05 0.01 0.02 0.04 0.05 0.09 0.30 0.28 0.09 0.02 0.01 0.01 0.01 0.01 0.00 0.00 0.00 0.00 0.03 0.05 0.04 0.08 0.18 0.26 0.22 0.62 0.78 0.63 0.58 0.63 0.64 0.72 0.50 0.52
0.12 0.17 0.26 0.18 0.19 0.00 0.00 0.00 0.00 0.05 0.04 0.00 0.00 0.01 0.03 0.07 0.08 0.08 0.08 0.07 0.03 0.02 0.01 0.01 0.02 0.02 0.04 0.07 0.13 0.25 0.23 0.41 0.54 0.84 0.62 0.66 0.80 0.64 0.47 0.54 0.36 0.35 0.38 0.30
0.03 0.05 0.08 0.12 0.13 0.01 0.00 0.00 0.01 0.02 0.00 0.00 0.00 0.01 0.08 0.08 0.07 0.07 0.01 0.01 0.08 0.17 0.23 0.25 0.18 0.14 0.18 0.22 0.37 0.72 0.66 0.65 0.70 0.64 0.69 0.44 0.40 0.30 0.22 0.15 0.14 0.10 0.05 0.03
0.00 0.00 0.00 0.00 0.00 0.00 0.00 0.00 0.00 0.00 0.00 0.00 0.00 0.01 0.05 0.07 0.18 0.11 0.01 0.01 0.01 0.07 0.28 0.54 0.49 0.45 0.55 0.41 0.43 0.59 0.46 0.28 0.14 0.17 0.12 0.05 0.02 0.02 0.01 0.01 0.00 0.00 0.00 0.00
0.00 0.00 0.00 0.00 0.00 0.00 0.00 0.00 0.00 0.00 0.00 0.00 0.00 0.00 0.00 0.00 0.00 0.00 0.01 0.01 0.02 0.01 0.01 0.02 0.02 0.06 0.14 0.14 0.14 0.18 0.12 0.06 0.02 0.02 0.01 0.01 0.01 0.01 0.00 0.00 0.00 0.00 0.00 0.00
0.01 0.00 0.00 0.00 0.00 0.00 0.00 0.00 0.00 0.00 0.00 0.00 0.00 0.00 0.01 0.01 0.01 0.01 0.03 0.04 0.04 0.05 0.04 0.04 0.04 0.04 0.02 0.00 0.00 0.01 0.01 0.01 0.02 0.03 0.04 0.05 0.07 0.07 0.04 0.02 0.03 0.02 0.01 0.02
0.00 0.00 0.01 0.01 0.00 0.02 0.00 0.00 0.00 0.00 0.00 0.00 0.00 0.01 0.01 0.03 0.04 0.03 0.06 0.08 0.09 0.08 0.07 0.06 0.06 0.06 0.08 0.07 0.07 0.06 0.04 0.02 0.02 0.04 0.05 0.09 0.10 0.15 0.22 0.26 0.20 0.19 0.13 0.08

GFSCGP_prec_precacc_102.txt.gz
Total_Precipitation_Accumulation
2.12 3.41 1.53 0.65 0.26 0.13 0.22 0.11 0.08 0.21 0.37 0.52 0.63 0.82 0.63 0.26 0.15 0.05 0.07 0.13 0.24 0.27 0.32 0.83 1.22 1.56 1.22 0.59 0.46 0.42 0.33 0.21 0.15 0.13 0.24 0.36 0.39 0.43 0.32 0.32 0.50 0.33 0.33 0.33
2.15 1.68 0.63 0.54 0.37 0.15 0.34 0.19 0.23 0.35 0.39 0.30 0.38 0.63 0.66 0.40 0.16 0.06 0.04 0.07 0.12 0.23 0.37 0.25 0.51 1.29 1.62 1.01 0.63 0.53 0.31 0.40 0.35 0.21 0.20 0.41 0.67 0.72 0.53 0.53 0.45 0.48 0.58 0.62
1.60 1.20 0.75 0.82 0.51 0.30 0.26 0.16 0.24 0.23 0.54 0.29 0.17 0.26 0.44 0.34 0.10 0.05 0.03 0.03 0.05 0.12 0.25 0.20 0.13 0.33 0.68 0.90 0.60 0.54 0.84 0.80 0.59 0.57 0.63 0.80 0.97 0.88 0.73 0.37 0.31 0.57 0.94 1.24
1.68 1.14 1.07 1.11 0.58 0.22 0.14 0.13 0.29 0.21 0.42 0.34 0.19 0.14 0.18 0.27 0.19 0.06 0.02 0.02 0.02 0.03 0.07 0.20 0.22 0.25 0.27 0.35 0.55 0.48 0.61 0.65 0.81 0.98 1.05 0.99 0.85 0.84 0.60 0.56 0.70 0.89 0.98 1.35
1.69 1.25 1.55 1.19 0.60 0.23 0.17 0.11 0.30 0.33 0.39 0.51 0.22 0.18 0.11 0.16 0.23 0.12 0.03 0.02 0.01 0.02 0.03 0.06 0.13 0.18 0.28 0.21 0.12 0.31 0.50 0.60 0.63 0.91 0.93 0.92 1.06 0.76 0.80 0.91 0.87 0.78 0.85 0.95
1.28 1.54 1.47 0.82 0.67 0.34 0.26 0.31 0.36 0.38 0.45 0.65 0.40 0.13 0.07 0.06 0.14 0.20 0.04 0.02 0.01 0.01 0.01 0.01 0.00 0.00 0.02 0.11 0.16 0.15 0.16 0.31 0.50 0.55 0.63 0.73 0.98 1.01 0.92 0.86 0.86 0.81 0.82 0.79
1.93 1.64 1.16 0.82 1.06 0.84 0.63 0.70 1.07 1.03 1.06 0.40 0.07 0.25 0.12 0.01 0.02 0.10 0.06 0.00 0.00 0.00 0.00 0.00 0.00 0.00 0.00 0.00 0.01 0.02 0.05 0.12 0.23 0.26 0.46 0.50 0.67 0.75 0.67 0.65 0.74 0.76 0.75 0.75
1.64 1.76 1.26 1.06 0.94 1.09 0.79 0.58 0.83 0.46 0.35 0.13 0.05 0.09 0.04 0.00 0.00 0.01 0.03 0.00 0.00 0.00 0.00 0.00 0.00 0.00 0.00 0.00 0.00 0.00 0.00 0.00 0.03 0.09 0.16 0.26 0.26 0.29 0.31 0.35 0.38 0.43 0.55 0.65
0.68 0.98 0.68 0.63 0.60 0.81 0.86 0.75 0.49 0.51 0.22 0.32 0.10 0.02 0.00 0.00 0.00 0.00 0.00 0.00 0.00 0.00 0.00 0.00 0.00 0.00 0.00 0.00 0.00 0.00 0.00 0.00 0.00 0.01 0.02 0.04 0.11 0.15 0.16 0.14 0.16 0.21 0.22 0.22
0.36 0.84 0.79 0.74 0.81 0.89 0.61 0.36 0.54 1.10 0.49 0.20 0.11 0.06 0.00 0.00 0.00 0.00 0.00 0.00 0.00 0.00 0.00 0.00 0.00 0.00 0.00 0.00 0.00 0.00 0.00 0.00 0.00 0.02 0.02 0.01 0.04 0.07 0.07 0.06 0.05 0.06 0.06 0.06
0.45 0.67 0.82 1.03 1.02 0.79 0.66 0.65 0.52 0.58 0.29 0.14 0.06 0.08 0.01 0.00 0.00 0.02 0.01 0.01 0.01 0.01 0.00 0.00 0.00 0.00 0.00 0.00 0.00 0.00 0.00 0.00 0.00 0.01 0.00 0.01 0.03 0.03 0.04 0.04 0.04 0.04 0.04 0.05
0.38 0.56 0.76 0.62 0.21 0.17 0.28 0.28 0.20 0.78 0.40 0.27 0.17 0.06 0.01 0.01 0.00 0.02 0.03 0.03 0.02 0.01 0.00 0.00 0.00 0.00 0.00 0.00 0.00 0.00 0.00 0.01 0.01 0.01 0.00 0.01 0.02 0.04 0.05 0.05 0.06 0.07 0.06 0.06
0.29 0.74 0.78 0.76 0.52 0.49 0.65 0.35 0.28 0.62 1.13 0.62 0.31 0.07 0.00 0.01 0.01 0.01 0.01 0.03 0.01 0.00 0.00 0.00 0.00 0.00 0.00 0.00 0.02 0.04 0.04 0.02 0.01 0.01 0.01 0.03 0.05 0.06 0.07 0.07 0.06 0.06 0.05 0.05
0.66 0.61 0.75 0.75 0.74 0.79 0.55 0.31 0.49 1.00 1.36 0.39 0.17 0.03 0.01 0.01 0.03 0.02 0.03 0.04 0.06 0.02 0.01 0.00 0.00 0.00 0.00 0.01 0.05 0.05 0.04 0.02 0.05 0.05 0.05 0.06 0.06 0.07 0.08 0.08 0.06 0.07 0.07 0.06
0.73 0.94 1.21 0.74 0.38 0.93 0.53 0.29 0.37 0.87 0.61 0.58 0.18 0.07 0.02 0.01 0.04 0.10 0.09 0.11 0.06 0.03 0.01 0.00 0.01 0.01 0.01 0.01 0.03 0.04 0.07 0.08 0.08 0.11 0.11 0.09 0.07 0.05 0.05 0.06 0.05 0.05 0.05 0.06
0.47 0.79 0.96 0.56 0.17 0.33 0.34 0.15 0.20 0.19 0.31 0.41 0.17 0.22 0.05 0.02 0.12 0.29 0.17 0.22 0.11 0.06 0.02 0.01 0.01 0.00 0.00 0.00 0.01 0.02 0.06 0.10 0.16 0.15 0.10 0.07 0.06 0.06 0.07 0.06 0.06 0.08 0.09 0.11
0.28 0.45 0.78 0.63 0.37 0.24 0.42 0.26 0.15 0.14 0.20 0.33 0.31 0.19 0.07 0.07 0.29 0.31 0.31 0.30 0.09 0.03 0.01 0.00 0.00 0.00 0.00 0.00 0.01 0.01 0.03 0.06 0.07 0.06 0.04 0.04 0.07 0.10 0.09 0.07 0.05 0.09 0.23 0.40
0.08 0.26 0.46 0.49 0.49 0.51 0.43 0.25 0.11 0.13 0.16 0.21 0.24 0.14 0.04 0.16 0.20 0.13 0.30 0.25 0.11 0.01 0.00 0.00 0.00 0.00 0.00 0.00 0.00 0.01 0.02 0.07 0.16 0.23 0.24 0.20 0.38 0.53 0.37 0.44 0.56 0.63 0.43 0.44
0.03 0.17 0.28 0.18 0.21 0.21 0.08 0.13 0.19 0.13 0.12 0.09 0.10 0.15 0.11 0.08 0.12 0.19 0.13 0.03 0.02 0.02 0.01 0.00 0.00 0.00 0.00 0.00 0.00 0.01 0.02 0.04 0.15 0.33 0.58 0.61 0.65 0.67 0.73 1.09 1.03 1.18 1.08 0.85
0.03 0.09 0.31 0.12 0.11 0.00 0.02 0.05 0.03 0.01 0.05 0.01 0.02 0.04 0.05 0.09 0.30 0.28 0.09 0.02 0.01 0.01 0.01 0.01 0.00 0.00 0.00 0.00 0.03 0.05 0.04 0.08 0.18 0.26 0.22 0.62 0.78 0.63 0.58 0.63 0.64 0.72 0.50 0.52
0.12 0.17 0.26 0.18 0.19 0.00 0.00 0.00 0.00 0.05 0.04 0.00 0.00 0.01 0.03 0.07 0.08 0.08 0.08 0.07 0.03 0.02 0.01 0.01 0.02 0.02 0.04 0.07 0.13 0.25 0.23 0.41 0.54 0.84 0.62 0.66 0.80 0.64 0.47 0.54 0.36 0.35 0.38 0.30
0.03 0.05 0.08 0.12 0.13 0.01 0.00 0.00 0.01 0.02 0.00 0.00 0.00 0.01 0.08 0.08 0.07 0.07 0.01 0.01 0.08 0.17 0.23 0.25 0.18 0.14 0.18 0.22 0.37 0.72 0.66 0.65 0.70 0.64 0.69 0.44 0.40 0.30 0.22 0.15 0.14 0.10 0.05 0.03
0.00 0.00 0.00 0.00 0.00 0.00 0.00 0.00 0.00 0.00 0.00 0.00 0.00 0.01 0.05 0.07 0.18 0.11 0.01 0.01 0.01 0.07 0.28 0.54 0.49 0.45 0.55 0.41 0.43 0.59 0.46 0.28 0.14 0.17 0.12 0.05 0.02 0.02 0.01 0.01 0.00 0.00 0.00 0.00
0.00 0.00 0.00 0.00 0.00 0.00 0.00 0.00 0.00 0.00 0.00 0.00 0.00 0.00 0.00 0.00 0.00 0.00 0.01 0.01 0.02 0.01 0.01 0.02 0.02 0.06 0.14 0.14 0.14 0.18 0.12 0.06 0.02 0.02 0.01 0.01 0.01 0.01 0.00 0.00 0.00 0.00 0.00 0.00
0.01 0.00 0.00 0.00 0.00 0.00 0.00 0.00 0.00 0.00 0.00 0.00 0.00 0.00 0.01 0.01 0.01 0.01 0.03 0.04 0.04 0.05 0.04 0.04 0.04 0.04 0.02 0.01 0.01 0.01 0.01 0.01 0.02 0.03 0.04 0.06 0.07 0.07 0.04 0.02 0.03 0.02 0.01 0.02
0.00 0.00 0.01 0.01 0.00 0.02 0.00 0.00 0.00 0.00 0.00 0.00 0.00 0.01 0.01 0.03 0.04 0.03 0.06 0.08 0.09 0.08 0.07 0.06 0.07 0.07 0.11 0.13 0.11 0.07 0.05 0.03 0.02 0.04 0.05 0.10 0.11 0.16 0.23 0.30 0.27 0.20 0.14 0.10

GFSCGP_prec_precacc_105.txt.gz
Total_Precipitation_Accumulation
2.13 3.42 1.54 0.66 0.28 0.16 0.26 0.13 0.12 0.23 0.39 0.53 0.63 0.82 0.64 0.26 0.15 0.05 0.07 0.13 0.24 0.27 0.39 1.10 1.57 1.92 1.45 0.77 0.73 0.67 0.57 0.37 0.23 0.27 0.27 0.36 0.39 0.43 0.32 0.32 0.50 0.33 0.33 0.33
2.18 1.70 0.65 0.56 0.41 0.19 0.41 0.22 0.25 0.41 0.42 0.31 0.39 0.63 0.66 0.40 0.16 0.07 0.04 0.07 0.12 0.24 0.53 0.74 1.00 1.88 2.38 1.44 0.89 0.71 0.46 0.49 0.41 0.34 0.32 0.45 0.69 0.77 0.54 0.53 0.45 0.48 0.58 0.62
1.69 1.24 0.79 0.86 0.52 0.31 0.28 0.16 0.28 0.46 0.57 0.32 0.17 0.27 0.45 0.35 0.11 0.05 0.03 0.03 0.06 0.16 0.40 0.75 0.66 0.64 1.06 1.67 1.01 0.67 0.95 0.88 0.63 0.65 0.75 0.91 1.08 1.03 0.77 0.40 0.31 0.60 0.95 1.24
1.76 1.16 1.08 1.13 0.58 0.22 0.14 0.14 0.45 0.37 0.47 0.40 0.20 0.20 0.23 0.28 0.19 0.06 0.02 0.02 0.04 0.08 0.19 0.51 0.71 0.46 0.45 0.67 1.09 0.74 0.78 0.82 0.91 1.03 1.10 1.07 0.94 0.93 0.69 0.70 0.81 1.03 1.09 1.39
1.71 1.26 1.56 1.20 0.60 0.23 0.18 0.11 0.32 0.42 0.53 0.59 0.27 0.23 0.13 0.16 0.23 0.13 0.03 0.02 0.03 0.07 0.09 0.14 0.37 0.55 0.58 0.43 0.57 0.69 0.74 0.74 0.78 0.98 0.97 0.98 1.15 0.80 0.83 0.98 0.94 0.82 0.89 0.99
1.28 1.54 1.48 0.83 0.68 0.34 0.29 0.34 0.53 0.52 0.59 0.68 0.41 0.15 0.09 0.09 0.19 0.22 0.06 0.02 0.03 0.03 0.02 0.03 0.09 0.13 0.18 0.29 0.32 0.27 0.26 0.38 0.55 0.70 0.76 0.81 1.07 1.08 1.02 0.98 0.93 0.84 0.85 0.81
1.94 1.65 1.17 0.83 1.08 0.93 1.02 0.87 1.20 1.10 1.11 0.42 0.07 0.27 0.19 0.09 0.08 0.17 0.13 0.01 0.02 0.01 0.00 0.01 0.01 0.00 0.00 0.01 0.11 0.16 0.18 0.22 0.32 0.49 0.68 0.58 0.75 0.87 0.85 0.93 1.03 0.93 0.84 0.78
1.67 1.94 1.43 1.08 1.00 1.20 1.00 0.64 0.86 0.49 0.36 0.14 0.05 0.17 0.17 0.03 0.02 0.10 0.11 0.01 0.01 0.01 0.00 0.00 0.00 0.00 0.00 0.00 0.00 0.01 0.02 0.05 0.08 0.15 0.35 0.40 0.41 0.44 0.39 0.52 0.57 0.68 0.77 0.79
0.72 1.02 0.69 0.64 0.61 0.84 0.87 0.75 0.49 0.51 0.22 0.32 0.11 0.08 0.06 0.00 0.01 0.07 0.07 0.01 0.00 0.00 0.00 0.00 0.00 0.00 0.00 0.00 0.00 0.00 0.00 0.00 0.00 0.01 0.02 0.05 0.13 0.21 0.19 0.20 0.25 0.30 0.26 0.29
0.38 0.86 0.80 0.74 0.82 0.89 0.61 0.36 0.54 1.10 0.49 0.20 0.11 0.09 0.04 0.00 0.00 0.01 0.01 0.00 0.00 0.00 0.00 0.00 0.00 0.00 0.00 0.00 0.00 0.00 0.00 0.00 0.00 0.02 0.02 0.01 0.04 0.07 0.08 0.07 0.07 0.08 0.07 0.07
0.45 0.70 0.86 1.04 1.02 0.79 0.66 0.65 0.52 0.58 0.29 0.14 0.06 0.08 0.01 0.00 0.00 0.02 0.01 0.01 0.01 0.01 0.00 0.00 0.00 0.00 0.00 0.00 0.00 0.00 0.00 0.00 0.00 0.01 0.00 0.01 0.03 0.03 0.04 0.04 0.04 0.04 0.05 0.06
0.38 0.56 0.77 0.62 0.21 0.17 0.28 0.28 0.20 0.78 0.40 0.27 0.17 0.06 0.01 0.01 0.00 0.02 0.03 0.03 0.02 0.01 0.00 0.00 0.00 0.00 0.00 0.00 0.00 0.00 0.00 0.01 0.01 0.01 0.00 0.01 0.02 0.04 0.05 0.05 0.06 0.07 0.06 0.06
0.29 0.74 0.79 0.77 0.52 0.49 0.65 0.35 0.28 0.62 1.13 0.62 0.31 0.07 0.00 0.01 0.01 0.01 0.01 0.03 0.01 0.00 0.00 0.00 0.00 0.00 0.00 0.00 0.02 0.04 0.04 0.02 0.01 0.01 0.01 0.03 0.05 0.06 0.07 0.07 0.06 0.06 0.05 0.05
0.66 0.61 0.75 0.75 0.74 0.79 0.55 0.31 0.49 1.00 1.36 0.39 0.17 0.03 0.01 0.01 0.03 0.02 0.03 0.04 0.06 0.02 0.01 0.00 0.00 0.00 0.00 0.01 0.05 0.05 0.04 0.02 0.05 0.05 0.05 0.06 0.06 0.07 0.08 0.08 0.06 0.07 0.07 0.07
0.73 0.94 1.21 0.74 0.38 0.93 0.53 0.29 0.37 0.87 0.61 0.58 0.18 0.07 0.02 0.01 0.04 0.10 0.09 0.11 0.06 0.03 0.01 0.00 0.01 0.01 0.01 0.01 0.03 0.04 0.07 0.08 0.08 0.11 0.11 0.09 0.07 0.05 0.05 0.06 0.05 0.05 0.06 0.07
0.47 0.79 0.96 0.56 0.17 0.33 0.34 0.15 0.20 0.19 0.31 0.41 0.17 0.22 0.05 0.02 0.12 0.29 0.17 0.22 0.11 0.06 0.02 0.01 0.01 0.00 0.00 0.00 0.01 0.02 0.06 0.10 0.16 0.15 0.10 0.07 0.06 0.06 0.07 0.06 0.06 0.08 0.09 0.11
0.28 0.45 0.78 0.63 0.37 0.24 0.42 0.26 0.15 0.14 0.20 0.33 0.31 0.19 0.07 0.07 0.29 0.31 0.31 0.30 0.09 0.03 0.01 0.00 0.00 0.00 0.00 0.00 0.01 0.01 0.03 0.06 0.07 0.06 0.04 0.04 0.07 0.10 0.09 0.07 0.05 0.09 0.23 0.40
0.08 0.26 0.46 0.49 0.49 0.51 0.43 0.25 0.11 0.13 0.16 0.21 0.24 0.14 0.04 0.16 0.20 0.13 0.30 0.25 0.11 0.01 0.00 0.00 0.00 0.00 0.00 0.00 0.00 0.01 0.02 0.07 0.16 0.23 0.24 0.20 0.38 0.53 0.37 0.44 0.56 0.63 0.43 0.44
0.03 0.17 0.28 0.18 0.21 0.21 0.08 0.13 0.19 0.13 0.12 0.09 0.10 0.15 0.11 0.08 0.12 0.19 0.13 0.03 0.02 0.02 0.01 0.00 0.00 0.00 0.00 0.00 0.00 0.01 0.02 0.04 0.15 0.33 0.58 0.61 0.65 0.67 0.73 1.09 1.03 1.18 1.08 0.85
0.03 0.09 0.31 0.12 0.11 0.00 0.02 0.05 0.03 0.01 0.05 0.01 0.02 0.04 0.05 0.09 0.30 0.28 0.09 0.02 0.01 0.01 0.01 0.01 0.00 0.00 0.00 0.00 0.03 0.05 0.04 0.08 0.18 0.26 0.22 0.62 0.78 0.63 0.58 0.63 0.64 0.72 0.50 0.52
0.12 0.17 0.26 0.18 0.19 0.00 0.00 0.00 0.00 0.05 0.04 0.00 0.00 0.01 0.03 0.07 0.08 0.08 0.08 0.07 0.03 0.02 0.01 0.01 0.02 0.02 0.04 0.07 0.13 0.25 0.23 0.41 0.54 0.84 0.62 0.66 0.80 0.64 0.47 0.54 0.36 0.35 0.38 0.30
0.03 0.05 0.08 0.12 0.13 0.01 0.00 0.00 0.01 0.02 0.00 0.00 0.00 0.01 0.08 0.08 0.07 0.07 0.01 0.01 0.08 0.17 0.23 0.25 0.18 0.14 0.18 0.22 0.37 0.73 0.66 0.66 0.70 0.64 0.69 0.44 0.40 0.30 0.22 0.15 0.14 0.10 0.05 0.03
0.00 0.00 0.00 0.00 0.00 0.00 0.00 0.00 0.00 0.00 0.00 0.00 0.00 0.01 0.05 0.07 0.18 0.11 0.01 0.01 0.01 0.07 0.28 0.54 0.49 0.45 0.55 0.41 0.44 0.59 0.47 0.29 0.15 0.17 0.12 0.05 0.02 0.02 0.01 0.01 0.00 0.00 0.00 0.00
0.00 0.00 0.00 0.00 0.00 0.00 0.00 0.00 0.00 0.00 0.00 0.00 0.00 0.00 0.00 0.00 0.00 0.00 0.01 0.01 0.02 0.01 0.01 0.02 0.02 0.06 0.15 0.15 0.14 0.18 0.12 0.06 0.02 0.02 0.01 0.01 0.01 0.02 0.01 0.01 0.00 0.00 0.00 0.00
0.01 0.00 0.00 0.00 0.00 0.00 0.00 0.00 0.00 0.00 0.00 0.00 0.00 0.00 0.01 0.01 0.01 0.01 0.03 0.04 0.04 0.05 0.04 0.04 0.04 0.04 0.03 0.01 0.01 0.01 0.01 0.03 0.05 0.06 0.06 0.07 0.09 0.09 0.06 0.04 0.04 0.02 0.01 0.02
0.00 0.00 0.01 0.01 0.00 0.02 0.00 0.00 0.00 0.00 0.00 0.00 0.00 0.01 0.01 0.03 0.04 0.03 0.06 0.08 0.09 0.08 0.07 0.06 0.07 0.07 0.11 0.13 0.11 0.08 0.07 0.08 0.08 0.09 0.08 0.12 0.16 0.22 0.29 0.35 0.29 0.22 0.16 0.12

GFSCGP_prec_precacc_108.txt.gz
Total_Precipitation_Accumulation
2.13 3.43 1.54 0.66 0.29 0.17 0.27 0.14 0.13 0.23 0.39 0.55 0.65 0.83 0.65 0.32 0.19 0.06 0.07 0.13 0.24 0.27 0.39 1.12 1.62 2.03 1.58 0.86 0.83 0.85 1.00 0.69 0.46 0.40 0.29 0.36 0.40 0.44 0.33 0.33 0.50 0.33 0.33 0.33
2.23 1.71 0.65 0.56 0.41 0.20 0.44 0.24 0.26 0.42 0.42 0.34 0.41 0.66 0.66 0.41 0.17 0.07 0.04 0.07 0.12 0.24 0.55 0.83 1.06 2.06 2.69 1.71 1.06 1.07 0.85 0.65 0.55 0.49 0.52 0.57 0.72 0.78 0.55 0.54 0.45 0.48 0.58 0.62
1.76 1.25 0.79 0.87 0.52 0.31 0.28 0.17 0.29 0.62 0.61 0.35 0.19 0.31 0.46 0.35 0.11 0.05 0.03 0.03 0.06 0.16 0.45 0.86 0.78 0.95 1.35 2.05 1.29 1.03 1.43 1.09 0.76 0.76 0.83 1.09 1.35 1.19 0.91 0.47 0.35 0.61 0.95 1.25
1.79 1.16 1.09 1.14 0.59 0.23 0.15 0.15 0.54 0.49 0.49 0.48 0.21 0.22 0.26 0.29 0.20 0.06 0.02 0.02 0.04 0.10 0.27 0.62 0.89 0.74 0.70 0.86 1.29 0.94 1.14 1.03 1.05 1.09 1.21 1.21 1.16 1.09 0.87 0.94 1.03 1.26 1.34 1.61
1.72 1.27 1.56 1.20 0.61 0.23 0.18 0.17 0.40 0.54 0.64 0.66 0.30 0.38 0.25 0.18 0.24 0.14 0.03 0.02 0.04 0.12 0.23 0.25 0.47 0.73 0.75 0.57 1.14 1.16 1.10 0.96 0.95 1.07 1.05 1.10 1.29 0.93 0.91 1.05 0.98 0.87 0.94 1.06
1.29 1.55 1.48 0.84 0.69 0.34 0.29 0.39 0.63 0.86 0.85 0.93 0.60 0.41 0.25 0.12 0.21 0.23 0.07 0.02 0.05 0.14 0.16 0.13 0.15 0.18 0.25 0.38 0.63 0.96 0.63 0.54 0.65 0.80 0.80 0.88 1.17 1.24 1.10 1.02 0.99 0.88 0.86 0.82
1.94 1.66 1.17 0.83 1.10 0.94 1.08 1.12 1.46 1.31 1.16 0.47 0.17 0.32 0.28 0.11 0.09 0.18 0.14 0.02 0.06 0.07 0.06 0.05 0.02 0.00 0.01 0.05 0.19 0.33 0.31 0.32 0.39 0.53 0.72 0.61 0.81 0.98 0.94 0.96 1.08 0.98 0.85 0.81
1.68 1.96 1.43 1.09 1.15 1.45 1.07 0.70 0.94 0.56 0.39 0.17 0.07 0.24 0.29 0.11 0.08 0.15 0.13 0.04 0.05 0.06 0.06 0.03 0.00 0.00 0.00 0.00 0.05 0.12 0.16 0.15 0.13 0.20 0.42 0.49 0.47 0.53 0.49 0.61 0.63 0.73 0.81 0.85
0.77 1.05 0.69 0.65 0.64 0.89 0.89 0.77 0.50 0.56 0.23 0.35 0.20 0.18 0.13 0.12 0.17 0.25 0.12 0.03 0.07 0.11 0.03 0.00 0.00 0.00 0.00 0.00 0.00 0.00 0.02 0.05 0.06 0.09 0.15 0.12 0.25 0.27 0.28 0.35 0.39 0.42 0.37 0.42
0.38 0.86 0.80 0.74 0.83 0.90 0.61 0.36 0.54 1.12 0.51 0.27 0.19 0.15 0.16 0.12 0.27 0.18 0.08 0.01 0.06 0.06 0.00 0.00 0.00 0.00 0.00 0.00 0.00 0.00 0.00 0.00 0.00 0.03 0.02 0.02 0.11 0.11 0.13 0.18 0.15 0.15 0.11 0.11
0.45 0.71 0.86 1.04 1.02 0.79 0.66 0.65 0.52 0.58 0.29 0.14 0.06 0.11 0.04 0.05 0.11 0.09 0.03 0.01 0.01 0.01 0.00 0.00 0.00 0.00 0.00 0.00 0.00 0.00 0.00 0.00 0.00 0.01 0.00 0.01 0.03 0.04 0.04 0.05 0.08 0.07 0.06 0.08
0.38 0.56 0.77 0.62 0.21 0.17 0.28 0.28 0.20 0.78 0.40 0.27 0.18 0.08 0.01 0.01 0.00 0.02 0.03 0.03 0.02 0.01 0.00 0.00 0.00 0.00 0.00 0.00 0.00 0.00 0.00 0.01 0.01 0.01 0.00 0.01 0.02 0.04 0.05 0.05 0.06 0.08 0.07 0.07
0.29 0.74 0.79 0.77 0.52 0.49 0.65 0.35 0.28 0.62 1.13 0.62 0.31 0.08 0.00 0.01 0.01 0.01 0.01 0.03 0.01 0.00 0.00 0.00 0.00 0.00 0.00 0.00 0.02 0.04 0.04 0.02 0.01 0.01 0.01 0.03 0.05 0.06 0.07 0.07 0.06 0.06 0.05 0.05
0.66 0.61 0.75 0.75 0.74 0.79 0.55 0.31 0.49 1.00 1.36 0.39 0.17 0.03 0.01 0.01 0.03 0.02 0.03 0.04 0.06 0.02 0.01 0.00 0.00 0.00 0.00 0.01 0.05 0.05 0.04 0.02 0.05 0.05 0.05 0.06 0.06 0.07 0.08 0.08 0.06 0.07 0.07 0.07
0.73 0.94 1.21 0.74 0.38 0.93 0.53 0.29 0.37 0.87 0.61 0.58 0.18 0.07 0.02 0.01 0.04 0.10 0.09 0.11 0.06 0.03 0.01 0.00 0.01 0.01 0.01 0.01 0.03 0.04 0.07 0.08 0.08 0.11 0.11 0.09 0.07 0.05 0.05 0.06 0.05 0.05 0.06 0.07
0.47 0.79 0.96 0.56 0.17 0.33 0.34 0.15 0.20 0.19 0.31 0.41 0.17 0.22 0.05 0.02 0.12 0.29 0.17 0.22 0.11 0.06 0.02 0.01 0.01 0.00 0.00 0.00 0.01 0.02 0.06 0.10 0.16 0.15 0.10 0.07 0.06 0.06 0.07 0.06 0.06 0.08 0.09 0.11
0.28 0.45 0.78 0.63 0.37 0.24 0.42 0.26 0.15 0.14 0.20 0.33 0.31 0.19 0.07 0.07 0.29 0.31 0.31 0.30 0.09 0.03 0.01 0.00 0.00 0.00 0.00 0.00 0.01 0.01 0.03 0.06 0.07 0.06 0.04 0.04 0.07 0.10 0.09 0.07 0.05 0.09 0.23 0.40
0.08 0.26 0.46 0.49 0.49 0.51 0.43 0.25 0.11 0.13 0.16 0.21 0.24 0.14 0.04 0.16 0.20 0.13 0.30 0.25 0.11 0.01 0.00 0.00 0.00 0.00 0.00 0.00 0.00 0.01 0.02 0.07 0.16 0.23 0.24 0.20 0.38 0.53 0.37 0.44 0.56 0.63 0.43 0.44
0.03 0.17 0.28 0.18 0.21 0.21 0.08 0.13 0.19 0.13 0.12 0.09 0.10 0.15 0.11 0.08 0.12 0.19 0.13 0.03 0.02 0.02 0.01 0.00 0.00 0.00 0.00 0.00 0.00 0.01 0.02 0.04 0.15 0.33 0.58 0.61 0.65 0.67 0.73 1.09 1.03 1.18 1.08 0.85
0.03 0.09 0.31 0.12 0.11 0.00 0.02 0.05 0.03 0.01 0.05 0.01 0.02 0.04 0.05 0.09 0.30 0.28 0.09 0.02 0.01 0.01 0.01 0.01 0.00 0.00 0.00 0.00 0.03 0.05 0.04 0.08 0.18 0.26 0.22 0.62 0.78 0.63 0.58 0.63 0.64 0.72 0.50 0.52
0.12 0.17 0.26 0.18 0.19 0.00 0.00 0.00 0.00 0.05 0.04 0.00 0.00 0.01 0.03 0.07 0.08 0.08 0.08 0.07 0.03 0.02 0.01 0.01 0.02 0.02 0.04 0.07 0.13 0.25 0.23 0.41 0.54 0.84 0.62 0.66 0.80 0.64 0.47 0.54 0.36 0.35 0.38 0.30
0.03 0.05 0.08 0.12 0.13 0.01 0.00 0.00 0.01 0.02 0.00 0.00 0.00 0.01 0.08 0.08 0.07 0.07 0.01 0.01 0.08 0.17 0.23 0.25 0.18 0.14 0.18 0.22 0.37 0.73 0.67 0.66 0.70 0.64 0.70 0.44 0.40 0.30 0.22 0.15 0.14 0.11 0.05 0.03
0.00 0.00 0.00 0.00 0.00 0.00 0.00 0.00 0.00 0.00 0.00 0.00 0.00 0.01 0.05 0.07 0.18 0.11 0.01 0.01 0.01 0.07 0.28 0.54 0.49 0.45 0.55 0.41 0.44 0.59 0.47 0.29 0.15 0.18 0.13 0.06 0.02 0.02 0.01 0.01 0.00 0.00 0.00 0.00
0.00 0.00 0.00 0.00 0.00 0.00 0.00 0.00 0.00 0.00 0.00 0.00 0.00 0.00 0.00 0.00 0.00 0.00 0.01 0.01 0.02 0.01 0.01 0.02 0.02 0.06 0.15 0.15 0.14 0.18 0.12 0.06 0.03 0.02 0.01 0.01 0.01 0.03 0.01 0.01 0.01 0.01 0.01 0.01
0.01 0.00 0.00 0.00 0.00 0.00 0.00 0.00 0.00 0.00 0.00 0.00 0.00 0.00 0.01 0.01 0.01 0.01 0.03 0.04 0.04 0.05 0.04 0.04 0.04 0.04 0.03 0.01 0.01 0.01 0.01 0.03 0.05 0.06 0.07 0.09 0.10 0.11 0.07 0.04 0.05 0.04 0.02 0.04
0.00 0.00 0.01 0.01 0.00 0.02 0.00 0.00 0.00 0.00 0.00 0.00 0.00 0.01 0.01 0.03 0.04 0.03 0.06 0.08 0.09 0.08 0.07 0.06 0.07 0.07 0.11 0.13 0.11 0.08 0.07 0.08 0.09 0.09 0.09 0.15 0.18 0.23 0.30 0.36 0.31 0.26 0.18 0.16

GFSCGP_prec_precacc_111.txt.gz
Total_Precipitation_Accumulation
2.14 3.44 1.55 0.66 0.29 0.17 0.27 0.15 0.13 0.23 0.39 0.55 0.65 0.83 0.65 0.38 0.25 0.08 0.07 0.13 0.24 0.27 0.39 1.12 1.62 2.05 1.61 0.89 0.86 0.87 1.18 1.33 0.99 0.86 0.72 0.68 0.54 0.52 0.36 0.34 0.50 0.33 0.33 0.33
2.24 1.72 0.65 0.56 0.41 0.21 0.46 0.27 0.26 0.42 0.42 0.34 0.41 0.66 0.66 0.44 0.29 0.10 0.05 0.07 0.12 0.24 0.55 0.84 1.07 2.09 2.75 1.81 1.19 1.17 0.95 0.82 0.98 0.78 0.72 0.80 0.89 0.89 0.65 0.59 0.49 0.50 0.59 0.62
1.79 1.26 0.79 0.88 0.53 0.32 0.29 0.17 0.29 0.62 0.61 0.35 0.19 0.32 0.46 0.35 0.12 0.06 0.04 0.04 0.06 0.16 0.46 0.87 0.80 1.00 1.39 2.18 1.60 1.34 1.82 1.22 0.94 0.93 0.94 1.21 1.54 1.38 1.03 0.54 0.41 0.65 0.96 1.25
1.80 1.16 1.09 1.15 0.60 0.23 0.15 0.15 0.56 0.50 0.50 0.49 0.25 0.25 0.27 0.30 0.22 0.07 0.02 0.02 0.04 0.11 0.32 0.66 0.94 0.78 0.76 0.95 1.45 1.18 1.60 1.38 1.17 1.24 1.34 1.29 1.23 1.23 1.10 1.14 1.13 1.33 1.44 1.70
1.72 1.27 1.56 1.20 0.61 0.23 0.18 0.19 0.45 0.58 0.66 0.71 0.31 0.51 0.29 0.23 0.30 0.19 0.04 0.02 0.04 0.16 0.30 0.32 0.56 0.80 0.81 0.63 1.22 1.31 1.34 1.30 1.07 1.18 1.12 1.17 1.34 1.01 0.99 1.16 1.09 0.97 0.99 1.12
1.29 1.55 1.48 0.84 0.69 0.35 0.30 0.41 0.65 0.92 1.08 1.24 0.65 0.62 0.46 0.28 0.26 0.24 0.07 0.03 0.07 0.22 0.27 0.23 0.21 0.27 0.31 0.42 0.72 1.24 0.92 0.92 0.81 0.96 0.87 0.92 1.23 1.33 1.18 1.09 1.07 0.97 1.01 0.92
1.94 1.66 1.17 0.83 1.11 0.96 1.15 1.34 1.68 1.46 1.41 0.79 0.42 0.48 0.46 0.28 0.11 0.19 0.15 0.05 0.19 0.39 0.27 0.16 0.12 0.10 0.10 0.11 0.31 0.71 0.66 0.65 0.56 0.69 0.86 0.66 0.88 1.09 1.05 1.05 1.19 1.09 0.99 1.00
1.68 1.96 1.43 1.09 1.22 1.66 1.21 0.90 1.05 0.67 0.47 0.25 0.11 0.31 0.43 0.17 0.10 0.16 0.14 0.33 0.50 0.40 0.22 0.23 0.18 0.07 0.03 0.04 0.15 0.24 0.26 0.30 0.26 0.25 0.48 0.54 0.50 0.61 0.58 0.66 0.67 0.76 0.85 0.91
0.77 1.05 0.69 0.65 0.66 1.02 0.98 0.84 0.55 0.67 0.29 0.38 0.31 0.31 0.28 0.27 0.26 0.37 0.41 0.50 0.17 0.24 0.15 0.11 0.05 0.00 0.00 0.00 0.01 0.02 0.05 0.08 0.08 0.11 0.17 0.16 0.29 0.30 0.31 0.43 0.46 0.48 0.43 0.45
0.38 0.86 0.80 0.74 0.83 0.90 0.61 0.37 0.56 1.17 0.56 0.34 0.27 0.24 0.39 0.41 0.61 0.41 0.29 0.12 0.24 0.23 0.03 0.01 0.00 0.00 0.00 0.00 0.00 0.00 0.00 0.01 0.01 0.03 0.03 0.04 0.15 0.22 0.29 0.34 0.26 0.24 0.19 0.17
0.45 0.71 0.86 1.04 1.02 0.79 0.66 0.65 0.52 0.58 0.29 0.16 0.10 0.36 0.37 0.45 0.40 0.15 0.09 0.15 0.11 0.03 0.00 0.00 0.00 0.00 0.00 0.00 0.00 0.00 0.00 0.00 0.00 0.01 0.00 0.01 0.03 0.04 0.09 0.14 0.16 0.15 0.13 0.22
0.38 0.56 0.77 0.62 0.21 0.17 0.28 0.28 0.20 0.78 0.40 0.27 0.19 0.21 0.05 0.05 0.04 0.04 0.04 0.04 0.02 0.01 0.00 0.00 0.00 0.00 0.00 0.00 0.00 0.00 0.00 0.01 0.01 0.01 0.00 0.01 0.02 0.04 0.05 0.05 0.06 0.08 0.07 0.09
0.29 0.74 0.79 0.77 0.52 0.49 0.65 0.35 0.28 0.62 1.13 0.62 0.31 0.13 0.00 0.01 0.01 0.01 0.01 0.03 0.01 0.00 0.00 0.00 0.00 0.00 0.00 0.00 0.02 0.04 0.04 0.02 0.01 0.01 0.01 0.03 0.05 0.06 0.07 0.07 0.06 0.06 0.05 0.05
0.66 0.61 0.75 0.75 0.74 0.79 0.55 0.31 0.49 1.00 1.36 0.39 0.17 0.03 0.01 0.01 0.03 0.02 0.03 0.04 0.06 0.02 0.01 0.00 0.00 0.00 0.00 0.01 0.05 0.05 0.04 0.02 0.05 0.05 0.05 0.06 0.06 0.07 0.08 0.08 0.06 0.07 0.07 0.07
0.73 0.94 1.21 0.74 0.38 0.93 0.53 0.29 0.37 0.87 0.61 0.58 0.18 0.07 0.02 0.01 0.04 0.10 0.09 0.11 0.06 0.03 0.01 0.00 0.01 0.01 0.01 0.01 0.03 0.04 0.07 0.08 0.08 0.11 0.11 0.09 0.07 0.05 0.05 0.06 0.05 0.05 0.06 0.07
0.47 0.79 0.96 0.56 0.17 0.33 0.34 0.15 0.20 0.19 0.31 0.41 0.17 0.22 0.05 0.02 0.12 0.29 0.17 0.22 0.11 0.06 0.02 0.01 0.01 0.00 0.00 0.00 0.01 0.02 0.06 0.10 0.16 0.15 0.10 0.07 0.06 0.06 0.07 0.06 0.06 0.08 0.09 0.11
0.28 0.45 0.78 0.63 0.37 0.24 0.42 0.26 0.15 0.14 0.20 0.33 0.31 0.19 0.07 0.07 0.29 0.31 0.31 0.30 0.09 0.03 0.01 0.00 0.00 0.00 0.00 0.00 0.01 0.01 0.03 0.06 0.07 0.06 0.04 0.04 0.07 0.10 0.09 0.07 0.05 0.09 0.23 0.40
0.08 0.26 0.46 0.49 0.49 0.51 0.43 0.25 0.11 0.13 0.16 0.21 0.24 0.14 0.04 0.16 0.20 0.13 0.30 0.25 0.11 0.01 0.00 0.00 0.00 0.00 0.00 0.00 0.00 0.01 0.02 0.07 0.16 0.23 0.24 0.20 0.38 0.53 0.37 0.44 0.56 0.63 0.43 0.44
0.03 0.17 0.28 0.18 0.21 0.21 0.08 0.13 0.19 0.13 0.12 0.09 0.10 0.15 0.11 0.08 0.12 0.19 0.13 0.03 0.02 0.02 0.01 0.00 0.00 0.00 0.00 0.00 0.00 0.01 0.02 0.04 0.15 0.33 0.58 0.61 0.65 0.67 0.73 1.09 1.03 1.18 1.08 0.85
0.03 0.09 0.31 0.12 0.11 0.00 0.02 0.05 0.03 0.01 0.05 0.01 0.02 0.04 0.05 0.09 0.30 0.28 0.09 0.02 0.01 0.01 0.01 0.01 0.00 0.00 0.00 0.00 0.03 0.05 0.04 0.08 0.18 0.26 0.22 0.62 0.78 0.63 0.58 0.63 0.64 0.72 0.50 0.52
0.12 0.17 0.26 0.18 0.19 0.00 0.00 0.00 0.00 0.05 0.04 0.00 0.00 0.01 0.03 0.07 0.08 0.08 0.08 0.07 0.03 0.02 0.01 0.01 0.02 0.02 0.04 0.07 0.13 0.25 0.23 0.41 0.54 0.84 0.62 0.66 0.80 0.64 0.47 0.54 0.36 0.35 0.38 0.30
0.03 0.05 0.08 0.12 0.13 0.01 0.00 0.00 0.01 0.02 0.00 0.00 0.00 0.01 0.08 0.08 0.07 0.07 0.01 0.01 0.08 0.17 0.23 0.25 0.18 0.14 0.18 0.22 0.37 0.73 0.67 0.66 0.70 0.64 0.70 0.44 0.40 0.30 0.22 0.15 0.14 0.11 0.06 0.04
0.00 0.00 0.00 0.00 0.00 0.00 0.00 0.00 0.00 0.00 0.00 0.00 0.00 0.01 0.05 0.07 0.18 0.11 0.01 0.01 0.01 0.07 0.28 0.54 0.49 0.45 0.55 0.41 0.44 0.59 0.47 0.29 0.15 0.18 0.13 0.06 0.03 0.02 0.01 0.01 0.00 0.00 0.00 0.01
0.00 0.00 0.00 0.00 0.00 0.00 0.00 0.00 0.00 0.00 0.00 0.00 0.00 0.00 0.00 0.00 0.00 0.00 0.01 0.01 0.02 0.01 0.01 0.02 0.02 0.06 0.15 0.15 0.14 0.18 0.12 0.06 0.03 0.02 0.02 0.01 0.02 0.04 0.01 0.01 0.02 0.02 0.02 0.03
0.01 0.00 0.00 0.00 0.00 0.00 0.00 0.00 0.00 0.00 0.00 0.00 0.00 0.00 0.01 0.01 0.01 0.01 0.03 0.04 0.04 0.05 0.04 0.04 0.04 0.04 0.03 0.01 0.01 0.01 0.01 0.03 0.05 0.06 0.07 0.09 0.11 0.11 0.07 0.05 0.06 0.06 0.05 0.07
0.00 0.00 0.01 0.01 0.00 0.02 0.00 0.00 0.00 0.00 0.00 0.00 0.00 0.01 0.01 0.03 0.04 0.03 0.06 0.08 0.09 0.08 0.07 0.06 0.07 0.07 0.11 0.13 0.11 0.08 0.07 0.08 0.09 0.09 0.09 0.16 0.18 0.23 0.30 0.36 0.32 0.28 0.20 0.18

GFSCGP_prec_precacc_114.txt.gz
Total_Precipitation_Accumulation
2.14 3.44 1.55 0.66 0.29 0.17 0.27 0.15 0.13 0.23 0.39 0.55 0.65 0.83 0.65 0.38 0.25 0.08 0.07 0.13 0.24 0.27 0.39 1.12 1.62 2.05 1.61 0.90 0.86 0.87 1.20 1.44 1.30 0.95 0.78 0.77 0.63 0.59 0.37 0.34 0.50 0.34 0.34 0.33
2.24 1.72 0.65 0.56 0.41 0.21 0.47 0.28 0.26 0.42 0.42 0.34 0.41 0.66 0.66 0.44 0.29 0.10 0.05 0.07 0.12 0.24 0.55 0.84 1.07 2.09 2.75 1.81 1.19 1.18 0.99 0.86 1.26 1.39 0.90 0.96 0.99 0.98 0.72 0.63 0.49 0.50 0.60 0.62
1.79 1.26 0.79 0.89 0.54 0.33 0.29 0.18 0.29 0.62 0.61 0.35 0.19 0.32 0.46 0.35 0.12 0.06 0.04 0.04 0.06 0.16 0.46 0.87 0.80 1.00 1.40 2.19 1.62 1.38 1.92 1.31 1.04 1.66 1.55 1.45 1.79 1.63 1.21 0.70 0.48 0.66 0.97 1.25
1.80 1.16 1.09 1.15 0.60 0.24 0.15 0.15 0.56 0.50 0.53 0.49 0.25 0.25 0.27 0.30 0.22 0.07 0.02 0.02 0.04 0.11 0.32 0.67 0.94 0.78 0.77 0.96 1.47 1.19 1.68 1.60 1.39 1.55 2.00 1.66 1.49 1.49 1.30 1.34 1.32 1.48 1.53 1.79
1.72 1.27 1.56 1.20 0.61 0.23 0.19 0.19 0.45 0.60 0.71 0.73 0.31 0.54 0.29 0.23 0.30 0.19 0.05 0.02 0.04 0.16 0.31 0.37 0.61 0.86 0.81 0.63 1.22 1.34 1.41 1.45 1.30 1.40 1.43 1.53 1.58 1.25 1.11 1.25 1.25 1.16 1.19 1.27
1.29 1.55 1.48 0.84 0.69 0.35 0.30 0.42 0.65 0.94 1.10 1.26 0.66 0.63 0.51 0.30 0.27 0.24 0.08 0.03 0.07 0.23 0.31 0.33 0.31 0.32 0.34 0.43 0.76 1.26 1.02 1.09 0.99 1.19 1.03 1.09 1.45 1.50 1.25 1.11 1.10 1.03 1.11 1.10
1.94 1.66 1.17 0.84 1.13 1.00 1.28 1.45 1.78 1.59 1.50 0.91 0.47 0.57 0.55 0.44 0.16 0.19 0.16 0.07 0.28 0.50 0.53 0.52 0.25 0.23 0.26 0.18 0.48 0.89 0.91 1.02 0.88 1.03 1.13 0.88 1.02 1.19 1.14 1.10 1.23 1.12 1.03 1.06
1.68 1.96 1.43 1.10 1.31 1.85 1.35 1.08 1.21 0.79 0.54 0.33 0.20 0.41 0.60 0.32 0.14 0.17 0.18 0.46 0.89 1.15 0.78 0.63 0.47 0.41 0.35 0.24 0.37 0.52 0.65 0.80 0.87 0.76 0.80 0.84 0.70 0.71 0.65 0.72 0.75 0.83 0.89 0.94
0.77 1.05 0.69 0.65 0.67 1.07 1.02 0.91 0.62 0.76 0.30 0.40 0.37 0.37 0.38 0.33 0.34 0.49 0.69 1.17 0.86 0.61 0.38 0.43 0.29 0.09 0.04 0.03 0.08 0.13 0.20 0.32 0.29 0.27 0.32 0.29 0.45 0.40 0.41 0.53 0.56 0.55 0.48 0.48
0.38 0.86 0.80 0.74 0.83 0.90 0.62 0.38 0.58 1.19 0.59 0.38 0.28 0.30 0.59 0.63 0.91 0.90 0.94 0.48 0.36 0.36 0.17 0.09 0.04 0.02 0.00 0.00 0.00 0.00 0.01 0.04 0.05 0.08 0.07 0.11 0.21 0.26 0.34 0.39 0.31 0.30 0.25 0.22
0.45 0.71 0.86 1.04 1.02 0.79 0.66 0.65 0.52 0.58 0.31 0.21 0.13 0.52 0.65 0.84 0.76 0.44 0.28 0.23 0.17 0.08 0.04 0.01 0.00 0.00 0.00 0.00 0.00 0.00 0.00 0.00 0.00 0.01 0.01 0.02 0.05 0.07 0.13 0.22 0.25 0.23 0.20 0.29
0.38 0.56 0.77 0.62 0.21 0.17 0.28 0.28 0.20 0.78 0.40 0.27 0.20 0.32 0.16 0.14 0.18 0.15 0.10 0.05 0.02 0.01 0.00 0.00 0.00 0.00 0.00 0.00 0.00 0.00 0.00 0.01 0.01 0.01 0.00 0.01 0.02 0.04 0.05 0.05 0.06 0.09 0.08 0.13
0.29 0.74 0.79 0.77 0.52 0.49 0.65 0.35 0.28 0.62 1.13 0.62 0.31 0.14 0.01 0.01 0.01 0.01 0.01 0.03 0.01 0.00 0.00 0.00 0.00 0.00 0.00 0.00 0.02 0.04 0.04 0.02 0.01 0.01 0.01 0.03 0.05 0.06 0.07 0.07 0.06 0.06 0.05 0.05
0.66 0.61 0.75 0.75 0.74 0.79 0.55 0.31 0.49 1.00 1.36 0.39 0.17 0.03 0.01 0.01 0.03 0.02 0.03 0.04 0.06 0.02 0.01 0.00 0.00 0.00 0.00 0.01 0.05 0.05 0.04 0.02 0.05 0.05 0.05 0.06 0.06 0.07 0.08 0.08 0.06 0.07 0.07 0.07
0.73 0.94 1.21 0.74 0.38 0.93 0.53 0.29 0.37 0.87 0.61 0.58 0.18 0.07 0.02 0.01 0.04 0.10 0.09 0.11 0.06 0.03 0.01 0.00 0.01 0.01 0.01 0.01 0.03 0.04 0.07 0.08 0.08 0.11 0.11 0.09 0.07 0.05 0.05 0.06 0.05 0.05 0.06 0.07
0.47 0.79 0.96 0.56 0.17 0.33 0.34 0.15 0.20 0.19 0.31 0.41 0.17 0.22 0.05 0.02 0.12 0.29 0.17 0.22 0.11 0.06 0.02 0.01 0.01 0.00 0.00 0.00 0.01 0.02 0.06 0.10 0.16 0.15 0.10 0.07 0.06 0.06 0.07 0.06 0.06 0.08 0.09 0.11
0.28 0.45 0.78 0.63 0.37 0.24 0.42 0.26 0.15 0.14 0.20 0.33 0.31 0.19 0.07 0.07 0.29 0.31 0.31 0.30 0.09 0.03 0.01 0.00 0.00 0.00 0.00 0.00 0.01 0.01 0.03 0.06 0.07 0.06 0.04 0.04 0.07 0.10 0.09 0.07 0.05 0.09 0.23 0.40
0.08 0.26 0.46 0.49 0.49 0.51 0.43 0.25 0.11 0.13 0.16 0.21 0.24 0.14 0.04 0.16 0.20 0.13 0.30 0.25 0.11 0.01 0.00 0.00 0.00 0.00 0.00 0.00 0.00 0.01 0.02 0.07 0.16 0.23 0.24 0.20 0.38 0.53 0.37 0.44 0.56 0.63 0.43 0.44
0.03 0.17 0.28 0.18 0.21 0.21 0.08 0.13 0.19 0.13 0.12 0.09 0.10 0.15 0.11 0.08 0.12 0.19 0.13 0.03 0.02 0.02 0.01 0.00 0.00 0.00 0.00 0.00 0.00 0.01 0.02 0.04 0.15 0.33 0.58 0.61 0.65 0.67 0.73 1.09 1.03 1.18 1.08 0.85
0.03 0.09 0.31 0.12 0.11 0.00 0.02 0.05 0.03 0.01 0.05 0.01 0.02 0.04 0.05 0.09 0.30 0.28 0.09 0.02 0.01 0.01 0.01 0.01 0.00 0.00 0.00 0.00 0.03 0.05 0.04 0.08 0.18 0.26 0.22 0.62 0.78 0.63 0.58 0.63 0.64 0.72 0.50 0.52
0.12 0.17 0.26 0.18 0.19 0.00 0.00 0.00 0.00 0.05 0.04 0.00 0.00 0.01 0.03 0.07 0.08 0.08 0.08 0.07 0.03 0.02 0.01 0.01 0.02 0.02 0.04 0.07 0.13 0.25 0.23 0.41 0.54 0.84 0.62 0.66 0.80 0.64 0.47 0.54 0.36 0.36 0.38 0.30
0.03 0.05 0.08 0.12 0.13 0.01 0.00 0.00 0.01 0.02 0.00 0.00 0.00 0.01 0.08 0.08 0.07 0.07 0.01 0.01 0.08 0.17 0.23 0.25 0.18 0.14 0.18 0.22 0.37 0.73 0.67 0.66 0.70 0.64 0.70 0.44 0.40 0.30 0.22 0.15 0.14 0.11 0.06 0.04
0.00 0.00 0.00 0.00 0.00 0.00 0.00 0.00 0.00 0.00 0.00 0.00 0.00 0.01 0.05 0.07 0.18 0.11 0.01 0.01 0.01 0.07 0.28 0.54 0.49 0.45 0.55 0.41 0.44 0.59 0.47 0.29 0.15 0.18 0.13 0.06 0.03 0.02 0.01 0.01 0.00 0.00 0.01 0.01
0.00 0.00 0.00 0.00 0.00 0.00 0.00 0.00 0.00 0.00 0.00 0.00 0.00 0.00 0.00 0.00 0.00 0.00 0.01 0.01 0.02 0.01 0.01 0.02 0.02 0.06 0.15 0.15 0.14 0.18 0.12 0.06 0.03 0.02 0.02 0.02 0.02 0.04 0.01 0.02 0.02 0.02 0.02 0.03
0.01 0.00 0.00 0.00 0.00 0.00 0.00 0.00 0.00 0.00 0.00 0.00 0.00 0.00 0.01 0.01 0.01 0.01 0.03 0.04 0.04 0.05 0.04 0.04 0.04 0.04 0.03 0.01 0.01 0.01 0.01 0.03 0.05 0.06 0.07 0.09 0.11 0.12 0.07 0.05 0.06 0.07 0.06 0.08
0.00 0.00 0.01 0.01 0.00 0.02 0.00 0.00 0.00 0.00 0.00 0.00 0.00 0.01 0.01 0.03 0.04 0.03 0.06 0.08 0.09 0.08 0.07 0.06 0.07 0.07 0.11 0.13 0.11 0.08 0.07 0.08 0.09 0.09 0.09 0.16 0.18 0.23 0.31 0.37 0.32 0.29 0.22 0.20

GFSCGP_prec_precacc_120.txt.gz
Total_Precipitation_Accumulation
2.14 3.44 1.55 0.66 0.29 0.17 0.27 0.15 0.13 0.23 0.39 0.55 0.65 0.83 0.65 0.38 0.25 0.08 0.07 0.13 0.24 0.27 0.39 1.12 1.62 2.05 1.61 0.90 0.86 0.87 1.20 1.44 1.30 0.95 0.80 0.78 0.63 0.59 0.38 0.36 0.52 0.35 0.50 0.53
2.24 1.72 0.65 0.56 0.41 0.21 0.47 0.28 0.26 0.42 0.42 0.34 0.41 0.66 0.66 0.44 0.29 0.10 0.05 0.07 0.12 0.24 0.55 0.84 1.07 2.09 2.75 1.81 1.19 1.18 0.99 0.86 1.26 1.39 0.92 0.99 1.00 0.99 0.73 0.64 0.50 0.52 0.62 0.74
1.79 1.26 0.79 0.89 0.54 0.33 0.29 0.18 0.29 0.62 0.61 0.35 0.19 0.32 0.46 0.35 0.12 0.06 0.04 0.04 0.06 0.16 0.46 0.87 0.81 1.00 1.40 2.19 1.62 1.38 1.92 1.31 1.04 1.66 1.63 1.49 1.82 1.66 1.27 0.77 0.55 0.72 1.02 1.31
1.80 1.16 1.09 1.15 0.60 0.24 0.16 0.15 0.56 0.50 0.57 0.51 0.25 0.27 0.27 0.30 0.22 0.07 0.02 0.03 0.05 0.11 0.32 0.67 0.95 0.79 0.77 0.97 1.47 1.20 1.68 1.60 1.39 1.56 2.20 1.96 1.57 1.55 1.36 1.39 1.40 1.59 1.70 1.95
1.72 1.27 1.56 1.20 0.61 0.23 0.19 0.19 0.45 0.61 0.75 0.77 0.32 0.57 0.30 0.23 0.30 0.19 0.05 0.07 0.13 0.22 0.33 0.37 0.61 0.91 0.87 0.66 1.24 1.35 1.42 1.45 1.30 1.40 1.64 2.24 2.12 1.48 1.21 1.32 1.36 1.34 1.40 1.62
1.29 1.55 1.48 0.84 0.69 0.35 0.30 0.42 0.66 0.95 1.12 1.27 0.68 0.71 0.54 0.34 0.33 0.26 0.08 0.08 0.20 0.34 0.38 0.44 0.49 0.48 0.45 0.46 0.78 1.26 1.03 1.09 0.99 1.21 1.15 1.55 2.21 2.11 1.63 1.36 1.28 1.24 1.38 1.41
1.94 1.66 1.17 0.84 1.13 1.01 1.31 1.56 1.83 1.61 1.52 0.93 0.57 0.72 0.66 0.55 0.27 0.29 0.23 0.13 0.34 0.59 0.64 0.73 0.52 0.44 0.38 0.26 0.65 1.01 0.94 1.06 0.89 1.10 1.24 1.06 1.47 2.02 2.04 1.78 1.70 1.51 1.35 1.35
1.68 1.96 1.43 1.10 1.31 1.86 1.39 1.17 1.29 0.83 0.59 0.37 0.25 0.48 0.71 0.47 0.30 0.25 0.22 0.51 0.98 1.34 1.03 1.27 1.30 0.99 0.78 0.60 0.83 0.87 0.73 1.05 1.07 1.05 1.10 1.19 1.17 1.15 1.16 1.25 1.21 1.28 1.32 1.27
0.77 1.05 0.69 0.65 0.67 1.08 1.04 0.97 0.68 0.80 0.33 0.42 0.43 0.41 0.44 0.41 0.47 0.62 0.78 1.38 1.15 1.21 0.88 0.96 0.90 0.56 0.41 0.66 0.93 0.73 0.69 0.97 0.89 0.85 0.80 0.88 1.03 0.79 0.70 0.82 0.82 0.83 0.80 0.84
0.38 0.86 0.80 0.74 0.83 0.90 0.63 0.39 0.61 1.22 0.62 0.40 0.30 0.36 0.77 0.80 1.15 1.27 1.52 1.24 1.11 1.09 0.75 0.56 0.38 0.20 0.19 0.40 0.39 0.34 0.27 0.33 0.35 0.33 0.24 0.41 0.50 0.58 0.56 0.59 0.56 0.52 0.48 0.46
0.45 0.71 0.86 1.04 1.02 0.79 0.66 0.65 0.52 0.58 0.31 0.22 0.14 0.62 0.83 1.21 1.23 1.01 0.88 0.80 0.58 0.31 0.14 0.06 0.01 0.00 0.01 0.01 0.00 0.01 0.01 0.04 0.03 0.02 0.03 0.08 0.18 0.17 0.22 0.29 0.36 0.36 0.30 0.36
0.38 0.56 0.77 0.62 0.21 0.17 0.28 0.28 0.20 0.78 0.40 0.27 0.21 0.40 0.21 0.28 0.38 0.32 0.15 0.06 0.02 0.01 0.00 0.00 0.00 0.00 0.00 0.00 0.00 0.00 0.00 0.01 0.01 0.01 0.00 0.01 0.02 0.04 0.05 0.05 0.06 0.09 0.09 0.15
0.29 0.74 0.79 0.77 0.52 0.49 0.65 0.35 0.28 0.62 1.13 0.62 0.31 0.16 0.01 0.01 0.02 0.01 0.01 0.03 0.01 0.00 0.00 0.00 0.00 0.00 0.00 0.00 0.02 0.04 0.04 0.02 0.01 0.01 0.01 0.03 0.05 0.06 0.07 0.07 0.06 0.06 0.05 0.05
0.66 0.61 0.75 0.75 0.74 0.79 0.55 0.31 0.49 1.00 1.36 0.39 0.17 0.03 0.01 0.01 0.03 0.02 0.03 0.04 0.06 0.02 0.01 0.00 0.00 0.00 0.00 0.01 0.05 0.05 0.04 0.02 0.05 0.05 0.05 0.06 0.06 0.07 0.08 0.08 0.06 0.07 0.07 0.07
0.73 0.94 1.21 0.74 0.38 0.93 0.53 0.29 0.37 0.87 0.61 0.58 0.18 0.07 0.02 0.01 0.04 0.10 0.09 0.11 0.06 0.03 0.01 0.00 0.01 0.01 0.01 0.01 0.03 0.04 0.07 0.08 0.08 0.11 0.11 0.09 0.07 0.05 0.05 0.06 0.05 0.05 0.06 0.07
0.47 0.79 0.96 0.56 0.17 0.33 0.34 0.15 0.20 0.19 0.31 0.41 0.17 0.22 0.05 0.02 0.12 0.29 0.17 0.22 0.11 0.06 0.02 0.01 0.01 0.00 0.00 0.00 0.01 0.02 0.06 0.10 0.16 0.15 0.10 0.07 0.06 0.06 0.07 0.06 0.06 0.08 0.09 0.11
0.28 0.45 0.78 0.63 0.37 0.24 0.42 0.26 0.15 0.14 0.20 0.33 0.31 0.19 0.07 0.07 0.29 0.31 0.31 0.30 0.09 0.03 0.01 0.00 0.00 0.00 0.00 0.00 0.01 0.01 0.03 0.06 0.07 0.06 0.04 0.04 0.07 0.10 0.09 0.07 0.05 0.09 0.23 0.40
0.08 0.26 0.46 0.49 0.49 0.51 0.43 0.25 0.11 0.13 0.16 0.21 0.24 0.14 0.04 0.16 0.20 0.13 0.30 0.25 0.11 0.01 0.00 0.00 0.00 0.00 0.00 0.00 0.00 0.01 0.02 0.07 0.16 0.23 0.24 0.20 0.38 0.53 0.37 0.44 0.56 0.63 0.43 0.44
0.03 0.17 0.28 0.18 0.21 0.21 0.08 0.13 0.19 0.13 0.12 0.09 0.10 0.15 0.11 0.08 0.12 0.19 0.13 0.03 0.02 0.02 0.01 0.00 0.00 0.00 0.00 0.00 0.00 0.01 0.02 0.04 0.15 0.33 0.58 0.61 0.65 0.67 0.73 1.09 1.03 1.18 1.08 0.85
0.03 0.09 0.31 0.12 0.11 0.00 0.02 0.05 0.03 0.01 0.05 0.01 0.02 0.04 0.05 0.09 0.30 0.28 0.09 0.02 0.01 0.01 0.01 0.01 0.00 0.00 0.00 0.00 0.03 0.05 0.04 0.08 0.18 0.26 0.22 0.62 0.78 0.63 0.58 0.63 0.64 0.72 0.50 0.52
0.12 0.17 0.26 0.18 0.19 0.00 0.00 0.00 0.00 0.05 0.04 0.00 0.00 0.01 0.03 0.07 0.08 0.08 0.08 0.07 0.03 0.02 0.01 0.01 0.02 0.02 0.04 0.07 0.13 0.25 0.23 0.41 0.54 0.84 0.62 0.66 0.80 0.64 0.47 0.54 0.36 0.36 0.38 0.30
0.03 0.05 0.08 0.12 0.13 0.01 0.00 0.00 0.01 0.02 0.00 0.00 0.00 0.01 0.08 0.08 0.07 0.07 0.01 0.01 0.08 0.17 0.23 0.25 0.18 0.14 0.18 0.22 0.37 0.73 0.67 0.66 0.70 0.64 0.70 0.44 0.40 0.30 0.22 0.15 0.14 0.11 0.06 0.04
0.00 0.00 0.00 0.00 0.00 0.00 0.00 0.00 0.00 0.00 0.00 0.00 0.00 0.01 0.05 0.07 0.18 0.11 0.01 0.01 0.01 0.07 0.28 0.54 0.49 0.45 0.55 0.41 0.44 0.59 0.47 0.29 0.15 0.18 0.13 0.06 0.03 0.02 0.01 0.01 0.00 0.00 0.01 0.01
0.00 0.00 0.00 0.00 0.00 0.00 0.00 0.00 0.00 0.00 0.00 0.00 0.00 0.00 0.00 0.00 0.00 0.00 0.01 0.01 0.02 0.01 0.01 0.02 0.02 0.06 0.15 0.15 0.14 0.18 0.12 0.06 0.03 0.02 0.02 0.02 0.02 0.04 0.01 0.02 0.02 0.02 0.02 0.03
0.01 0.00 0.00 0.00 0.00 0.00 0.00 0.00 0.00 0.00 0.00 0.00 0.00 0.00 0.01 0.01 0.01 0.01 0.03 0.04 0.04 0.05 0.04 0.04 0.04 0.04 0.03 0.01 0.01 0.01 0.01 0.03 0.05 0.06 0.07 0.09 0.11 0.12 0.07 0.05 0.06 0.07 0.06 0.08
0.00 0.00 0.01 0.01 0.00 0.02 0.00 0.00 0.00 0.00 0.00 0.00 0.00 0.01 0.01 0.03 0.04 0.03 0.06 0.08 0.09 0.08 0.07 0.06 0.07 0.07 0.11 0.13 0.11 0.08 0.07 0.08 0.09 0.09 0.09 0.16 0.18 0.23 0.31 0.37 0.32 0.29 0.22 0.20

GFSCGP_prec_precacc_123.txt.gz
Total_Precipitation_Accumulation
2.14 3.44 1.55 0.66 0.29 0.17 0.27 0.15 0.13 0.23 0.39 0.55 0.65 0.83 0.65 0.38 0.25 0.08 0.07 0.13 0.24 0.27 0.39 1.12 1.62 2.05 1.61 0.90 0.86 0.87 1.20 1.44 1.30 0.95 0.80 0.78 0.63 0.59 0.38 0.36 0.52 0.35 0.50 0.53
2.24 1.72 0.65 0.56 0.41 0.21 0.47 0.28 0.26 0.42 0.42 0.34 0.41 0.66 0.66 0.44 0.29 0.10 0.05 0.07 0.12 0.24 0.55 0.84 1.07 2.09 2.75 1.81 1.19 1.18 0.99 0.86 1.26 1.39 0.92 0.99 1.00 0.99 0.73 0.64 0.50 0.52 0.62 0.74
1.79 1.26 0.79 0.89 0.54 0.33 0.29 0.18 0.29 0.62 0.61 0.35 0.19 0.32 0.46 0.35 0.12 0.06 0.04 0.04 0.06 0.16 0.46 0.87 0.81 1.00 1.40 2.19 1.62 1.38 1.92 1.31 1.04 1.66 1.63 1.49 1.82 1.66 1.27 0.77 0.55 0.72 1.02 1.31
1.80 1.16 1.09 1.15 0.60 0.24 0.16 0.15 0.56 0.50 0.58 0.51 0.25 0.28 0.27 0.30 0.22 0.07 0.02 0.03 0.05 0.11 0.32 0.67 0.95 0.79 0.77 0.97 1.47 1.20 1.68 1.60 1.39 1.56 2.20 1.96 1.57 1.55 1.36 1.39 1.40 1.59 1.70 1.95
1.72 1.27 1.56 1.20 0.61 0.23 0.19 0.19 0.45 0.61 0.77 0.80 0.32 0.58 0.30 0.23 0.30 0.20 0.06 0.08 0.13 0.26 0.36 0.39 0.62 0.93 0.89 0.68 1.25 1.36 1.42 1.45 1.30 1.40 1.64 2.25 2.12 1.48 1.21 1.32 1.36 1.34 1.41 1.63
1.29 1.55 1.48 0.84 0.69 0.35 0.30 0.42 0.66 0.95 1.13 1.28 0.68 0.73 0.54 0.37 0.47 0.35 0.13 0.11 0.27 0.39 0.42 0.50 0.61 0.59 0.50 0.47 0.78 1.26 1.03 1.09 0.99 1.21 1.15 1.55 2.21 2.11 1.63 1.36 1.28 1.25 1.40 1.42
1.94 1.66 1.17 0.84 1.13 1.01 1.31 1.56 1.83 1.61 1.52 0.93 0.57 0.74 0.68 0.59 0.35 0.42 0.31 0.20 0.43 0.65 0.71 0.82 0.59 0.49 0.40 0.27 0.65 1.01 0.94 1.06 0.89 1.10 1.24 1.06 1.47 2.02 2.05 1.89 1.82 1.64 1.48 1.52
1.68 1.96 1.43 1.10 1.31 1.86 1.39 1.18 1.32 0.84 0.59 0.37 0.25 0.50 0.76 0.57 0.39 0.36 0.28 0.59 1.04 1.44 1.13 1.33 1.49 1.15 0.82 0.67 0.90 0.89 0.74 1.08 1.09 1.06 1.11 1.19 1.18 1.16 1.20 1.36 1.41 1.51 1.53 1.51
0.77 1.05 0.69 0.65 0.67 1.08 1.04 0.97 0.69 0.83 0.33 0.43 0.43 0.41 0.46 0.49 0.56 0.76 0.93 1.46 1.24 1.26 0.99 1.20 1.31 0.83 0.63 1.06 1.30 0.98 0.82 1.05 0.93 0.89 0.83 0.96 1.16 0.94 0.77 0.88 0.87 0.89 0.87 0.94
0.38 0.86 0.80 0.74 0.83 0.90 0.63 0.39 0.61 1.22 0.62 0.40 0.30 0.36 0.80 0.84 1.21 1.38 1.65 1.37 1.22 1.33 1.02 0.76 0.51 0.31 0.34 0.55 0.51 0.68 0.59 0.46 0.41 0.48 0.33 0.55 0.66 0.72 0.60 0.63 0.61 0.54 0.53 0.52
0.45 0.71 0.86 1.04 1.02 0.79 0.66 0.65 0.52 0.58 0.31 0.22 0.14 0.63 0.87 1.26 1.26 1.06 0.93 0.87 0.65 0.35 0.16 0.07 0.02 0.02 0.02 0.01 0.01 0.05 0.13 0.14 0.09 0.05 0.11 0.16 0.25 0.23 0.25 0.31 0.37 0.37 0.33 0.40
0.38 0.56 0.77 0.62 0.21 0.17 0.28 0.28 0.20 0.78 0.40 0.27 0.21 0.41 0.22 0.28 0.38 0.32 0.16 0.06 0.02 0.01 0.00 0.00 0.00 0.00 0.00 0.00 0.00 0.00 0.00 0.01 0.01 0.01 0.00 0.01 0.03 0.05 0.05 0.05 0.06 0.09 0.09 0.15
0.29 0.74 0.79 0.77 0.52 0.49 0.65 0.35 0.28 0.62 1.13 0.62 0.31 0.16 0.01 0.01 0.02 0.01 0.01 0.03 0.01 0.00 0.00 0.00 0.00 0.00 0.00 0.00 0.02 0.04 0.04 0.02 0.01 0.01 0.01 0.03 0.05 0.06 0.07 0.07 0.06 0.06 0.05 0.05
0.66 0.61 0.75 0.75 0.74 0.79 0.55 0.31 0.49 1.00 1.36 0.39 0.17 0.03 0.01 0.01 0.03 0.02 0.03 0.04 0.06 0.02 0.01 0.00 0.00 0.00 0.00 0.01 0.05 0.05 0.04 0.02 0.05 0.05 0.05 0.06 0.06 0.07 0.08 0.08 0.06 0.07 0.07 0.07
0.73 0.94 1.21 0.74 0.38 0.93 0.53 0.29 0.37 0.87 0.61 0.58 0.18 0.07 0.02 0.01 0.04 0.10 0.09 0.11 0.06 0.03 0.01 0.00 0.01 0.01 0.01 0.01 0.03 0.04 0.07 0.08 0.08 0.11 0.11 0.09 0.07 0.05 0.05 0.06 0.05 0.05 0.06 0.07
0.47 0.79 0.96 0.56 0.17 0.33 0.34 0.15 0.20 0.19 0.31 0.41 0.17 0.22 0.05 0.02 0.12 0.29 0.17 0.22 0.11 0.06 0.02 0.01 0.01 0.00 0.00 0.00 0.01 0.02 0.06 0.10 0.16 0.15 0.10 0.07 0.06 0.06 0.07 0.06 0.06 0.08 0.09 0.11
0.28 0.45 0.78 0.63 0.37 0.24 0.42 0.26 0.15 0.14 0.20 0.33 0.31 0.19 0.07 0.07 0.29 0.31 0.31 0.30 0.09 0.03 0.01 0.00 0.00 0.00 0.00 0.00 0.01 0.01 0.03 0.06 0.07 0.06 0.04 0.04 0.07 0.10 0.09 0.07 0.05 0.09 0.23 0.40
0.08 0.26 0.46 0.49 0.49 0.51 0.43 0.25 0.11 0.13 0.16 0.21 0.24 0.14 0.04 0.16 0.20 0.13 0.30 0.25 0.11 0.01 0.00 0.00 0.00 0.00 0.00 0.00 0.00 0.01 0.02 0.07 0.16 0.23 0.24 0.20 0.38 0.53 0.37 0.44 0.56 0.63 0.43 0.44
0.03 0.17 0.28 0.18 0.21 0.21 0.08 0.13 0.19 0.13 0.12 0.09 0.10 0.15 0.11 0.08 0.12 0.19 0.13 0.03 0.02 0.02 0.01 0.00 0.00 0.00 0.00 0.00 0.00 0.01 0.02 0.04 0.15 0.33 0.58 0.61 0.65 0.67 0.73 1.09 1.03 1.18 1.08 0.85
0.03 0.09 0.31 0.12 0.11 0.00 0.02 0.05 0.03 0.01 0.05 0.01 0.02 0.04 0.05 0.09 0.30 0.28 0.09 0.02 0.01 0.01 0.01 0.01 0.00 0.00 0.00 0.00 0.03 0.05 0.04 0.08 0.18 0.26 0.22 0.62 0.78 0.63 0.58 0.63 0.64 0.72 0.50 0.52
0.12 0.17 0.26 0.18 0.19 0.00 0.00 0.00 0.00 0.05 0.04 0.00 0.00 0.01 0.03 0.07 0.08 0.08 0.08 0.07 0.03 0.02 0.01 0.01 0.02 0.02 0.04 0.07 0.13 0.25 0.23 0.41 0.54 0.84 0.62 0.66 0.80 0.64 0.47 0.54 0.36 0.36 0.38 0.30
0.03 0.05 0.08 0.12 0.13 0.01 0.00 0.00 0.01 0.02 0.00 0.00 0.00 0.01 0.08 0.08 0.07 0.07 0.01 0.01 0.08 0.17 0.23 0.25 0.18 0.14 0.18 0.22 0.37 0.73 0.67 0.66 0.70 0.64 0.70 0.44 0.40 0.30 0.22 0.15 0.14 0.11 0.06 0.04
0.00 0.00 0.00 0.00 0.00 0.00 0.00 0.00 0.00 0.00 0.00 0.00 0.00 0.01 0.05 0.07 0.18 0.11 0.01 0.01 0.01 0.07 0.28 0.54 0.49 0.45 0.55 0.41 0.44 0.59 0.47 0.29 0.15 0.18 0.13 0.06 0.03 0.02 0.01 0.01 0.00 0.00 0.01 0.01
0.00 0.00 0.00 0.00 0.00 0.00 0.00 0.00 0.00 0.00 0.00 0.00 0.00 0.00 0.00 0.00 0.00 0.00 0.01 0.01 0.02 0.01 0.01 0.02 0.02 0.06 0.15 0.15 0.14 0.18 0.12 0.06 0.03 0.02 0.02 0.02 0.02 0.04 0.01 0.02 0.02 0.02 0.02 0.03
0.01 0.00 0.00 0.00 0.00 0.00 0.00 0.00 0.00 0.00 0.00 0.00 0.00 0.00 0.01 0.01 0.01 0.01 0.03 0.04 0.04 0.05 0.04 0.04 0.04 0.04 0.03 0.01 0.01 0.01 0.01 0.03 0.05 0.06 0.07 0.09 0.11 0.12 0.07 0.05 0.06 0.07 0.06 0.08
0.00 0.00 0.01 0.01 0.00 0.02 0.00 0.00 0.00 0.00 0.00 0.00 0.00 0.01 0.01 0.03 0.04 0.03 0.06 0.08 0.09 0.08 0.07 0.06 0.07 0.07 0.11 0.13 0.11 0.08 0.07 0.08 0.09 0.09 0.09 0.16 0.18 0.23 0.31 0.37 0.32 0.29 0.22 0.20

GFSCGP_prec_precacc_126.txt.gz
Total_Precipitation_Accumulation
2.14 3.44 1.55 0.66 0.29 0.17 0.27 0.15 0.13 0.23 0.39 0.55 0.65 0.83 0.65 0.38 0.25 0.08 0.07 0.13 0.24 0.27 0.39 1.12 1.62 2.05 1.61 0.90 0.86 0.87 1.20 1.44 1.30 0.95 0.80 0.78 0.63 0.59 0.38 0.36 0.52 0.35 0.50 0.53
2.24 1.72 0.65 0.56 0.41 0.21 0.47 0.28 0.26 0.42 0.42 0.34 0.41 0.66 0.66 0.44 0.29 0.10 0.05 0.07 0.12 0.24 0.55 0.84 1.07 2.09 2.75 1.81 1.19 1.18 0.99 0.86 1.26 1.39 0.92 0.99 1.00 0.99 0.73 0.64 0.50 0.52 0.62 0.74
1.79 1.26 0.79 0.89 0.54 0.33 0.29 0.18 0.29 0.62 0.61 0.35 0.19 0.32 0.46 0.35 0.12 0.06 0.04 0.04 0.06 0.16 0.46 0.87 0.81 1.00 1.40 2.19 1.62 1.38 1.92 1.31 1.04 1.66 1.63 1.49 1.82 1.66 1.28 0.77 0.55 0.72 1.02 1.31
1.80 1.16 1.09 1.15 0.60 0.24 0.16 0.15 0.56 0.50 0.58 0.51 0.26 0.28 0.27 0.30 0.22 0.07 0.02 0.03 0.06 0.12 0.32 0.67 0.95 0.79 0.77 0.97 1.47 1.20 1.68 1.60 1.39 1.56 2.20 1.96 1.57 1.56 1.36 1.39 1.40 1.59 1.70 1.95
1.72 1.27 1.56 1.20 0.61 0.23 0.19 0.19 0.45 0.61 0.78 0.82 0.32 0.59 0.30 0.23 0.30 0.20 0.06 0.08 0.15 0.27 0.36 0.40 0.62 0.94 0.90 0.68 1.25 1.36 1.42 1.45 1.31 1.41 1.64 2.25 2.12 1.48 1.21 1.32 1.36 1.34 1.41 1.64
1.29 1.55 1.48 0.84 0.69 0.35 0.30 0.42 0.66 0.96 1.14 1.28 0.68 0.73 0.54 0.38 0.49 0.38 0.17 0.14 0.30 0.42 0.44 0.51 0.64 0.62 0.54 0.48 0.78 1.26 1.03 1.09 0.99 1.22 1.16 1.56 2.21 2.12 1.64 1.36 1.28 1.25 1.41 1.43
1.94 1.66 1.17 0.84 1.13 1.01 1.31 1.56 1.83 1.61 1.52 0.93 0.57 0.75 0.69 0.63 0.37 0.49 0.39 0.31 0.54 0.87 0.80 0.95 0.72 0.54 0.43 0.29 0.65 1.01 0.94 1.06 0.89 1.10 1.24 1.06 1.48 2.03 2.07 1.90 1.84 1.65 1.51 1.55
1.68 1.96 1.43 1.10 1.31 1.86 1.39 1.18 1.33 0.85 0.60 0.37 0.25 0.52 0.80 0.62 0.44 0.45 0.43 0.84 1.19 1.61 1.29 1.46 1.73 1.30 0.93 0.73 0.90 0.89 0.74 1.08 1.09 1.06 1.11 1.20 1.20 1.19 1.23 1.40 1.47 1.56 1.55 1.53
0.77 1.05 0.69 0.65 0.67 1.08 1.04 0.97 0.69 0.86 0.34 0.44 0.44 0.41 0.48 0.52 0.59 0.84 1.09 1.56 1.37 1.29 1.03 1.27 1.41 1.02 0.75 1.23 1.42 1.04 0.85 1.05 0.94 0.90 0.83 0.98 1.18 0.97 0.80 0.93 0.90 0.92 0.89 0.95
0.38 0.86 0.80 0.74 0.83 0.90 0.63 0.39 0.61 1.23 0.62 0.40 0.30 0.36 0.81 0.85 1.22 1.41 1.68 1.40 1.24 1.35 1.04 0.78 0.54 0.34 0.41 0.60 0.58 0.82 0.74 0.48 0.46 0.56 0.37 0.60 0.74 0.82 0.75 0.73 0.63 0.55 0.53 0.55
0.45 0.71 0.86 1.04 1.02 0.79 0.66 0.65 0.52 0.58 0.31 0.22 0.14 0.63 0.87 1.27 1.27 1.08 0.95 0.88 0.65 0.36 0.17 0.08 0.03 0.02 0.03 0.02 0.04 0.10 0.21 0.22 0.27 0.30 0.24 0.33 0.46 0.34 0.32 0.32 0.38 0.38 0.33 0.41
0.38 0.56 0.77 0.62 0.21 0.17 0.28 0.28 0.20 0.78 0.40 0.27 0.21 0.41 0.22 0.28 0.38 0.32 0.16 0.06 0.02 0.01 0.00 0.01 0.01 0.00 0.00 0.01 0.00 0.00 0.00 0.01 0.01 0.01 0.04 0.07 0.09 0.06 0.06 0.06 0.06 0.09 0.09 0.15
0.29 0.74 0.79 0.77 0.52 0.49 0.65 0.35 0.28 0.62 1.13 0.62 0.31 0.16 0.01 0.01 0.02 0.01 0.01 0.03 0.01 0.00 0.00 0.00 0.00 0.00 0.00 0.00 0.02 0.04 0.04 0.02 0.01 0.01 0.01 0.03 0.05 0.06 0.07 0.07 0.06 0.06 0.05 0.05
0.66 0.61 0.75 0.75 0.74 0.79 0.55 0.31 0.49 1.00 1.36 0.39 0.17 0.03 0.01 0.01 0.03 0.02 0.03 0.04 0.06 0.02 0.01 0.00 0.00 0.00 0.00 0.01 0.05 0.05 0.04 0.02 0.05 0.05 0.05 0.06 0.06 0.07 0.08 0.08 0.06 0.07 0.07 0.07
0.73 0.94 1.21 0.74 0.38 0.93 0.53 0.29 0.37 0.87 0.61 0.58 0.18 0.07 0.02 0.01 0.04 0.10 0.09 0.11 0.06 0.03 0.01 0.00 0.01 0.01 0.01 0.01 0.03 0.04 0.07 0.08 0.08 0.11 0.11 0.09 0.07 0.05 0.05 0.06 0.05 0.05 0.06 0.07
0.47 0.79 0.96 0.56 0.17 0.33 0.34 0.15 0.20 0.19 0.31 0.41 0.17 0.22 0.05 0.02 0.12 0.29 0.17 0.22 0.11 0.06 0.02 0.01 0.01 0.00 0.00 0.00 0.01 0.02 0.06 0.10 0.16 0.15 0.10 0.07 0.06 0.06 0.07 0.06 0.06 0.08 0.09 0.11
0.28 0.45 0.78 0.63 0.37 0.24 0.42 0.26 0.15 0.14 0.20 0.33 0.31 0.19 0.07 0.07 0.29 0.31 0.31 0.30 0.09 0.03 0.01 0.00 0.00 0.00 0.00 0.00 0.01 0.01 0.03 0.06 0.07 0.06 0.04 0.04 0.07 0.10 0.09 0.07 0.05 0.09 0.23 0.40
0.08 0.26 0.46 0.49 0.49 0.51 0.43 0.25 0.11 0.13 0.16 0.21 0.24 0.14 0.04 0.16 0.20 0.13 0.30 0.25 0.11 0.01 0.00 0.00 0.00 0.00 0.00 0.00 0.00 0.01 0.02 0.07 0.16 0.23 0.24 0.20 0.38 0.53 0.37 0.44 0.56 0.63 0.43 0.44
0.03 0.17 0.28 0.18 0.21 0.21 0.08 0.13 0.19 0.13 0.12 0.09 0.10 0.15 0.11 0.08 0.12 0.19 0.13 0.03 0.02 0.02 0.01 0.00 0.00 0.00 0.00 0.00 0.00 0.01 0.02 0.04 0.15 0.33 0.58 0.61 0.65 0.67 0.73 1.09 1.03 1.18 1.08 0.85
0.03 0.09 0.31 0.12 0.11 0.00 0.02 0.05 0.03 0.01 0.05 0.01 0.02 0.04 0.05 0.09 0.30 0.28 0.09 0.02 0.01 0.01 0.01 0.01 0.00 0.00 0.00 0.00 0.03 0.05 0.04 0.08 0.18 0.26 0.22 0.62 0.78 0.63 0.58 0.63 0.64 0.72 0.50 0.52
0.12 0.17 0.26 0.18 0.19 0.00 0.00 0.00 0.00 0.05 0.04 0.00 0.00 0.01 0.03 0.07 0.08 0.08 0.08 0.07 0.03 0.02 0.01 0.01 0.02 0.02 0.04 0.07 0.13 0.25 0.23 0.41 0.54 0.84 0.62 0.66 0.80 0.64 0.47 0.54 0.36 0.36 0.38 0.30
0.03 0.05 0.08 0.12 0.13 0.01 0.00 0.00 0.01 0.02 0.00 0.00 0.00 0.01 0.08 0.08 0.07 0.07 0.01 0.01 0.08 0.17 0.23 0.25 0.18 0.14 0.18 0.22 0.37 0.73 0.67 0.66 0.70 0.64 0.70 0.44 0.40 0.30 0.22 0.15 0.14 0.11 0.06 0.04
0.00 0.00 0.00 0.00 0.00 0.00 0.00 0.00 0.00 0.00 0.00 0.00 0.00 0.01 0.05 0.07 0.18 0.11 0.01 0.01 0.01 0.07 0.28 0.54 0.49 0.45 0.55 0.41 0.44 0.59 0.47 0.29 0.15 0.18 0.13 0.06 0.03 0.02 0.01 0.01 0.00 0.00 0.01 0.01
0.00 0.00 0.00 0.00 0.00 0.00 0.00 0.00 0.00 0.00 0.00 0.00 0.00 0.00 0.00 0.00 0.00 0.00 0.01 0.01 0.02 0.01 0.01 0.02 0.02 0.06 0.15 0.15 0.14 0.18 0.12 0.06 0.03 0.02 0.02 0.02 0.02 0.04 0.01 0.02 0.02 0.02 0.02 0.03
0.01 0.00 0.00 0.00 0.00 0.00 0.00 0.00 0.00 0.00 0.00 0.00 0.00 0.00 0.01 0.01 0.01 0.01 0.03 0.04 0.04 0.05 0.04 0.04 0.04 0.04 0.03 0.01 0.01 0.01 0.01 0.03 0.05 0.06 0.07 0.09 0.11 0.12 0.07 0.05 0.06 0.07 0.06 0.09
0.00 0.00 0.01 0.01 0.00 0.02 0.00 0.00 0.00 0.00 0.00 0.00 0.00 0.01 0.01 0.03 0.04 0.03 0.06 0.08 0.09 0.08 0.07 0.06 0.07 0.07 0.11 0.13 0.11 0.08 0.07 0.08 0.09 0.09 0.09 0.16 0.18 0.23 0.31 0.37 0.32 0.29 0.22 0.20

GFSCGP_prec_precacc_129.txt.gz
Total_Precipitation_Accumulation
2.14 3.44 1.55 0.66 0.29 0.17 0.27 0.15 0.13 0.23 0.39 0.55 0.65 0.83 0.65 0.38 0.25 0.08 0.07 0.13 0.24 0.27 0.39 1.12 1.62 2.05 1.61 0.90 0.86 0.87 1.20 1.44 1.30 0.95 0.80 0.78 0.63 0.59 0.38 0.36 0.52 0.35 0.50 0.53
2.24 1.72 0.65 0.56 0.41 0.21 0.47 0.28 0.26 0.42 0.42 0.34 0.41 0.66 0.66 0.44 0.29 0.10 0.05 0.07 0.12 0.24 0.55 0.84 1.07 2.09 2.75 1.81 1.19 1.18 0.99 0.86 1.26 1.39 0.92 0.99 1.00 0.99 0.73 0.64 0.50 0.52 0.62 0.74
1.79 1.26 0.79 0.89 0.54 0.33 0.29 0.18 0.29 0.62 0.61 0.35 0.19 0.32 0.46 0.35 0.12 0.06 0.04 0.04 0.06 0.16 0.46 0.87 0.81 1.00 1.40 2.19 1.62 1.38 1.92 1.31 1.04 1.66 1.63 1.49 1.83 1.67 1.28 0.77 0.55 0.72 1.02 1.31
1.80 1.16 1.09 1.15 0.60 0.24 0.16 0.15 0.56 0.50 0.59 0.51 0.26 0.28 0.27 0.30 0.22 0.07 0.02 0.03 0.06 0.13 0.33 0.67 0.95 0.79 0.77 0.97 1.47 1.20 1.68 1.60 1.39 1.56 2.20 1.97 1.59 1.56 1.36 1.39 1.40 1.59 1.70 1.95
1.72 1.27 1.56 1.20 0.61 0.23 0.19 0.19 0.45 0.62 0.78 0.82 0.32 0.60 0.30 0.23 0.30 0.20 0.06 0.08 0.15 0.27 0.37 0.40 0.63 0.94 0.90 0.68 1.25 1.36 1.43 1.46 1.31 1.41 1.65 2.27 2.14 1.49 1.21 1.32 1.36 1.34 1.41 1.64
1.29 1.55 1.48 0.84 0.69 0.35 0.30 0.42 0.66 0.96 1.14 1.29 0.68 0.74 0.54 0.39 0.49 0.38 0.17 0.14 0.31 0.44 0.46 0.53 0.65 0.63 0.54 0.49 0.79 1.26 1.03 1.10 0.99 1.22 1.17 1.56 2.23 2.12 1.64 1.36 1.28 1.25 1.41 1.43
1.94 1.66 1.17 0.84 1.13 1.01 1.31 1.56 1.84 1.62 1.53 0.93 0.57 0.75 0.69 0.63 0.38 0.49 0.39 0.33 0.61 0.94 0.86 1.01 0.81 0.63 0.50 0.31 0.66 1.02 0.94 1.06 0.91 1.13 1.27 1.09 1.51 2.04 2.07 1.91 1.84 1.66 1.51 1.56
1.68 1.96 1.43 1.10 1.31 1.86 1.40 1.19 1.34 0.86 0.60 0.37 0.25 0.52 0.80 0.62 0.44 0.46 0.44 0.89 1.27 1.64 1.32 1.52 1.83 1.43 1.05 0.78 0.91 0.90 0.75 1.09 1.11 1.08 1.15 1.24 1.25 1.24 1.26 1.40 1.47 1.56 1.56 1.54
0.77 1.05 0.69 0.65 0.67 1.08 1.05 0.98 0.70 0.87 0.34 0.44 0.44 0.41 0.48 0.53 0.59 0.84 1.09 1.58 1.39 1.29 1.04 1.27 1.43 1.08 0.83 1.25 1.45 1.06 0.86 1.07 0.96 0.91 0.84 0.98 1.20 0.99 0.81 0.93 0.91 0.94 0.94 0.98
0.38 0.86 0.80 0.74 0.83 0.90 0.63 0.39 0.61 1.23 0.63 0.40 0.30 0.36 0.81 0.85 1.22 1.41 1.68 1.40 1.24 1.35 1.04 0.78 0.54 0.36 0.47 0.61 0.60 0.85 0.75 0.49 0.46 0.57 0.38 0.60 0.74 0.83 0.77 0.78 0.68 0.59 0.56 0.55
0.45 0.71 0.86 1.04 1.02 0.79 0.66 0.65 0.52 0.58 0.31 0.22 0.14 0.63 0.87 1.27 1.27 1.08 0.95 0.88 0.65 0.36 0.17 0.08 0.03 0.03 0.03 0.03 0.06 0.15 0.26 0.25 0.29 0.32 0.26 0.35 0.49 0.39 0.38 0.46 0.51 0.50 0.41 0.42
0.38 0.56 0.77 0.62 0.21 0.17 0.28 0.28 0.20 0.78 0.40 0.27 0.21 0.41 0.22 0.28 0.38 0.32 0.16 0.06 0.02 0.01 0.00 0.01 0.01 0.01 0.01 0.01 0.01 0.01 0.01 0.02 0.02 0.03 0.07 0.14 0.22 0.25 0.20 0.19 0.16 0.13 0.11 0.15
0.29 0.74 0.79 0.77 0.52 0.49 0.65 0.35 0.28 0.62 1.13 0.62 0.31 0.16 0.01 0.01 0.02 0.01 0.01 0.03 0.01 0.00 0.00 0.00 0.00 0.00 0.00 0.00 0.02 0.04 0.04 0.02 0.01 0.01 0.02 0.04 0.06 0.07 0.07 0.07 0.06 0.06 0.05 0.05
0.66 0.61 0.75 0.75 0.74 0.79 0.55 0.31 0.49 1.00 1.36 0.39 0.17 0.03 0.01 0.01 0.03 0.02 0.03 0.04 0.06 0.02 0.01 0.00 0.00 0.00 0.00 0.01 0.05 0.05 0.04 0.02 0.05 0.05 0.05 0.06 0.06 0.07 0.08 0.08 0.06 0.07 0.07 0.07
0.73 0.94 1.21 0.74 0.38 0.93 0.53 0.29 0.37 0.87 0.61 0.58 0.18 0.07 0.02 0.01 0.04 0.10 0.09 0.11 0.06 0.03 0.01 0.00 0.01 0.01 0.01 0.01 0.03 0.04 0.07 0.08 0.08 0.11 0.11 0.09 0.07 0.05 0.05 0.06 0.05 0.05 0.06 0.07
0.47 0.79 0.96 0.56 0.17 0.33 0.34 0.15 0.20 0.19 0.31 0.41 0.17 0.22 0.05 0.02 0.12 0.29 0.17 0.22 0.11 0.06 0.02 0.01 0.01 0.00 0.00 0.00 0.01 0.02 0.06 0.10 0.16 0.15 0.10 0.07 0.06 0.06 0.07 0.06 0.06 0.08 0.09 0.11
0.28 0.45 0.78 0.63 0.37 0.24 0.42 0.26 0.15 0.14 0.20 0.33 0.31 0.19 0.07 0.07 0.29 0.31 0.31 0.30 0.09 0.03 0.01 0.00 0.00 0.00 0.00 0.00 0.01 0.01 0.03 0.06 0.07 0.06 0.04 0.04 0.07 0.10 0.09 0.07 0.05 0.09 0.23 0.40
0.08 0.26 0.46 0.49 0.49 0.51 0.43 0.25 0.11 0.13 0.16 0.21 0.24 0.14 0.04 0.16 0.20 0.13 0.30 0.25 0.11 0.01 0.00 0.00 0.00 0.00 0.00 0.00 0.00 0.01 0.02 0.07 0.16 0.23 0.24 0.20 0.38 0.53 0.37 0.44 0.56 0.63 0.43 0.44
0.03 0.17 0.28 0.18 0.21 0.21 0.08 0.13 0.19 0.13 0.12 0.09 0.10 0.15 0.11 0.08 0.12 0.19 0.13 0.03 0.02 0.02 0.01 0.00 0.00 0.00 0.00 0.00 0.00 0.01 0.02 0.04 0.15 0.33 0.58 0.61 0.65 0.67 0.73 1.09 1.03 1.18 1.08 0.85
0.03 0.09 0.31 0.12 0.11 0.00 0.02 0.05 0.03 0.01 0.05 0.01 0.02 0.04 0.05 0.09 0.30 0.28 0.09 0.02 0.01 0.01 0.01 0.01 0.00 0.00 0.00 0.00 0.03 0.05 0.04 0.08 0.18 0.26 0.22 0.62 0.78 0.63 0.58 0.63 0.64 0.72 0.50 0.52
0.12 0.17 0.26 0.18 0.19 0.00 0.00 0.00 0.00 0.05 0.04 0.00 0.00 0.01 0.03 0.07 0.08 0.08 0.08 0.07 0.03 0.02 0.01 0.01 0.02 0.02 0.04 0.07 0.13 0.25 0.23 0.41 0.54 0.84 0.62 0.66 0.80 0.64 0.47 0.54 0.36 0.36 0.38 0.30
0.03 0.05 0.08 0.12 0.13 0.01 0.00 0.00 0.01 0.02 0.00 0.00 0.00 0.01 0.08 0.08 0.07 0.07 0.01 0.01 0.08 0.17 0.23 0.25 0.18 0.14 0.18 0.22 0.37 0.73 0.67 0.66 0.70 0.64 0.70 0.44 0.40 0.30 0.22 0.15 0.14 0.11 0.06 0.04
0.00 0.00 0.00 0.00 0.00 0.00 0.00 0.00 0.00 0.00 0.00 0.00 0.00 0.01 0.05 0.07 0.18 0.11 0.01 0.01 0.01 0.07 0.28 0.54 0.49 0.45 0.55 0.41 0.44 0.59 0.47 0.29 0.15 0.18 0.13 0.06 0.03 0.02 0.01 0.01 0.00 0.00 0.01 0.01
0.00 0.00 0.00 0.00 0.00 0.00 0.00 0.00 0.00 0.00 0.00 0.00 0.00 0.00 0.00 0.00 0.00 0.00 0.01 0.01 0.02 0.01 0.01 0.02 0.02 0.06 0.15 0.15 0.14 0.18 0.12 0.06 0.03 0.02 0.02 0.02 0.02 0.04 0.01 0.02 0.02 0.02 0.02 0.03
0.01 0.00 0.00 0.00 0.00 0.00 0.00 0.00 0.00 0.00 0.00 0.00 0.00 0.00 0.01 0.01 0.01 0.01 0.03 0.04 0.04 0.05 0.04 0.04 0.04 0.04 0.03 0.01 0.01 0.01 0.01 0.03 0.05 0.06 0.07 0.09 0.11 0.12 0.07 0.05 0.06 0.07 0.06 0.09
0.00 0.00 0.01 0.01 0.00 0.02 0.00 0.00 0.00 0.00 0.00 0.00 0.00 0.01 0.01 0.03 0.04 0.03 0.06 0.08 0.09 0.08 0.07 0.06 0.07 0.07 0.11 0.13 0.11 0.08 0.07 0.08 0.09 0.09 0.09 0.16 0.18 0.23 0.31 0.37 0.32 0.29 0.22 0.20

GFSCGP_prec_precacc_132.txt.gz
Total_Precipitation_Accumulation
2.14 3.44 1.55 0.66 0.29 0.17 0.27 0.15 0.13 0.23 0.39 0.55 0.65 0.83 0.65 0.38 0.25 0.08 0.07 0.13 0.24 0.27 0.39 1.12 1.62 2.05 1.61 0.90 0.86 0.87 1.20 1.44 1.30 0.95 0.80 0.78 0.63 0.60 0.39 0.36 0.52 0.35 0.50 0.53
2.24 1.72 0.65 0.56 0.41 0.21 0.47 0.28 0.26 0.42 0.42 0.34 0.41 0.66 0.66 0.44 0.29 0.10 0.05 0.07 0.12 0.24 0.55 0.84 1.07 2.09 2.75 1.81 1.19 1.18 0.99 0.86 1.26 1.39 0.92 0.99 1.01 1.02 0.75 0.64 0.50 0.52 0.62 0.74
1.79 1.26 0.79 0.89 0.54 0.33 0.29 0.18 0.29 0.62 0.61 0.35 0.19 0.32 0.46 0.35 0.12 0.06 0.04 0.04 0.06 0.16 0.46 0.87 0.81 1.00 1.40 2.19 1.62 1.38 1.92 1.31 1.04 1.66 1.63 1.49 1.83 1.70 1.34 0.79 0.55 0.72 1.02 1.31
1.80 1.16 1.09 1.15 0.60 0.24 0.16 0.15 0.56 0.50 0.59 0.51 0.26 0.28 0.27 0.30 0.22 0.07 0.02 0.03 0.06 0.13 0.33 0.67 0.95 0.79 0.77 0.97 1.47 1.20 1.68 1.60 1.39 1.56 2.20 1.97 1.60 1.61 1.45 1.46 1.43 1.59 1.70 1.95
1.72 1.27 1.56 1.20 0.61 0.23 0.19 0.19 0.45 0.62 0.79 0.82 0.32 0.60 0.30 0.23 0.30 0.20 0.06 0.09 0.15 0.27 0.37 0.40 0.63 0.94 0.90 0.68 1.25 1.36 1.43 1.46 1.31 1.41 1.65 2.27 2.16 1.55 1.29 1.39 1.40 1.35 1.41 1.64
1.29 1.55 1.48 0.84 0.69 0.35 0.30 0.42 0.66 0.96 1.15 1.29 0.68 0.74 0.54 0.39 0.50 0.38 0.17 0.14 0.31 0.44 0.46 0.53 0.65 0.64 0.54 0.49 0.79 1.27 1.03 1.12 1.03 1.23 1.17 1.57 2.26 2.18 1.69 1.41 1.33 1.28 1.44 1.43
1.94 1.66 1.17 0.84 1.13 1.01 1.31 1.56 1.84 1.62 1.53 0.93 0.57 0.75 0.69 0.63 0.38 0.49 0.39 0.33 0.61 0.94 0.86 1.01 0.82 0.64 0.52 0.35 0.73 1.05 0.94 1.07 0.93 1.20 1.31 1.13 1.56 2.13 2.15 1.97 1.88 1.69 1.53 1.56
1.68 1.96 1.43 1.10 1.31 1.86 1.40 1.19 1.34 0.86 0.60 0.37 0.25 0.52 0.80 0.62 0.44 0.46 0.44 0.89 1.27 1.64 1.32 1.52 1.83 1.43 1.07 0.81 0.98 0.93 0.77 1.11 1.11 1.12 1.22 1.30 1.32 1.33 1.35 1.45 1.52 1.59 1.57 1.54
0.77 1.05 0.69 0.65 0.67 1.08 1.05 0.98 0.70 0.87 0.34 0.44 0.44 0.41 0.48 0.53 0.59 0.84 1.09 1.58 1.39 1.29 1.04 1.27 1.43 1.09 0.83 1.26 1.48 1.08 0.88 1.10 0.98 0.92 0.84 1.00 1.24 1.03 0.85 0.94 0.92 0.94 0.94 0.99
0.38 0.86 0.80 0.74 0.83 0.90 0.63 0.39 0.61 1.23 0.63 0.40 0.30 0.36 0.81 0.85 1.22 1.41 1.68 1.40 1.24 1.35 1.04 0.78 0.54 0.37 0.48 0.62 0.62 0.86 0.75 0.50 0.48 0.59 0.39 0.61 0.74 0.83 0.77 0.78 0.68 0.59 0.56 0.56
0.45 0.71 0.86 1.04 1.02 0.79 0.66 0.65 0.52 0.58 0.31 0.22 0.14 0.63 0.87 1.27 1.27 1.08 0.95 0.88 0.65 0.36 0.17 0.08 0.03 0.03 0.04 0.05 0.09 0.19 0.28 0.26 0.30 0.33 0.26 0.36 0.50 0.39 0.38 0.46 0.51 0.52 0.43 0.47
0.38 0.56 0.77 0.62 0.21 0.17 0.28 0.28 0.20 0.78 0.40 0.27 0.21 0.41 0.22 0.28 0.38 0.32 0.16 0.06 0.02 0.01 0.00 0.01 0.01 0.01 0.01 0.01 0.02 0.02 0.03 0.02 0.02 0.04 0.09 0.15 0.23 0.27 0.21 0.21 0.25 0.20 0.16 0.21
0.29 0.74 0.79 0.77 0.52 0.49 0.65 0.35 0.28 0.62 1.13 0.62 0.31 0.16 0.01 0.01 0.02 0.01 0.01 0.03 0.01 0.00 0.00 0.00 0.00 0.00 0.00 0.00 0.02 0.04 0.04 0.02 0.02 0.02 0.05 0.08 0.08 0.10 0.08 0.10 0.09 0.08 0.08 0.08
0.66 0.61 0.75 0.75 0.74 0.79 0.55 0.31 0.49 1.00 1.36 0.39 0.17 0.03 0.01 0.01 0.03 0.02 0.03 0.04 0.06 0.02 0.01 0.00 0.00 0.00 0.00 0.01 0.05 0.05 0.04 0.02 0.05 0.05 0.05 0.06 0.06 0.07 0.08 0.08 0.06 0.07 0.07 0.07
0.73 0.94 1.21 0.74 0.38 0.93 0.53 0.29 0.37 0.87 0.61 0.58 0.18 0.07 0.02 0.01 0.04 0.10 0.09 0.11 0.06 0.03 0.01 0.00 0.01 0.01 0.01 0.01 0.03 0.04 0.07 0.08 0.08 0.11 0.11 0.09 0.07 0.05 0.05 0.06 0.05 0.05 0.06 0.07
0.47 0.79 0.96 0.56 0.17 0.33 0.34 0.15 0.20 0.19 0.31 0.41 0.17 0.22 0.05 0.02 0.12 0.29 0.17 0.22 0.11 0.06 0.02 0.01 0.01 0.00 0.00 0.00 0.01 0.02 0.06 0.10 0.16 0.15 0.10 0.07 0.06 0.06 0.07 0.06 0.06 0.08 0.09 0.11
0.28 0.45 0.78 0.63 0.37 0.24 0.42 0.26 0.15 0.14 0.20 0.33 0.31 0.19 0.07 0.07 0.29 0.31 0.31 0.30 0.09 0.03 0.01 0.00 0.00 0.00 0.00 0.00 0.01 0.01 0.03 0.06 0.07 0.06 0.04 0.04 0.07 0.10 0.09 0.07 0.05 0.09 0.23 0.40
0.08 0.26 0.46 0.49 0.49 0.51 0.43 0.25 0.11 0.13 0.16 0.21 0.24 0.14 0.04 0.16 0.20 0.13 0.30 0.25 0.11 0.01 0.00 0.00 0.00 0.00 0.00 0.00 0.00 0.01 0.02 0.07 0.16 0.23 0.24 0.20 0.38 0.53 0.37 0.44 0.56 0.63 0.43 0.44
0.03 0.17 0.28 0.18 0.21 0.21 0.08 0.13 0.19 0.13 0.12 0.09 0.10 0.15 0.11 0.08 0.12 0.19 0.13 0.03 0.02 0.02 0.01 0.00 0.00 0.00 0.00 0.00 0.00 0.01 0.02 0.04 0.15 0.33 0.58 0.61 0.65 0.67 0.73 1.09 1.03 1.18 1.08 0.85
0.03 0.09 0.31 0.12 0.11 0.00 0.02 0.05 0.03 0.01 0.05 0.01 0.02 0.04 0.05 0.09 0.30 0.28 0.09 0.02 0.01 0.01 0.01 0.01 0.00 0.00 0.00 0.00 0.03 0.05 0.04 0.08 0.18 0.26 0.22 0.62 0.78 0.63 0.58 0.63 0.64 0.72 0.50 0.52
0.12 0.17 0.26 0.18 0.19 0.00 0.00 0.00 0.00 0.05 0.04 0.00 0.00 0.01 0.03 0.07 0.08 0.08 0.08 0.07 0.03 0.02 0.01 0.01 0.02 0.02 0.04 0.07 0.13 0.25 0.23 0.41 0.54 0.84 0.62 0.66 0.80 0.64 0.47 0.54 0.36 0.36 0.38 0.30
0.03 0.05 0.08 0.12 0.13 0.01 0.00 0.00 0.01 0.02 0.00 0.00 0.00 0.01 0.08 0.08 0.07 0.07 0.01 0.01 0.08 0.17 0.23 0.25 0.18 0.14 0.18 0.22 0.37 0.73 0.67 0.66 0.70 0.64 0.70 0.44 0.40 0.30 0.22 0.15 0.14 0.11 0.06 0.04
0.00 0.00 0.00 0.00 0.00 0.00 0.00 0.00 0.00 0.00 0.00 0.00 0.00 0.01 0.05 0.07 0.18 0.11 0.01 0.01 0.01 0.07 0.28 0.54 0.49 0.45 0.55 0.41 0.44 0.59 0.47 0.29 0.15 0.18 0.13 0.06 0.03 0.02 0.01 0.01 0.00 0.00 0.01 0.01
0.00 0.00 0.00 0.00 0.00 0.00 0.00 0.00 0.00 0.00 0.00 0.00 0.00 0.00 0.00 0.00 0.00 0.00 0.01 0.01 0.02 0.01 0.01 0.02 0.02 0.06 0.15 0.15 0.14 0.18 0.12 0.06 0.03 0.02 0.02 0.02 0.02 0.04 0.01 0.02 0.02 0.02 0.02 0.03
0.01 0.00 0.00 0.00 0.00 0.00 0.00 0.00 0.00 0.00 0.00 0.00 0.00 0.00 0.01 0.01 0.01 0.01 0.03 0.04 0.04 0.05 0.04 0.04 0.04 0.04 0.03 0.01 0.01 0.01 0.01 0.03 0.05 0.06 0.07 0.09 0.11 0.12 0.07 0.05 0.06 0.07 0.06 0.09
0.00 0.00 0.01 0.01 0.00 0.02 0.00 0.00 0.00 0.00 0.00 0.00 0.00 0.01 0.01 0.03 0.04 0.03 0.06 0.08 0.09 0.08 0.07 0.06 0.07 0.07 0.11 0.13 0.11 0.08 0.07 0.08 0.09 0.09 0.09 0.16 0.18 0.23 0.31 0.37 0.32 0.29 0.22 0.20

GFSCGP_prec_precacc_135.txt.gz
Total_Precipitation_Accumulation
2.14 3.44 1.55 0.66 0.29 0.17 0.27 0.15 0.13 0.23 0.39 0.55 0.65 0.83 0.65 0.38 0.25 0.08 0.07 0.13 0.24 0.27 0.39 1.12 1.62 2.05 1.61 0.90 0.86 0.87 1.20 1.44 1.30 0.95 0.80 0.78 0.63 0.60 0.42 0.41 0.56 0.37 0.50 0.53
2.24 1.72 0.65 0.56 0.41 0.21 0.47 0.28 0.26 0.42 0.42 0.34 0.41 0.66 0.66 0.44 0.29 0.10 0.05 0.07 0.12 0.24 0.55 0.84 1.07 2.09 2.75 1.81 1.19 1.18 0.99 0.86 1.26 1.39 0.92 0.99 1.01 1.02 0.76 0.70 0.60 0.60 0.69 0.78
1.79 1.26 0.79 0.89 0.54 0.33 0.29 0.18 0.29 0.62 0.61 0.35 0.19 0.32 0.46 0.35 0.12 0.06 0.04 0.04 0.06 0.16 0.46 0.87 0.81 1.00 1.40 2.19 1.62 1.38 1.92 1.31 1.04 1.66 1.63 1.49 1.83 1.71 1.36 0.83 0.60 0.78 1.08 1.36
1.80 1.16 1.09 1.15 0.60 0.24 0.16 0.15 0.56 0.50 0.59 0.51 0.26 0.28 0.27 0.30 0.22 0.07 0.02 0.03 0.06 0.13 0.33 0.67 0.95 0.79 0.77 0.97 1.47 1.20 1.68 1.60 1.39 1.56 2.20 1.97 1.60 1.61 1.45 1.49 1.51 1.67 1.74 2.01
1.72 1.27 1.56 1.20 0.61 0.23 0.19 0.19 0.45 0.62 0.79 0.82 0.32 0.60 0.30 0.23 0.30 0.20 0.06 0.09 0.15 0.27 0.37 0.40 0.63 0.94 0.90 0.68 1.25 1.36 1.43 1.46 1.31 1.41 1.65 2.27 2.16 1.55 1.30 1.43 1.50 1.51 1.51 1.70
1.29 1.55 1.48 0.84 0.69 0.35 0.30 0.42 0.66 0.96 1.15 1.29 0.68 0.74 0.54 0.39 0.50 0.38 0.17 0.14 0.31 0.44 0.46 0.53 0.65 0.64 0.54 0.49 0.79 1.27 1.03 1.12 1.03 1.23 1.17 1.57 2.26 2.18 1.71 1.48 1.42 1.40 1.55 1.53
1.94 1.66 1.17 0.84 1.13 1.01 1.31 1.56 1.84 1.62 1.53 0.93 0.57 0.75 0.69 0.63 0.38 0.49 0.39 0.33 0.61 0.94 0.86 1.01 0.82 0.64 0.52 0.35 0.73 1.05 0.95 1.07 0.93 1.21 1.36 1.15 1.56 2.15 2.18 2.06 2.06 1.88 1.66 1.60
1.68 1.96 1.43 1.10 1.31 1.86 1.40 1.19 1.34 0.86 0.60 0.37 0.25 0.52 0.80 0.62 0.44 0.46 0.44 0.89 1.27 1.64 1.32 1.52 1.83 1.43 1.07 0.81 0.98 0.93 0.77 1.11 1.11 1.14 1.26 1.35 1.34 1.35 1.37 1.50 1.63 1.72 1.63 1.56
0.77 1.05 0.69 0.65 0.67 1.08 1.05 0.98 0.70 0.87 0.34 0.44 0.44 0.41 0.48 0.53 0.59 0.84 1.09 1.58 1.39 1.29 1.04 1.27 1.43 1.09 0.83 1.26 1.48 1.08 0.88 1.10 1.00 0.92 0.85 1.02 1.25 1.05 0.88 1.00 0.96 0.98 0.95 0.99
0.38 0.86 0.80 0.74 0.83 0.90 0.63 0.39 0.61 1.23 0.63 0.40 0.30 0.36 0.81 0.85 1.22 1.41 1.68 1.40 1.24 1.35 1.04 0.78 0.54 0.37 0.48 0.62 0.62 0.86 0.75 0.51 0.49 0.59 0.39 0.61 0.74 0.84 0.77 0.80 0.71 0.60 0.56 0.56
0.45 0.71 0.86 1.04 1.02 0.79 0.66 0.65 0.52 0.58 0.31 0.22 0.14 0.63 0.87 1.27 1.27 1.08 0.95 0.88 0.65 0.36 0.17 0.08 0.03 0.03 0.04 0.05 0.09 0.20 0.29 0.26 0.30 0.34 0.27 0.36 0.50 0.39 0.38 0.46 0.51 0.52 0.43 0.47
0.38 0.56 0.77 0.62 0.21 0.17 0.28 0.28 0.20 0.78 0.40 0.27 0.21 0.41 0.22 0.28 0.38 0.32 0.16 0.06 0.02 0.01 0.00 0.01 0.01 0.01 0.01 0.01 0.02 0.02 0.03 0.03 0.04 0.05 0.09 0.15 0.23 0.27 0.21 0.21 0.25 0.20 0.16 0.21
0.29 0.74 0.79 0.77 0.52 0.49 0.65 0.35 0.28 0.62 1.13 0.62 0.31 0.16 0.01 0.01 0.02 0.01 0.01 0.03 0.01 0.00 0.00 0.00 0.00 0.00 0.00 0.00 0.02 0.04 0.04 0.02 0.02 0.02 0.06 0.08 0.08 0.10 0.08 0.10 0.09 0.09 0.08 0.08
0.66 0.61 0.75 0.75 0.74 0.79 0.55 0.31 0.49 1.00 1.36 0.39 0.17 0.03 0.01 0.01 0.03 0.02 0.03 0.04 0.06 0.02 0.01 0.00 0.00 0.00 0.00 0.01 0.05 0.05 0.04 0.02 0.05 0.05 0.05 0.06 0.06 0.07 0.08 0.08 0.06 0.07 0.07 0.07
0.73 0.94 1.21 0.74 0.38 0.93 0.53 0.29 0.37 0.87 0.61 0.58 0.18 0.07 0.02 0.01 0.04 0.10 0.09 0.11 0.06 0.03 0.01 0.00 0.01 0.01 0.01 0.01 0.03 0.04 0.07 0.08 0.08 0.11 0.11 0.09 0.07 0.05 0.05 0.06 0.05 0.05 0.06 0.07
0.47 0.79 0.96 0.56 0.17 0.33 0.34 0.15 0.20 0.19 0.31 0.41 0.17 0.22 0.05 0.02 0.12 0.29 0.17 0.22 0.11 0.06 0.02 0.01 0.01 0.00 0.00 0.00 0.01 0.02 0.06 0.10 0.16 0.15 0.10 0.07 0.06 0.06 0.07 0.06 0.06 0.08 0.09 0.11
0.28 0.45 0.78 0.63 0.37 0.24 0.42 0.26 0.15 0.14 0.20 0.33 0.31 0.19 0.07 0.07 0.29 0.31 0.31 0.30 0.09 0.03 0.01 0.00 0.00 0.00 0.00 0.00 0.01 0.01 0.03 0.06 0.07 0.06 0.04 0.04 0.07 0.10 0.09 0.07 0.05 0.09 0.23 0.40
0.08 0.26 0.46 0.49 0.49 0.51 0.43 0.25 0.11 0.13 0.16 0.21 0.24 0.14 0.04 0.16 0.20 0.13 0.30 0.25 0.11 0.01 0.00 0.00 0.00 0.00 0.00 0.00 0.00 0.01 0.02 0.07 0.16 0.23 0.24 0.20 0.38 0.53 0.37 0.44 0.56 0.63 0.43 0.44
0.03 0.17 0.28 0.18 0.21 0.21 0.08 0.13 0.19 0.13 0.12 0.09 0.10 0.15 0.11 0.08 0.12 0.19 0.13 0.03 0.02 0.02 0.01 0.00 0.00 0.00 0.00 0.00 0.00 0.01 0.02 0.04 0.15 0.33 0.58 0.61 0.65 0.67 0.73 1.09 1.03 1.18 1.08 0.85
0.03 0.09 0.31 0.12 0.11 0.00 0.02 0.05 0.03 0.01 0.05 0.01 0.02 0.04 0.05 0.09 0.30 0.28 0.09 0.02 0.01 0.01 0.01 0.01 0.00 0.00 0.00 0.00 0.03 0.05 0.04 0.08 0.18 0.26 0.22 0.62 0.78 0.63 0.58 0.63 0.64 0.72 0.50 0.52
0.12 0.17 0.26 0.18 0.19 0.00 0.00 0.00 0.00 0.05 0.04 0.00 0.00 0.01 0.03 0.07 0.08 0.08 0.08 0.07 0.03 0.02 0.01 0.01 0.02 0.02 0.04 0.07 0.13 0.25 0.23 0.41 0.54 0.84 0.62 0.66 0.80 0.64 0.47 0.54 0.36 0.36 0.38 0.30
0.03 0.05 0.08 0.12 0.13 0.01 0.00 0.00 0.01 0.02 0.00 0.00 0.00 0.01 0.08 0.08 0.07 0.07 0.01 0.01 0.08 0.17 0.23 0.25 0.18 0.14 0.18 0.22 0.37 0.73 0.67 0.66 0.70 0.64 0.70 0.44 0.40 0.30 0.22 0.15 0.14 0.11 0.06 0.04
0.00 0.00 0.00 0.00 0.00 0.00 0.00 0.00 0.00 0.00 0.00 0.00 0.00 0.01 0.05 0.07 0.18 0.11 0.01 0.01 0.01 0.07 0.28 0.54 0.49 0.45 0.55 0.41 0.44 0.59 0.47 0.29 0.15 0.18 0.13 0.06 0.03 0.02 0.01 0.01 0.00 0.00 0.01 0.01
0.00 0.00 0.00 0.00 0.00 0.00 0.00 0.00 0.00 0.00 0.00 0.00 0.00 0.00 0.00 0.00 0.00 0.00 0.01 0.01 0.02 0.01 0.01 0.02 0.02 0.06 0.15 0.15 0.14 0.18 0.12 0.06 0.03 0.02 0.02 0.02 0.02 0.04 0.01 0.02 0.02 0.02 0.02 0.03
0.01 0.00 0.00 0.00 0.00 0.00 0.00 0.00 0.00 0.00 0.00 0.00 0.00 0.00 0.01 0.01 0.01 0.01 0.03 0.04 0.04 0.05 0.04 0.04 0.04 0.04 0.03 0.01 0.01 0.01 0.01 0.03 0.05 0.06 0.07 0.09 0.11 0.12 0.07 0.05 0.06 0.07 0.06 0.09
0.00 0.02 0.03 0.02 0.00 0.02 0.00 0.00 0.00 0.00 0.00 0.00 0.00 0.01 0.01 0.03 0.04 0.03 0.06 0.08 0.09 0.08 0.07 0.06 0.07 0.07 0.11 0.13 0.11 0.08 0.07 0.08 0.09 0.09 0.09 0.16 0.18 0.23 0.31 0.37 0.32 0.29 0.22 0.20

GFSCGP_prec_precacc_138.txt.gz
Total_Precipitation_Accumulation
2.14 3.44 1.55 0.66 0.29 0.17 0.27 0.15 0.13 0.23 0.39 0.55 0.65 0.83 0.65 0.38 0.25 0.08 0.07 0.13 0.24 0.27 0.39 1.12 1.62 2.05 1.61 0.90 0.86 0.87 1.20 1.44 1.30 0.95 0.80 0.78 0.63 0.60 0.42 0.41 0.57 0.38 0.52 0.55
2.24 1.72 0.65 0.56 0.41 0.21 0.47 0.28 0.26 0.42 0.42 0.34 0.41 0.66 0.66 0.44 0.29 0.10 0.05 0.07 0.12 0.24 0.55 0.84 1.07 2.09 2.75 1.81 1.19 1.18 0.99 0.86 1.26 1.39 0.92 0.99 1.01 1.02 0.76 0.70 0.60 0.63 0.73 0.85
1.79 1.26 0.79 0.89 0.54 0.33 0.29 0.18 0.29 0.62 0.61 0.35 0.19 0.32 0.46 0.35 0.12 0.06 0.04 0.04 0.06 0.16 0.46 0.87 0.81 1.00 1.40 2.19 1.62 1.38 1.92 1.31 1.04 1.66 1.63 1.49 1.83 1.71 1.36 0.83 0.60 0.80 1.13 1.44
1.80 1.16 1.09 1.15 0.60 0.24 0.16 0.15 0.56 0.50 0.59 0.51 0.26 0.28 0.27 0.30 0.22 0.07 0.02 0.03 0.06 0.13 0.33 0.67 0.95 0.79 0.77 0.97 1.47 1.20 1.68 1.60 1.39 1.56 2.20 1.97 1.60 1.61 1.45 1.49 1.51 1.68 1.80 2.08
1.72 1.27 1.56 1.20 0.61 0.23 0.19 0.19 0.45 0.62 0.79 0.82 0.32 0.60 0.30 0.23 0.30 0.20 0.06 0.09 0.15 0.27 0.37 0.40 0.63 0.94 0.90 0.68 1.25 1.36 1.43 1.46 1.31 1.41 1.65 2.27 2.16 1.55 1.30 1.43 1.50 1.55 1.61 1.81
1.29 1.55 1.48 0.84 0.69 0.35 0.30 0.42 0.66 0.96 1.15 1.29 0.68 0.74 0.54 0.39 0.50 0.38 0.17 0.14 0.31 0.44 0.46 0.53 0.65 0.64 0.54 0.49 0.79 1.27 1.03 1.12 1.03 1.23 1.18 1.59 2.26 2.18 1.71 1.48 1.42 1.43 1.69 1.69
1.94 1.66 1.17 0.84 1.13 1.01 1.31 1.56 1.84 1.62 1.53 0.93 0.57 0.75 0.69 0.63 0.38 0.49 0.39 0.33 0.61 0.94 0.86 1.01 0.82 0.64 0.52 0.35 0.73 1.05 0.95 1.07 0.93 1.21 1.36 1.15 1.56 2.15 2.18 2.06 2.06 1.90 1.74 1.68
1.68 1.96 1.43 1.10 1.31 1.86 1.40 1.19 1.34 0.86 0.60 0.37 0.25 0.52 0.80 0.62 0.44 0.46 0.44 0.89 1.27 1.64 1.32 1.52 1.83 1.43 1.07 0.81 0.98 0.93 0.77 1.11 1.11 1.14 1.26 1.35 1.34 1.36 1.37 1.50 1.63 1.74 1.84 1.72
0.77 1.05 0.69 0.65 0.67 1.08 1.05 0.98 0.70 0.87 0.34 0.44 0.44 0.41 0.48 0.53 0.59 0.84 1.09 1.58 1.39 1.29 1.04 1.27 1.43 1.09 0.83 1.26 1.48 1.08 0.88 1.10 1.00 0.92 0.85 1.02 1.26 1.06 0.88 1.00 0.97 0.98 1.06 1.29
0.38 0.86 0.80 0.74 0.83 0.90 0.63 0.39 0.61 1.23 0.63 0.40 0.30 0.36 0.81 0.85 1.22 1.41 1.68 1.40 1.24 1.35 1.04 0.78 0.54 0.37 0.48 0.62 0.62 0.86 0.75 0.51 0.49 0.60 0.39 0.61 0.75 0.84 0.77 0.80 0.72 0.61 0.57 0.59
0.45 0.71 0.86 1.04 1.02 0.79 0.66 0.65 0.52 0.58 0.31 0.22 0.14 0.63 0.87 1.27 1.27 1.08 0.95 0.88 0.65 0.36 0.17 0.08 0.03 0.03 0.04 0.05 0.09 0.20 0.29 0.26 0.30 0.34 0.27 0.36 0.50 0.39 0.38 0.46 0.51 0.52 0.43 0.47
0.38 0.56 0.77 0.62 0.21 0.17 0.28 0.28 0.20 0.78 0.40 0.27 0.21 0.41 0.22 0.28 0.38 0.32 0.16 0.06 0.02 0.01 0.00 0.01 0.01 0.01 0.01 0.01 0.02 0.02 0.03 0.03 0.04 0.05 0.09 0.15 0.24 0.27 0.21 0.21 0.25 0.20 0.16 0.21
0.29 0.74 0.79 0.77 0.52 0.49 0.65 0.35 0.28 0.62 1.13 0.62 0.31 0.16 0.01 0.01 0.02 0.01 0.01 0.03 0.01 0.00 0.00 0.00 0.00 0.00 0.00 0.00 0.02 0.04 0.04 0.02 0.02 0.02 0.06 0.08 0.08 0.10 0.08 0.10 0.09 0.09 0.08 0.08
0.66 0.61 0.75 0.75 0.74 0.79 0.55 0.31 0.49 1.00 1.36 0.39 0.17 0.03 0.01 0.01 0.03 0.02 0.03 0.04 0.06 0.02 0.01 0.00 0.00 0.00 0.00 0.01 0.05 0.05 0.04 0.02 0.05 0.05 0.05 0.06 0.06 0.07 0.08 0.08 0.06 0.07 0.07 0.07
0.73 0.94 1.21 0.74 0.38 0.93 0.53 0.29 0.37 0.87 0.61 0.58 0.18 0.07 0.02 0.01 0.04 0.10 0.09 0.11 0.06 0.03 0.01 0.00 0.01 0.01 0.01 0.01 0.03 0.04 0.07 0.08 0.08 0.11 0.11 0.09 0.07 0.05 0.05 0.06 0.05 0.05 0.06 0.07
0.47 0.79 0.96 0.56 0.17 0.33 0.34 0.15 0.20 0.19 0.31 0.41 0.17 0.22 0.05 0.02 0.12 0.29 0.17 0.22 0.11 0.06 0.02 0.01 0.01 0.00 0.00 0.00 0.01 0.02 0.06 0.10 0.16 0.15 0.10 0.07 0.06 0.06 0.07 0.06 0.06 0.08 0.09 0.11
0.28 0.45 0.78 0.63 0.37 0.24 0.42 0.26 0.15 0.14 0.20 0.33 0.31 0.19 0.07 0.07 0.29 0.31 0.31 0.30 0.09 0.03 0.01 0.00 0.00 0.00 0.00 0.00 0.01 0.01 0.03 0.06 0.07 0.06 0.04 0.04 0.07 0.10 0.09 0.07 0.05 0.09 0.23 0.40
0.08 0.26 0.46 0.49 0.49 0.51 0.43 0.25 0.11 0.13 0.16 0.21 0.24 0.14 0.04 0.16 0.20 0.13 0.30 0.25 0.11 0.01 0.00 0.00 0.00 0.00 0.00 0.00 0.00 0.01 0.02 0.07 0.16 0.23 0.24 0.20 0.38 0.53 0.37 0.44 0.56 0.63 0.43 0.44
0.03 0.17 0.28 0.18 0.21 0.21 0.08 0.13 0.19 0.13 0.12 0.09 0.10 0.15 0.11 0.08 0.12 0.19 0.13 0.03 0.02 0.02 0.01 0.00 0.00 0.00 0.00 0.00 0.00 0.01 0.02 0.04 0.15 0.33 0.58 0.61 0.65 0.67 0.73 1.09 1.03 1.18 1.08 0.85
0.03 0.09 0.31 0.12 0.11 0.00 0.02 0.05 0.03 0.01 0.05 0.01 0.02 0.04 0.05 0.09 0.30 0.28 0.09 0.02 0.01 0.01 0.01 0.01 0.00 0.00 0.00 0.00 0.03 0.05 0.04 0.08 0.18 0.26 0.22 0.62 0.78 0.63 0.58 0.63 0.64 0.72 0.50 0.52
0.12 0.17 0.26 0.18 0.19 0.00 0.00 0.00 0.00 0.05 0.04 0.00 0.00 0.01 0.03 0.07 0.08 0.08 0.08 0.07 0.03 0.02 0.01 0.01 0.02 0.02 0.04 0.07 0.13 0.25 0.23 0.41 0.54 0.84 0.62 0.66 0.80 0.64 0.47 0.54 0.36 0.36 0.38 0.30
0.03 0.05 0.08 0.12 0.13 0.01 0.00 0.00 0.01 0.02 0.00 0.00 0.00 0.01 0.08 0.08 0.07 0.07 0.01 0.01 0.08 0.17 0.23 0.25 0.18 0.14 0.18 0.22 0.37 0.73 0.67 0.66 0.70 0.64 0.70 0.44 0.40 0.30 0.22 0.15 0.14 0.11 0.06 0.04
0.00 0.00 0.00 0.00 0.00 0.00 0.00 0.00 0.00 0.00 0.00 0.00 0.00 0.01 0.05 0.07 0.18 0.11 0.01 0.01 0.01 0.07 0.28 0.54 0.49 0.45 0.55 0.41 0.44 0.59 0.47 0.29 0.15 0.18 0.13 0.06 0.03 0.02 0.01 0.01 0.00 0.00 0.01 0.01
0.00 0.00 0.00 0.00 0.00 0.00 0.00 0.00 0.00 0.00 0.00 0.00 0.00 0.00 0.00 0.00 0.00 0.00 0.01 0.01 0.02 0.01 0.01 0.02 0.02 0.06 0.15 0.15 0.14 0.18 0.12 0.06 0.03 0.02 0.02 0.02 0.02 0.04 0.01 0.02 0.02 0.02 0.02 0.03
0.01 0.02 0.05 0.02 0.00 0.00 0.00 0.00 0.00 0.00 0.00 0.00 0.00 0.00 0.01 0.01 0.01 0.01 0.03 0.04 0.04 0.05 0.04 0.04 0.04 0.04 0.03 0.01 0.01 0.01 0.01 0.03 0.05 0.06 0.07 0.09 0.11 0.12 0.07 0.05 0.06 0.07 0.06 0.09
0.00 0.04 0.08 0.03 0.00 0.02 0.00 0.00 0.00 0.00 0.00 0.00 0.00 0.01 0.01 0.03 0.04 0.03 0.06 0.08 0.09 0.08 0.07 0.06 0.07 0.07 0.11 0.13 0.11 0.08 0.07 0.08 0.09 0.09 0.09 0.16 0.18 0.23 0.31 0.37 0.32 0.29 0.22 0.20

GFSCGP_prec_precacc_141.txt.gz
Total_Precipitation_Accumulation
2.14 3.44 1.55 0.66 0.29 0.17 0.27 0.15 0.13 0.23 0.39 0.55 0.65 0.83 0.65 0.38 0.25 0.08 0.07 0.13 0.24 0.27 0.39 1.12 1.62 2.05 1.61 0.90 0.86 0.87 1.20 1.44 1.30 0.95 0.80 0.78 0.63 0.60 0.42 0.41 0.57 0.38 0.52 0.55
2.24 1.72 0.65 0.56 0.41 0.21 0.47 0.28 0.26 0.42 0.42 0.34 0.41 0.66 0.66 0.44 0.29 0.10 0.05 0.07 0.12 0.24 0.55 0.84 1.07 2.09 2.75 1.81 1.19 1.18 0.99 0.86 1.26 1.39 0.92 0.99 1.01 1.02 0.76 0.70 0.60 0.63 0.73 0.85
1.79 1.26 0.79 0.89 0.54 0.33 0.29 0.18 0.29 0.62 0.61 0.35 0.19 0.32 0.46 0.35 0.12 0.06 0.04 0.04 0.06 0.16 0.46 0.87 0.81 1.00 1.40 2.19 1.62 1.38 1.92 1.31 1.04 1.66 1.63 1.49 1.83 1.71 1.36 0.83 0.60 0.80 1.13 1.44
1.80 1.16 1.09 1.15 0.60 0.24 0.16 0.15 0.56 0.50 0.59 0.51 0.26 0.28 0.27 0.30 0.22 0.07 0.02 0.03 0.06 0.13 0.33 0.67 0.95 0.79 0.77 0.97 1.47 1.20 1.68 1.60 1.39 1.56 2.20 1.97 1.60 1.61 1.45 1.49 1.51 1.68 1.80 2.09
1.72 1.27 1.56 1.20 0.61 0.23 0.19 0.19 0.45 0.62 0.79 0.82 0.32 0.60 0.30 0.23 0.30 0.20 0.06 0.09 0.15 0.27 0.37 0.40 0.63 0.94 0.90 0.68 1.25 1.36 1.43 1.46 1.31 1.41 1.65 2.27 2.16 1.55 1.30 1.43 1.50 1.55 1.61 1.82
1.29 1.55 1.48 0.84 0.69 0.35 0.30 0.42 0.66 0.96 1.15 1.29 0.68 0.74 0.54 0.39 0.50 0.38 0.17 0.14 0.31 0.44 0.46 0.53 0.65 0.64 0.54 0.49 0.79 1.27 1.03 1.12 1.03 1.23 1.18 1.60 2.30 2.21 1.71 1.48 1.42 1.43 1.70 1.70
1.94 1.66 1.17 0.84 1.13 1.01 1.31 1.56 1.84 1.62 1.53 0.93 0.57 0.75 0.69 0.63 0.38 0.49 0.39 0.33 0.61 0.94 0.86 1.01 0.82 0.64 0.52 0.35 0.73 1.05 0.95 1.07 0.93 1.21 1.36 1.16 1.57 2.17 2.19 2.06 2.06 1.91 1.74 1.68
1.68 1.96 1.43 1.10 1.31 1.86 1.40 1.19 1.34 0.86 0.60 0.37 0.25 0.52 0.80 0.62 0.44 0.46 0.44 0.89 1.27 1.64 1.32 1.52 1.83 1.43 1.07 0.81 0.98 0.93 0.77 1.11 1.11 1.14 1.26 1.35 1.35 1.36 1.38 1.51 1.63 1.74 1.84 1.72
0.77 1.05 0.69 0.65 0.67 1.08 1.05 0.98 0.70 0.87 0.34 0.44 0.44 0.41 0.48 0.53 0.59 0.84 1.09 1.58 1.39 1.29 1.04 1.27 1.43 1.09 0.83 1.26 1.48 1.08 0.88 1.10 1.00 0.92 0.85 1.02 1.26 1.06 0.89 1.00 0.97 0.99 1.06 1.29
0.38 0.86 0.80 0.74 0.83 0.90 0.63 0.39 0.61 1.23 0.63 0.40 0.30 0.36 0.81 0.85 1.22 1.41 1.68 1.40 1.24 1.35 1.04 0.78 0.54 0.37 0.48 0.62 0.62 0.86 0.75 0.51 0.49 0.60 0.39 0.61 0.75 0.84 0.78 0.81 0.73 0.62 0.57 0.59
0.45 0.71 0.86 1.04 1.02 0.79 0.66 0.65 0.52 0.58 0.31 0.22 0.14 0.63 0.87 1.27 1.27 1.08 0.95 0.88 0.65 0.36 0.17 0.08 0.03 0.03 0.04 0.05 0.09 0.20 0.29 0.26 0.30 0.34 0.27 0.36 0.50 0.39 0.39 0.47 0.52 0.53 0.43 0.47
0.38 0.56 0.77 0.62 0.21 0.17 0.28 0.28 0.20 0.78 0.40 0.27 0.21 0.41 0.22 0.28 0.38 0.32 0.16 0.06 0.02 0.01 0.00 0.01 0.01 0.01 0.01 0.01 0.02 0.02 0.03 0.03 0.04 0.05 0.09 0.15 0.24 0.27 0.21 0.21 0.25 0.20 0.16 0.21
0.29 0.74 0.79 0.77 0.52 0.49 0.65 0.35 0.28 0.62 1.13 0.62 0.31 0.16 0.01 0.01 0.02 0.01 0.01 0.03 0.01 0.00 0.00 0.00 0.00 0.00 0.00 0.00 0.02 0.04 0.04 0.02 0.02 0.02 0.06 0.08 0.08 0.10 0.08 0.10 0.09 0.09 0.08 0.08
0.66 0.61 0.75 0.75 0.74 0.79 0.55 0.31 0.49 1.00 1.36 0.39 0.17 0.03 0.01 0.01 0.03 0.02 0.03 0.04 0.06 0.02 0.01 0.00 0.00 0.00 0.00 0.01 0.05 0.05 0.04 0.02 0.05 0.05 0.05 0.06 0.06 0.07 0.08 0.08 0.06 0.07 0.07 0.07
0.73 0.94 1.21 0.74 0.38 0.93 0.53 0.29 0.37 0.87 0.61 0.58 0.18 0.07 0.02 0.01 0.04 0.10 0.09 0.11 0.06 0.03 0.01 0.00 0.01 0.01 0.01 0.01 0.03 0.04 0.07 0.08 0.08 0.11 0.11 0.09 0.07 0.05 0.05 0.06 0.05 0.05 0.06 0.07
0.47 0.79 0.96 0.56 0.17 0.33 0.34 0.15 0.20 0.19 0.31 0.41 0.17 0.22 0.05 0.02 0.12 0.29 0.17 0.22 0.11 0.06 0.02 0.01 0.01 0.00 0.00 0.00 0.01 0.02 0.06 0.10 0.16 0.15 0.10 0.07 0.06 0.06 0.07 0.06 0.06 0.08 0.09 0.11
0.28 0.45 0.78 0.63 0.37 0.24 0.42 0.26 0.15 0.14 0.20 0.33 0.31 0.19 0.07 0.07 0.29 0.31 0.31 0.30 0.09 0.03 0.01 0.00 0.00 0.00 0.00 0.00 0.01 0.01 0.03 0.06 0.07 0.06 0.04 0.04 0.07 0.10 0.09 0.07 0.05 0.09 0.23 0.40
0.08 0.26 0.46 0.49 0.49 0.51 0.43 0.25 0.11 0.13 0.16 0.21 0.24 0.14 0.04 0.16 0.20 0.13 0.30 0.25 0.11 0.01 0.00 0.00 0.00 0.00 0.00 0.00 0.00 0.01 0.02 0.07 0.16 0.23 0.24 0.20 0.38 0.53 0.37 0.44 0.56 0.63 0.43 0.44
0.03 0.17 0.28 0.18 0.21 0.21 0.08 0.13 0.19 0.13 0.12 0.09 0.10 0.15 0.11 0.08 0.12 0.19 0.13 0.03 0.02 0.02 0.01 0.00 0.00 0.00 0.00 0.00 0.00 0.01 0.02 0.04 0.15 0.33 0.58 0.61 0.65 0.67 0.73 1.09 1.03 1.18 1.08 0.85
0.03 0.09 0.31 0.12 0.11 0.00 0.02 0.05 0.03 0.01 0.05 0.01 0.02 0.04 0.05 0.09 0.30 0.28 0.09 0.02 0.01 0.01 0.01 0.01 0.00 0.00 0.00 0.00 0.03 0.05 0.04 0.08 0.18 0.26 0.22 0.62 0.78 0.63 0.58 0.63 0.64 0.72 0.50 0.52
0.12 0.17 0.26 0.18 0.19 0.00 0.00 0.00 0.00 0.05 0.04 0.00 0.00 0.01 0.03 0.07 0.08 0.08 0.08 0.07 0.03 0.02 0.01 0.01 0.02 0.02 0.04 0.07 0.13 0.25 0.23 0.41 0.54 0.84 0.62 0.66 0.80 0.64 0.47 0.54 0.36 0.36 0.38 0.30
0.03 0.05 0.08 0.12 0.13 0.01 0.00 0.00 0.01 0.02 0.00 0.00 0.00 0.01 0.08 0.08 0.07 0.07 0.01 0.01 0.08 0.17 0.23 0.25 0.18 0.14 0.18 0.22 0.37 0.73 0.67 0.66 0.70 0.64 0.70 0.44 0.40 0.30 0.22 0.15 0.14 0.11 0.06 0.04
0.00 0.00 0.00 0.00 0.00 0.00 0.00 0.00 0.00 0.00 0.00 0.00 0.00 0.01 0.05 0.07 0.18 0.11 0.01 0.01 0.01 0.07 0.28 0.54 0.49 0.45 0.55 0.41 0.44 0.59 0.47 0.29 0.15 0.18 0.13 0.06 0.03 0.02 0.01 0.01 0.00 0.00 0.01 0.01
0.00 0.00 0.00 0.00 0.00 0.00 0.00 0.00 0.00 0.00 0.00 0.00 0.00 0.00 0.00 0.00 0.00 0.00 0.01 0.01 0.02 0.01 0.01 0.02 0.02 0.06 0.15 0.15 0.14 0.18 0.12 0.06 0.03 0.02 0.02 0.02 0.02 0.04 0.01 0.02 0.02 0.02 0.02 0.03
0.01 0.02 0.05 0.02 0.00 0.00 0.00 0.00 0.00 0.00 0.00 0.00 0.00 0.00 0.01 0.01 0.01 0.01 0.03 0.04 0.04 0.05 0.04 0.04 0.04 0.04 0.03 0.01 0.01 0.01 0.01 0.03 0.05 0.06 0.07 0.09 0.11 0.12 0.07 0.05 0.06 0.07 0.06 0.09
0.00 0.04 0.08 0.03 0.00 0.02 0.00 0.00 0.00 0.00 0.00 0.00 0.00 0.01 0.01 0.03 0.04 0.03 0.06 0.08 0.09 0.08 0.07 0.06 0.07 0.07 0.11 0.13 0.11 0.08 0.07 0.08 0.09 0.09 0.09 0.16 0.18 0.23 0.31 0.37 0.32 0.29 0.22 0.20